<?xml version="1.0" encoding="UTF-8" standalone="no" ?>
<gpx xmlns="http://www.topografix.com/GPX/1/1" xmlns:xsi="http://www.w3.org/2001/XMLSchema-instance" xsi:schemaLocation="http://www.topografix.com/GPX/1/1 http://www.topografix.com/GPX/1/1/gpx.xsd" version="1.1" creator="VisuGPX - https://www.visugpx.com">
  <metadata>
    <name>Edirne-Mostar</name>
  </metadata>
  <trk>
    <name><![CDATA[Tour d'Europe: étape 612]]></name>
    <extensions>
      <line xmlns="http://www.topografix.com/GPX/gpx_style/0/2">
        <color>000088</color>
        <width>4</width>
      </line>
    </extensions>
    <trkseg>
      <trkpt lat="41.93396" lon="25.55768">
        <ele>219.911504</ele>
        <time>2022-03-02T07:58:54.918Z</time>
      </trkpt>
      <trkpt lat="41.93378" lon="25.55762">
        <ele>219.911504</ele>
        <time>2022-03-02T08:01:28.879Z</time>
      </trkpt>
      <trkpt lat="41.93359" lon="25.55765">
        <ele>219.911504</ele>
        <time>2022-03-02T08:01:35.886Z</time>
      </trkpt>
      <trkpt lat="41.93353" lon="25.55752">
        <ele>219.911504</ele>
        <time>2022-03-02T08:01:44.911Z</time>
      </trkpt>
      <trkpt lat="41.93347" lon="25.55741">
        <ele>219.911504</ele>
        <time>2022-03-02T08:01:48.896Z</time>
      </trkpt>
      <trkpt lat="41.93337" lon="25.55737">
        <ele>219.911504</ele>
        <time>2022-03-02T08:01:54.895Z</time>
      </trkpt>
      <trkpt lat="41.93328" lon="25.55731">
        <ele>219.911504</ele>
        <time>2022-03-02T08:01:59.885Z</time>
      </trkpt>
      <trkpt lat="41.93318" lon="25.55735">
        <ele>219.911504</ele>
        <time>2022-03-02T08:02:03.873Z</time>
      </trkpt>
      <trkpt lat="41.93308" lon="25.55733">
        <ele>221.10974</ele>
        <time>2022-03-02T08:02:14.885Z</time>
      </trkpt>
      <trkpt lat="41.93295" lon="25.55719">
        <ele>223.180722</ele>
        <time>2022-03-02T08:04:55.891Z</time>
      </trkpt>
      <trkpt lat="41.93293" lon="25.55706">
        <ele>224.344761</ele>
        <time>2022-03-02T08:04:58.937Z</time>
      </trkpt>
      <trkpt lat="41.93291" lon="25.55693">
        <ele>225.523052</ele>
        <time>2022-03-02T08:05:01.893Z</time>
      </trkpt>
      <trkpt lat="41.93289" lon="25.55681">
        <ele>226.672453</ele>
        <time>2022-03-02T08:05:04.890Z</time>
      </trkpt>
      <trkpt lat="41.93287" lon="25.55665">
        <ele>228.06642</ele>
        <time>2022-03-02T08:05:08.914Z</time>
      </trkpt>
      <trkpt lat="41.93284" lon="25.55652">
        <ele>229.314283</ele>
        <time>2022-03-02T08:05:12.887Z</time>
      </trkpt>
      <trkpt lat="41.93279" lon="25.5564">
        <ele>230.555561</ele>
        <time>2022-03-02T08:05:16.923Z</time>
      </trkpt>
      <trkpt lat="41.93276" lon="25.55628">
        <ele>231.69368</ele>
        <time>2022-03-02T08:05:20.886Z</time>
      </trkpt>
      <trkpt lat="41.93273" lon="25.55613">
        <ele>233.061409</ele>
        <time>2022-03-02T08:05:24.887Z</time>
      </trkpt>
      <trkpt lat="41.9327" lon="25.556">
        <ele>234.337239</ele>
        <time>2022-03-02T08:05:29.910Z</time>
      </trkpt>
      <trkpt lat="41.93271" lon="25.55586">
        <ele>235.607471</ele>
        <time>2022-03-02T08:05:34.894Z</time>
      </trkpt>
      <trkpt lat="41.93272" lon="25.55572">
        <ele>236.836621</ele>
        <time>2022-03-02T08:05:39.892Z</time>
      </trkpt>
      <trkpt lat="41.93268" lon="25.55561">
        <ele>237.932928</ele>
        <time>2022-03-02T08:05:42.907Z</time>
      </trkpt>
      <trkpt lat="41.93267" lon="25.55548">
        <ele>239.146664</ele>
        <time>2022-03-02T08:05:45.884Z</time>
      </trkpt>
      <trkpt lat="41.93276" lon="25.55537">
        <ele>240.620807</ele>
        <time>2022-03-02T08:05:49.919Z</time>
      </trkpt>
      <trkpt lat="41.93282" lon="25.55525">
        <ele>241.630618</ele>
        <time>2022-03-02T08:05:53.883Z</time>
      </trkpt>
      <trkpt lat="41.93286" lon="25.55512">
        <ele>241.50773</ele>
        <time>2022-03-02T08:05:57.959Z</time>
      </trkpt>
      <trkpt lat="41.93293" lon="25.55499">
        <ele>241.371717</ele>
        <time>2022-03-02T08:06:01.898Z</time>
      </trkpt>
      <trkpt lat="41.93296" lon="25.55485">
        <ele>241.23903</ele>
        <time>2022-03-02T08:06:05.945Z</time>
      </trkpt>
      <trkpt lat="41.93294" lon="25.5547">
        <ele>241.106739</ele>
        <time>2022-03-02T08:06:09.892Z</time>
      </trkpt>
      <trkpt lat="41.93288" lon="25.55459">
        <ele>240.990723</ele>
        <time>2022-03-02T08:06:12.906Z</time>
      </trkpt>
      <trkpt lat="41.93279" lon="25.55451">
        <ele>240.861701</ele>
        <time>2022-03-02T08:06:16.935Z</time>
      </trkpt>
      <trkpt lat="41.93269" lon="25.55444">
        <ele>240.725577</ele>
        <time>2022-03-02T08:06:20.920Z</time>
      </trkpt>
      <trkpt lat="41.93263" lon="25.55432">
        <ele>240.596728</ele>
        <time>2022-03-02T08:06:24.898Z</time>
      </trkpt>
      <trkpt lat="41.93264" lon="25.55416">
        <ele>240.459079</ele>
        <time>2022-03-02T08:06:27.870Z</time>
      </trkpt>
      <trkpt lat="41.93262" lon="25.55404">
        <ele>240.347762</ele>
        <time>2022-03-02T08:06:30.944Z</time>
      </trkpt>
      <trkpt lat="41.93263" lon="25.55391">
        <ele>240.237076</ele>
        <time>2022-03-02T08:06:35.894Z</time>
      </trkpt>
      <trkpt lat="41.93262" lon="25.55379">
        <ele>240.124446</ele>
        <time>2022-03-02T08:06:44.912Z</time>
      </trkpt>
      <trkpt lat="41.93265" lon="25.55363">
        <ele>239.98727</ele>
        <time>2022-03-02T08:06:48.897Z</time>
      </trkpt>
      <trkpt lat="41.93272" lon="25.55352">
        <ele>239.857599</ele>
        <time>2022-03-02T08:06:52.894Z</time>
      </trkpt>
      <trkpt lat="41.93279" lon="25.55341">
        <ele>239.736584</ele>
        <time>2022-03-02T08:06:56.880Z</time>
      </trkpt>
      <trkpt lat="41.93288" lon="25.55338">
        <ele>239.619455</ele>
        <time>2022-03-02T08:06:59.898Z</time>
      </trkpt>
      <trkpt lat="41.93299" lon="25.55331">
        <ele>239.313727</ele>
        <time>2022-03-02T08:07:02.924Z</time>
      </trkpt>
      <trkpt lat="41.93308" lon="25.55322">
        <ele>238.775074</ele>
        <time>2022-03-02T08:07:05.919Z</time>
      </trkpt>
      <trkpt lat="41.93317" lon="25.55311">
        <ele>238.231204</ele>
        <time>2022-03-02T08:07:08.873Z</time>
      </trkpt>
      <trkpt lat="41.93328" lon="25.55301">
        <ele>237.609657</ele>
        <time>2022-03-02T08:07:11.932Z</time>
      </trkpt>
      <trkpt lat="41.93336" lon="25.55292">
        <ele>237.097843</ele>
        <time>2022-03-02T08:07:13.900Z</time>
      </trkpt>
      <trkpt lat="41.93345" lon="25.55281">
        <ele>236.56786</ele>
        <time>2022-03-02T08:07:15.974Z</time>
      </trkpt>
      <trkpt lat="41.93352" lon="25.5527">
        <ele>236.040901</ele>
        <time>2022-03-02T08:07:17.895Z</time>
      </trkpt>
      <trkpt lat="41.93358" lon="25.55259">
        <ele>235.582428</ele>
        <time>2022-03-02T08:07:19.899Z</time>
      </trkpt>
      <trkpt lat="41.93363" lon="25.55248">
        <ele>235.131589</ele>
        <time>2022-03-02T08:07:21.918Z</time>
      </trkpt>
      <trkpt lat="41.93367" lon="25.55237">
        <ele>234.692059</ele>
        <time>2022-03-02T08:07:23.894Z</time>
      </trkpt>
      <trkpt lat="41.93372" lon="25.55226">
        <ele>234.26988</ele>
        <time>2022-03-02T08:07:25.892Z</time>
      </trkpt>
      <trkpt lat="41.93376" lon="25.55215">
        <ele>233.829536</ele>
        <time>2022-03-02T08:07:27.903Z</time>
      </trkpt>
      <trkpt lat="41.93379" lon="25.55203">
        <ele>233.394752</ele>
        <time>2022-03-02T08:07:29.895Z</time>
      </trkpt>
      <trkpt lat="41.93383" lon="25.55192">
        <ele>232.961867</ele>
        <time>2022-03-02T08:07:31.911Z</time>
      </trkpt>
      <trkpt lat="41.93389" lon="25.55175">
        <ele>232.344635</ele>
        <time>2022-03-02T08:07:34.932Z</time>
      </trkpt>
      <trkpt lat="41.93393" lon="25.55164">
        <ele>231.913728</ele>
        <time>2022-03-02T08:07:36.888Z</time>
      </trkpt>
      <trkpt lat="41.93397" lon="25.55152">
        <ele>231.458106</ele>
        <time>2022-03-02T08:07:38.871Z</time>
      </trkpt>
      <trkpt lat="41.93402" lon="25.5514">
        <ele>231.322906</ele>
        <time>2022-03-02T08:07:40.940Z</time>
      </trkpt>
      <trkpt lat="41.93406" lon="25.55129">
        <ele>231.681575</ele>
        <time>2022-03-02T08:07:42.902Z</time>
      </trkpt>
      <trkpt lat="41.9341" lon="25.55118">
        <ele>232.021941</ele>
        <time>2022-03-02T08:07:44.890Z</time>
      </trkpt>
      <trkpt lat="41.93414" lon="25.55106">
        <ele>232.37853</ele>
        <time>2022-03-02T08:07:46.894Z</time>
      </trkpt>
      <trkpt lat="41.93417" lon="25.55094">
        <ele>232.748111</ele>
        <time>2022-03-02T08:07:48.877Z</time>
      </trkpt>
      <trkpt lat="41.93421" lon="25.55081">
        <ele>233.111263</ele>
        <time>2022-03-02T08:07:50.947Z</time>
      </trkpt>
      <trkpt lat="41.93424" lon="25.5507">
        <ele>233.465261</ele>
        <time>2022-03-02T08:07:52.895Z</time>
      </trkpt>
      <trkpt lat="41.93428" lon="25.55058">
        <ele>233.82982</ele>
        <time>2022-03-02T08:07:54.883Z</time>
      </trkpt>
      <trkpt lat="41.9343" lon="25.55045">
        <ele>234.19151</ele>
        <time>2022-03-02T08:07:56.895Z</time>
      </trkpt>
      <trkpt lat="41.93433" lon="25.55029">
        <ele>234.664841</ele>
        <time>2022-03-02T08:07:59.898Z</time>
      </trkpt>
      <trkpt lat="41.93437" lon="25.55012">
        <ele>235.130973</ele>
        <time>2022-03-02T08:08:02.884Z</time>
      </trkpt>
      <trkpt lat="41.93439" lon="25.54999">
        <ele>235.511825</ele>
        <time>2022-03-02T08:08:04.886Z</time>
      </trkpt>
      <trkpt lat="41.9344" lon="25.54985">
        <ele>235.904993</ele>
        <time>2022-03-02T08:08:06.897Z</time>
      </trkpt>
      <trkpt lat="41.93442" lon="25.54971">
        <ele>236.295416</ele>
        <time>2022-03-02T08:08:08.898Z</time>
      </trkpt>
      <trkpt lat="41.93443" lon="25.54958">
        <ele>236.653362</ele>
        <time>2022-03-02T08:08:10.900Z</time>
      </trkpt>
      <trkpt lat="41.93442" lon="25.54945">
        <ele>237.026269</ele>
        <time>2022-03-02T08:08:12.913Z</time>
      </trkpt>
      <trkpt lat="41.93441" lon="25.54932">
        <ele>237.389029</ele>
        <time>2022-03-02T08:08:14.869Z</time>
      </trkpt>
      <trkpt lat="41.93439" lon="25.54919">
        <ele>237.760952</ele>
        <time>2022-03-02T08:08:16.879Z</time>
      </trkpt>
      <trkpt lat="41.93437" lon="25.54907">
        <ele>237.949463</ele>
        <time>2022-03-02T08:08:18.899Z</time>
      </trkpt>
      <trkpt lat="41.93435" lon="25.5489">
        <ele>238.042969</ele>
        <time>2022-03-02T08:08:21.893Z</time>
      </trkpt>
      <trkpt lat="41.93434" lon="25.54872">
        <ele>238.14146</ele>
        <time>2022-03-02T08:08:24.918Z</time>
      </trkpt>
      <trkpt lat="41.93434" lon="25.54855">
        <ele>238.232527</ele>
        <time>2022-03-02T08:08:27.982Z</time>
      </trkpt>
      <trkpt lat="41.93433" lon="25.54838">
        <ele>238.326906</ele>
        <time>2022-03-02T08:08:30.883Z</time>
      </trkpt>
      <trkpt lat="41.93434" lon="25.54821">
        <ele>238.420742</ele>
        <time>2022-03-02T08:08:33.893Z</time>
      </trkpt>
      <trkpt lat="41.93434" lon="25.54806">
        <ele>238.499958</ele>
        <time>2022-03-02T08:08:36.906Z</time>
      </trkpt>
      <trkpt lat="41.93434" lon="25.5479">
        <ele>238.588451</ele>
        <time>2022-03-02T08:08:39.907Z</time>
      </trkpt>
      <trkpt lat="41.93433" lon="25.54773">
        <ele>238.680776</ele>
        <time>2022-03-02T08:08:42.954Z</time>
      </trkpt>
      <trkpt lat="41.93432" lon="25.5476">
        <ele>238.748624</ele>
        <time>2022-03-02T08:08:44.932Z</time>
      </trkpt>
      <trkpt lat="41.93432" lon="25.54745">
        <ele>238.833226</ele>
        <time>2022-03-02T08:08:47.933Z</time>
      </trkpt>
      <trkpt lat="41.93431" lon="25.54728">
        <ele>238.925113</ele>
        <time>2022-03-02T08:08:50.906Z</time>
      </trkpt>
      <trkpt lat="41.9343" lon="25.54715">
        <ele>238.991638</ele>
        <time>2022-03-02T08:08:52.907Z</time>
      </trkpt>
      <trkpt lat="41.93428" lon="25.54697">
        <ele>239.091161</ele>
        <time>2022-03-02T08:08:55.906Z</time>
      </trkpt>
      <trkpt lat="41.93425" lon="25.54682">
        <ele>239.176971</ele>
        <time>2022-03-02T08:08:58.901Z</time>
      </trkpt>
      <trkpt lat="41.93422" lon="25.54667">
        <ele>239.188899</ele>
        <time>2022-03-02T08:09:01.890Z</time>
      </trkpt>
      <trkpt lat="41.93418" lon="25.54652">
        <ele>239.117767</ele>
        <time>2022-03-02T08:09:04.937Z</time>
      </trkpt>
      <trkpt lat="41.93417" lon="25.5464">
        <ele>239.058006</ele>
        <time>2022-03-02T08:09:06.896Z</time>
      </trkpt>
      <trkpt lat="41.93421" lon="25.54626">
        <ele>238.989708</ele>
        <time>2022-03-02T08:09:08.879Z</time>
      </trkpt>
      <trkpt lat="41.93427" lon="25.54615">
        <ele>238.926563</ele>
        <time>2022-03-02T08:09:10.897Z</time>
      </trkpt>
      <trkpt lat="41.9343" lon="25.54603">
        <ele>238.86787</ele>
        <time>2022-03-02T08:09:12.904Z</time>
      </trkpt>
      <trkpt lat="41.93434" lon="25.54592">
        <ele>238.809534</ele>
        <time>2022-03-02T08:09:14.927Z</time>
      </trkpt>
      <trkpt lat="41.93438" lon="25.5458">
        <ele>238.750471</ele>
        <time>2022-03-02T08:09:16.914Z</time>
      </trkpt>
      <trkpt lat="41.93443" lon="25.54565">
        <ele>238.672788</ele>
        <time>2022-03-02T08:09:19.875Z</time>
      </trkpt>
      <trkpt lat="41.93449" lon="25.54551">
        <ele>238.595202</ele>
        <time>2022-03-02T08:09:22.898Z</time>
      </trkpt>
      <trkpt lat="41.93456" lon="25.54538">
        <ele>238.520214</ele>
        <time>2022-03-02T08:09:25.904Z</time>
      </trkpt>
      <trkpt lat="41.93461" lon="25.54526">
        <ele>238.455068</ele>
        <time>2022-03-02T08:09:28.893Z</time>
      </trkpt>
      <trkpt lat="41.93466" lon="25.54513">
        <ele>238.388756</ele>
        <time>2022-03-02T08:09:31.897Z</time>
      </trkpt>
      <trkpt lat="41.9347" lon="25.545">
        <ele>238.320451</ele>
        <time>2022-03-02T08:09:34.939Z</time>
      </trkpt>
      <trkpt lat="41.93473" lon="25.54485">
        <ele>238.249153</ele>
        <time>2022-03-02T08:09:37.900Z</time>
      </trkpt>
      <trkpt lat="41.93476" lon="25.54473">
        <ele>238.190759</ele>
        <time>2022-03-02T08:09:40.884Z</time>
      </trkpt>
      <trkpt lat="41.93481" lon="25.54462">
        <ele>238.128915</ele>
        <time>2022-03-02T08:09:43.919Z</time>
      </trkpt>
      <trkpt lat="41.93487" lon="25.54451">
        <ele>238.212916</ele>
        <time>2022-03-02T08:09:46.940Z</time>
      </trkpt>
      <trkpt lat="41.93494" lon="25.54438">
        <ele>238.62408</ele>
        <time>2022-03-02T08:09:50.889Z</time>
      </trkpt>
      <trkpt lat="41.93498" lon="25.54428">
        <ele>238.939634</ele>
        <time>2022-03-02T08:09:53.912Z</time>
      </trkpt>
      <trkpt lat="41.93503" lon="25.54417">
        <ele>239.266472</ele>
        <time>2022-03-02T08:09:56.895Z</time>
      </trkpt>
      <trkpt lat="41.93509" lon="25.54402">
        <ele>239.693577</ele>
        <time>2022-03-02T08:10:00.905Z</time>
      </trkpt>
      <trkpt lat="41.93513" lon="25.54388">
        <ele>240.072625</ele>
        <time>2022-03-02T08:10:03.933Z</time>
      </trkpt>
      <trkpt lat="41.93518" lon="25.54376">
        <ele>240.426696</ele>
        <time>2022-03-02T08:10:06.881Z</time>
      </trkpt>
      <trkpt lat="41.93523" lon="25.54365">
        <ele>240.753533</ele>
        <time>2022-03-02T08:10:10.899Z</time>
      </trkpt>
      <trkpt lat="41.93525" lon="25.54353">
        <ele>241.062022</ele>
        <time>2022-03-02T08:10:13.909Z</time>
      </trkpt>
      <trkpt lat="41.93533" lon="25.5434">
        <ele>241.48341</ele>
        <time>2022-03-02T08:10:17.912Z</time>
      </trkpt>
      <trkpt lat="41.93539" lon="25.54331">
        <ele>241.805097</ele>
        <time>2022-03-02T08:10:20.924Z</time>
      </trkpt>
      <trkpt lat="41.93547" lon="25.54321">
        <ele>242.159858</ele>
        <time>2022-03-02T08:10:24.886Z</time>
      </trkpt>
      <trkpt lat="41.93556" lon="25.54313">
        <ele>242.538209</ele>
        <time>2022-03-02T08:10:28.902Z</time>
      </trkpt>
      <trkpt lat="41.93564" lon="25.54305">
        <ele>242.872593</ele>
        <time>2022-03-02T08:10:31.922Z</time>
      </trkpt>
      <trkpt lat="41.9357" lon="25.54295">
        <ele>243.205975</ele>
        <time>2022-03-02T08:10:34.926Z</time>
      </trkpt>
      <trkpt lat="41.93575" lon="25.54282">
        <ele>243.584075</ele>
        <time>2022-03-02T08:10:38.941Z</time>
      </trkpt>
      <trkpt lat="41.93578" lon="25.5427">
        <ele>243.911971</ele>
        <time>2022-03-02T08:10:41.916Z</time>
      </trkpt>
      <trkpt lat="41.93582" lon="25.54257">
        <ele>244.252816</ele>
        <time>2022-03-02T08:10:44.929Z</time>
      </trkpt>
      <trkpt lat="41.93586" lon="25.54245">
        <ele>244.194648</ele>
        <time>2022-03-02T08:10:47.971Z</time>
      </trkpt>
      <trkpt lat="41.93591" lon="25.54233">
        <ele>244.132189</ele>
        <time>2022-03-02T08:10:50.889Z</time>
      </trkpt>
      <trkpt lat="41.93596" lon="25.54222">
        <ele>244.07668</ele>
        <time>2022-03-02T08:10:53.909Z</time>
      </trkpt>
      <trkpt lat="41.93602" lon="25.54212">
        <ele>244.021216</ele>
        <time>2022-03-02T08:10:58.914Z</time>
      </trkpt>
      <trkpt lat="41.93614" lon="25.54207">
        <ele>243.946023</ele>
        <time>2022-03-02T08:11:40.909Z</time>
      </trkpt>
      <trkpt lat="41.93619" lon="25.54189">
        <ele>243.860169</ele>
        <time>2022-03-02T08:11:58.900Z</time>
      </trkpt>
      <trkpt lat="41.93621" lon="25.54177">
        <ele>243.807148</ele>
        <time>2022-03-02T08:12:02.901Z</time>
      </trkpt>
      <trkpt lat="41.93623" lon="25.54164">
        <ele>243.747855</ele>
        <time>2022-03-02T08:12:06.936Z</time>
      </trkpt>
      <trkpt lat="41.93628" lon="25.54152">
        <ele>243.68882</ele>
        <time>2022-03-02T08:12:10.906Z</time>
      </trkpt>
      <trkpt lat="41.93633" lon="25.54141">
        <ele>243.63453</ele>
        <time>2022-03-02T08:12:14.903Z</time>
      </trkpt>
      <trkpt lat="41.9364" lon="25.54131">
        <ele>243.572149</ele>
        <time>2022-03-02T08:12:18.901Z</time>
      </trkpt>
      <trkpt lat="41.93647" lon="25.54122">
        <ele>243.511722</ele>
        <time>2022-03-02T08:12:22.925Z</time>
      </trkpt>
      <trkpt lat="41.93654" lon="25.54113">
        <ele>243.454331</ele>
        <time>2022-03-02T08:12:26.904Z</time>
      </trkpt>
      <trkpt lat="41.93662" lon="25.54104">
        <ele>243.392552</ele>
        <time>2022-03-02T08:12:30.901Z</time>
      </trkpt>
      <trkpt lat="41.9367" lon="25.54096">
        <ele>243.335404</ele>
        <time>2022-03-02T08:12:34.893Z</time>
      </trkpt>
      <trkpt lat="41.93679" lon="25.54088">
        <ele>243.2756</ele>
        <time>2022-03-02T08:12:39.901Z</time>
      </trkpt>
      <trkpt lat="41.93687" lon="25.54079">
        <ele>243.211509</ele>
        <time>2022-03-02T08:12:44.904Z</time>
      </trkpt>
      <trkpt lat="41.93694" lon="25.54071">
        <ele>243.129898</ele>
        <time>2022-03-02T08:12:48.913Z</time>
      </trkpt>
      <trkpt lat="41.93702" lon="25.54063">
        <ele>243.021251</ele>
        <time>2022-03-02T08:12:52.886Z</time>
      </trkpt>
      <trkpt lat="41.93711" lon="25.54054">
        <ele>242.901672</ele>
        <time>2022-03-02T08:12:56.891Z</time>
      </trkpt>
      <trkpt lat="41.93721" lon="25.54049">
        <ele>242.784839</ele>
        <time>2022-03-02T08:13:00.929Z</time>
      </trkpt>
      <trkpt lat="41.93732" lon="25.54044">
        <ele>242.666681</ele>
        <time>2022-03-02T08:13:04.917Z</time>
      </trkpt>
      <trkpt lat="41.93742" lon="25.54038">
        <ele>242.555743</ele>
        <time>2022-03-02T08:13:08.916Z</time>
      </trkpt>
      <trkpt lat="41.93743" lon="25.54026">
        <ele>242.456032</ele>
        <time>2022-03-02T08:13:13.940Z</time>
      </trkpt>
      <trkpt lat="41.93733" lon="25.54022">
        <ele>242.340225</ele>
        <time>2022-03-02T08:13:16.902Z</time>
      </trkpt>
      <trkpt lat="41.93724" lon="25.54019">
        <ele>242.242078</ele>
        <time>2022-03-02T08:13:18.939Z</time>
      </trkpt>
      <trkpt lat="41.93714" lon="25.54014">
        <ele>242.127653</ele>
        <time>2022-03-02T08:13:21.910Z</time>
      </trkpt>
      <trkpt lat="41.93707" lon="25.54004">
        <ele>242.019076</ele>
        <time>2022-03-02T08:13:24.890Z</time>
      </trkpt>
      <trkpt lat="41.93706" lon="25.5399">
        <ele>241.908003</ele>
        <time>2022-03-02T08:13:28.888Z</time>
      </trkpt>
      <trkpt lat="41.93705" lon="25.53976">
        <ele>241.800716</ele>
        <time>2022-03-02T08:13:32.903Z</time>
      </trkpt>
      <trkpt lat="41.93705" lon="25.53962">
        <ele>241.688416</ele>
        <time>2022-03-02T08:13:36.892Z</time>
      </trkpt>
      <trkpt lat="41.93701" lon="25.53948">
        <ele>241.570769</ele>
        <time>2022-03-02T08:13:40.927Z</time>
      </trkpt>
      <trkpt lat="41.93702" lon="25.53936">
        <ele>241.472501</ele>
        <time>2022-03-02T08:13:44.914Z</time>
      </trkpt>
      <trkpt lat="41.93703" lon="25.53923">
        <ele>241.372294</ele>
        <time>2022-03-02T08:13:48.903Z</time>
      </trkpt>
      <trkpt lat="41.937" lon="25.53911">
        <ele>241.279504</ele>
        <time>2022-03-02T08:13:52.911Z</time>
      </trkpt>
      <trkpt lat="41.93695" lon="25.53898">
        <ele>241.275204</ele>
        <time>2022-03-02T08:13:56.908Z</time>
      </trkpt>
      <trkpt lat="41.93692" lon="25.53886">
        <ele>241.271292</ele>
        <time>2022-03-02T08:14:00.944Z</time>
      </trkpt>
      <trkpt lat="41.9369" lon="25.53872">
        <ele>241.266851</ele>
        <time>2022-03-02T08:14:05.920Z</time>
      </trkpt>
      <trkpt lat="41.93688" lon="25.53858">
        <ele>241.262708</ele>
        <time>2022-03-02T08:14:10.919Z</time>
      </trkpt>
      <trkpt lat="41.93689" lon="25.53845">
        <ele>241.258726</ele>
        <time>2022-03-02T08:14:15.909Z</time>
      </trkpt>
      <trkpt lat="41.93687" lon="25.53833">
        <ele>241.254999</ele>
        <time>2022-03-02T08:14:19.904Z</time>
      </trkpt>
      <trkpt lat="41.93685" lon="25.53819">
        <ele>241.250603</ele>
        <time>2022-03-02T08:14:23.918Z</time>
      </trkpt>
      <trkpt lat="41.93683" lon="25.53806">
        <ele>241.246576</ele>
        <time>2022-03-02T08:14:26.930Z</time>
      </trkpt>
      <trkpt lat="41.9368" lon="25.53791">
        <ele>241.241632</ele>
        <time>2022-03-02T08:14:29.901Z</time>
      </trkpt>
      <trkpt lat="41.93679" lon="25.53773">
        <ele>241.236073</ele>
        <time>2022-03-02T08:14:32.949Z</time>
      </trkpt>
      <trkpt lat="41.93678" lon="25.53759">
        <ele>241.231987</ele>
        <time>2022-03-02T08:14:34.918Z</time>
      </trkpt>
      <trkpt lat="41.93677" lon="25.53745">
        <ele>241.227514</ele>
        <time>2022-03-02T08:14:36.900Z</time>
      </trkpt>
      <trkpt lat="41.93676" lon="25.53729">
        <ele>241.222745</ele>
        <time>2022-03-02T08:14:38.937Z</time>
      </trkpt>
      <trkpt lat="41.93675" lon="25.53713">
        <ele>241.217745</ele>
        <time>2022-03-02T08:14:40.900Z</time>
      </trkpt>
      <trkpt lat="41.93673" lon="25.53699">
        <ele>241.213427</ele>
        <time>2022-03-02T08:14:42.890Z</time>
      </trkpt>
      <trkpt lat="41.93672" lon="25.53685">
        <ele>241.209138</ele>
        <time>2022-03-02T08:14:44.879Z</time>
      </trkpt>
      <trkpt lat="41.93671" lon="25.5367">
        <ele>241.182469</ele>
        <time>2022-03-02T08:14:46.897Z</time>
      </trkpt>
      <trkpt lat="41.93669" lon="25.53655">
        <ele>241.107533</ele>
        <time>2022-03-02T08:14:48.893Z</time>
      </trkpt>
      <trkpt lat="41.93668" lon="25.53641">
        <ele>241.036681</ele>
        <time>2022-03-02T08:14:50.902Z</time>
      </trkpt>
      <trkpt lat="41.93666" lon="25.53626">
        <ele>240.962358</ele>
        <time>2022-03-02T08:14:52.897Z</time>
      </trkpt>
      <trkpt lat="41.93663" lon="25.5361">
        <ele>240.886334</ele>
        <time>2022-03-02T08:14:54.901Z</time>
      </trkpt>
      <trkpt lat="41.93662" lon="25.53594">
        <ele>240.80654</ele>
        <time>2022-03-02T08:14:56.891Z</time>
      </trkpt>
      <trkpt lat="41.93661" lon="25.53578">
        <ele>240.7277</ele>
        <time>2022-03-02T08:14:58.889Z</time>
      </trkpt>
      <trkpt lat="41.93661" lon="25.53563">
        <ele>240.652327</ele>
        <time>2022-03-02T08:15:00.897Z</time>
      </trkpt>
      <trkpt lat="41.93661" lon="25.53549">
        <ele>240.583818</ele>
        <time>2022-03-02T08:15:02.893Z</time>
      </trkpt>
      <trkpt lat="41.9366" lon="25.53536">
        <ele>240.520129</ele>
        <time>2022-03-02T08:15:04.908Z</time>
      </trkpt>
      <trkpt lat="41.93659" lon="25.53523">
        <ele>240.459036</ele>
        <time>2022-03-02T08:15:06.886Z</time>
      </trkpt>
      <trkpt lat="41.93656" lon="25.53507">
        <ele>240.379306</ele>
        <time>2022-03-02T08:15:09.926Z</time>
      </trkpt>
      <trkpt lat="41.93654" lon="25.5349">
        <ele>240.293433</ele>
        <time>2022-03-02T08:15:12.897Z</time>
      </trkpt>
      <trkpt lat="41.93651" lon="25.53473">
        <ele>240.208412</ele>
        <time>2022-03-02T08:15:15.939Z</time>
      </trkpt>
      <trkpt lat="41.93649" lon="25.53456">
        <ele>240.122538</ele>
        <time>2022-03-02T08:15:18.891Z</time>
      </trkpt>
      <trkpt lat="41.93647" lon="25.53439">
        <ele>240.037244</ele>
        <time>2022-03-02T08:15:21.897Z</time>
      </trkpt>
      <trkpt lat="41.93646" lon="25.53422">
        <ele>240.022397</ele>
        <time>2022-03-02T08:15:24.918Z</time>
      </trkpt>
      <trkpt lat="41.93643" lon="25.53405">
        <ele>240.021612</ele>
        <time>2022-03-02T08:15:27.893Z</time>
      </trkpt>
      <trkpt lat="41.93641" lon="25.53388">
        <ele>240.020808</ele>
        <time>2022-03-02T08:15:30.890Z</time>
      </trkpt>
      <trkpt lat="41.93638" lon="25.53372">
        <ele>240.020041</ele>
        <time>2022-03-02T08:15:33.901Z</time>
      </trkpt>
      <trkpt lat="41.93636" lon="25.53357">
        <ele>240.019302</ele>
        <time>2022-03-02T08:15:36.891Z</time>
      </trkpt>
      <trkpt lat="41.93634" lon="25.53342">
        <ele>240.018579</ele>
        <time>2022-03-02T08:15:39.888Z</time>
      </trkpt>
      <trkpt lat="41.93632" lon="25.53326">
        <ele>240.017839</ele>
        <time>2022-03-02T08:15:42.893Z</time>
      </trkpt>
      <trkpt lat="41.9363" lon="25.53311">
        <ele>240.017122</ele>
        <time>2022-03-02T08:15:45.899Z</time>
      </trkpt>
      <trkpt lat="41.93627" lon="25.53295">
        <ele>240.016352</ele>
        <time>2022-03-02T08:15:48.884Z</time>
      </trkpt>
      <trkpt lat="41.93625" lon="25.53279">
        <ele>240.015608</ele>
        <time>2022-03-02T08:15:51.897Z</time>
      </trkpt>
      <trkpt lat="41.93623" lon="25.53264">
        <ele>240.01488</ele>
        <time>2022-03-02T08:15:54.900Z</time>
      </trkpt>
      <trkpt lat="41.93623" lon="25.53248">
        <ele>240.014156</ele>
        <time>2022-03-02T08:15:57.894Z</time>
      </trkpt>
      <trkpt lat="41.93621" lon="25.53233">
        <ele>240.013436</ele>
        <time>2022-03-02T08:16:00.939Z</time>
      </trkpt>
      <trkpt lat="41.9362" lon="25.53218">
        <ele>240.012719</ele>
        <time>2022-03-02T08:16:03.896Z</time>
      </trkpt>
      <trkpt lat="41.93618" lon="25.53202">
        <ele>240.011983</ele>
        <time>2022-03-02T08:16:06.939Z</time>
      </trkpt>
      <trkpt lat="41.93616" lon="25.53187">
        <ele>240.209168</ele>
        <time>2022-03-02T08:16:09.894Z</time>
      </trkpt>
      <trkpt lat="41.93614" lon="25.53172">
        <ele>240.471094</ele>
        <time>2022-03-02T08:16:12.898Z</time>
      </trkpt>
      <trkpt lat="41.93612" lon="25.53158">
        <ele>240.734681</ele>
        <time>2022-03-02T08:16:15.901Z</time>
      </trkpt>
      <trkpt lat="41.9361" lon="25.53144">
        <ele>240.985937</ele>
        <time>2022-03-02T08:16:18.900Z</time>
      </trkpt>
      <trkpt lat="41.93609" lon="25.53131">
        <ele>241.225258</ele>
        <time>2022-03-02T08:16:21.894Z</time>
      </trkpt>
      <trkpt lat="41.93608" lon="25.53117">
        <ele>241.464833</ele>
        <time>2022-03-02T08:16:24.900Z</time>
      </trkpt>
      <trkpt lat="41.93606" lon="25.53104">
        <ele>241.713106</ele>
        <time>2022-03-02T08:16:27.895Z</time>
      </trkpt>
      <trkpt lat="41.93604" lon="25.5309">
        <ele>241.957563</ele>
        <time>2022-03-02T08:16:30.926Z</time>
      </trkpt>
      <trkpt lat="41.93602" lon="25.53078">
        <ele>242.184114</ele>
        <time>2022-03-02T08:16:33.888Z</time>
      </trkpt>
      <trkpt lat="41.936" lon="25.53064">
        <ele>242.438476</ele>
        <time>2022-03-02T08:16:36.897Z</time>
      </trkpt>
      <trkpt lat="41.93598" lon="25.53049">
        <ele>242.714823</ele>
        <time>2022-03-02T08:16:39.973Z</time>
      </trkpt>
      <trkpt lat="41.93597" lon="25.53035">
        <ele>242.970962</ele>
        <time>2022-03-02T08:16:42.890Z</time>
      </trkpt>
      <trkpt lat="41.93596" lon="25.53021">
        <ele>243.220973</ele>
        <time>2022-03-02T08:16:45.913Z</time>
      </trkpt>
      <trkpt lat="41.93595" lon="25.53007">
        <ele>243.477112</ele>
        <time>2022-03-02T08:16:48.897Z</time>
      </trkpt>
      <trkpt lat="41.93593" lon="25.52994">
        <ele>243.715182</ele>
        <time>2022-03-02T08:16:51.879Z</time>
      </trkpt>
      <trkpt lat="41.93591" lon="25.5298">
        <ele>243.962075</ele>
        <time>2022-03-02T08:16:54.927Z</time>
      </trkpt>
      <trkpt lat="41.93589" lon="25.52967">
        <ele>244.208277</ele>
        <time>2022-03-02T08:16:57.900Z</time>
      </trkpt>
      <trkpt lat="41.93586" lon="25.52954">
        <ele>244.353081</ele>
        <time>2022-03-02T08:17:00.894Z</time>
      </trkpt>
      <trkpt lat="41.93584" lon="25.52941">
        <ele>244.381426</ele>
        <time>2022-03-02T08:17:03.910Z</time>
      </trkpt>
      <trkpt lat="41.93582" lon="25.52928">
        <ele>244.410585</ele>
        <time>2022-03-02T08:17:06.909Z</time>
      </trkpt>
      <trkpt lat="41.9358" lon="25.52915">
        <ele>244.438782</ele>
        <time>2022-03-02T08:17:09.893Z</time>
      </trkpt>
      <trkpt lat="41.93579" lon="25.52901">
        <ele>244.4674</ele>
        <time>2022-03-02T08:17:12.894Z</time>
      </trkpt>
      <trkpt lat="41.93576" lon="25.52888">
        <ele>244.495881</ele>
        <time>2022-03-02T08:17:15.893Z</time>
      </trkpt>
      <trkpt lat="41.93574" lon="25.52874">
        <ele>244.527075</ele>
        <time>2022-03-02T08:17:18.902Z</time>
      </trkpt>
      <trkpt lat="41.93572" lon="25.5286">
        <ele>244.558392</ele>
        <time>2022-03-02T08:17:21.875Z</time>
      </trkpt>
      <trkpt lat="41.9357" lon="25.52846">
        <ele>244.587323</ele>
        <time>2022-03-02T08:17:24.896Z</time>
      </trkpt>
      <trkpt lat="41.93568" lon="25.52833">
        <ele>244.617598</ele>
        <time>2022-03-02T08:17:27.893Z</time>
      </trkpt>
      <trkpt lat="41.93564" lon="25.5282">
        <ele>244.646643</ele>
        <time>2022-03-02T08:17:30.905Z</time>
      </trkpt>
      <trkpt lat="41.93559" lon="25.52807">
        <ele>244.67684</ele>
        <time>2022-03-02T08:17:33.905Z</time>
      </trkpt>
      <trkpt lat="41.93554" lon="25.52795">
        <ele>244.707206</ele>
        <time>2022-03-02T08:17:36.893Z</time>
      </trkpt>
      <trkpt lat="41.9355" lon="25.52783">
        <ele>244.736105</ele>
        <time>2022-03-02T08:17:39.892Z</time>
      </trkpt>
      <trkpt lat="41.93544" lon="25.52771">
        <ele>244.76733</ele>
        <time>2022-03-02T08:17:42.898Z</time>
      </trkpt>
      <trkpt lat="41.93538" lon="25.52757">
        <ele>244.800863</ele>
        <time>2022-03-02T08:17:45.952Z</time>
      </trkpt>
      <trkpt lat="41.93532" lon="25.52743">
        <ele>244.835339</ele>
        <time>2022-03-02T08:17:48.897Z</time>
      </trkpt>
      <trkpt lat="41.93526" lon="25.52728">
        <ele>244.682849</ele>
        <time>2022-03-02T08:17:51.899Z</time>
      </trkpt>
      <trkpt lat="41.9352" lon="25.52714">
        <ele>244.266519</ele>
        <time>2022-03-02T08:17:54.889Z</time>
      </trkpt>
      <trkpt lat="41.93515" lon="25.527">
        <ele>243.865997</ele>
        <time>2022-03-02T08:17:57.899Z</time>
      </trkpt>
      <trkpt lat="41.93509" lon="25.52687">
        <ele>243.467459</ele>
        <time>2022-03-02T08:18:00.903Z</time>
      </trkpt>
      <trkpt lat="41.93503" lon="25.52675">
        <ele>243.095214</ele>
        <time>2022-03-02T08:18:03.893Z</time>
      </trkpt>
      <trkpt lat="41.93496" lon="25.52663">
        <ele>242.731315</ele>
        <time>2022-03-02T08:18:06.893Z</time>
      </trkpt>
      <trkpt lat="41.9349" lon="25.52652">
        <ele>242.352909</ele>
        <time>2022-03-02T08:18:09.901Z</time>
      </trkpt>
      <trkpt lat="41.93483" lon="25.5264">
        <ele>241.976586</ele>
        <time>2022-03-02T08:18:12.878Z</time>
      </trkpt>
      <trkpt lat="41.93477" lon="25.52627">
        <ele>241.591844</ele>
        <time>2022-03-02T08:18:15.891Z</time>
      </trkpt>
      <trkpt lat="41.93471" lon="25.52614">
        <ele>241.202355</ele>
        <time>2022-03-02T08:18:18.922Z</time>
      </trkpt>
      <trkpt lat="41.93465" lon="25.52601">
        <ele>240.806692</ele>
        <time>2022-03-02T08:18:21.886Z</time>
      </trkpt>
      <trkpt lat="41.93459" lon="25.52588">
        <ele>240.408534</ele>
        <time>2022-03-02T08:18:24.897Z</time>
      </trkpt>
      <trkpt lat="41.93453" lon="25.52574">
        <ele>239.996062</ele>
        <time>2022-03-02T08:18:27.912Z</time>
      </trkpt>
      <trkpt lat="41.93447" lon="25.5256">
        <ele>239.598837</ele>
        <time>2022-03-02T08:18:30.894Z</time>
      </trkpt>
      <trkpt lat="41.93441" lon="25.52548">
        <ele>239.225999</ele>
        <time>2022-03-02T08:18:33.889Z</time>
      </trkpt>
      <trkpt lat="41.93436" lon="25.52535">
        <ele>238.843763</ele>
        <time>2022-03-02T08:18:36.884Z</time>
      </trkpt>
      <trkpt lat="41.9343" lon="25.52523">
        <ele>238.6388</ele>
        <time>2022-03-02T08:18:39.893Z</time>
      </trkpt>
      <trkpt lat="41.93423" lon="25.52512">
        <ele>238.597922</ele>
        <time>2022-03-02T08:18:42.892Z</time>
      </trkpt>
      <trkpt lat="41.93417" lon="25.525">
        <ele>238.554789</ele>
        <time>2022-03-02T08:18:45.900Z</time>
      </trkpt>
      <trkpt lat="41.9341" lon="25.52488">
        <ele>238.510956</ele>
        <time>2022-03-02T08:18:48.896Z</time>
      </trkpt>
      <trkpt lat="41.93403" lon="25.52475">
        <ele>238.465453</ele>
        <time>2022-03-02T08:18:51.906Z</time>
      </trkpt>
      <trkpt lat="41.93397" lon="25.52462">
        <ele>238.419821</ele>
        <time>2022-03-02T08:18:54.892Z</time>
      </trkpt>
      <trkpt lat="41.93391" lon="25.52449">
        <ele>238.375949</ele>
        <time>2022-03-02T08:18:57.893Z</time>
      </trkpt>
      <trkpt lat="41.93387" lon="25.52436">
        <ele>238.333563</ele>
        <time>2022-03-02T08:19:00.897Z</time>
      </trkpt>
      <trkpt lat="41.93382" lon="25.52423">
        <ele>238.291082</ele>
        <time>2022-03-02T08:19:03.916Z</time>
      </trkpt>
      <trkpt lat="41.93376" lon="25.5241">
        <ele>238.244952</ele>
        <time>2022-03-02T08:19:06.897Z</time>
      </trkpt>
      <trkpt lat="41.93369" lon="25.52396">
        <ele>238.198618</ele>
        <time>2022-03-02T08:19:09.912Z</time>
      </trkpt>
      <trkpt lat="41.93364" lon="25.52383">
        <ele>238.153845</ele>
        <time>2022-03-02T08:19:12.907Z</time>
      </trkpt>
      <trkpt lat="41.93357" lon="25.5237">
        <ele>238.109203</ele>
        <time>2022-03-02T08:19:15.926Z</time>
      </trkpt>
      <trkpt lat="41.93352" lon="25.52357">
        <ele>238.065974</ele>
        <time>2022-03-02T08:19:18.883Z</time>
      </trkpt>
      <trkpt lat="41.93346" lon="25.52344">
        <ele>238.022606</ele>
        <time>2022-03-02T08:19:21.876Z</time>
      </trkpt>
      <trkpt lat="41.93341" lon="25.52332">
        <ele>237.980895</ele>
        <time>2022-03-02T08:19:24.894Z</time>
      </trkpt>
      <trkpt lat="41.93335" lon="25.5232">
        <ele>238.062488</ele>
        <time>2022-03-02T08:19:27.896Z</time>
      </trkpt>
      <trkpt lat="41.93328" lon="25.52307">
        <ele>238.329177</ele>
        <time>2022-03-02T08:19:30.899Z</time>
      </trkpt>
      <trkpt lat="41.93322" lon="25.52293">
        <ele>238.600196</ele>
        <time>2022-03-02T08:19:33.894Z</time>
      </trkpt>
      <trkpt lat="41.93316" lon="25.52279">
        <ele>238.877139</ele>
        <time>2022-03-02T08:19:36.890Z</time>
      </trkpt>
      <trkpt lat="41.93309" lon="25.52266">
        <ele>239.149629</ele>
        <time>2022-03-02T08:19:39.896Z</time>
      </trkpt>
      <trkpt lat="41.93302" lon="25.52252">
        <ele>239.426573</ele>
        <time>2022-03-02T08:19:42.887Z</time>
      </trkpt>
      <trkpt lat="41.93296" lon="25.52239">
        <ele>239.701737</ele>
        <time>2022-03-02T08:19:45.884Z</time>
      </trkpt>
      <trkpt lat="41.93289" lon="25.52225">
        <ele>239.984941</ele>
        <time>2022-03-02T08:19:48.893Z</time>
      </trkpt>
      <trkpt lat="41.93282" lon="25.52212">
        <ele>240.259757</ele>
        <time>2022-03-02T08:19:51.891Z</time>
      </trkpt>
      <trkpt lat="41.93275" lon="25.52201">
        <ele>240.503353</ele>
        <time>2022-03-02T08:19:54.884Z</time>
      </trkpt>
      <trkpt lat="41.93268" lon="25.52189">
        <ele>240.759126</ele>
        <time>2022-03-02T08:19:57.895Z</time>
      </trkpt>
      <trkpt lat="41.93262" lon="25.52177">
        <ele>241.004021</ele>
        <time>2022-03-02T08:20:00.902Z</time>
      </trkpt>
      <trkpt lat="41.93256" lon="25.52164">
        <ele>241.252886</ele>
        <time>2022-03-02T08:20:03.941Z</time>
      </trkpt>
      <trkpt lat="41.93251" lon="25.5215">
        <ele>241.521783</ele>
        <time>2022-03-02T08:20:06.887Z</time>
      </trkpt>
      <trkpt lat="41.93246" lon="25.52136">
        <ele>241.798245</ele>
        <time>2022-03-02T08:20:09.921Z</time>
      </trkpt>
      <trkpt lat="41.93239" lon="25.52122">
        <ele>242.049384</ele>
        <time>2022-03-02T08:20:12.887Z</time>
      </trkpt>
      <trkpt lat="41.93234" lon="25.52109">
        <ele>241.930165</ele>
        <time>2022-03-02T08:20:15.895Z</time>
      </trkpt>
      <trkpt lat="41.93228" lon="25.52096">
        <ele>241.819192</ele>
        <time>2022-03-02T08:20:18.895Z</time>
      </trkpt>
      <trkpt lat="41.93223" lon="25.52083">
        <ele>241.704658</ele>
        <time>2022-03-02T08:20:21.892Z</time>
      </trkpt>
      <trkpt lat="41.93216" lon="25.52069">
        <ele>241.577917</ele>
        <time>2022-03-02T08:20:24.914Z</time>
      </trkpt>
      <trkpt lat="41.9321" lon="25.52055">
        <ele>241.448872</ele>
        <time>2022-03-02T08:20:27.892Z</time>
      </trkpt>
      <trkpt lat="41.93202" lon="25.52041">
        <ele>241.314515</ele>
        <time>2022-03-02T08:20:30.918Z</time>
      </trkpt>
      <trkpt lat="41.93195" lon="25.52027">
        <ele>241.182079</ele>
        <time>2022-03-02T08:20:33.889Z</time>
      </trkpt>
      <trkpt lat="41.93189" lon="25.52017">
        <ele>241.084921</ele>
        <time>2022-03-02T08:20:35.882Z</time>
      </trkpt>
      <trkpt lat="41.93183" lon="25.52007">
        <ele>240.985284</ele>
        <time>2022-03-02T08:20:37.895Z</time>
      </trkpt>
      <trkpt lat="41.93178" lon="25.51996">
        <ele>240.886193</ele>
        <time>2022-03-02T08:20:39.884Z</time>
      </trkpt>
      <trkpt lat="41.93172" lon="25.51984">
        <ele>240.77879</ele>
        <time>2022-03-02T08:20:41.889Z</time>
      </trkpt>
      <trkpt lat="41.93166" lon="25.51973">
        <ele>240.669704</ele>
        <time>2022-03-02T08:20:43.933Z</time>
      </trkpt>
      <trkpt lat="41.93161" lon="25.51961">
        <ele>240.560683</ele>
        <time>2022-03-02T08:20:45.898Z</time>
      </trkpt>
      <trkpt lat="41.93155" lon="25.51949">
        <ele>240.454755</ele>
        <time>2022-03-02T08:20:47.904Z</time>
      </trkpt>
      <trkpt lat="41.9315" lon="25.51937">
        <ele>240.349496</ele>
        <time>2022-03-02T08:20:49.888Z</time>
      </trkpt>
      <trkpt lat="41.93145" lon="25.51925">
        <ele>240.241878</ele>
        <time>2022-03-02T08:20:51.887Z</time>
      </trkpt>
      <trkpt lat="41.93141" lon="25.51914">
        <ele>240.157821</ele>
        <time>2022-03-02T08:20:53.897Z</time>
      </trkpt>
      <trkpt lat="41.93135" lon="25.51899">
        <ele>240.066531</ele>
        <time>2022-03-02T08:20:56.900Z</time>
      </trkpt>
      <trkpt lat="41.93128" lon="25.51886">
        <ele>239.982498</ele>
        <time>2022-03-02T08:20:59.896Z</time>
      </trkpt>
      <trkpt lat="41.93122" lon="25.51872">
        <ele>239.895416</ele>
        <time>2022-03-02T08:21:02.908Z</time>
      </trkpt>
      <trkpt lat="41.93115" lon="25.51859">
        <ele>239.810139</ele>
        <time>2022-03-02T08:21:05.944Z</time>
      </trkpt>
      <trkpt lat="41.93109" lon="25.51846">
        <ele>239.724907</ele>
        <time>2022-03-02T08:21:08.919Z</time>
      </trkpt>
      <trkpt lat="41.93102" lon="25.51833">
        <ele>239.640526</ele>
        <time>2022-03-02T08:21:11.891Z</time>
      </trkpt>
      <trkpt lat="41.93096" lon="25.5182">
        <ele>239.556429</ele>
        <time>2022-03-02T08:21:14.887Z</time>
      </trkpt>
      <trkpt lat="41.9309" lon="25.51807">
        <ele>239.47447</ele>
        <time>2022-03-02T08:21:17.914Z</time>
      </trkpt>
      <trkpt lat="41.93084" lon="25.51794">
        <ele>239.392686</ele>
        <time>2022-03-02T08:21:20.940Z</time>
      </trkpt>
      <trkpt lat="41.93078" lon="25.51782">
        <ele>239.315837</ele>
        <time>2022-03-02T08:21:23.894Z</time>
      </trkpt>
      <trkpt lat="41.93072" lon="25.5177">
        <ele>239.235388</ele>
        <time>2022-03-02T08:21:26.903Z</time>
      </trkpt>
      <trkpt lat="41.93066" lon="25.51757">
        <ele>239.153604</ele>
        <time>2022-03-02T08:21:29.907Z</time>
      </trkpt>
      <trkpt lat="41.9306" lon="25.51745">
        <ele>239.073323</ele>
        <time>2022-03-02T08:21:32.899Z</time>
      </trkpt>
      <trkpt lat="41.93053" lon="25.51732">
        <ele>238.991186</ele>
        <time>2022-03-02T08:21:35.877Z</time>
      </trkpt>
      <trkpt lat="41.93047" lon="25.51719">
        <ele>238.90793</ele>
        <time>2022-03-02T08:21:38.894Z</time>
      </trkpt>
      <trkpt lat="41.93041" lon="25.51705">
        <ele>239.045865</ele>
        <time>2022-03-02T08:21:41.916Z</time>
      </trkpt>
      <trkpt lat="41.93035" lon="25.51691">
        <ele>239.254755</ele>
        <time>2022-03-02T08:21:44.880Z</time>
      </trkpt>
      <trkpt lat="41.93028" lon="25.51678">
        <ele>239.453881</ele>
        <time>2022-03-02T08:21:47.890Z</time>
      </trkpt>
      <trkpt lat="41.93023" lon="25.51664">
        <ele>239.655245</ele>
        <time>2022-03-02T08:21:50.938Z</time>
      </trkpt>
      <trkpt lat="41.93017" lon="25.5165">
        <ele>239.861327</ele>
        <time>2022-03-02T08:21:53.885Z</time>
      </trkpt>
      <trkpt lat="41.9301" lon="25.51636">
        <ele>240.065663</ele>
        <time>2022-03-02T08:21:56.931Z</time>
      </trkpt>
      <trkpt lat="41.93004" lon="25.51622">
        <ele>240.282052</ele>
        <time>2022-03-02T08:21:59.905Z</time>
      </trkpt>
      <trkpt lat="41.92997" lon="25.51607">
        <ele>240.495089</ele>
        <time>2022-03-02T08:22:02.895Z</time>
      </trkpt>
      <trkpt lat="41.92991" lon="25.51593">
        <ele>240.706283</ele>
        <time>2022-03-02T08:22:05.898Z</time>
      </trkpt>
      <trkpt lat="41.92984" lon="25.5158">
        <ele>240.917071</ele>
        <time>2022-03-02T08:22:08.915Z</time>
      </trkpt>
      <trkpt lat="41.92977" lon="25.51566">
        <ele>241.126137</ele>
        <time>2022-03-02T08:22:11.906Z</time>
      </trkpt>
      <trkpt lat="41.92971" lon="25.51552">
        <ele>241.325445</ele>
        <time>2022-03-02T08:22:14.896Z</time>
      </trkpt>
      <trkpt lat="41.92965" lon="25.51539">
        <ele>241.518791</ele>
        <time>2022-03-02T08:22:17.894Z</time>
      </trkpt>
      <trkpt lat="41.9296" lon="25.51526">
        <ele>241.704128</ele>
        <time>2022-03-02T08:22:20.896Z</time>
      </trkpt>
      <trkpt lat="41.92955" lon="25.51513">
        <ele>241.89171</ele>
        <time>2022-03-02T08:22:23.891Z</time>
      </trkpt>
      <trkpt lat="41.92951" lon="25.51501">
        <ele>242.153979</ele>
        <time>2022-03-02T08:22:26.901Z</time>
      </trkpt>
      <trkpt lat="41.92946" lon="25.51488">
        <ele>242.47126</ele>
        <time>2022-03-02T08:22:29.915Z</time>
      </trkpt>
      <trkpt lat="41.92942" lon="25.51476">
        <ele>242.776872</ele>
        <time>2022-03-02T08:22:32.896Z</time>
      </trkpt>
      <trkpt lat="41.92938" lon="25.51463">
        <ele>243.090301</ele>
        <time>2022-03-02T08:22:35.914Z</time>
      </trkpt>
      <trkpt lat="41.92934" lon="25.5145">
        <ele>243.410835</ele>
        <time>2022-03-02T08:22:38.913Z</time>
      </trkpt>
      <trkpt lat="41.9293" lon="25.51437">
        <ele>243.734391</ele>
        <time>2022-03-02T08:22:41.946Z</time>
      </trkpt>
      <trkpt lat="41.92926" lon="25.51424">
        <ele>244.056129</ele>
        <time>2022-03-02T08:22:44.889Z</time>
      </trkpt>
      <trkpt lat="41.92922" lon="25.5141">
        <ele>244.388043</ele>
        <time>2022-03-02T08:22:47.886Z</time>
      </trkpt>
      <trkpt lat="41.92918" lon="25.51396">
        <ele>244.716872</ele>
        <time>2022-03-02T08:22:50.890Z</time>
      </trkpt>
      <trkpt lat="41.92915" lon="25.51382">
        <ele>245.074439</ele>
        <time>2022-03-02T08:22:53.918Z</time>
      </trkpt>
      <trkpt lat="41.92912" lon="25.51367">
        <ele>245.416095</ele>
        <time>2022-03-02T08:22:56.893Z</time>
      </trkpt>
      <trkpt lat="41.92909" lon="25.51352">
        <ele>245.75871</ele>
        <time>2022-03-02T08:22:59.902Z</time>
      </trkpt>
      <trkpt lat="41.92907" lon="25.51338">
        <ele>246.088616</ele>
        <time>2022-03-02T08:23:02.958Z</time>
      </trkpt>
      <trkpt lat="41.92905" lon="25.51323">
        <ele>246.43486</ele>
        <time>2022-03-02T08:23:05.896Z</time>
      </trkpt>
      <trkpt lat="41.92903" lon="25.51308">
        <ele>246.791431</ele>
        <time>2022-03-02T08:23:08.894Z</time>
      </trkpt>
      <trkpt lat="41.92901" lon="25.51293">
        <ele>247.133631</ele>
        <time>2022-03-02T08:23:11.895Z</time>
      </trkpt>
      <trkpt lat="41.929" lon="25.51279">
        <ele>247.454529</ele>
        <time>2022-03-02T08:23:14.883Z</time>
      </trkpt>
      <trkpt lat="41.92899" lon="25.51264">
        <ele>247.84522</ele>
        <time>2022-03-02T08:23:17.895Z</time>
      </trkpt>
      <trkpt lat="41.92898" lon="25.5125">
        <ele>248.231485</ele>
        <time>2022-03-02T08:23:20.935Z</time>
      </trkpt>
      <trkpt lat="41.92898" lon="25.51235">
        <ele>248.614561</ele>
        <time>2022-03-02T08:23:23.901Z</time>
      </trkpt>
      <trkpt lat="41.92896" lon="25.5122">
        <ele>249.016059</ele>
        <time>2022-03-02T08:23:26.894Z</time>
      </trkpt>
      <trkpt lat="41.92897" lon="25.51206">
        <ele>249.399669</ele>
        <time>2022-03-02T08:23:29.904Z</time>
      </trkpt>
      <trkpt lat="41.92898" lon="25.51191">
        <ele>249.802583</ele>
        <time>2022-03-02T08:23:32.893Z</time>
      </trkpt>
      <trkpt lat="41.92898" lon="25.51175">
        <ele>250.222966</ele>
        <time>2022-03-02T08:23:35.889Z</time>
      </trkpt>
      <trkpt lat="41.92898" lon="25.51159">
        <ele>250.653852</ele>
        <time>2022-03-02T08:23:38.888Z</time>
      </trkpt>
      <trkpt lat="41.92897" lon="25.51144">
        <ele>251.059149</ele>
        <time>2022-03-02T08:23:41.887Z</time>
      </trkpt>
      <trkpt lat="41.92897" lon="25.51128">
        <ele>251.468897</ele>
        <time>2022-03-02T08:23:44.896Z</time>
      </trkpt>
      <trkpt lat="41.92896" lon="25.51113">
        <ele>251.864505</ele>
        <time>2022-03-02T08:23:47.898Z</time>
      </trkpt>
      <trkpt lat="41.92895" lon="25.511">
        <ele>252.216487</ele>
        <time>2022-03-02T08:23:50.883Z</time>
      </trkpt>
      <trkpt lat="41.92894" lon="25.51087">
        <ele>252.562721</ele>
        <time>2022-03-02T08:23:53.934Z</time>
      </trkpt>
      <trkpt lat="41.92894" lon="25.51074">
        <ele>252.92755</ele>
        <time>2022-03-02T08:23:56.895Z</time>
      </trkpt>
      <trkpt lat="41.92893" lon="25.5106">
        <ele>253.298365</ele>
        <time>2022-03-02T08:23:59.930Z</time>
      </trkpt>
      <trkpt lat="41.92894" lon="25.51045">
        <ele>253.689616</ele>
        <time>2022-03-02T08:24:02.933Z</time>
      </trkpt>
      <trkpt lat="41.92894" lon="25.51031">
        <ele>253.989238</ele>
        <time>2022-03-02T08:24:05.896Z</time>
      </trkpt>
      <trkpt lat="41.92894" lon="25.51016">
        <ele>254.225347</ele>
        <time>2022-03-02T08:24:08.888Z</time>
      </trkpt>
      <trkpt lat="41.92894" lon="25.51002">
        <ele>254.44561</ele>
        <time>2022-03-02T08:24:11.905Z</time>
      </trkpt>
      <trkpt lat="41.92894" lon="25.50988">
        <ele>254.670637</ele>
        <time>2022-03-02T08:24:14.910Z</time>
      </trkpt>
      <trkpt lat="41.92893" lon="25.50975">
        <ele>254.878921</ele>
        <time>2022-03-02T08:24:17.877Z</time>
      </trkpt>
      <trkpt lat="41.92892" lon="25.50962">
        <ele>255.082657</ele>
        <time>2022-03-02T08:24:20.896Z</time>
      </trkpt>
      <trkpt lat="41.92891" lon="25.50948">
        <ele>255.296795</ele>
        <time>2022-03-02T08:24:23.895Z</time>
      </trkpt>
      <trkpt lat="41.92889" lon="25.50936">
        <ele>255.492741</ele>
        <time>2022-03-02T08:24:26.904Z</time>
      </trkpt>
      <trkpt lat="41.92888" lon="25.50924">
        <ele>255.686177</ele>
        <time>2022-03-02T08:24:29.898Z</time>
      </trkpt>
      <trkpt lat="41.92887" lon="25.50911">
        <ele>255.89762</ele>
        <time>2022-03-02T08:24:32.938Z</time>
      </trkpt>
      <trkpt lat="41.92886" lon="25.50898">
        <ele>256.109063</ele>
        <time>2022-03-02T08:24:35.897Z</time>
      </trkpt>
      <trkpt lat="41.92886" lon="25.50883">
        <ele>256.343936</ele>
        <time>2022-03-02T08:24:38.903Z</time>
      </trkpt>
      <trkpt lat="41.92885" lon="25.50869">
        <ele>256.563866</ele>
        <time>2022-03-02T08:24:41.905Z</time>
      </trkpt>
      <trkpt lat="41.92883" lon="25.50856">
        <ele>256.775795</ele>
        <time>2022-03-02T08:24:44.901Z</time>
      </trkpt>
      <trkpt lat="41.92883" lon="25.50842">
        <ele>256.99801</ele>
        <time>2022-03-02T08:24:47.901Z</time>
      </trkpt>
      <trkpt lat="41.92881" lon="25.50828">
        <ele>257.224725</ele>
        <time>2022-03-02T08:24:50.897Z</time>
      </trkpt>
      <trkpt lat="41.9288" lon="25.50814">
        <ele>257.436168</ele>
        <time>2022-03-02T08:24:53.901Z</time>
      </trkpt>
      <trkpt lat="41.92881" lon="25.508">
        <ele>257.664364</ele>
        <time>2022-03-02T08:24:56.891Z</time>
      </trkpt>
      <trkpt lat="41.92882" lon="25.50785">
        <ele>257.80853</ele>
        <time>2022-03-02T08:24:59.942Z</time>
      </trkpt>
      <trkpt lat="41.92882" lon="25.50771">
        <ele>257.930077</ele>
        <time>2022-03-02T08:25:02.891Z</time>
      </trkpt>
      <trkpt lat="41.92882" lon="25.50757">
        <ele>258.049916</ele>
        <time>2022-03-02T08:25:05.887Z</time>
      </trkpt>
      <trkpt lat="41.92881" lon="25.50744">
        <ele>258.161946</ele>
        <time>2022-03-02T08:25:08.885Z</time>
      </trkpt>
      <trkpt lat="41.9288" lon="25.50729">
        <ele>258.286565</ele>
        <time>2022-03-02T08:25:11.896Z</time>
      </trkpt>
      <trkpt lat="41.92879" lon="25.50715">
        <ele>258.409741</ele>
        <time>2022-03-02T08:25:14.900Z</time>
      </trkpt>
      <trkpt lat="41.92877" lon="25.50701">
        <ele>258.531217</ele>
        <time>2022-03-02T08:25:17.886Z</time>
      </trkpt>
      <trkpt lat="41.92875" lon="25.50687">
        <ele>258.651212</ele>
        <time>2022-03-02T08:25:20.896Z</time>
      </trkpt>
      <trkpt lat="41.92874" lon="25.50674">
        <ele>258.765762</ele>
        <time>2022-03-02T08:25:23.894Z</time>
      </trkpt>
      <trkpt lat="41.92874" lon="25.5066">
        <ele>258.883804</ele>
        <time>2022-03-02T08:25:26.885Z</time>
      </trkpt>
      <trkpt lat="41.92873" lon="25.50647">
        <ele>258.996099</ele>
        <time>2022-03-02T08:25:29.901Z</time>
      </trkpt>
      <trkpt lat="41.92873" lon="25.50634">
        <ele>259.108983</ele>
        <time>2022-03-02T08:25:32.973Z</time>
      </trkpt>
      <trkpt lat="41.92874" lon="25.50621">
        <ele>259.220188</ele>
        <time>2022-03-02T08:25:35.903Z</time>
      </trkpt>
      <trkpt lat="41.92873" lon="25.50609">
        <ele>259.326608</ele>
        <time>2022-03-02T08:25:38.881Z</time>
      </trkpt>
      <trkpt lat="41.92872" lon="25.50596">
        <ele>259.437</ele>
        <time>2022-03-02T08:25:41.893Z</time>
      </trkpt>
      <trkpt lat="41.92872" lon="25.50582">
        <ele>259.551087</ele>
        <time>2022-03-02T08:25:44.907Z</time>
      </trkpt>
      <trkpt lat="41.9287" lon="25.50568">
        <ele>259.672193</ele>
        <time>2022-03-02T08:25:47.891Z</time>
      </trkpt>
      <trkpt lat="41.92869" lon="25.50555">
        <ele>259.801013</ele>
        <time>2022-03-02T08:25:50.896Z</time>
      </trkpt>
      <trkpt lat="41.92869" lon="25.50541">
        <ele>259.992448</ele>
        <time>2022-03-02T08:25:53.883Z</time>
      </trkpt>
      <trkpt lat="41.92868" lon="25.50528">
        <ele>260.178125</ele>
        <time>2022-03-02T08:25:56.901Z</time>
      </trkpt>
      <trkpt lat="41.92866" lon="25.50514">
        <ele>260.375118</ele>
        <time>2022-03-02T08:25:59.873Z</time>
      </trkpt>
      <trkpt lat="41.92865" lon="25.505">
        <ele>260.566819</ele>
        <time>2022-03-02T08:26:02.889Z</time>
      </trkpt>
      <trkpt lat="41.92864" lon="25.50488">
        <ele>260.743387</ele>
        <time>2022-03-02T08:26:05.922Z</time>
      </trkpt>
      <trkpt lat="41.92863" lon="25.50472">
        <ele>260.961631</ele>
        <time>2022-03-02T08:26:09.904Z</time>
      </trkpt>
      <trkpt lat="41.92861" lon="25.50459">
        <ele>261.140154</ele>
        <time>2022-03-02T08:26:12.885Z</time>
      </trkpt>
      <trkpt lat="41.9286" lon="25.50447">
        <ele>261.309473</ele>
        <time>2022-03-02T08:26:15.889Z</time>
      </trkpt>
      <trkpt lat="41.9286" lon="25.50434">
        <ele>261.489747</ele>
        <time>2022-03-02T08:26:18.898Z</time>
      </trkpt>
      <trkpt lat="41.92859" lon="25.50422">
        <ele>261.661122</ele>
        <time>2022-03-02T08:26:21.895Z</time>
      </trkpt>
      <trkpt lat="41.92858" lon="25.50407">
        <ele>261.87376</ele>
        <time>2022-03-02T08:26:25.888Z</time>
      </trkpt>
      <trkpt lat="41.92857" lon="25.50392">
        <ele>262.080824</ele>
        <time>2022-03-02T08:26:29.895Z</time>
      </trkpt>
      <trkpt lat="41.92856" lon="25.50377">
        <ele>262.299295</ele>
        <time>2022-03-02T08:26:33.944Z</time>
      </trkpt>
      <trkpt lat="41.92854" lon="25.50362">
        <ele>262.508295</ele>
        <time>2022-03-02T08:26:37.889Z</time>
      </trkpt>
      <trkpt lat="41.92853" lon="25.50347">
        <ele>262.714402</ele>
        <time>2022-03-02T08:26:41.888Z</time>
      </trkpt>
      <trkpt lat="41.92852" lon="25.50333">
        <ele>262.920885</ele>
        <time>2022-03-02T08:26:45.913Z</time>
      </trkpt>
      <trkpt lat="41.92851" lon="25.50319">
        <ele>263.11709</ele>
        <time>2022-03-02T08:26:49.897Z</time>
      </trkpt>
      <trkpt lat="41.92851" lon="25.50306">
        <ele>263.190645</ele>
        <time>2022-03-02T08:26:52.920Z</time>
      </trkpt>
      <trkpt lat="41.92852" lon="25.50292">
        <ele>263.250855</ele>
        <time>2022-03-02T08:26:56.894Z</time>
      </trkpt>
      <trkpt lat="41.92852" lon="25.50278">
        <ele>263.308541</ele>
        <time>2022-03-02T08:27:00.891Z</time>
      </trkpt>
      <trkpt lat="41.92851" lon="25.50264">
        <ele>263.366798</ele>
        <time>2022-03-02T08:27:04.885Z</time>
      </trkpt>
      <trkpt lat="41.9285" lon="25.50251">
        <ele>263.424736</ele>
        <time>2022-03-02T08:27:08.900Z</time>
      </trkpt>
      <trkpt lat="41.92849" lon="25.50237">
        <ele>263.483103</ele>
        <time>2022-03-02T08:27:12.894Z</time>
      </trkpt>
      <trkpt lat="41.92846" lon="25.50222">
        <ele>263.546445</ele>
        <time>2022-03-02T08:27:16.903Z</time>
      </trkpt>
      <trkpt lat="41.92845" lon="25.5021">
        <ele>263.597626</ele>
        <time>2022-03-02T08:27:19.933Z</time>
      </trkpt>
      <trkpt lat="41.92844" lon="25.50195">
        <ele>263.663481</ele>
        <time>2022-03-02T08:27:23.893Z</time>
      </trkpt>
      <trkpt lat="41.92844" lon="25.50179">
        <ele>263.727097</ele>
        <time>2022-03-02T08:27:27.898Z</time>
      </trkpt>
      <trkpt lat="41.92843" lon="25.50164">
        <ele>263.791975</ele>
        <time>2022-03-02T08:27:31.910Z</time>
      </trkpt>
      <trkpt lat="41.92842" lon="25.5015">
        <ele>263.849926</ele>
        <time>2022-03-02T08:27:35.893Z</time>
      </trkpt>
      <trkpt lat="41.9284" lon="25.50136">
        <ele>263.911466</ele>
        <time>2022-03-02T08:27:39.897Z</time>
      </trkpt>
      <trkpt lat="41.9284" lon="25.50121">
        <ele>263.97418</ele>
        <time>2022-03-02T08:27:43.923Z</time>
      </trkpt>
      <trkpt lat="41.9284" lon="25.50105">
        <ele>264.041559</ele>
        <time>2022-03-02T08:27:47.904Z</time>
      </trkpt>
      <trkpt lat="41.9284" lon="25.50093">
        <ele>264.093752</ele>
        <time>2022-03-02T08:27:50.885Z</time>
      </trkpt>
      <trkpt lat="41.92839" lon="25.50077">
        <ele>264.160825</ele>
        <time>2022-03-02T08:27:54.914Z</time>
      </trkpt>
      <trkpt lat="41.92838" lon="25.50063">
        <ele>264.304895</ele>
        <time>2022-03-02T08:27:58.902Z</time>
      </trkpt>
      <trkpt lat="41.92837" lon="25.50049">
        <ele>264.451329</ele>
        <time>2022-03-02T08:28:02.897Z</time>
      </trkpt>
      <trkpt lat="41.92836" lon="25.50035">
        <ele>264.598264</ele>
        <time>2022-03-02T08:28:06.896Z</time>
      </trkpt>
      <trkpt lat="41.92835" lon="25.50021">
        <ele>264.742904</ele>
        <time>2022-03-02T08:28:10.915Z</time>
      </trkpt>
      <trkpt lat="41.92834" lon="25.50006">
        <ele>264.898764</ele>
        <time>2022-03-02T08:28:14.916Z</time>
      </trkpt>
      <trkpt lat="41.92833" lon="25.49994">
        <ele>265.026574</ele>
        <time>2022-03-02T08:28:17.894Z</time>
      </trkpt>
      <trkpt lat="41.92833" lon="25.49979">
        <ele>265.185071</ele>
        <time>2022-03-02T08:28:21.903Z</time>
      </trkpt>
      <trkpt lat="41.92832" lon="25.49964">
        <ele>265.343473</ele>
        <time>2022-03-02T08:28:25.907Z</time>
      </trkpt>
      <trkpt lat="41.92831" lon="25.4995">
        <ele>265.498565</ele>
        <time>2022-03-02T08:28:29.891Z</time>
      </trkpt>
      <trkpt lat="41.9283" lon="25.49936">
        <ele>265.64155</ele>
        <time>2022-03-02T08:28:33.925Z</time>
      </trkpt>
      <trkpt lat="41.9283" lon="25.49922">
        <ele>265.789652</ele>
        <time>2022-03-02T08:28:37.919Z</time>
      </trkpt>
      <trkpt lat="41.92829" lon="25.49908">
        <ele>265.935654</ele>
        <time>2022-03-02T08:28:41.891Z</time>
      </trkpt>
      <trkpt lat="41.92828" lon="25.49894">
        <ele>266.08766</ele>
        <time>2022-03-02T08:28:45.946Z</time>
      </trkpt>
      <trkpt lat="41.92828" lon="25.4988">
        <ele>266.236374</ele>
        <time>2022-03-02T08:28:49.997Z</time>
      </trkpt>
      <trkpt lat="41.92826" lon="25.49865">
        <ele>266.397779</ele>
        <time>2022-03-02T08:28:53.900Z</time>
      </trkpt>
      <trkpt lat="41.92824" lon="25.4985">
        <ele>266.556444</ele>
        <time>2022-03-02T08:28:57.897Z</time>
      </trkpt>
      <trkpt lat="41.92823" lon="25.49837">
        <ele>266.696779</ele>
        <time>2022-03-02T08:29:01.920Z</time>
      </trkpt>
      <trkpt lat="41.92822" lon="25.49822">
        <ele>266.457657</ele>
        <time>2022-03-02T08:29:05.898Z</time>
      </trkpt>
      <trkpt lat="41.92822" lon="25.49806">
        <ele>266.155075</ele>
        <time>2022-03-02T08:29:09.884Z</time>
      </trkpt>
      <trkpt lat="41.92822" lon="25.49793">
        <ele>265.910311</ele>
        <time>2022-03-02T08:29:12.926Z</time>
      </trkpt>
      <trkpt lat="41.92822" lon="25.49779">
        <ele>265.638454</ele>
        <time>2022-03-02T08:29:15.898Z</time>
      </trkpt>
      <trkpt lat="41.92822" lon="25.49764">
        <ele>265.349351</ele>
        <time>2022-03-02T08:29:18.889Z</time>
      </trkpt>
      <trkpt lat="41.92823" lon="25.49748">
        <ele>265.03367</ele>
        <time>2022-03-02T08:29:21.886Z</time>
      </trkpt>
      <trkpt lat="41.92824" lon="25.49736">
        <ele>264.800649</ele>
        <time>2022-03-02T08:29:23.913Z</time>
      </trkpt>
      <trkpt lat="41.92826" lon="25.49724">
        <ele>264.567627</ele>
        <time>2022-03-02T08:29:25.899Z</time>
      </trkpt>
      <trkpt lat="41.92828" lon="25.49706">
        <ele>264.221771</ele>
        <time>2022-03-02T08:29:28.887Z</time>
      </trkpt>
      <trkpt lat="41.9283" lon="25.4969">
        <ele>263.893012</ele>
        <time>2022-03-02T08:29:31.900Z</time>
      </trkpt>
      <trkpt lat="41.92833" lon="25.49674">
        <ele>263.580609</ele>
        <time>2022-03-02T08:29:34.895Z</time>
      </trkpt>
      <trkpt lat="41.92836" lon="25.49659">
        <ele>263.290665</ele>
        <time>2022-03-02T08:29:37.896Z</time>
      </trkpt>
      <trkpt lat="41.92838" lon="25.49645">
        <ele>263.015659</ele>
        <time>2022-03-02T08:29:40.938Z</time>
      </trkpt>
      <trkpt lat="41.92841" lon="25.49632">
        <ele>262.758126</ele>
        <time>2022-03-02T08:29:43.891Z</time>
      </trkpt>
      <trkpt lat="41.92843" lon="25.49621">
        <ele>262.524222</ele>
        <time>2022-03-02T08:29:46.916Z</time>
      </trkpt>
      <trkpt lat="41.92846" lon="25.49605">
        <ele>262.217919</ele>
        <time>2022-03-02T08:29:50.901Z</time>
      </trkpt>
      <trkpt lat="41.92849" lon="25.49591">
        <ele>262.193506</ele>
        <time>2022-03-02T08:29:54.879Z</time>
      </trkpt>
      <trkpt lat="41.92852" lon="25.49577">
        <ele>262.47685</ele>
        <time>2022-03-02T08:29:58.887Z</time>
      </trkpt>
      <trkpt lat="41.92854" lon="25.49563">
        <ele>262.749265</ele>
        <time>2022-03-02T08:30:02.930Z</time>
      </trkpt>
      <trkpt lat="41.92856" lon="25.4955">
        <ele>263.018837</ele>
        <time>2022-03-02T08:30:06.899Z</time>
      </trkpt>
      <trkpt lat="41.92857" lon="25.49536">
        <ele>263.312385</ele>
        <time>2022-03-02T08:30:11.897Z</time>
      </trkpt>
      <trkpt lat="41.9286" lon="25.49523">
        <ele>263.57285</ele>
        <time>2022-03-02T08:30:15.906Z</time>
      </trkpt>
      <trkpt lat="41.92863" lon="25.49511">
        <ele>263.82998</ele>
        <time>2022-03-02T08:30:19.894Z</time>
      </trkpt>
      <trkpt lat="41.92866" lon="25.49499">
        <ele>264.079472</ele>
        <time>2022-03-02T08:30:23.888Z</time>
      </trkpt>
      <trkpt lat="41.92868" lon="25.49487">
        <ele>264.341984</ele>
        <time>2022-03-02T08:30:27.904Z</time>
      </trkpt>
      <trkpt lat="41.92869" lon="25.49475">
        <ele>264.589415</ele>
        <time>2022-03-02T08:30:31.939Z</time>
      </trkpt>
      <trkpt lat="41.92873" lon="25.4946">
        <ele>264.889212</ele>
        <time>2022-03-02T08:30:36.905Z</time>
      </trkpt>
      <trkpt lat="41.92876" lon="25.49448">
        <ele>265.14527</ele>
        <time>2022-03-02T08:30:40.903Z</time>
      </trkpt>
      <trkpt lat="41.92878" lon="25.49435">
        <ele>265.425273</ele>
        <time>2022-03-02T08:30:45.893Z</time>
      </trkpt>
      <trkpt lat="41.9288" lon="25.49422">
        <ele>265.673005</ele>
        <time>2022-03-02T08:30:49.917Z</time>
      </trkpt>
      <trkpt lat="41.92882" lon="25.4941">
        <ele>265.93869</ele>
        <time>2022-03-02T08:30:53.936Z</time>
      </trkpt>
      <trkpt lat="41.92885" lon="25.49397">
        <ele>266.197866</ele>
        <time>2022-03-02T08:30:57.887Z</time>
      </trkpt>
      <trkpt lat="41.92887" lon="25.49384">
        <ele>266.461016</ele>
        <time>2022-03-02T08:31:01.890Z</time>
      </trkpt>
      <trkpt lat="41.92889" lon="25.49372">
        <ele>266.720247</ele>
        <time>2022-03-02T08:31:05.897Z</time>
      </trkpt>
      <trkpt lat="41.92891" lon="25.4936">
        <ele>266.943155</ele>
        <time>2022-03-02T08:31:09.894Z</time>
      </trkpt>
      <trkpt lat="41.92893" lon="25.49347">
        <ele>267.086209</ele>
        <time>2022-03-02T08:31:13.896Z</time>
      </trkpt>
      <trkpt lat="41.92896" lon="25.49335">
        <ele>267.237598</ele>
        <time>2022-03-02T08:31:17.897Z</time>
      </trkpt>
      <trkpt lat="41.92898" lon="25.49322">
        <ele>267.382125</ele>
        <time>2022-03-02T08:31:21.938Z</time>
      </trkpt>
      <trkpt lat="41.929" lon="25.4931">
        <ele>267.522263</ele>
        <time>2022-03-02T08:31:25.920Z</time>
      </trkpt>
      <trkpt lat="41.92904" lon="25.49299">
        <ele>267.660599</ele>
        <time>2022-03-02T08:31:29.908Z</time>
      </trkpt>
      <trkpt lat="41.92907" lon="25.49286">
        <ele>267.820514</ele>
        <time>2022-03-02T08:31:34.882Z</time>
      </trkpt>
      <trkpt lat="41.92908" lon="25.49274">
        <ele>267.961427</ele>
        <time>2022-03-02T08:31:38.896Z</time>
      </trkpt>
      <trkpt lat="41.92911" lon="25.49261">
        <ele>268.109272</ele>
        <time>2022-03-02T08:31:42.885Z</time>
      </trkpt>
      <trkpt lat="41.92913" lon="25.49247">
        <ele>268.278501</ele>
        <time>2022-03-02T08:31:47.899Z</time>
      </trkpt>
      <trkpt lat="41.92915" lon="25.49234">
        <ele>268.427794</ele>
        <time>2022-03-02T08:31:51.938Z</time>
      </trkpt>
      <trkpt lat="41.92917" lon="25.49221">
        <ele>268.570494</ele>
        <time>2022-03-02T08:31:55.907Z</time>
      </trkpt>
      <trkpt lat="41.92919" lon="25.49209">
        <ele>268.714654</ele>
        <time>2022-03-02T08:31:59.885Z</time>
      </trkpt>
      <trkpt lat="41.92921" lon="25.49196">
        <ele>268.868985</ele>
        <time>2022-03-02T08:32:03.912Z</time>
      </trkpt>
      <trkpt lat="41.92924" lon="25.49181">
        <ele>269.038263</ele>
        <time>2022-03-02T08:32:08.932Z</time>
      </trkpt>
      <trkpt lat="41.92926" lon="25.4917">
        <ele>269.176889</ele>
        <time>2022-03-02T08:32:12.897Z</time>
      </trkpt>
      <trkpt lat="41.92929" lon="25.49158">
        <ele>269.319754</ele>
        <time>2022-03-02T08:32:16.907Z</time>
      </trkpt>
      <trkpt lat="41.9293" lon="25.49143">
        <ele>269.48703</ele>
        <time>2022-03-02T08:32:21.900Z</time>
      </trkpt>
      <trkpt lat="41.92933" lon="25.49131">
        <ele>269.630836</ele>
        <time>2022-03-02T08:32:25.903Z</time>
      </trkpt>
      <trkpt lat="41.92935" lon="25.49117">
        <ele>269.735499</ele>
        <time>2022-03-02T08:32:30.897Z</time>
      </trkpt>
      <trkpt lat="41.92938" lon="25.49102">
        <ele>269.826126</ele>
        <time>2022-03-02T08:32:35.917Z</time>
      </trkpt>
      <trkpt lat="41.92941" lon="25.4909">
        <ele>269.902794</ele>
        <time>2022-03-02T08:32:39.896Z</time>
      </trkpt>
      <trkpt lat="41.92943" lon="25.49078">
        <ele>269.981931</ele>
        <time>2022-03-02T08:32:43.932Z</time>
      </trkpt>
      <trkpt lat="41.92946" lon="25.49065">
        <ele>270.061887</ele>
        <time>2022-03-02T08:32:47.890Z</time>
      </trkpt>
      <trkpt lat="41.92948" lon="25.49053">
        <ele>270.139404</ele>
        <time>2022-03-02T08:32:51.900Z</time>
      </trkpt>
      <trkpt lat="41.9295" lon="25.49041">
        <ele>270.214727</ele>
        <time>2022-03-02T08:32:55.892Z</time>
      </trkpt>
      <trkpt lat="41.92953" lon="25.49029">
        <ele>270.293153</ele>
        <time>2022-03-02T08:32:59.906Z</time>
      </trkpt>
      <trkpt lat="41.92956" lon="25.49018">
        <ele>270.367573</ele>
        <time>2022-03-02T08:33:03.894Z</time>
      </trkpt>
      <trkpt lat="41.92958" lon="25.49006">
        <ele>270.441915</ele>
        <time>2022-03-02T08:33:07.893Z</time>
      </trkpt>
      <trkpt lat="41.9296" lon="25.48994">
        <ele>270.518481</ele>
        <time>2022-03-02T08:33:11.909Z</time>
      </trkpt>
      <trkpt lat="41.92962" lon="25.48981">
        <ele>270.596387</ele>
        <time>2022-03-02T08:33:15.905Z</time>
      </trkpt>
      <trkpt lat="41.92964" lon="25.48966">
        <ele>270.689434</ele>
        <time>2022-03-02T08:33:20.899Z</time>
      </trkpt>
      <trkpt lat="41.92966" lon="25.48955">
        <ele>270.763266</ele>
        <time>2022-03-02T08:33:24.896Z</time>
      </trkpt>
      <trkpt lat="41.92968" lon="25.48942">
        <ele>270.840187</ele>
        <time>2022-03-02T08:33:28.892Z</time>
      </trkpt>
      <trkpt lat="41.92971" lon="25.4893">
        <ele>270.916307</ele>
        <time>2022-03-02T08:33:32.892Z</time>
      </trkpt>
      <trkpt lat="41.92972" lon="25.48918">
        <ele>270.994825</ele>
        <time>2022-03-02T08:33:36.903Z</time>
      </trkpt>
      <trkpt lat="41.92973" lon="25.48905">
        <ele>271.072439</ele>
        <time>2022-03-02T08:33:40.889Z</time>
      </trkpt>
      <trkpt lat="41.92975" lon="25.48892">
        <ele>271.144591</ele>
        <time>2022-03-02T08:33:44.905Z</time>
      </trkpt>
      <trkpt lat="41.92976" lon="25.48878">
        <ele>271.104524</ele>
        <time>2022-03-02T08:33:48.943Z</time>
      </trkpt>
      <trkpt lat="41.92977" lon="25.48864">
        <ele>271.064628</ele>
        <time>2022-03-02T08:33:52.891Z</time>
      </trkpt>
      <trkpt lat="41.92977" lon="25.48849">
        <ele>271.02186</ele>
        <time>2022-03-02T08:33:56.900Z</time>
      </trkpt>
      <trkpt lat="41.92979" lon="25.48833">
        <ele>270.976892</ele>
        <time>2022-03-02T08:34:00.911Z</time>
      </trkpt>
      <trkpt lat="41.9298" lon="25.48821">
        <ele>270.941355</ele>
        <time>2022-03-02T08:34:03.936Z</time>
      </trkpt>
      <trkpt lat="41.92982" lon="25.48806">
        <ele>270.900344</ele>
        <time>2022-03-02T08:34:06.902Z</time>
      </trkpt>
      <trkpt lat="41.92986" lon="25.4879">
        <ele>270.851961</ele>
        <time>2022-03-02T08:34:09.896Z</time>
      </trkpt>
      <trkpt lat="41.92988" lon="25.48778">
        <ele>270.816186</ele>
        <time>2022-03-02T08:34:11.921Z</time>
      </trkpt>
      <trkpt lat="41.92992" lon="25.48765">
        <ele>270.776889</ele>
        <time>2022-03-02T08:34:13.930Z</time>
      </trkpt>
      <trkpt lat="41.92995" lon="25.48752">
        <ele>270.739689</ele>
        <time>2022-03-02T08:34:15.886Z</time>
      </trkpt>
      <trkpt lat="41.92998" lon="25.48739">
        <ele>270.701417</ele>
        <time>2022-03-02T08:34:17.918Z</time>
      </trkpt>
      <trkpt lat="41.93001" lon="25.48726">
        <ele>270.662876</ele>
        <time>2022-03-02T08:34:19.899Z</time>
      </trkpt>
      <trkpt lat="41.93005" lon="25.48714">
        <ele>270.625081</ele>
        <time>2022-03-02T08:34:21.907Z</time>
      </trkpt>
      <trkpt lat="41.93008" lon="25.48702">
        <ele>270.589899</ele>
        <time>2022-03-02T08:34:23.925Z</time>
      </trkpt>
      <trkpt lat="41.9301" lon="25.48686">
        <ele>270.543819</ele>
        <time>2022-03-02T08:34:26.906Z</time>
      </trkpt>
      <trkpt lat="41.93012" lon="25.48672">
        <ele>270.504526</ele>
        <time>2022-03-02T08:34:29.935Z</time>
      </trkpt>
      <trkpt lat="41.93015" lon="25.4866">
        <ele>270.468072</ele>
        <time>2022-03-02T08:34:32.907Z</time>
      </trkpt>
      <trkpt lat="41.93017" lon="25.48645">
        <ele>270.673418</ele>
        <time>2022-03-02T08:34:36.887Z</time>
      </trkpt>
      <trkpt lat="41.93019" lon="25.48631">
        <ele>270.882643</ele>
        <time>2022-03-02T08:34:40.887Z</time>
      </trkpt>
      <trkpt lat="41.93021" lon="25.48616">
        <ele>271.101935</ele>
        <time>2022-03-02T08:34:44.898Z</time>
      </trkpt>
      <trkpt lat="41.93024" lon="25.48604">
        <ele>271.292852</ele>
        <time>2022-03-02T08:34:48.897Z</time>
      </trkpt>
      <trkpt lat="41.93027" lon="25.48592">
        <ele>271.47863</ele>
        <time>2022-03-02T08:34:52.925Z</time>
      </trkpt>
      <trkpt lat="41.93029" lon="25.48579">
        <ele>271.663398</ele>
        <time>2022-03-02T08:34:56.895Z</time>
      </trkpt>
      <trkpt lat="41.93031" lon="25.48566">
        <ele>271.865944</ele>
        <time>2022-03-02T08:35:01.904Z</time>
      </trkpt>
      <trkpt lat="41.93033" lon="25.48553">
        <ele>272.052531</ele>
        <time>2022-03-02T08:35:05.894Z</time>
      </trkpt>
      <trkpt lat="41.93036" lon="25.48541">
        <ele>272.2347</ele>
        <time>2022-03-02T08:35:09.885Z</time>
      </trkpt>
      <trkpt lat="41.93038" lon="25.48528">
        <ele>272.430161</ele>
        <time>2022-03-02T08:35:13.899Z</time>
      </trkpt>
      <trkpt lat="41.9304" lon="25.48513">
        <ele>272.654132</ele>
        <time>2022-03-02T08:35:18.911Z</time>
      </trkpt>
      <trkpt lat="41.93041" lon="25.485">
        <ele>272.84281</ele>
        <time>2022-03-02T08:35:22.893Z</time>
      </trkpt>
      <trkpt lat="41.93043" lon="25.48487">
        <ele>273.038992</ele>
        <time>2022-03-02T08:35:26.896Z</time>
      </trkpt>
      <trkpt lat="41.93044" lon="25.48475">
        <ele>273.224768</ele>
        <time>2022-03-02T08:35:30.884Z</time>
      </trkpt>
      <trkpt lat="41.93045" lon="25.48461">
        <ele>273.42318</ele>
        <time>2022-03-02T08:35:34.890Z</time>
      </trkpt>
      <trkpt lat="41.93046" lon="25.48447">
        <ele>273.624865</ele>
        <time>2022-03-02T08:35:38.896Z</time>
      </trkpt>
      <trkpt lat="41.93048" lon="25.48434">
        <ele>273.819348</ele>
        <time>2022-03-02T08:35:42.886Z</time>
      </trkpt>
      <trkpt lat="41.93048" lon="25.48422">
        <ele>274.000738</ele>
        <time>2022-03-02T08:35:46.903Z</time>
      </trkpt>
      <trkpt lat="41.9305" lon="25.48407">
        <ele>274.127849</ele>
        <time>2022-03-02T08:35:51.896Z</time>
      </trkpt>
      <trkpt lat="41.93051" lon="25.48392">
        <ele>274.258792</ele>
        <time>2022-03-02T08:35:56.917Z</time>
      </trkpt>
      <trkpt lat="41.93052" lon="25.48379">
        <ele>274.376237</ele>
        <time>2022-03-02T08:36:00.881Z</time>
      </trkpt>
      <trkpt lat="41.93054" lon="25.48365">
        <ele>274.490549</ele>
        <time>2022-03-02T08:36:04.906Z</time>
      </trkpt>
      <trkpt lat="41.93056" lon="25.48351">
        <ele>274.612724</ele>
        <time>2022-03-02T08:36:08.915Z</time>
      </trkpt>
      <trkpt lat="41.93056" lon="25.48337">
        <ele>274.734219</ele>
        <time>2022-03-02T08:36:12.886Z</time>
      </trkpt>
      <trkpt lat="41.93058" lon="25.48323">
        <ele>274.857695</ele>
        <time>2022-03-02T08:36:16.924Z</time>
      </trkpt>
      <trkpt lat="41.9306" lon="25.48308">
        <ele>274.984747</ele>
        <time>2022-03-02T08:36:20.926Z</time>
      </trkpt>
      <trkpt lat="41.93062" lon="25.48293">
        <ele>275.120648</ele>
        <time>2022-03-02T08:36:24.914Z</time>
      </trkpt>
      <trkpt lat="41.93063" lon="25.48281">
        <ele>275.227654</ele>
        <time>2022-03-02T08:36:27.926Z</time>
      </trkpt>
      <trkpt lat="41.93065" lon="25.48268">
        <ele>275.338237</ele>
        <time>2022-03-02T08:36:30.888Z</time>
      </trkpt>
      <trkpt lat="41.93067" lon="25.48254">
        <ele>275.454937</ele>
        <time>2022-03-02T08:36:33.942Z</time>
      </trkpt>
      <trkpt lat="41.93067" lon="25.48241">
        <ele>275.567692</ele>
        <time>2022-03-02T08:36:36.887Z</time>
      </trkpt>
      <trkpt lat="41.93069" lon="25.48228">
        <ele>275.68343</ele>
        <time>2022-03-02T08:36:39.910Z</time>
      </trkpt>
      <trkpt lat="41.9307" lon="25.48215">
        <ele>275.792215</ele>
        <time>2022-03-02T08:36:42.888Z</time>
      </trkpt>
      <trkpt lat="41.93073" lon="25.482">
        <ele>275.931376</ele>
        <time>2022-03-02T08:36:46.890Z</time>
      </trkpt>
      <trkpt lat="41.93074" lon="25.48186">
        <ele>276.048077</ele>
        <time>2022-03-02T08:36:49.917Z</time>
      </trkpt>
      <trkpt lat="41.93075" lon="25.48173">
        <ele>276.134973</ele>
        <time>2022-03-02T08:36:52.902Z</time>
      </trkpt>
      <trkpt lat="41.93076" lon="25.4816">
        <ele>276.210861</ele>
        <time>2022-03-02T08:36:55.951Z</time>
      </trkpt>
      <trkpt lat="41.93077" lon="25.48147">
        <ele>276.288386</ele>
        <time>2022-03-02T08:36:58.904Z</time>
      </trkpt>
      <trkpt lat="41.93078" lon="25.48134">
        <ele>276.365721</ele>
        <time>2022-03-02T08:37:01.887Z</time>
      </trkpt>
      <trkpt lat="41.93079" lon="25.4812">
        <ele>276.443057</ele>
        <time>2022-03-02T08:37:04.924Z</time>
      </trkpt>
      <trkpt lat="41.9308" lon="25.48107">
        <ele>276.518656</ele>
        <time>2022-03-02T08:37:07.892Z</time>
      </trkpt>
      <trkpt lat="41.93082" lon="25.48095">
        <ele>276.591496</ele>
        <time>2022-03-02T08:37:10.897Z</time>
      </trkpt>
      <trkpt lat="41.93084" lon="25.4808">
        <ele>276.68308</ele>
        <time>2022-03-02T08:37:14.896Z</time>
      </trkpt>
      <trkpt lat="41.93085" lon="25.48064">
        <ele>276.775344</ele>
        <time>2022-03-02T08:37:18.901Z</time>
      </trkpt>
      <trkpt lat="41.93087" lon="25.48052">
        <ele>276.847101</ele>
        <time>2022-03-02T08:37:21.896Z</time>
      </trkpt>
      <trkpt lat="41.93088" lon="25.4804">
        <ele>276.917823</ele>
        <time>2022-03-02T08:37:24.897Z</time>
      </trkpt>
      <trkpt lat="41.9309" lon="25.48024">
        <ele>277.008357</ele>
        <time>2022-03-02T08:37:28.961Z</time>
      </trkpt>
      <trkpt lat="41.93091" lon="25.48008">
        <ele>277.101882</ele>
        <time>2022-03-02T08:37:32.915Z</time>
      </trkpt>
      <trkpt lat="41.93092" lon="25.47996">
        <ele>277.172684</ele>
        <time>2022-03-02T08:37:35.902Z</time>
      </trkpt>
      <trkpt lat="41.93094" lon="25.47981">
        <ele>277.264481</ele>
        <time>2022-03-02T08:37:39.982Z</time>
      </trkpt>
      <trkpt lat="41.93095" lon="25.47965">
        <ele>277.353862</ele>
        <time>2022-03-02T08:37:43.891Z</time>
      </trkpt>
      <trkpt lat="41.93096" lon="25.47951">
        <ele>277.43672</ele>
        <time>2022-03-02T08:37:47.900Z</time>
      </trkpt>
      <trkpt lat="41.93097" lon="25.47936">
        <ele>277.517819</ele>
        <time>2022-03-02T08:37:51.898Z</time>
      </trkpt>
      <trkpt lat="41.93098" lon="25.47921">
        <ele>277.595827</ele>
        <time>2022-03-02T08:37:55.930Z</time>
      </trkpt>
      <trkpt lat="41.931" lon="25.47906">
        <ele>277.672723</ele>
        <time>2022-03-02T08:37:59.889Z</time>
      </trkpt>
      <trkpt lat="41.93103" lon="25.47894">
        <ele>277.735121</ele>
        <time>2022-03-02T08:38:02.890Z</time>
      </trkpt>
      <trkpt lat="41.93107" lon="25.47883">
        <ele>277.798335</ele>
        <time>2022-03-02T08:38:05.901Z</time>
      </trkpt>
      <trkpt lat="41.93111" lon="25.47871">
        <ele>277.863113</ele>
        <time>2022-03-02T08:38:08.894Z</time>
      </trkpt>
      <trkpt lat="41.93115" lon="25.47859">
        <ele>277.927983</ele>
        <time>2022-03-02T08:38:11.902Z</time>
      </trkpt>
      <trkpt lat="41.93118" lon="25.47848">
        <ele>277.992235</ele>
        <time>2022-03-02T08:38:14.907Z</time>
      </trkpt>
      <trkpt lat="41.93122" lon="25.47836">
        <ele>278.053643</ele>
        <time>2022-03-02T08:38:17.911Z</time>
      </trkpt>
      <trkpt lat="41.93126" lon="25.47824">
        <ele>278.119712</ele>
        <time>2022-03-02T08:38:20.901Z</time>
      </trkpt>
      <trkpt lat="41.9313" lon="25.47813">
        <ele>278.185758</ele>
        <time>2022-03-02T08:38:23.930Z</time>
      </trkpt>
      <trkpt lat="41.93134" lon="25.478">
        <ele>278.256376</ele>
        <time>2022-03-02T08:38:26.902Z</time>
      </trkpt>
      <trkpt lat="41.93138" lon="25.47787">
        <ele>278.326213</ele>
        <time>2022-03-02T08:38:29.894Z</time>
      </trkpt>
      <trkpt lat="41.93143" lon="25.47774">
        <ele>278.395772</ele>
        <time>2022-03-02T08:38:32.907Z</time>
      </trkpt>
      <trkpt lat="41.93147" lon="25.47761">
        <ele>278.468562</ele>
        <time>2022-03-02T08:38:35.894Z</time>
      </trkpt>
      <trkpt lat="41.93151" lon="25.47747">
        <ele>278.544145</ele>
        <time>2022-03-02T08:38:38.889Z</time>
      </trkpt>
      <trkpt lat="41.93155" lon="25.47733">
        <ele>278.619784</ele>
        <time>2022-03-02T08:38:41.893Z</time>
      </trkpt>
      <trkpt lat="41.9316" lon="25.47719">
        <ele>278.699928</ele>
        <time>2022-03-02T08:38:44.885Z</time>
      </trkpt>
      <trkpt lat="41.93164" lon="25.47704">
        <ele>278.827173</ele>
        <time>2022-03-02T08:38:47.910Z</time>
      </trkpt>
      <trkpt lat="41.93169" lon="25.4769">
        <ele>278.958578</ele>
        <time>2022-03-02T08:38:50.895Z</time>
      </trkpt>
      <trkpt lat="41.93173" lon="25.47675">
        <ele>279.089982</ele>
        <time>2022-03-02T08:38:53.893Z</time>
      </trkpt>
      <trkpt lat="41.93178" lon="25.47662">
        <ele>279.213591</ele>
        <time>2022-03-02T08:38:56.891Z</time>
      </trkpt>
      <trkpt lat="41.93182" lon="25.47648">
        <ele>279.338102</ele>
        <time>2022-03-02T08:38:59.905Z</time>
      </trkpt>
      <trkpt lat="41.93187" lon="25.47634">
        <ele>279.463438</ele>
        <time>2022-03-02T08:39:02.898Z</time>
      </trkpt>
      <trkpt lat="41.93192" lon="25.47621">
        <ele>279.589244</ele>
        <time>2022-03-02T08:39:05.886Z</time>
      </trkpt>
      <trkpt lat="41.93197" lon="25.47607">
        <ele>279.714958</ele>
        <time>2022-03-02T08:39:08.900Z</time>
      </trkpt>
      <trkpt lat="41.93201" lon="25.47593">
        <ele>279.83467</ele>
        <time>2022-03-02T08:39:11.890Z</time>
      </trkpt>
      <trkpt lat="41.93205" lon="25.4758">
        <ele>279.953295</ele>
        <time>2022-03-02T08:39:14.911Z</time>
      </trkpt>
      <trkpt lat="41.93209" lon="25.47567">
        <ele>280.073881</ele>
        <time>2022-03-02T08:39:17.897Z</time>
      </trkpt>
      <trkpt lat="41.93213" lon="25.47554">
        <ele>280.193541</ele>
        <time>2022-03-02T08:39:20.900Z</time>
      </trkpt>
      <trkpt lat="41.93218" lon="25.4754">
        <ele>280.316381</ele>
        <time>2022-03-02T08:39:23.888Z</time>
      </trkpt>
      <trkpt lat="41.93223" lon="25.47527">
        <ele>280.435763</ele>
        <time>2022-03-02T08:39:26.904Z</time>
      </trkpt>
      <trkpt lat="41.93227" lon="25.47514">
        <ele>280.554822</ele>
        <time>2022-03-02T08:39:29.882Z</time>
      </trkpt>
      <trkpt lat="41.93231" lon="25.47502">
        <ele>280.666906</ele>
        <time>2022-03-02T08:39:32.894Z</time>
      </trkpt>
      <trkpt lat="41.93235" lon="25.4749">
        <ele>280.769467</ele>
        <time>2022-03-02T08:39:35.913Z</time>
      </trkpt>
      <trkpt lat="41.93239" lon="25.47479">
        <ele>280.866777</ele>
        <time>2022-03-02T08:39:38.915Z</time>
      </trkpt>
      <trkpt lat="41.93243" lon="25.47467">
        <ele>280.968069</ele>
        <time>2022-03-02T08:39:41.935Z</time>
      </trkpt>
      <trkpt lat="41.93247" lon="25.47453">
        <ele>281.08325</ele>
        <time>2022-03-02T08:39:45.901Z</time>
      </trkpt>
      <trkpt lat="41.93252" lon="25.47439">
        <ele>281.204118</ele>
        <time>2022-03-02T08:39:49.885Z</time>
      </trkpt>
      <trkpt lat="41.93257" lon="25.47424">
        <ele>281.327101</ele>
        <time>2022-03-02T08:39:53.940Z</time>
      </trkpt>
      <trkpt lat="41.93262" lon="25.47411">
        <ele>281.44612</ele>
        <time>2022-03-02T08:39:57.896Z</time>
      </trkpt>
      <trkpt lat="41.93266" lon="25.47397">
        <ele>281.564566</ele>
        <time>2022-03-02T08:40:01.898Z</time>
      </trkpt>
      <trkpt lat="41.9327" lon="25.47382">
        <ele>281.687243</ele>
        <time>2022-03-02T08:40:05.902Z</time>
      </trkpt>
      <trkpt lat="41.93275" lon="25.47367">
        <ele>281.811101</ele>
        <time>2022-03-02T08:40:09.901Z</time>
      </trkpt>
      <trkpt lat="41.93279" lon="25.47353">
        <ele>281.931937</ele>
        <time>2022-03-02T08:40:13.881Z</time>
      </trkpt>
      <trkpt lat="41.93284" lon="25.47338">
        <ele>282.053242</ele>
        <time>2022-03-02T08:40:17.877Z</time>
      </trkpt>
      <trkpt lat="41.93288" lon="25.47324">
        <ele>282.172965</ele>
        <time>2022-03-02T08:40:21.928Z</time>
      </trkpt>
      <trkpt lat="41.93293" lon="25.4731">
        <ele>282.29543</ele>
        <time>2022-03-02T08:40:25.892Z</time>
      </trkpt>
      <trkpt lat="41.93298" lon="25.47296">
        <ele>282.415594</ele>
        <time>2022-03-02T08:40:29.892Z</time>
      </trkpt>
      <trkpt lat="41.93302" lon="25.47282">
        <ele>282.52806</ele>
        <time>2022-03-02T08:40:33.913Z</time>
      </trkpt>
      <trkpt lat="41.93306" lon="25.47269">
        <ele>282.680923</ele>
        <time>2022-03-02T08:40:37.887Z</time>
      </trkpt>
      <trkpt lat="41.9331" lon="25.47256">
        <ele>282.865172</ele>
        <time>2022-03-02T08:40:41.946Z</time>
      </trkpt>
      <trkpt lat="41.93315" lon="25.47244">
        <ele>283.044781</ele>
        <time>2022-03-02T08:40:45.910Z</time>
      </trkpt>
      <trkpt lat="41.93319" lon="25.47232">
        <ele>283.221004</ele>
        <time>2022-03-02T08:40:49.883Z</time>
      </trkpt>
      <trkpt lat="41.93323" lon="25.47219">
        <ele>283.40403</ele>
        <time>2022-03-02T08:40:53.905Z</time>
      </trkpt>
      <trkpt lat="41.93326" lon="25.47207">
        <ele>283.572059</ele>
        <time>2022-03-02T08:40:57.906Z</time>
      </trkpt>
      <trkpt lat="41.9333" lon="25.47195">
        <ele>283.746568</ele>
        <time>2022-03-02T08:41:01.882Z</time>
      </trkpt>
      <trkpt lat="41.93335" lon="25.47183">
        <ele>283.925721</ele>
        <time>2022-03-02T08:41:05.913Z</time>
      </trkpt>
      <trkpt lat="41.93339" lon="25.47172">
        <ele>284.092995</ele>
        <time>2022-03-02T08:41:09.901Z</time>
      </trkpt>
      <trkpt lat="41.93343" lon="25.4716">
        <ele>284.269351</ele>
        <time>2022-03-02T08:41:13.893Z</time>
      </trkpt>
      <trkpt lat="41.93347" lon="25.47149">
        <ele>284.433197</ele>
        <time>2022-03-02T08:41:17.893Z</time>
      </trkpt>
      <trkpt lat="41.9335" lon="25.47138">
        <ele>284.593192</ele>
        <time>2022-03-02T08:41:21.912Z</time>
      </trkpt>
      <trkpt lat="41.93354" lon="25.47126">
        <ele>284.76649</ele>
        <time>2022-03-02T08:41:25.938Z</time>
      </trkpt>
      <trkpt lat="41.93358" lon="25.47113">
        <ele>284.948294</ele>
        <time>2022-03-02T08:41:30.878Z</time>
      </trkpt>
      <trkpt lat="41.93363" lon="25.471">
        <ele>285.140043</ele>
        <time>2022-03-02T08:41:35.897Z</time>
      </trkpt>
      <trkpt lat="41.93366" lon="25.47089">
        <ele>285.30196</ele>
        <time>2022-03-02T08:41:39.901Z</time>
      </trkpt>
      <trkpt lat="41.93371" lon="25.47076">
        <ele>285.490205</ele>
        <time>2022-03-02T08:41:44.904Z</time>
      </trkpt>
      <trkpt lat="41.93375" lon="25.47065">
        <ele>285.654482</ele>
        <time>2022-03-02T08:41:48.894Z</time>
      </trkpt>
      <trkpt lat="41.93379" lon="25.47054">
        <ele>285.823615</ele>
        <time>2022-03-02T08:41:52.880Z</time>
      </trkpt>
      <trkpt lat="41.93382" lon="25.47039">
        <ele>286.061755</ele>
        <time>2022-03-02T08:41:57.893Z</time>
      </trkpt>
      <trkpt lat="41.93385" lon="25.47025">
        <ele>286.299931</ele>
        <time>2022-03-02T08:42:02.895Z</time>
      </trkpt>
      <trkpt lat="41.93388" lon="25.47014">
        <ele>286.491727</ele>
        <time>2022-03-02T08:42:06.900Z</time>
      </trkpt>
      <trkpt lat="41.93391" lon="25.47">
        <ele>286.712933</ele>
        <time>2022-03-02T08:42:11.901Z</time>
      </trkpt>
      <trkpt lat="41.93393" lon="25.46986">
        <ele>286.939515</ele>
        <time>2022-03-02T08:42:16.880Z</time>
      </trkpt>
      <trkpt lat="41.93395" lon="25.46974">
        <ele>287.140186</ele>
        <time>2022-03-02T08:42:20.897Z</time>
      </trkpt>
      <trkpt lat="41.93397" lon="25.4696">
        <ele>287.36754</ele>
        <time>2022-03-02T08:42:25.880Z</time>
      </trkpt>
      <trkpt lat="41.93399" lon="25.46946">
        <ele>287.593478</ele>
        <time>2022-03-02T08:42:30.881Z</time>
      </trkpt>
      <trkpt lat="41.93401" lon="25.46931">
        <ele>287.82859</ele>
        <time>2022-03-02T08:42:35.912Z</time>
      </trkpt>
      <trkpt lat="41.93403" lon="25.46917">
        <ele>288.056473</ele>
        <time>2022-03-02T08:42:40.881Z</time>
      </trkpt>
      <trkpt lat="41.93405" lon="25.46905">
        <ele>288.249537</ele>
        <time>2022-03-02T08:42:45.902Z</time>
      </trkpt>
      <trkpt lat="41.93407" lon="25.46892">
        <ele>288.459292</ele>
        <time>2022-03-02T08:42:50.921Z</time>
      </trkpt>
      <trkpt lat="41.93408" lon="25.46879">
        <ele>288.662736</ele>
        <time>2022-03-02T08:42:55.894Z</time>
      </trkpt>
      <trkpt lat="41.93407" lon="25.46866">
        <ele>288.870635</ele>
        <time>2022-03-02T08:43:00.898Z</time>
      </trkpt>
      <trkpt lat="41.93408" lon="25.46853">
        <ele>289.08704</ele>
        <time>2022-03-02T08:43:05.927Z</time>
      </trkpt>
      <trkpt lat="41.93409" lon="25.46838">
        <ele>289.314126</ele>
        <time>2022-03-02T08:43:10.897Z</time>
      </trkpt>
      <trkpt lat="41.93409" lon="25.46825">
        <ele>289.522199</ele>
        <time>2022-03-02T08:43:15.910Z</time>
      </trkpt>
      <trkpt lat="41.9341" lon="25.46812">
        <ele>289.451136</ele>
        <time>2022-03-02T08:43:20.897Z</time>
      </trkpt>
      <trkpt lat="41.9341" lon="25.46797">
        <ele>289.073287</ele>
        <time>2022-03-02T08:43:25.889Z</time>
      </trkpt>
      <trkpt lat="41.93411" lon="25.46784">
        <ele>288.74548</ele>
        <time>2022-03-02T08:43:29.894Z</time>
      </trkpt>
      <trkpt lat="41.93411" lon="25.4677">
        <ele>288.381143</ele>
        <time>2022-03-02T08:43:33.904Z</time>
      </trkpt>
      <trkpt lat="41.93412" lon="25.46758">
        <ele>288.065324</ele>
        <time>2022-03-02T08:43:36.898Z</time>
      </trkpt>
      <trkpt lat="41.93412" lon="25.46745">
        <ele>287.716266</ele>
        <time>2022-03-02T08:43:39.884Z</time>
      </trkpt>
      <trkpt lat="41.93413" lon="25.46728">
        <ele>287.293833</ele>
        <time>2022-03-02T08:43:42.889Z</time>
      </trkpt>
      <trkpt lat="41.93414" lon="25.46716">
        <ele>286.978471</ele>
        <time>2022-03-02T08:43:44.910Z</time>
      </trkpt>
      <trkpt lat="41.93414" lon="25.46703">
        <ele>286.639914</ele>
        <time>2022-03-02T08:43:46.902Z</time>
      </trkpt>
      <trkpt lat="41.93415" lon="25.46689">
        <ele>286.282907</ele>
        <time>2022-03-02T08:43:48.894Z</time>
      </trkpt>
      <trkpt lat="41.93416" lon="25.46675">
        <ele>285.913235</ele>
        <time>2022-03-02T08:43:50.904Z</time>
      </trkpt>
      <trkpt lat="41.93417" lon="25.4666">
        <ele>285.53796</ele>
        <time>2022-03-02T08:43:52.898Z</time>
      </trkpt>
      <trkpt lat="41.93417" lon="25.46646">
        <ele>285.158155</ele>
        <time>2022-03-02T08:43:54.918Z</time>
      </trkpt>
      <trkpt lat="41.93417" lon="25.4663">
        <ele>284.763016</ele>
        <time>2022-03-02T08:43:56.904Z</time>
      </trkpt>
      <trkpt lat="41.93418" lon="25.46615">
        <ele>284.362583</ele>
        <time>2022-03-02T08:43:58.904Z</time>
      </trkpt>
      <trkpt lat="41.93419" lon="25.46599">
        <ele>283.945869</ele>
        <time>2022-03-02T08:44:00.879Z</time>
      </trkpt>
      <trkpt lat="41.9342" lon="25.46582">
        <ele>283.51762</ele>
        <time>2022-03-02T08:44:02.921Z</time>
      </trkpt>
      <trkpt lat="41.93422" lon="25.46566">
        <ele>283.134453</ele>
        <time>2022-03-02T08:44:04.897Z</time>
      </trkpt>
      <trkpt lat="41.93426" lon="25.46549">
        <ele>282.768347</ele>
        <time>2022-03-02T08:44:06.920Z</time>
      </trkpt>
      <trkpt lat="41.93431" lon="25.46532">
        <ele>282.388845</ele>
        <time>2022-03-02T08:44:08.894Z</time>
      </trkpt>
      <trkpt lat="41.93437" lon="25.46516">
        <ele>282.001937</ele>
        <time>2022-03-02T08:44:10.899Z</time>
      </trkpt>
      <trkpt lat="41.93443" lon="25.46499">
        <ele>281.616926</ele>
        <time>2022-03-02T08:44:12.902Z</time>
      </trkpt>
      <trkpt lat="41.9345" lon="25.46481">
        <ele>281.196131</ele>
        <time>2022-03-02T08:44:14.928Z</time>
      </trkpt>
      <trkpt lat="41.93457" lon="25.46462">
        <ele>280.751437</ele>
        <time>2022-03-02T08:44:16.905Z</time>
      </trkpt>
      <trkpt lat="41.93464" lon="25.46445">
        <ele>280.320218</ele>
        <time>2022-03-02T08:44:18.903Z</time>
      </trkpt>
      <trkpt lat="41.93472" lon="25.46428">
        <ele>279.915697</ele>
        <time>2022-03-02T08:44:20.902Z</time>
      </trkpt>
      <trkpt lat="41.93478" lon="25.46411">
        <ele>279.520364</ele>
        <time>2022-03-02T08:44:22.917Z</time>
      </trkpt>
      <trkpt lat="41.93484" lon="25.46396">
        <ele>279.154192</ele>
        <time>2022-03-02T08:44:24.907Z</time>
      </trkpt>
      <trkpt lat="41.93489" lon="25.46381">
        <ele>278.813769</ele>
        <time>2022-03-02T08:44:26.919Z</time>
      </trkpt>
      <trkpt lat="41.93495" lon="25.46367">
        <ele>278.470727</ele>
        <time>2022-03-02T08:44:28.936Z</time>
      </trkpt>
      <trkpt lat="41.935" lon="25.46352">
        <ele>278.098687</ele>
        <time>2022-03-02T08:44:30.889Z</time>
      </trkpt>
      <trkpt lat="41.93506" lon="25.46338">
        <ele>277.703832</ele>
        <time>2022-03-02T08:44:32.895Z</time>
      </trkpt>
      <trkpt lat="41.93511" lon="25.46325">
        <ele>277.343153</ele>
        <time>2022-03-02T08:44:34.911Z</time>
      </trkpt>
      <trkpt lat="41.93516" lon="25.46312">
        <ele>276.969517</ele>
        <time>2022-03-02T08:44:36.906Z</time>
      </trkpt>
      <trkpt lat="41.93522" lon="25.463">
        <ele>276.609751</ele>
        <time>2022-03-02T08:44:38.900Z</time>
      </trkpt>
      <trkpt lat="41.93527" lon="25.46288">
        <ele>276.266617</ele>
        <time>2022-03-02T08:44:40.880Z</time>
      </trkpt>
      <trkpt lat="41.93531" lon="25.46276">
        <ele>275.937084</ele>
        <time>2022-03-02T08:44:42.886Z</time>
      </trkpt>
      <trkpt lat="41.93535" lon="25.46265">
        <ele>275.626312</ele>
        <time>2022-03-02T08:44:44.902Z</time>
      </trkpt>
      <trkpt lat="41.93539" lon="25.46254">
        <ele>275.323742</ele>
        <time>2022-03-02T08:44:46.890Z</time>
      </trkpt>
      <trkpt lat="41.93543" lon="25.46243">
        <ele>275.017489</ele>
        <time>2022-03-02T08:44:48.907Z</time>
      </trkpt>
      <trkpt lat="41.93549" lon="25.46227">
        <ele>274.572705</ele>
        <time>2022-03-02T08:44:51.904Z</time>
      </trkpt>
      <trkpt lat="41.93553" lon="25.46216">
        <ele>274.266462</ele>
        <time>2022-03-02T08:44:53.899Z</time>
      </trkpt>
      <trkpt lat="41.93558" lon="25.46201">
        <ele>273.856683</ele>
        <time>2022-03-02T08:44:56.913Z</time>
      </trkpt>
      <trkpt lat="41.93564" lon="25.46185">
        <ele>273.408154</ele>
        <time>2022-03-02T08:44:59.899Z</time>
      </trkpt>
      <trkpt lat="41.93571" lon="25.46169">
        <ele>272.958729</ele>
        <time>2022-03-02T08:45:02.899Z</time>
      </trkpt>
      <trkpt lat="41.93575" lon="25.46158">
        <ele>272.649356</ele>
        <time>2022-03-02T08:45:04.901Z</time>
      </trkpt>
      <trkpt lat="41.93578" lon="25.46146">
        <ele>272.322983</ele>
        <time>2022-03-02T08:45:06.905Z</time>
      </trkpt>
      <trkpt lat="41.93582" lon="25.46134">
        <ele>272.027172</ele>
        <time>2022-03-02T08:45:08.913Z</time>
      </trkpt>
      <trkpt lat="41.93585" lon="25.4612">
        <ele>271.712785</ele>
        <time>2022-03-02T08:45:10.886Z</time>
      </trkpt>
      <trkpt lat="41.93589" lon="25.46106">
        <ele>271.387041</ele>
        <time>2022-03-02T08:45:12.890Z</time>
      </trkpt>
      <trkpt lat="41.93592" lon="25.46092">
        <ele>271.058655</ele>
        <time>2022-03-02T08:45:14.913Z</time>
      </trkpt>
      <trkpt lat="41.93595" lon="25.46078">
        <ele>270.734218</ele>
        <time>2022-03-02T08:45:16.929Z</time>
      </trkpt>
      <trkpt lat="41.93598" lon="25.46063">
        <ele>270.399012</ele>
        <time>2022-03-02T08:45:18.941Z</time>
      </trkpt>
      <trkpt lat="41.93601" lon="25.46049">
        <ele>270.072444</ele>
        <time>2022-03-02T08:45:20.919Z</time>
      </trkpt>
      <trkpt lat="41.93603" lon="25.46035">
        <ele>269.763653</ele>
        <time>2022-03-02T08:45:22.911Z</time>
      </trkpt>
      <trkpt lat="41.93606" lon="25.46021">
        <ele>269.454114</ele>
        <time>2022-03-02T08:45:24.879Z</time>
      </trkpt>
      <trkpt lat="41.93608" lon="25.46009">
        <ele>269.175095</ele>
        <time>2022-03-02T08:45:26.905Z</time>
      </trkpt>
      <trkpt lat="41.93611" lon="25.45997">
        <ele>268.904463</ele>
        <time>2022-03-02T08:45:28.905Z</time>
      </trkpt>
      <trkpt lat="41.93614" lon="25.45981">
        <ele>268.521278</ele>
        <time>2022-03-02T08:45:31.911Z</time>
      </trkpt>
      <trkpt lat="41.93618" lon="25.45965">
        <ele>268.161455</ele>
        <time>2022-03-02T08:45:34.918Z</time>
      </trkpt>
      <trkpt lat="41.93621" lon="25.45951">
        <ele>267.83915</ele>
        <time>2022-03-02T08:45:37.886Z</time>
      </trkpt>
      <trkpt lat="41.93624" lon="25.45937">
        <ele>267.522146</ele>
        <time>2022-03-02T08:45:40.906Z</time>
      </trkpt>
      <trkpt lat="41.93627" lon="25.45922">
        <ele>267.189178</ele>
        <time>2022-03-02T08:45:43.885Z</time>
      </trkpt>
      <trkpt lat="41.93629" lon="25.45907">
        <ele>266.884623</ele>
        <time>2022-03-02T08:45:46.896Z</time>
      </trkpt>
      <trkpt lat="41.93633" lon="25.45892">
        <ele>266.659342</ele>
        <time>2022-03-02T08:45:49.903Z</time>
      </trkpt>
      <trkpt lat="41.93635" lon="25.45876">
        <ele>266.429504</ele>
        <time>2022-03-02T08:45:52.891Z</time>
      </trkpt>
      <trkpt lat="41.93638" lon="25.45861">
        <ele>266.200125</ele>
        <time>2022-03-02T08:45:55.940Z</time>
      </trkpt>
      <trkpt lat="41.93642" lon="25.45844">
        <ele>265.950228</ele>
        <time>2022-03-02T08:45:58.907Z</time>
      </trkpt>
      <trkpt lat="41.93645" lon="25.45832">
        <ele>265.772398</ele>
        <time>2022-03-02T08:46:00.884Z</time>
      </trkpt>
      <trkpt lat="41.93647" lon="25.4582">
        <ele>265.589329</ele>
        <time>2022-03-02T08:46:02.909Z</time>
      </trkpt>
      <trkpt lat="41.93653" lon="25.45808">
        <ele>265.379963</ele>
        <time>2022-03-02T08:46:04.889Z</time>
      </trkpt>
      <trkpt lat="41.93663" lon="25.45798">
        <ele>265.145271</ele>
        <time>2022-03-02T08:46:06.895Z</time>
      </trkpt>
      <trkpt lat="41.93676" lon="25.45792">
        <ele>264.8921</ele>
        <time>2022-03-02T08:46:08.954Z</time>
      </trkpt>
      <trkpt lat="41.93689" lon="25.45786">
        <ele>264.613412</ele>
        <time>2022-03-02T08:46:10.939Z</time>
      </trkpt>
      <trkpt lat="41.93704" lon="25.45778">
        <ele>264.301182</ele>
        <time>2022-03-02T08:46:12.899Z</time>
      </trkpt>
      <trkpt lat="41.9372" lon="25.45768">
        <ele>263.974449</ele>
        <time>2022-03-02T08:46:14.901Z</time>
      </trkpt>
      <trkpt lat="41.93736" lon="25.45759">
        <ele>263.641269</ele>
        <time>2022-03-02T08:46:16.892Z</time>
      </trkpt>
      <trkpt lat="41.93744" lon="25.45754">
        <ele>263.509521</ele>
        <time>2022-03-02T08:46:17.900Z</time>
      </trkpt>
      <trkpt lat="41.93752" lon="25.45749">
        <ele>263.570471</ele>
        <time>2022-03-02T08:46:18.964Z</time>
      </trkpt>
      <trkpt lat="41.93761" lon="25.45744">
        <ele>263.631026</ele>
        <time>2022-03-02T08:46:19.895Z</time>
      </trkpt>
      <trkpt lat="41.93769" lon="25.4574">
        <ele>263.692202</ele>
        <time>2022-03-02T08:46:20.905Z</time>
      </trkpt>
      <trkpt lat="41.93785" lon="25.4573">
        <ele>263.810838</ele>
        <time>2022-03-02T08:46:22.912Z</time>
      </trkpt>
      <trkpt lat="41.93801" lon="25.45721">
        <ele>263.926449</ele>
        <time>2022-03-02T08:46:24.880Z</time>
      </trkpt>
      <trkpt lat="41.93816" lon="25.45713">
        <ele>264.034951</ele>
        <time>2022-03-02T08:46:26.897Z</time>
      </trkpt>
      <trkpt lat="41.93829" lon="25.45707">
        <ele>264.128742</ele>
        <time>2022-03-02T08:46:28.916Z</time>
      </trkpt>
      <trkpt lat="41.93839" lon="25.457">
        <ele>264.205034</ele>
        <time>2022-03-02T08:46:30.882Z</time>
      </trkpt>
      <trkpt lat="41.93849" lon="25.45694">
        <ele>264.27483</ele>
        <time>2022-03-02T08:46:32.886Z</time>
      </trkpt>
      <trkpt lat="41.9386" lon="25.45687">
        <ele>264.357666</ele>
        <time>2022-03-02T08:46:35.921Z</time>
      </trkpt>
      <trkpt lat="41.93871" lon="25.45681">
        <ele>264.43682</ele>
        <time>2022-03-02T08:46:38.898Z</time>
      </trkpt>
      <trkpt lat="41.93881" lon="25.45675">
        <ele>264.509466</ele>
        <time>2022-03-02T08:46:41.897Z</time>
      </trkpt>
      <trkpt lat="41.9389" lon="25.4567">
        <ele>264.575564</ele>
        <time>2022-03-02T08:46:44.888Z</time>
      </trkpt>
      <trkpt lat="41.93901" lon="25.45665">
        <ele>264.654131</ele>
        <time>2022-03-02T08:46:48.918Z</time>
      </trkpt>
      <trkpt lat="41.93911" lon="25.45659">
        <ele>264.781177</ele>
        <time>2022-03-02T08:46:52.930Z</time>
      </trkpt>
      <trkpt lat="41.9392" lon="25.45655">
        <ele>265.020676</ele>
        <time>2022-03-02T08:46:56.888Z</time>
      </trkpt>
      <trkpt lat="41.93931" lon="25.45649">
        <ele>265.313617</ele>
        <time>2022-03-02T08:47:00.879Z</time>
      </trkpt>
      <trkpt lat="41.93941" lon="25.45644">
        <ele>265.578828</ele>
        <time>2022-03-02T08:47:04.880Z</time>
      </trkpt>
      <trkpt lat="41.93949" lon="25.45639">
        <ele>265.817817</ele>
        <time>2022-03-02T08:47:08.913Z</time>
      </trkpt>
      <trkpt lat="41.93958" lon="25.45634">
        <ele>266.04614</ele>
        <time>2022-03-02T08:47:12.914Z</time>
      </trkpt>
      <trkpt lat="41.93967" lon="25.45629">
        <ele>266.296697</ele>
        <time>2022-03-02T08:47:16.915Z</time>
      </trkpt>
      <trkpt lat="41.93976" lon="25.45624">
        <ele>266.550887</ele>
        <time>2022-03-02T08:47:20.903Z</time>
      </trkpt>
      <trkpt lat="41.93985" lon="25.45619">
        <ele>266.785435</ele>
        <time>2022-03-02T08:47:24.881Z</time>
      </trkpt>
      <trkpt lat="41.93995" lon="25.45613">
        <ele>267.070026</ele>
        <time>2022-03-02T08:47:29.935Z</time>
      </trkpt>
      <trkpt lat="41.94005" lon="25.45608">
        <ele>267.323598</ele>
        <time>2022-03-02T08:47:34.906Z</time>
      </trkpt>
      <trkpt lat="41.94015" lon="25.45602">
        <ele>267.602862</ele>
        <time>2022-03-02T08:47:39.914Z</time>
      </trkpt>
      <trkpt lat="41.94025" lon="25.45595">
        <ele>267.881387</ele>
        <time>2022-03-02T08:47:44.890Z</time>
      </trkpt>
      <trkpt lat="41.94034" lon="25.4559">
        <ele>268.131041</ele>
        <time>2022-03-02T08:47:48.940Z</time>
      </trkpt>
      <trkpt lat="41.94043" lon="25.45585">
        <ele>268.368465</ele>
        <time>2022-03-02T08:47:52.906Z</time>
      </trkpt>
      <trkpt lat="41.94053" lon="25.45581">
        <ele>268.638818</ele>
        <time>2022-03-02T08:47:57.893Z</time>
      </trkpt>
      <trkpt lat="41.94064" lon="25.45575">
        <ele>268.920474</ele>
        <time>2022-03-02T08:48:02.896Z</time>
      </trkpt>
      <trkpt lat="41.94074" lon="25.45568">
        <ele>269.199147</ele>
        <time>2022-03-02T08:48:07.906Z</time>
      </trkpt>
      <trkpt lat="41.94083" lon="25.45561">
        <ele>269.483488</ele>
        <time>2022-03-02T08:48:12.900Z</time>
      </trkpt>
      <trkpt lat="41.94092" lon="25.45557">
        <ele>269.722413</ele>
        <time>2022-03-02T08:48:16.915Z</time>
      </trkpt>
      <trkpt lat="41.94102" lon="25.45551">
        <ele>270.013301</ele>
        <time>2022-03-02T08:48:21.909Z</time>
      </trkpt>
      <trkpt lat="41.94112" lon="25.45545">
        <ele>270.295749</ele>
        <time>2022-03-02T08:48:26.946Z</time>
      </trkpt>
      <trkpt lat="41.9412" lon="25.45541">
        <ele>270.530549</ele>
        <time>2022-03-02T08:48:30.878Z</time>
      </trkpt>
      <trkpt lat="41.94131" lon="25.45536">
        <ele>270.815661</ele>
        <time>2022-03-02T08:48:35.900Z</time>
      </trkpt>
      <trkpt lat="41.9414" lon="25.45531">
        <ele>271.08878</ele>
        <time>2022-03-02T08:48:40.908Z</time>
      </trkpt>
      <trkpt lat="41.9415" lon="25.45525">
        <ele>271.369686</ele>
        <time>2022-03-02T08:48:45.888Z</time>
      </trkpt>
      <trkpt lat="41.9416" lon="25.45519">
        <ele>271.648187</ele>
        <time>2022-03-02T08:48:50.885Z</time>
      </trkpt>
      <trkpt lat="41.94168" lon="25.45515">
        <ele>271.888848</ele>
        <time>2022-03-02T08:48:54.901Z</time>
      </trkpt>
      <trkpt lat="41.94178" lon="25.4551">
        <ele>272.156728</ele>
        <time>2022-03-02T08:48:59.935Z</time>
      </trkpt>
      <trkpt lat="41.94188" lon="25.45504">
        <ele>272.445172</ele>
        <time>2022-03-02T08:49:04.925Z</time>
      </trkpt>
      <trkpt lat="41.94198" lon="25.455">
        <ele>272.704343</ele>
        <time>2022-03-02T08:49:08.925Z</time>
      </trkpt>
      <trkpt lat="41.94208" lon="25.45493">
        <ele>272.991647</ele>
        <time>2022-03-02T08:49:12.908Z</time>
      </trkpt>
      <trkpt lat="41.94218" lon="25.45487">
        <ele>273.294761</ele>
        <time>2022-03-02T08:49:16.938Z</time>
      </trkpt>
      <trkpt lat="41.94229" lon="25.45481">
        <ele>273.60824</ele>
        <time>2022-03-02T08:49:20.909Z</time>
      </trkpt>
      <trkpt lat="41.94238" lon="25.45476">
        <ele>273.851038</ele>
        <time>2022-03-02T08:49:23.907Z</time>
      </trkpt>
      <trkpt lat="41.94247" lon="25.4547">
        <ele>273.776378</ele>
        <time>2022-03-02T08:49:26.916Z</time>
      </trkpt>
      <trkpt lat="41.94258" lon="25.45465">
        <ele>273.591086</ele>
        <time>2022-03-02T08:49:29.904Z</time>
      </trkpt>
      <trkpt lat="41.94268" lon="25.45459">
        <ele>273.405061</ele>
        <time>2022-03-02T08:49:32.926Z</time>
      </trkpt>
      <trkpt lat="41.94279" lon="25.45453">
        <ele>273.222478</ele>
        <time>2022-03-02T08:49:35.906Z</time>
      </trkpt>
      <trkpt lat="41.94291" lon="25.45446">
        <ele>273.009155</ele>
        <time>2022-03-02T08:49:38.935Z</time>
      </trkpt>
      <trkpt lat="41.94299" lon="25.45441">
        <ele>272.860332</ele>
        <time>2022-03-02T08:49:40.911Z</time>
      </trkpt>
      <trkpt lat="41.94307" lon="25.45436">
        <ele>272.712417</ele>
        <time>2022-03-02T08:49:42.896Z</time>
      </trkpt>
      <trkpt lat="41.94316" lon="25.45431">
        <ele>272.566077</ele>
        <time>2022-03-02T08:49:44.894Z</time>
      </trkpt>
      <trkpt lat="41.94328" lon="25.45423">
        <ele>272.349235</ele>
        <time>2022-03-02T08:49:47.896Z</time>
      </trkpt>
      <trkpt lat="41.9434" lon="25.45416">
        <ele>272.133935</ele>
        <time>2022-03-02T08:49:50.909Z</time>
      </trkpt>
      <trkpt lat="41.94348" lon="25.45411">
        <ele>271.980573</ele>
        <time>2022-03-02T08:49:52.920Z</time>
      </trkpt>
      <trkpt lat="41.94357" lon="25.45406">
        <ele>271.817363</ele>
        <time>2022-03-02T08:49:54.897Z</time>
      </trkpt>
      <trkpt lat="41.94367" lon="25.454">
        <ele>271.650682</ele>
        <time>2022-03-02T08:49:56.906Z</time>
      </trkpt>
      <trkpt lat="41.94376" lon="25.45394">
        <ele>271.48946</ele>
        <time>2022-03-02T08:49:58.877Z</time>
      </trkpt>
      <trkpt lat="41.94385" lon="25.45389">
        <ele>271.321566</ele>
        <time>2022-03-02T08:50:00.893Z</time>
      </trkpt>
      <trkpt lat="41.94395" lon="25.45385">
        <ele>271.15606</ele>
        <time>2022-03-02T08:50:02.907Z</time>
      </trkpt>
      <trkpt lat="41.94404" lon="25.45379">
        <ele>270.987275</ele>
        <time>2022-03-02T08:50:04.918Z</time>
      </trkpt>
      <trkpt lat="41.94413" lon="25.45375">
        <ele>271.083339</ele>
        <time>2022-03-02T08:50:06.886Z</time>
      </trkpt>
      <trkpt lat="41.94425" lon="25.45368">
        <ele>271.240456</ele>
        <time>2022-03-02T08:50:09.904Z</time>
      </trkpt>
      <trkpt lat="41.94435" lon="25.45362">
        <ele>271.367906</ele>
        <time>2022-03-02T08:50:12.900Z</time>
      </trkpt>
      <trkpt lat="41.94445" lon="25.45357">
        <ele>271.50509</ele>
        <time>2022-03-02T08:50:15.932Z</time>
      </trkpt>
      <trkpt lat="41.94456" lon="25.4535">
        <ele>271.648792</ele>
        <time>2022-03-02T08:50:18.894Z</time>
      </trkpt>
      <trkpt lat="41.94466" lon="25.45345">
        <ele>271.775281</ele>
        <time>2022-03-02T08:50:21.941Z</time>
      </trkpt>
      <trkpt lat="41.94475" lon="25.45341">
        <ele>271.89646</ele>
        <time>2022-03-02T08:50:24.902Z</time>
      </trkpt>
      <trkpt lat="41.94485" lon="25.45334">
        <ele>272.025801</ele>
        <time>2022-03-02T08:50:27.915Z</time>
      </trkpt>
      <trkpt lat="41.94494" lon="25.4533">
        <ele>272.146386</ele>
        <time>2022-03-02T08:50:30.883Z</time>
      </trkpt>
      <trkpt lat="41.94503" lon="25.45326">
        <ele>272.25879</ele>
        <time>2022-03-02T08:50:33.901Z</time>
      </trkpt>
      <trkpt lat="41.94512" lon="25.4532">
        <ele>272.38698</ele>
        <time>2022-03-02T08:50:37.900Z</time>
      </trkpt>
      <trkpt lat="41.94521" lon="25.45314">
        <ele>272.507418</ele>
        <time>2022-03-02T08:50:41.922Z</time>
      </trkpt>
      <trkpt lat="41.9453" lon="25.45309">
        <ele>272.621937</ele>
        <time>2022-03-02T08:50:45.898Z</time>
      </trkpt>
      <trkpt lat="41.9454" lon="25.45304">
        <ele>272.75752</ele>
        <time>2022-03-02T08:50:50.930Z</time>
      </trkpt>
      <trkpt lat="41.94551" lon="25.45299">
        <ele>272.892274</ele>
        <time>2022-03-02T08:50:55.915Z</time>
      </trkpt>
      <trkpt lat="41.94561" lon="25.45292">
        <ele>273.02601</ele>
        <time>2022-03-02T08:51:00.889Z</time>
      </trkpt>
      <trkpt lat="41.94569" lon="25.45287">
        <ele>273.135733</ele>
        <time>2022-03-02T08:51:04.908Z</time>
      </trkpt>
      <trkpt lat="41.94579" lon="25.45281">
        <ele>273.476645</ele>
        <time>2022-03-02T08:51:09.889Z</time>
      </trkpt>
      <trkpt lat="41.94589" lon="25.45275">
        <ele>273.884831</ele>
        <time>2022-03-02T08:51:14.934Z</time>
      </trkpt>
      <trkpt lat="41.94598" lon="25.45269">
        <ele>274.267284</ele>
        <time>2022-03-02T08:51:19.915Z</time>
      </trkpt>
      <trkpt lat="41.94608" lon="25.45263">
        <ele>274.662217</ele>
        <time>2022-03-02T08:51:24.906Z</time>
      </trkpt>
      <trkpt lat="41.94618" lon="25.45258">
        <ele>275.058144</ele>
        <time>2022-03-02T08:51:29.905Z</time>
      </trkpt>
      <trkpt lat="41.94628" lon="25.45252">
        <ele>275.455527</ele>
        <time>2022-03-02T08:51:34.874Z</time>
      </trkpt>
      <trkpt lat="41.94638" lon="25.45247">
        <ele>275.821932</ele>
        <time>2022-03-02T08:51:40.899Z</time>
      </trkpt>
      <trkpt lat="41.94647" lon="25.45243">
        <ele>276.173879</ele>
        <time>2022-03-02T08:51:45.904Z</time>
      </trkpt>
      <trkpt lat="41.94656" lon="25.45237">
        <ele>276.534129</ele>
        <time>2022-03-02T08:51:50.886Z</time>
      </trkpt>
      <trkpt lat="41.94665" lon="25.45232">
        <ele>276.915508</ele>
        <time>2022-03-02T08:51:55.925Z</time>
      </trkpt>
      <trkpt lat="41.94674" lon="25.45227">
        <ele>277.254645</ele>
        <time>2022-03-02T08:52:00.892Z</time>
      </trkpt>
      <trkpt lat="41.94682" lon="25.45221">
        <ele>277.602665</ele>
        <time>2022-03-02T08:52:05.896Z</time>
      </trkpt>
      <trkpt lat="41.94691" lon="25.45216">
        <ele>277.949589</ele>
        <time>2022-03-02T08:52:10.899Z</time>
      </trkpt>
      <trkpt lat="41.94701" lon="25.45211">
        <ele>278.331299</ele>
        <time>2022-03-02T08:52:15.907Z</time>
      </trkpt>
      <trkpt lat="41.9471" lon="25.45206">
        <ele>278.687631</ele>
        <time>2022-03-02T08:52:20.900Z</time>
      </trkpt>
      <trkpt lat="41.94719" lon="25.45201">
        <ele>279.044545</ele>
        <time>2022-03-02T08:52:25.973Z</time>
      </trkpt>
      <trkpt lat="41.94728" lon="25.45197">
        <ele>279.403153</ele>
        <time>2022-03-02T08:52:30.881Z</time>
      </trkpt>
      <trkpt lat="41.94737" lon="25.45192">
        <ele>279.745593</ele>
        <time>2022-03-02T08:52:35.924Z</time>
      </trkpt>
      <trkpt lat="41.94745" lon="25.45187">
        <ele>280.030886</ele>
        <time>2022-03-02T08:52:40.902Z</time>
      </trkpt>
      <trkpt lat="41.94754" lon="25.45181">
        <ele>280.361605</ele>
        <time>2022-03-02T08:52:46.899Z</time>
      </trkpt>
      <trkpt lat="41.94763" lon="25.45176">
        <ele>280.650778</ele>
        <time>2022-03-02T08:52:51.911Z</time>
      </trkpt>
      <trkpt lat="41.94771" lon="25.45171">
        <ele>280.958115</ele>
        <time>2022-03-02T08:52:56.934Z</time>
      </trkpt>
      <trkpt lat="41.9478" lon="25.45166">
        <ele>281.25124</ele>
        <time>2022-03-02T08:53:01.909Z</time>
      </trkpt>
      <trkpt lat="41.9479" lon="25.4516">
        <ele>281.589404</ele>
        <time>2022-03-02T08:53:07.910Z</time>
      </trkpt>
      <trkpt lat="41.948" lon="25.45155">
        <ele>281.934053</ele>
        <time>2022-03-02T08:53:13.915Z</time>
      </trkpt>
      <trkpt lat="41.9481" lon="25.45149">
        <ele>282.270263</ele>
        <time>2022-03-02T08:53:19.900Z</time>
      </trkpt>
      <trkpt lat="41.94819" lon="25.45144">
        <ele>282.588201</ele>
        <time>2022-03-02T08:53:26.896Z</time>
      </trkpt>
      <trkpt lat="41.94829" lon="25.45138">
        <ele>282.927306</ele>
        <time>2022-03-02T08:53:32.908Z</time>
      </trkpt>
      <trkpt lat="41.94838" lon="25.45132">
        <ele>283.270316</ele>
        <time>2022-03-02T08:53:37.901Z</time>
      </trkpt>
      <trkpt lat="41.94848" lon="25.45126">
        <ele>283.604606</ele>
        <time>2022-03-02T08:53:42.915Z</time>
      </trkpt>
      <trkpt lat="41.94857" lon="25.4512">
        <ele>283.914987</ele>
        <time>2022-03-02T08:53:47.943Z</time>
      </trkpt>
      <trkpt lat="41.94865" lon="25.45115">
        <ele>284.201318</ele>
        <time>2022-03-02T08:53:51.885Z</time>
      </trkpt>
      <trkpt lat="41.94875" lon="25.45108">
        <ele>284.55493</ele>
        <time>2022-03-02T08:53:56.904Z</time>
      </trkpt>
      <trkpt lat="41.94883" lon="25.45102">
        <ele>284.850096</ele>
        <time>2022-03-02T08:54:00.911Z</time>
      </trkpt>
      <trkpt lat="41.94894" lon="25.45095">
        <ele>285.219417</ele>
        <time>2022-03-02T08:54:04.898Z</time>
      </trkpt>
      <trkpt lat="41.94902" lon="25.4509">
        <ele>285.37449</ele>
        <time>2022-03-02T08:54:07.912Z</time>
      </trkpt>
      <trkpt lat="41.9491" lon="25.45084">
        <ele>285.118454</ele>
        <time>2022-03-02T08:54:10.914Z</time>
      </trkpt>
      <trkpt lat="41.9492" lon="25.45077">
        <ele>284.835832</ele>
        <time>2022-03-02T08:54:13.904Z</time>
      </trkpt>
      <trkpt lat="41.9493" lon="25.4507">
        <ele>284.536182</ele>
        <time>2022-03-02T08:54:16.908Z</time>
      </trkpt>
      <trkpt lat="41.94942" lon="25.45062">
        <ele>284.19034</ele>
        <time>2022-03-02T08:54:19.890Z</time>
      </trkpt>
      <trkpt lat="41.94954" lon="25.45054">
        <ele>283.829607</ele>
        <time>2022-03-02T08:54:22.880Z</time>
      </trkpt>
      <trkpt lat="41.94963" lon="25.45048">
        <ele>283.573315</ele>
        <time>2022-03-02T08:54:24.876Z</time>
      </trkpt>
      <trkpt lat="41.94971" lon="25.45042">
        <ele>283.323464</ele>
        <time>2022-03-02T08:54:26.938Z</time>
      </trkpt>
      <trkpt lat="41.9498" lon="25.45036">
        <ele>283.065713</ele>
        <time>2022-03-02T08:54:28.888Z</time>
      </trkpt>
      <trkpt lat="41.9499" lon="25.4503">
        <ele>282.785831</ele>
        <time>2022-03-02T08:54:30.904Z</time>
      </trkpt>
      <trkpt lat="41.95" lon="25.45024">
        <ele>282.504092</ele>
        <time>2022-03-02T08:54:32.891Z</time>
      </trkpt>
      <trkpt lat="41.95009" lon="25.45017">
        <ele>282.223373</ele>
        <time>2022-03-02T08:54:34.905Z</time>
      </trkpt>
      <trkpt lat="41.95019" lon="25.45009">
        <ele>281.919575</ele>
        <time>2022-03-02T08:54:36.915Z</time>
      </trkpt>
      <trkpt lat="41.9503" lon="25.45002">
        <ele>281.60446</ele>
        <time>2022-03-02T08:54:38.910Z</time>
      </trkpt>
      <trkpt lat="41.95041" lon="25.44995">
        <ele>281.284944</ele>
        <time>2022-03-02T08:54:40.924Z</time>
      </trkpt>
      <trkpt lat="41.95052" lon="25.44987">
        <ele>280.939999</ele>
        <time>2022-03-02T08:54:42.911Z</time>
      </trkpt>
      <trkpt lat="41.95064" lon="25.44978">
        <ele>280.607355</ele>
        <time>2022-03-02T08:54:44.890Z</time>
      </trkpt>
      <trkpt lat="41.95075" lon="25.44971">
        <ele>280.315633</ele>
        <time>2022-03-02T08:54:46.916Z</time>
      </trkpt>
      <trkpt lat="41.95087" lon="25.44963">
        <ele>280.014238</ele>
        <time>2022-03-02T08:54:48.907Z</time>
      </trkpt>
      <trkpt lat="41.95098" lon="25.44954">
        <ele>279.699171</ele>
        <time>2022-03-02T08:54:50.902Z</time>
      </trkpt>
      <trkpt lat="41.95111" lon="25.44946">
        <ele>279.381035</ele>
        <time>2022-03-02T08:54:52.921Z</time>
      </trkpt>
      <trkpt lat="41.95122" lon="25.44938">
        <ele>279.07208</ele>
        <time>2022-03-02T08:54:54.909Z</time>
      </trkpt>
      <trkpt lat="41.95134" lon="25.44931">
        <ele>278.780917</ele>
        <time>2022-03-02T08:54:56.900Z</time>
      </trkpt>
      <trkpt lat="41.95144" lon="25.44924">
        <ele>278.504664</ele>
        <time>2022-03-02T08:54:58.899Z</time>
      </trkpt>
      <trkpt lat="41.95154" lon="25.44917">
        <ele>278.255618</ele>
        <time>2022-03-02T08:55:00.902Z</time>
      </trkpt>
      <trkpt lat="41.95162" lon="25.44912">
        <ele>278.026766</ele>
        <time>2022-03-02T08:55:02.879Z</time>
      </trkpt>
      <trkpt lat="41.95174" lon="25.44904">
        <ele>277.724562</ele>
        <time>2022-03-02T08:55:05.903Z</time>
      </trkpt>
      <trkpt lat="41.95184" lon="25.44897">
        <ele>277.466539</ele>
        <time>2022-03-02T08:55:08.881Z</time>
      </trkpt>
      <trkpt lat="41.95193" lon="25.4489">
        <ele>277.227435</ele>
        <time>2022-03-02T08:55:11.886Z</time>
      </trkpt>
      <trkpt lat="41.95202" lon="25.44883">
        <ele>276.969795</ele>
        <time>2022-03-02T08:55:15.899Z</time>
      </trkpt>
      <trkpt lat="41.95211" lon="25.44877">
        <ele>276.743147</ele>
        <time>2022-03-02T08:55:19.898Z</time>
      </trkpt>
      <trkpt lat="41.9522" lon="25.44872">
        <ele>276.515569</ele>
        <time>2022-03-02T08:55:23.901Z</time>
      </trkpt>
      <trkpt lat="41.95228" lon="25.44867">
        <ele>276.805659</ele>
        <time>2022-03-02T08:55:27.924Z</time>
      </trkpt>
      <trkpt lat="41.95237" lon="25.4486">
        <ele>277.146361</ele>
        <time>2022-03-02T08:55:32.934Z</time>
      </trkpt>
      <trkpt lat="41.95246" lon="25.44853">
        <ele>277.492705</ele>
        <time>2022-03-02T08:55:37.893Z</time>
      </trkpt>
      <trkpt lat="41.95256" lon="25.44845">
        <ele>277.861181</ele>
        <time>2022-03-02T08:55:42.933Z</time>
      </trkpt>
      <trkpt lat="41.95264" lon="25.4484">
        <ele>278.180699</ele>
        <time>2022-03-02T08:55:46.897Z</time>
      </trkpt>
      <trkpt lat="41.95274" lon="25.44833">
        <ele>278.558984</ele>
        <time>2022-03-02T08:55:51.890Z</time>
      </trkpt>
      <trkpt lat="41.95282" lon="25.44827">
        <ele>278.869759</ele>
        <time>2022-03-02T08:55:55.932Z</time>
      </trkpt>
      <trkpt lat="41.95291" lon="25.44821">
        <ele>279.193086</ele>
        <time>2022-03-02T08:55:59.907Z</time>
      </trkpt>
      <trkpt lat="41.95301" lon="25.44815">
        <ele>279.567293</ele>
        <time>2022-03-02T08:56:04.916Z</time>
      </trkpt>
      <trkpt lat="41.95311" lon="25.4481">
        <ele>279.923573</ele>
        <time>2022-03-02T08:56:09.887Z</time>
      </trkpt>
      <trkpt lat="41.9532" lon="25.44804">
        <ele>280.253195</ele>
        <time>2022-03-02T08:56:14.905Z</time>
      </trkpt>
      <trkpt lat="41.95329" lon="25.44797">
        <ele>280.607127</ele>
        <time>2022-03-02T08:56:19.937Z</time>
      </trkpt>
      <trkpt lat="41.95338" lon="25.44791">
        <ele>280.954348</ele>
        <time>2022-03-02T08:56:24.905Z</time>
      </trkpt>
      <trkpt lat="41.95347" lon="25.44784">
        <ele>281.293851</ele>
        <time>2022-03-02T08:56:29.887Z</time>
      </trkpt>
      <trkpt lat="41.95356" lon="25.44778">
        <ele>281.64071</ele>
        <time>2022-03-02T08:56:34.905Z</time>
      </trkpt>
      <trkpt lat="41.95366" lon="25.44772">
        <ele>281.981555</ele>
        <time>2022-03-02T08:56:38.890Z</time>
      </trkpt>
      <trkpt lat="41.95375" lon="25.44765">
        <ele>282.348822</ele>
        <time>2022-03-02T08:56:42.889Z</time>
      </trkpt>
      <trkpt lat="41.95384" lon="25.44759">
        <ele>282.31198</ele>
        <time>2022-03-02T08:56:45.897Z</time>
      </trkpt>
      <trkpt lat="41.95394" lon="25.44752">
        <ele>281.688166</ele>
        <time>2022-03-02T08:56:48.899Z</time>
      </trkpt>
      <trkpt lat="41.95406" lon="25.44744">
        <ele>280.953903</ele>
        <time>2022-03-02T08:56:51.894Z</time>
      </trkpt>
      <trkpt lat="41.95415" lon="25.44738">
        <ele>280.423513</ele>
        <time>2022-03-02T08:56:53.908Z</time>
      </trkpt>
      <trkpt lat="41.95425" lon="25.44732">
        <ele>279.852462</ele>
        <time>2022-03-02T08:56:55.905Z</time>
      </trkpt>
      <trkpt lat="41.95435" lon="25.44725">
        <ele>279.24393</ele>
        <time>2022-03-02T08:56:57.902Z</time>
      </trkpt>
      <trkpt lat="41.95447" lon="25.44718">
        <ele>278.572961</ele>
        <time>2022-03-02T08:56:59.898Z</time>
      </trkpt>
      <trkpt lat="41.95459" lon="25.44709">
        <ele>277.810652</ele>
        <time>2022-03-02T08:57:01.894Z</time>
      </trkpt>
      <trkpt lat="41.95473" lon="25.447">
        <ele>277.019617</ele>
        <time>2022-03-02T08:57:03.920Z</time>
      </trkpt>
      <trkpt lat="41.95487" lon="25.44691">
        <ele>276.168305</ele>
        <time>2022-03-02T08:57:05.917Z</time>
      </trkpt>
      <trkpt lat="41.95501" lon="25.44682">
        <ele>275.336161</ele>
        <time>2022-03-02T08:57:07.895Z</time>
      </trkpt>
      <trkpt lat="41.95515" lon="25.44672">
        <ele>274.472117</ele>
        <time>2022-03-02T08:57:09.896Z</time>
      </trkpt>
      <trkpt lat="41.9553" lon="25.44663">
        <ele>273.599821</ele>
        <time>2022-03-02T08:57:11.884Z</time>
      </trkpt>
      <trkpt lat="41.95545" lon="25.44653">
        <ele>272.637655</ele>
        <time>2022-03-02T08:57:13.885Z</time>
      </trkpt>
      <trkpt lat="41.95559" lon="25.44644">
        <ele>271.297023</ele>
        <time>2022-03-02T08:57:15.903Z</time>
      </trkpt>
      <trkpt lat="41.95572" lon="25.44634">
        <ele>269.981853</ele>
        <time>2022-03-02T08:57:17.908Z</time>
      </trkpt>
      <trkpt lat="41.95587" lon="25.44625">
        <ele>268.639336</ele>
        <time>2022-03-02T08:57:19.949Z</time>
      </trkpt>
      <trkpt lat="41.95601" lon="25.44616">
        <ele>267.331214</ele>
        <time>2022-03-02T08:57:21.902Z</time>
      </trkpt>
      <trkpt lat="41.95614" lon="25.44607">
        <ele>266.079287</ele>
        <time>2022-03-02T08:57:23.913Z</time>
      </trkpt>
      <trkpt lat="41.95628" lon="25.44598">
        <ele>264.755811</ele>
        <time>2022-03-02T08:57:25.900Z</time>
      </trkpt>
      <trkpt lat="41.95643" lon="25.44591">
        <ele>263.435799</ele>
        <time>2022-03-02T08:57:27.902Z</time>
      </trkpt>
      <trkpt lat="41.95657" lon="25.44587">
        <ele>262.189873</ele>
        <time>2022-03-02T08:57:29.893Z</time>
      </trkpt>
      <trkpt lat="41.95672" lon="25.44585">
        <ele>260.945589</ele>
        <time>2022-03-02T08:57:31.910Z</time>
      </trkpt>
      <trkpt lat="41.95686" lon="25.44584">
        <ele>259.715899</ele>
        <time>2022-03-02T08:57:33.893Z</time>
      </trkpt>
      <trkpt lat="41.95701" lon="25.44584">
        <ele>258.471587</ele>
        <time>2022-03-02T08:57:35.893Z</time>
      </trkpt>
      <trkpt lat="41.95714" lon="25.44585">
        <ele>257.371784</ele>
        <time>2022-03-02T08:57:37.912Z</time>
      </trkpt>
      <trkpt lat="41.95727" lon="25.44587">
        <ele>256.275956</ele>
        <time>2022-03-02T08:57:39.915Z</time>
      </trkpt>
      <trkpt lat="41.95741" lon="25.44592">
        <ele>255.088163</ele>
        <time>2022-03-02T08:57:41.912Z</time>
      </trkpt>
      <trkpt lat="41.95755" lon="25.446">
        <ele>253.790858</ele>
        <time>2022-03-02T08:57:43.906Z</time>
      </trkpt>
      <trkpt lat="41.9577" lon="25.44609">
        <ele>252.367151</ele>
        <time>2022-03-02T08:57:45.888Z</time>
      </trkpt>
      <trkpt lat="41.95779" lon="25.44615">
        <ele>251.597338</ele>
        <time>2022-03-02T08:57:46.894Z</time>
      </trkpt>
      <trkpt lat="41.95787" lon="25.44621">
        <ele>250.784323</ele>
        <time>2022-03-02T08:57:47.888Z</time>
      </trkpt>
      <trkpt lat="41.95796" lon="25.44627">
        <ele>249.928046</ele>
        <time>2022-03-02T08:57:48.904Z</time>
      </trkpt>
      <trkpt lat="41.95806" lon="25.44632">
        <ele>249.066825</ele>
        <time>2022-03-02T08:57:49.901Z</time>
      </trkpt>
      <trkpt lat="41.95815" lon="25.44638">
        <ele>248.210548</ele>
        <time>2022-03-02T08:57:50.891Z</time>
      </trkpt>
      <trkpt lat="41.95824" lon="25.44644">
        <ele>247.363856</ele>
        <time>2022-03-02T08:57:51.887Z</time>
      </trkpt>
      <trkpt lat="41.95833" lon="25.44651">
        <ele>246.544098</ele>
        <time>2022-03-02T08:57:52.918Z</time>
      </trkpt>
      <trkpt lat="41.95841" lon="25.44657">
        <ele>245.743412</ele>
        <time>2022-03-02T08:57:53.939Z</time>
      </trkpt>
      <trkpt lat="41.95849" lon="25.44663">
        <ele>244.960424</ele>
        <time>2022-03-02T08:57:54.905Z</time>
      </trkpt>
      <trkpt lat="41.95857" lon="25.44669">
        <ele>244.202398</ele>
        <time>2022-03-02T08:57:55.902Z</time>
      </trkpt>
      <trkpt lat="41.95872" lon="25.44682">
        <ele>242.706178</ele>
        <time>2022-03-02T08:57:57.901Z</time>
      </trkpt>
      <trkpt lat="41.95879" lon="25.44689">
        <ele>242.017992</ele>
        <time>2022-03-02T08:57:58.904Z</time>
      </trkpt>
      <trkpt lat="41.95886" lon="25.44697">
        <ele>241.35204</ele>
        <time>2022-03-02T08:57:59.947Z</time>
      </trkpt>
      <trkpt lat="41.959" lon="25.44712">
        <ele>240.032428</ele>
        <time>2022-03-02T08:58:01.909Z</time>
      </trkpt>
      <trkpt lat="41.95914" lon="25.44727">
        <ele>238.718961</ele>
        <time>2022-03-02T08:58:03.893Z</time>
      </trkpt>
      <trkpt lat="41.95927" lon="25.44742">
        <ele>237.395052</ele>
        <time>2022-03-02T08:58:05.885Z</time>
      </trkpt>
      <trkpt lat="41.95941" lon="25.44757">
        <ele>236.10546</ele>
        <time>2022-03-02T08:58:07.918Z</time>
      </trkpt>
      <trkpt lat="41.95954" lon="25.4477">
        <ele>234.887127</ele>
        <time>2022-03-02T08:58:09.892Z</time>
      </trkpt>
      <trkpt lat="41.95968" lon="25.44784">
        <ele>233.603393</ele>
        <time>2022-03-02T08:58:11.890Z</time>
      </trkpt>
      <trkpt lat="41.95975" lon="25.44792">
        <ele>232.92695</ele>
        <time>2022-03-02T08:58:12.914Z</time>
      </trkpt>
      <trkpt lat="41.95982" lon="25.448">
        <ele>232.24482</ele>
        <time>2022-03-02T08:58:13.933Z</time>
      </trkpt>
      <trkpt lat="41.95994" lon="25.44815">
        <ele>231.028603</ele>
        <time>2022-03-02T08:58:15.910Z</time>
      </trkpt>
      <trkpt lat="41.96006" lon="25.44828">
        <ele>229.890244</ele>
        <time>2022-03-02T08:58:17.915Z</time>
      </trkpt>
      <trkpt lat="41.96019" lon="25.44843">
        <ele>228.627425</ele>
        <time>2022-03-02T08:58:19.903Z</time>
      </trkpt>
      <trkpt lat="41.96032" lon="25.44859">
        <ele>227.319151</ele>
        <time>2022-03-02T08:58:21.930Z</time>
      </trkpt>
      <trkpt lat="41.96043" lon="25.44875">
        <ele>226.060153</ele>
        <time>2022-03-02T08:58:23.894Z</time>
      </trkpt>
      <trkpt lat="41.96054" lon="25.44891">
        <ele>224.801974</ele>
        <time>2022-03-02T08:58:25.892Z</time>
      </trkpt>
      <trkpt lat="41.96067" lon="25.44906">
        <ele>223.539365</ele>
        <time>2022-03-02T08:58:27.890Z</time>
      </trkpt>
      <trkpt lat="41.9608" lon="25.44917">
        <ele>222.329721</ele>
        <time>2022-03-02T08:58:29.924Z</time>
      </trkpt>
      <trkpt lat="41.96095" lon="25.44923">
        <ele>221.135656</ele>
        <time>2022-03-02T08:58:31.882Z</time>
      </trkpt>
      <trkpt lat="41.96113" lon="25.44923">
        <ele>219.835126</ele>
        <time>2022-03-02T08:58:33.907Z</time>
      </trkpt>
      <trkpt lat="41.9613" lon="25.4492">
        <ele>218.492245</ele>
        <time>2022-03-02T08:58:35.903Z</time>
      </trkpt>
      <trkpt lat="41.96145" lon="25.44913">
        <ele>217.25067</ele>
        <time>2022-03-02T08:58:37.890Z</time>
      </trkpt>
      <trkpt lat="41.96158" lon="25.44902">
        <ele>216.126552</ele>
        <time>2022-03-02T08:58:39.899Z</time>
      </trkpt>
      <trkpt lat="41.96169" lon="25.44892">
        <ele>215.216625</ele>
        <time>2022-03-02T08:58:41.918Z</time>
      </trkpt>
      <trkpt lat="41.96181" lon="25.44881">
        <ele>214.431689</ele>
        <time>2022-03-02T08:58:43.889Z</time>
      </trkpt>
      <trkpt lat="41.96192" lon="25.44871">
        <ele>213.683734</ele>
        <time>2022-03-02T08:58:45.883Z</time>
      </trkpt>
      <trkpt lat="41.96203" lon="25.4486">
        <ele>212.912547</ele>
        <time>2022-03-02T08:58:47.906Z</time>
      </trkpt>
      <trkpt lat="41.96215" lon="25.44849">
        <ele>212.125258</ele>
        <time>2022-03-02T08:58:49.934Z</time>
      </trkpt>
      <trkpt lat="41.96226" lon="25.44839">
        <ele>211.361186</ele>
        <time>2022-03-02T08:58:51.974Z</time>
      </trkpt>
      <trkpt lat="41.96237" lon="25.44829">
        <ele>210.606282</ele>
        <time>2022-03-02T08:58:53.895Z</time>
      </trkpt>
      <trkpt lat="41.96249" lon="25.44818">
        <ele>209.837477</ele>
        <time>2022-03-02T08:58:55.885Z</time>
      </trkpt>
      <trkpt lat="41.9626" lon="25.44807">
        <ele>209.047937</ele>
        <time>2022-03-02T08:58:57.898Z</time>
      </trkpt>
      <trkpt lat="41.96271" lon="25.44798">
        <ele>208.327276</ele>
        <time>2022-03-02T08:58:59.903Z</time>
      </trkpt>
      <trkpt lat="41.96282" lon="25.44791">
        <ele>207.665101</ele>
        <time>2022-03-02T08:59:01.905Z</time>
      </trkpt>
      <trkpt lat="41.96292" lon="25.44786">
        <ele>207.036839</ele>
        <time>2022-03-02T08:59:03.893Z</time>
      </trkpt>
      <trkpt lat="41.96303" lon="25.44782">
        <ele>206.404109</ele>
        <time>2022-03-02T08:59:05.888Z</time>
      </trkpt>
      <trkpt lat="41.96316" lon="25.4478">
        <ele>205.711701</ele>
        <time>2022-03-02T08:59:07.991Z</time>
      </trkpt>
      <trkpt lat="41.96328" lon="25.44779">
        <ele>205.403091</ele>
        <time>2022-03-02T08:59:09.903Z</time>
      </trkpt>
      <trkpt lat="41.96341" lon="25.4478">
        <ele>205.214737</ele>
        <time>2022-03-02T08:59:11.892Z</time>
      </trkpt>
      <trkpt lat="41.96351" lon="25.44781">
        <ele>205.059646</ele>
        <time>2022-03-02T08:59:13.902Z</time>
      </trkpt>
      <trkpt lat="41.96361" lon="25.44783">
        <ele>204.899047</ele>
        <time>2022-03-02T08:59:15.955Z</time>
      </trkpt>
      <trkpt lat="41.96371" lon="25.44785">
        <ele>204.7483</ele>
        <time>2022-03-02T08:59:17.940Z</time>
      </trkpt>
      <trkpt lat="41.96381" lon="25.44787">
        <ele>204.600908</ele>
        <time>2022-03-02T08:59:19.896Z</time>
      </trkpt>
      <trkpt lat="41.9639" lon="25.44788">
        <ele>204.458654</ele>
        <time>2022-03-02T08:59:21.902Z</time>
      </trkpt>
      <trkpt lat="41.964" lon="25.4479">
        <ele>204.31426</ele>
        <time>2022-03-02T08:59:23.893Z</time>
      </trkpt>
      <trkpt lat="41.96411" lon="25.44792">
        <ele>204.143373</ele>
        <time>2022-03-02T08:59:26.949Z</time>
      </trkpt>
      <trkpt lat="41.96423" lon="25.44795">
        <ele>203.948822</ele>
        <time>2022-03-02T08:59:29.922Z</time>
      </trkpt>
      <trkpt lat="41.96435" lon="25.44798">
        <ele>203.763082</ele>
        <time>2022-03-02T08:59:32.898Z</time>
      </trkpt>
      <trkpt lat="41.96447" lon="25.448">
        <ele>203.582487</ele>
        <time>2022-03-02T08:59:35.894Z</time>
      </trkpt>
      <trkpt lat="41.96457" lon="25.44802">
        <ele>203.426464</ele>
        <time>2022-03-02T08:59:38.891Z</time>
      </trkpt>
      <trkpt lat="41.96467" lon="25.44803">
        <ele>203.273156</ele>
        <time>2022-03-02T08:59:41.883Z</time>
      </trkpt>
      <trkpt lat="41.96477" lon="25.44804">
        <ele>203.128485</ele>
        <time>2022-03-02T08:59:44.892Z</time>
      </trkpt>
      <trkpt lat="41.96488" lon="25.44807">
        <ele>202.95075</ele>
        <time>2022-03-02T08:59:48.896Z</time>
      </trkpt>
      <trkpt lat="41.96498" lon="25.44808">
        <ele>202.790962</ele>
        <time>2022-03-02T08:59:52.890Z</time>
      </trkpt>
      <trkpt lat="41.96509" lon="25.44809">
        <ele>202.530254</ele>
        <time>2022-03-02T08:59:56.959Z</time>
      </trkpt>
      <trkpt lat="41.9652" lon="25.44811">
        <ele>202.283216</ele>
        <time>2022-03-02T08:59:59.901Z</time>
      </trkpt>
      <trkpt lat="41.96533" lon="25.44814">
        <ele>201.986637</ele>
        <time>2022-03-02T09:00:02.905Z</time>
      </trkpt>
      <trkpt lat="41.96541" lon="25.44817">
        <ele>201.777044</ele>
        <time>2022-03-02T09:00:04.903Z</time>
      </trkpt>
      <trkpt lat="41.96555" lon="25.44816">
        <ele>201.47108</ele>
        <time>2022-03-02T09:00:07.902Z</time>
      </trkpt>
      <trkpt lat="41.96564" lon="25.44812">
        <ele>201.246948</ele>
        <time>2022-03-02T09:00:09.936Z</time>
      </trkpt>
      <trkpt lat="41.96572" lon="25.44804">
        <ele>201.005562</ele>
        <time>2022-03-02T09:00:11.954Z</time>
      </trkpt>
      <trkpt lat="41.96579" lon="25.44794">
        <ele>200.76947</ele>
        <time>2022-03-02T09:00:13.901Z</time>
      </trkpt>
      <trkpt lat="41.96586" lon="25.44784">
        <ele>200.5308</ele>
        <time>2022-03-02T09:00:15.935Z</time>
      </trkpt>
      <trkpt lat="41.96591" lon="25.44773">
        <ele>200.306628</ele>
        <time>2022-03-02T09:00:17.911Z</time>
      </trkpt>
      <trkpt lat="41.96598" lon="25.44758">
        <ele>200.013883</ele>
        <time>2022-03-02T09:00:20.900Z</time>
      </trkpt>
      <trkpt lat="41.96603" lon="25.44745">
        <ele>199.763745</ele>
        <time>2022-03-02T09:00:23.895Z</time>
      </trkpt>
      <trkpt lat="41.96608" lon="25.44734">
        <ele>199.538878</ele>
        <time>2022-03-02T09:00:26.907Z</time>
      </trkpt>
      <trkpt lat="41.96613" lon="25.44722">
        <ele>199.307741</ele>
        <time>2022-03-02T09:00:30.897Z</time>
      </trkpt>
      <trkpt lat="41.96618" lon="25.4471">
        <ele>199.064219</ele>
        <time>2022-03-02T09:00:34.897Z</time>
      </trkpt>
      <trkpt lat="41.96623" lon="25.44698">
        <ele>198.814448</ele>
        <time>2022-03-02T09:00:38.887Z</time>
      </trkpt>
      <trkpt lat="41.9663" lon="25.44685">
        <ele>198.765277</ele>
        <time>2022-03-02T09:00:42.899Z</time>
      </trkpt>
      <trkpt lat="41.96636" lon="25.44671">
        <ele>199.039064</ele>
        <time>2022-03-02T09:00:46.890Z</time>
      </trkpt>
      <trkpt lat="41.96641" lon="25.44659">
        <ele>199.278374</ele>
        <time>2022-03-02T09:00:49.998Z</time>
      </trkpt>
      <trkpt lat="41.96646" lon="25.44648">
        <ele>199.501749</ele>
        <time>2022-03-02T09:00:52.897Z</time>
      </trkpt>
      <trkpt lat="41.96651" lon="25.44637">
        <ele>199.722125</ele>
        <time>2022-03-02T09:00:55.911Z</time>
      </trkpt>
      <trkpt lat="41.96656" lon="25.44625">
        <ele>199.958199</ele>
        <time>2022-03-02T09:00:59.926Z</time>
      </trkpt>
      <trkpt lat="41.96662" lon="25.44613">
        <ele>200.210832</ele>
        <time>2022-03-02T09:01:03.901Z</time>
      </trkpt>
      <trkpt lat="41.96669" lon="25.44601">
        <ele>200.464633</ele>
        <time>2022-03-02T09:01:07.896Z</time>
      </trkpt>
      <trkpt lat="41.96674" lon="25.44591">
        <ele>200.67681</ele>
        <time>2022-03-02T09:01:11.885Z</time>
      </trkpt>
      <trkpt lat="41.9668" lon="25.44581">
        <ele>200.906744</ele>
        <time>2022-03-02T09:01:15.900Z</time>
      </trkpt>
      <trkpt lat="41.96688" lon="25.44572">
        <ele>201.144374</ele>
        <time>2022-03-02T09:01:19.918Z</time>
      </trkpt>
      <trkpt lat="41.96696" lon="25.44565">
        <ele>201.366045</ele>
        <time>2022-03-02T09:01:23.945Z</time>
      </trkpt>
      <trkpt lat="41.96705" lon="25.44559">
        <ele>201.613334</ele>
        <time>2022-03-02T09:01:27.893Z</time>
      </trkpt>
      <trkpt lat="41.96716" lon="25.44552">
        <ele>201.88183</ele>
        <time>2022-03-02T09:01:31.906Z</time>
      </trkpt>
      <trkpt lat="41.96724" lon="25.44547">
        <ele>202.09452</ele>
        <time>2022-03-02T09:01:34.894Z</time>
      </trkpt>
      <trkpt lat="41.96733" lon="25.44543">
        <ele>202.306083</ele>
        <time>2022-03-02T09:01:37.878Z</time>
      </trkpt>
      <trkpt lat="41.96742" lon="25.44537">
        <ele>202.533597</ele>
        <time>2022-03-02T09:01:40.934Z</time>
      </trkpt>
      <trkpt lat="41.96751" lon="25.44531">
        <ele>202.768482</ele>
        <time>2022-03-02T09:01:43.905Z</time>
      </trkpt>
      <trkpt lat="41.9676" lon="25.44525">
        <ele>202.716648</ele>
        <time>2022-03-02T09:01:46.928Z</time>
      </trkpt>
      <trkpt lat="41.96769" lon="25.44519">
        <ele>202.55274</ele>
        <time>2022-03-02T09:01:49.905Z</time>
      </trkpt>
      <trkpt lat="41.96777" lon="25.44512">
        <ele>202.39962</ele>
        <time>2022-03-02T09:01:52.903Z</time>
      </trkpt>
      <trkpt lat="41.96784" lon="25.44503">
        <ele>202.259485</ele>
        <time>2022-03-02T09:01:55.896Z</time>
      </trkpt>
      <trkpt lat="41.96787" lon="25.44488">
        <ele>202.081259</ele>
        <time>2022-03-02T09:01:59.906Z</time>
      </trkpt>
      <trkpt lat="41.96789" lon="25.44476">
        <ele>201.930638</ele>
        <time>2022-03-02T09:02:02.906Z</time>
      </trkpt>
      <trkpt lat="41.96792" lon="25.4446">
        <ele>201.745974</ele>
        <time>2022-03-02T09:02:06.896Z</time>
      </trkpt>
      <trkpt lat="41.96793" lon="25.44444">
        <ele>201.56194</ele>
        <time>2022-03-02T09:02:10.941Z</time>
      </trkpt>
      <trkpt lat="41.96793" lon="25.44429">
        <ele>201.389414</ele>
        <time>2022-03-02T09:02:14.902Z</time>
      </trkpt>
      <trkpt lat="41.96795" lon="25.44417">
        <ele>201.246502</ele>
        <time>2022-03-02T09:02:18.917Z</time>
      </trkpt>
      <trkpt lat="41.96797" lon="25.44403">
        <ele>201.081976</ele>
        <time>2022-03-02T09:02:22.890Z</time>
      </trkpt>
      <trkpt lat="41.96798" lon="25.4439">
        <ele>200.922274</ele>
        <time>2022-03-02T09:02:26.906Z</time>
      </trkpt>
      <trkpt lat="41.968" lon="25.44376">
        <ele>200.758931</ele>
        <time>2022-03-02T09:02:30.898Z</time>
      </trkpt>
      <trkpt lat="41.96802" lon="25.44364">
        <ele>200.613956</ele>
        <time>2022-03-02T09:02:34.905Z</time>
      </trkpt>
      <trkpt lat="41.96804" lon="25.44351">
        <ele>200.464878</ele>
        <time>2022-03-02T09:02:38.925Z</time>
      </trkpt>
      <trkpt lat="41.96806" lon="25.44339">
        <ele>200.317172</ele>
        <time>2022-03-02T09:02:42.907Z</time>
      </trkpt>
      <trkpt lat="41.96808" lon="25.44326">
        <ele>200.167157</ele>
        <time>2022-03-02T09:02:46.889Z</time>
      </trkpt>
      <trkpt lat="41.96809" lon="25.44313">
        <ele>200.067033</ele>
        <time>2022-03-02T09:02:50.900Z</time>
      </trkpt>
      <trkpt lat="41.96811" lon="25.44301">
        <ele>200.578576</ele>
        <time>2022-03-02T09:02:54.909Z</time>
      </trkpt>
      <trkpt lat="41.96813" lon="25.44289">
        <ele>201.124312</ele>
        <time>2022-03-02T09:02:59.898Z</time>
      </trkpt>
      <trkpt lat="41.96815" lon="25.44275">
        <ele>201.706042</ele>
        <time>2022-03-02T09:03:04.898Z</time>
      </trkpt>
      <trkpt lat="41.96816" lon="25.44263">
        <ele>202.230027</ele>
        <time>2022-03-02T09:03:09.917Z</time>
      </trkpt>
      <trkpt lat="41.96817" lon="25.44249">
        <ele>202.820303</ele>
        <time>2022-03-02T09:03:15.904Z</time>
      </trkpt>
      <trkpt lat="41.96821" lon="25.44236">
        <ele>203.39963</ele>
        <time>2022-03-02T09:03:21.904Z</time>
      </trkpt>
      <trkpt lat="41.96822" lon="25.44223">
        <ele>203.95659</ele>
        <time>2022-03-02T09:03:27.906Z</time>
      </trkpt>
      <trkpt lat="41.96826" lon="25.44211">
        <ele>204.498829</ele>
        <time>2022-03-02T09:03:33.918Z</time>
      </trkpt>
      <trkpt lat="41.96828" lon="25.44198">
        <ele>205.053973</ele>
        <time>2022-03-02T09:03:39.898Z</time>
      </trkpt>
      <trkpt lat="41.96831" lon="25.44185">
        <ele>205.618458</ele>
        <time>2022-03-02T09:03:45.908Z</time>
      </trkpt>
      <trkpt lat="41.96834" lon="25.44172">
        <ele>206.213468</ele>
        <time>2022-03-02T09:03:51.895Z</time>
      </trkpt>
      <trkpt lat="41.96837" lon="25.44159">
        <ele>206.774367</ele>
        <time>2022-03-02T09:03:57.904Z</time>
      </trkpt>
      <trkpt lat="41.96839" lon="25.44146">
        <ele>207.305486</ele>
        <time>2022-03-02T09:04:03.923Z</time>
      </trkpt>
      <trkpt lat="41.96842" lon="25.44134">
        <ele>207.848657</ele>
        <time>2022-03-02T09:04:09.911Z</time>
      </trkpt>
      <trkpt lat="41.96845" lon="25.44123">
        <ele>208.369329</ele>
        <time>2022-03-02T09:04:15.909Z</time>
      </trkpt>
      <trkpt lat="41.96849" lon="25.4411">
        <ele>208.922992</ele>
        <time>2022-03-02T09:04:21.914Z</time>
      </trkpt>
      <trkpt lat="41.96852" lon="25.44098">
        <ele>209.456912</ele>
        <time>2022-03-02T09:04:27.908Z</time>
      </trkpt>
      <trkpt lat="41.96855" lon="25.44086">
        <ele>210.020401</ele>
        <time>2022-03-02T09:04:33.942Z</time>
      </trkpt>
      <trkpt lat="41.96859" lon="25.44074">
        <ele>210.356206</ele>
        <time>2022-03-02T09:04:39.929Z</time>
      </trkpt>
      <trkpt lat="41.96862" lon="25.44062">
        <ele>210.604336</ele>
        <time>2022-03-02T09:04:45.926Z</time>
      </trkpt>
      <trkpt lat="41.96866" lon="25.44049">
        <ele>210.864826</ele>
        <time>2022-03-02T09:04:51.894Z</time>
      </trkpt>
      <trkpt lat="41.96867" lon="25.44037">
        <ele>211.093678</ele>
        <time>2022-03-02T09:04:56.910Z</time>
      </trkpt>
      <trkpt lat="41.9687" lon="25.44025">
        <ele>211.336585</ele>
        <time>2022-03-02T09:05:02.930Z</time>
      </trkpt>
      <trkpt lat="41.96875" lon="25.44013">
        <ele>211.577425</ele>
        <time>2022-03-02T09:05:08.911Z</time>
      </trkpt>
      <trkpt lat="41.96878" lon="25.44001">
        <ele>211.8239</ele>
        <time>2022-03-02T09:05:14.937Z</time>
      </trkpt>
      <trkpt lat="41.96882" lon="25.43987">
        <ele>212.093262</ele>
        <time>2022-03-02T09:05:19.892Z</time>
      </trkpt>
      <trkpt lat="41.96885" lon="25.43975">
        <ele>212.338732</ele>
        <time>2022-03-02T09:05:24.906Z</time>
      </trkpt>
      <trkpt lat="41.96889" lon="25.43962">
        <ele>212.611735</ele>
        <time>2022-03-02T09:05:29.884Z</time>
      </trkpt>
      <trkpt lat="41.96892" lon="25.43948">
        <ele>212.876484</ele>
        <time>2022-03-02T09:05:33.904Z</time>
      </trkpt>
      <trkpt lat="41.96895" lon="25.43935">
        <ele>213.130786</ele>
        <time>2022-03-02T09:05:37.911Z</time>
      </trkpt>
      <trkpt lat="41.96898" lon="25.43922">
        <ele>213.388647</ele>
        <time>2022-03-02T09:05:41.905Z</time>
      </trkpt>
      <trkpt lat="41.96902" lon="25.4391">
        <ele>213.639593</ele>
        <time>2022-03-02T09:05:45.900Z</time>
      </trkpt>
      <trkpt lat="41.96905" lon="25.43899">
        <ele>213.873707</ele>
        <time>2022-03-02T09:05:49.907Z</time>
      </trkpt>
      <trkpt lat="41.9691" lon="25.43885">
        <ele>214.153694</ele>
        <time>2022-03-02T09:05:54.909Z</time>
      </trkpt>
      <trkpt lat="41.96912" lon="25.43872">
        <ele>214.398813</ele>
        <time>2022-03-02T09:05:58.881Z</time>
      </trkpt>
      <trkpt lat="41.96914" lon="25.4386">
        <ele>214.640254</ele>
        <time>2022-03-02T09:06:02.903Z</time>
      </trkpt>
      <trkpt lat="41.96916" lon="25.43848">
        <ele>214.984296</ele>
        <time>2022-03-02T09:06:06.910Z</time>
      </trkpt>
      <trkpt lat="41.96921" lon="25.43836">
        <ele>215.497964</ele>
        <time>2022-03-02T09:06:10.921Z</time>
      </trkpt>
      <trkpt lat="41.96928" lon="25.43824">
        <ele>216.045796</ele>
        <time>2022-03-02T09:06:14.893Z</time>
      </trkpt>
      <trkpt lat="41.96935" lon="25.43813">
        <ele>216.554621</ele>
        <time>2022-03-02T09:06:18.895Z</time>
      </trkpt>
      <trkpt lat="41.96941" lon="25.43804">
        <ele>217.000114</ele>
        <time>2022-03-02T09:06:22.905Z</time>
      </trkpt>
      <trkpt lat="41.96947" lon="25.43794">
        <ele>217.471515</ele>
        <time>2022-03-02T09:06:27.911Z</time>
      </trkpt>
      <trkpt lat="41.96953" lon="25.43784">
        <ele>217.965551</ele>
        <time>2022-03-02T09:06:32.891Z</time>
      </trkpt>
      <trkpt lat="41.96961" lon="25.43774">
        <ele>218.483733</ele>
        <time>2022-03-02T09:06:37.937Z</time>
      </trkpt>
      <trkpt lat="41.96968" lon="25.43764">
        <ele>218.991199</ele>
        <time>2022-03-02T09:06:42.892Z</time>
      </trkpt>
      <trkpt lat="41.96975" lon="25.43754">
        <ele>219.509463</ele>
        <time>2022-03-02T09:06:47.913Z</time>
      </trkpt>
      <trkpt lat="41.96982" lon="25.43744">
        <ele>220.018901</ele>
        <time>2022-03-02T09:06:52.888Z</time>
      </trkpt>
      <trkpt lat="41.9699" lon="25.43736">
        <ele>220.496002</ele>
        <time>2022-03-02T09:06:57.901Z</time>
      </trkpt>
      <trkpt lat="41.96997" lon="25.43728">
        <ele>220.970131</ele>
        <time>2022-03-02T09:07:02.901Z</time>
      </trkpt>
      <trkpt lat="41.97004" lon="25.43717">
        <ele>221.487186</ele>
        <time>2022-03-02T09:07:08.937Z</time>
      </trkpt>
      <trkpt lat="41.9701" lon="25.43706">
        <ele>221.973686</ele>
        <time>2022-03-02T09:07:14.936Z</time>
      </trkpt>
      <trkpt lat="41.97012" lon="25.43692">
        <ele>222.516387</ele>
        <time>2022-03-02T09:07:21.895Z</time>
      </trkpt>
      <trkpt lat="41.97014" lon="25.43679">
        <ele>222.979548</ele>
        <time>2022-03-02T09:07:26.891Z</time>
      </trkpt>
      <trkpt lat="41.97017" lon="25.43667">
        <ele>223.439134</ele>
        <time>2022-03-02T09:07:31.889Z</time>
      </trkpt>
      <trkpt lat="41.9702" lon="25.43655">
        <ele>223.848679</ele>
        <time>2022-03-02T09:07:36.906Z</time>
      </trkpt>
      <trkpt lat="41.97021" lon="25.43642">
        <ele>224.232106</ele>
        <time>2022-03-02T09:07:40.893Z</time>
      </trkpt>
      <trkpt lat="41.97023" lon="25.43628">
        <ele>224.630184</ele>
        <time>2022-03-02T09:07:44.915Z</time>
      </trkpt>
      <trkpt lat="41.97026" lon="25.43615">
        <ele>225.013684</ele>
        <time>2022-03-02T09:07:48.982Z</time>
      </trkpt>
      <trkpt lat="41.97029" lon="25.43603">
        <ele>225.358708</ele>
        <time>2022-03-02T09:07:52.908Z</time>
      </trkpt>
      <trkpt lat="41.97031" lon="25.43589">
        <ele>225.767877</ele>
        <time>2022-03-02T09:07:56.951Z</time>
      </trkpt>
      <trkpt lat="41.97034" lon="25.43576">
        <ele>226.152422</ele>
        <time>2022-03-02T09:08:00.889Z</time>
      </trkpt>
      <trkpt lat="41.97038" lon="25.43564">
        <ele>226.542618</ele>
        <time>2022-03-02T09:08:04.900Z</time>
      </trkpt>
      <trkpt lat="41.97042" lon="25.4355">
        <ele>226.959422</ele>
        <time>2022-03-02T09:08:09.932Z</time>
      </trkpt>
      <trkpt lat="41.97045" lon="25.43537">
        <ele>227.353897</ele>
        <time>2022-03-02T09:08:15.940Z</time>
      </trkpt>
      <trkpt lat="41.97047" lon="25.43523">
        <ele>227.747788</ele>
        <time>2022-03-02T09:08:21.913Z</time>
      </trkpt>
      <trkpt lat="41.9705" lon="25.43511">
        <ele>228.112884</ele>
        <time>2022-03-02T09:08:27.914Z</time>
      </trkpt>
      <trkpt lat="41.97053" lon="25.43497">
        <ele>228.515937</ele>
        <time>2022-03-02T09:08:33.922Z</time>
      </trkpt>
      <trkpt lat="41.97059" lon="25.43488">
        <ele>228.87938</ele>
        <time>2022-03-02T09:08:39.888Z</time>
      </trkpt>
      <trkpt lat="41.97068" lon="25.43482">
        <ele>229.267659</ele>
        <time>2022-03-02T09:08:45.938Z</time>
      </trkpt>
      <trkpt lat="41.97078" lon="25.43481">
        <ele>229.626977</ele>
        <time>2022-03-02T09:08:51.896Z</time>
      </trkpt>
      <trkpt lat="41.97087" lon="25.43486">
        <ele>229.993411</ele>
        <time>2022-03-02T09:08:57.894Z</time>
      </trkpt>
      <trkpt lat="41.97095" lon="25.43493">
        <ele>230.359684</ele>
        <time>2022-03-02T09:09:04.922Z</time>
      </trkpt>
      <trkpt lat="41.97103" lon="25.435">
        <ele>230.984252</ele>
        <time>2022-03-02T09:09:11.933Z</time>
      </trkpt>
      <trkpt lat="41.97111" lon="25.43506">
        <ele>231.733773</ele>
        <time>2022-03-02T09:09:18.917Z</time>
      </trkpt>
      <trkpt lat="41.9712" lon="25.43513">
        <ele>232.518206</ele>
        <time>2022-03-02T09:09:26.959Z</time>
      </trkpt>
      <trkpt lat="41.97127" lon="25.43521">
        <ele>233.299723</ele>
        <time>2022-03-02T09:09:34.918Z</time>
      </trkpt>
      <trkpt lat="41.97136" lon="25.43527">
        <ele>234.051732</ele>
        <time>2022-03-02T09:09:43.936Z</time>
      </trkpt>
      <trkpt lat="41.97143" lon="25.43535">
        <ele>234.78986</ele>
        <time>2022-03-02T09:09:51.921Z</time>
      </trkpt>
      <trkpt lat="41.97151" lon="25.43541">
        <ele>235.558419</ele>
        <time>2022-03-02T09:09:59.947Z</time>
      </trkpt>
      <trkpt lat="41.97159" lon="25.43547">
        <ele>236.285164</ele>
        <time>2022-03-02T09:10:08.927Z</time>
      </trkpt>
      <trkpt lat="41.97167" lon="25.43554">
        <ele>237.049586</ele>
        <time>2022-03-02T09:10:16.914Z</time>
      </trkpt>
      <trkpt lat="41.97175" lon="25.43563">
        <ele>237.848937</ele>
        <time>2022-03-02T09:10:24.949Z</time>
      </trkpt>
      <trkpt lat="41.97183" lon="25.43569">
        <ele>238.630554</ele>
        <time>2022-03-02T09:10:34.914Z</time>
      </trkpt>
      <trkpt lat="41.97192" lon="25.43575">
        <ele>239.398551</ele>
        <time>2022-03-02T09:10:42.962Z</time>
      </trkpt>
      <trkpt lat="41.972" lon="25.43582">
        <ele>240.212836</ele>
        <time>2022-03-02T09:10:51.910Z</time>
      </trkpt>
      <trkpt lat="41.97209" lon="25.4359">
        <ele>241.053791</ele>
        <time>2022-03-02T09:11:00.933Z</time>
      </trkpt>
      <trkpt lat="41.97217" lon="25.43596">
        <ele>241.790439</ele>
        <time>2022-03-02T09:11:09.927Z</time>
      </trkpt>
      <trkpt lat="41.97227" lon="25.43601">
        <ele>242.602373</ele>
        <time>2022-03-02T09:11:17.911Z</time>
      </trkpt>
      <trkpt lat="41.97235" lon="25.43605">
        <ele>243.352185</ele>
        <time>2022-03-02T09:11:25.916Z</time>
      </trkpt>
      <trkpt lat="41.97244" lon="25.4361">
        <ele>244.112864</ele>
        <time>2022-03-02T09:11:33.924Z</time>
      </trkpt>
      <trkpt lat="41.97253" lon="25.43611">
        <ele>244.83795</ele>
        <time>2022-03-02T09:11:41.924Z</time>
      </trkpt>
      <trkpt lat="41.97262" lon="25.4361">
        <ele>245.133299</ele>
        <time>2022-03-02T09:11:48.911Z</time>
      </trkpt>
      <trkpt lat="41.97272" lon="25.43609">
        <ele>245.378155</ele>
        <time>2022-03-02T09:11:56.922Z</time>
      </trkpt>
      <trkpt lat="41.97281" lon="25.43607">
        <ele>245.619981</ele>
        <time>2022-03-02T09:12:03.994Z</time>
      </trkpt>
      <trkpt lat="41.97289" lon="25.43602">
        <ele>245.870761</ele>
        <time>2022-03-02T09:12:10.914Z</time>
      </trkpt>
      <trkpt lat="41.97299" lon="25.43598">
        <ele>246.143689</ele>
        <time>2022-03-02T09:12:17.900Z</time>
      </trkpt>
      <trkpt lat="41.97309" lon="25.43594">
        <ele>246.420186</ele>
        <time>2022-03-02T09:12:24.898Z</time>
      </trkpt>
      <trkpt lat="41.97318" lon="25.43593">
        <ele>246.664023</ele>
        <time>2022-03-02T09:12:29.884Z</time>
      </trkpt>
      <trkpt lat="41.97327" lon="25.4359">
        <ele>246.906332</ele>
        <time>2022-03-02T09:12:34.930Z</time>
      </trkpt>
      <trkpt lat="41.97337" lon="25.43588">
        <ele>247.171727</ele>
        <time>2022-03-02T09:12:40.901Z</time>
      </trkpt>
      <trkpt lat="41.97346" lon="25.43583">
        <ele>247.4358</ele>
        <time>2022-03-02T09:12:45.922Z</time>
      </trkpt>
      <trkpt lat="41.97357" lon="25.43579">
        <ele>247.729689</ele>
        <time>2022-03-02T09:12:50.887Z</time>
      </trkpt>
      <trkpt lat="41.97366" lon="25.43574">
        <ele>247.996587</ele>
        <time>2022-03-02T09:12:54.905Z</time>
      </trkpt>
      <trkpt lat="41.97375" lon="25.43567">
        <ele>248.257766</ele>
        <time>2022-03-02T09:12:57.953Z</time>
      </trkpt>
      <trkpt lat="41.97384" lon="25.4356">
        <ele>248.546319</ele>
        <time>2022-03-02T09:13:00.899Z</time>
      </trkpt>
      <trkpt lat="41.97392" lon="25.43554">
        <ele>248.791461</ele>
        <time>2022-03-02T09:13:03.907Z</time>
      </trkpt>
      <trkpt lat="41.97402" lon="25.43546">
        <ele>249.0853</ele>
        <time>2022-03-02T09:13:07.900Z</time>
      </trkpt>
      <trkpt lat="41.97409" lon="25.43537">
        <ele>249.34475</ele>
        <time>2022-03-02T09:13:10.924Z</time>
      </trkpt>
      <trkpt lat="41.97417" lon="25.43527">
        <ele>249.634272</ele>
        <time>2022-03-02T09:13:13.913Z</time>
      </trkpt>
      <trkpt lat="41.97425" lon="25.43519">
        <ele>250.051366</ele>
        <time>2022-03-02T09:13:16.900Z</time>
      </trkpt>
      <trkpt lat="41.97433" lon="25.43513">
        <ele>250.484076</ele>
        <time>2022-03-02T09:13:20.904Z</time>
      </trkpt>
      <trkpt lat="41.97442" lon="25.43505">
        <ele>250.991676</ele>
        <time>2022-03-02T09:13:25.892Z</time>
      </trkpt>
      <trkpt lat="41.9745" lon="25.43496">
        <ele>251.452552</ele>
        <time>2022-03-02T09:13:30.957Z</time>
      </trkpt>
      <trkpt lat="41.97458" lon="25.43489">
        <ele>251.884467</ele>
        <time>2022-03-02T09:13:35.909Z</time>
      </trkpt>
      <trkpt lat="41.97466" lon="25.4348">
        <ele>252.367769</ele>
        <time>2022-03-02T09:13:41.925Z</time>
      </trkpt>
      <trkpt lat="41.97474" lon="25.43473">
        <ele>252.811103</ele>
        <time>2022-03-02T09:13:47.936Z</time>
      </trkpt>
      <trkpt lat="41.97482" lon="25.43465">
        <ele>253.249141</ele>
        <time>2022-03-02T09:13:53.915Z</time>
      </trkpt>
      <trkpt lat="41.97489" lon="25.43458">
        <ele>253.667991</ele>
        <time>2022-03-02T09:13:59.905Z</time>
      </trkpt>
      <trkpt lat="41.97497" lon="25.43451">
        <ele>254.095929</ele>
        <time>2022-03-02T09:14:05.903Z</time>
      </trkpt>
      <trkpt lat="41.97505" lon="25.43443">
        <ele>254.542363</ele>
        <time>2022-03-02T09:14:12.911Z</time>
      </trkpt>
      <trkpt lat="41.97512" lon="25.43435">
        <ele>254.961058</ele>
        <time>2022-03-02T09:14:18.915Z</time>
      </trkpt>
      <trkpt lat="41.97519" lon="25.43427">
        <ele>255.411075</ele>
        <time>2022-03-02T09:14:25.892Z</time>
      </trkpt>
      <trkpt lat="41.97528" lon="25.4342">
        <ele>255.880085</ele>
        <time>2022-03-02T09:14:33.910Z</time>
      </trkpt>
      <trkpt lat="41.97535" lon="25.43412">
        <ele>256.299728</ele>
        <time>2022-03-02T09:14:39.912Z</time>
      </trkpt>
      <trkpt lat="41.97542" lon="25.43404">
        <ele>256.729822</ele>
        <time>2022-03-02T09:14:45.896Z</time>
      </trkpt>
      <trkpt lat="41.9755" lon="25.43396">
        <ele>257.15402</ele>
        <time>2022-03-02T09:14:51.916Z</time>
      </trkpt>
      <trkpt lat="41.97557" lon="25.43388">
        <ele>257.586915</ele>
        <time>2022-03-02T09:14:57.903Z</time>
      </trkpt>
      <trkpt lat="41.97565" lon="25.43382">
        <ele>258.011648</ele>
        <time>2022-03-02T09:15:03.892Z</time>
      </trkpt>
      <trkpt lat="41.97573" lon="25.43374">
        <ele>258.388583</ele>
        <time>2022-03-02T09:15:10.930Z</time>
      </trkpt>
      <trkpt lat="41.97581" lon="25.43365">
        <ele>258.791034</ele>
        <time>2022-03-02T09:15:17.910Z</time>
      </trkpt>
      <trkpt lat="41.97589" lon="25.43359">
        <ele>259.168412</ele>
        <time>2022-03-02T09:15:24.904Z</time>
      </trkpt>
      <trkpt lat="41.97597" lon="25.43351">
        <ele>259.561575</ele>
        <time>2022-03-02T09:15:30.904Z</time>
      </trkpt>
      <trkpt lat="41.97605" lon="25.43342">
        <ele>259.968262</ele>
        <time>2022-03-02T09:15:36.915Z</time>
      </trkpt>
      <trkpt lat="41.97612" lon="25.43335">
        <ele>260.326875</ele>
        <time>2022-03-02T09:15:42.888Z</time>
      </trkpt>
      <trkpt lat="41.9762" lon="25.43328">
        <ele>260.69469</ele>
        <time>2022-03-02T09:15:48.904Z</time>
      </trkpt>
      <trkpt lat="41.97628" lon="25.43321">
        <ele>261.093643</ele>
        <time>2022-03-02T09:15:55.904Z</time>
      </trkpt>
      <trkpt lat="41.97635" lon="25.43313">
        <ele>261.463622</ele>
        <time>2022-03-02T09:16:01.894Z</time>
      </trkpt>
      <trkpt lat="41.97643" lon="25.43306">
        <ele>261.838837</ele>
        <time>2022-03-02T09:16:07.912Z</time>
      </trkpt>
      <trkpt lat="41.97651" lon="25.43299">
        <ele>262.217191</ele>
        <time>2022-03-02T09:16:13.903Z</time>
      </trkpt>
      <trkpt lat="41.97659" lon="25.43291">
        <ele>262.581894</ele>
        <time>2022-03-02T09:16:19.893Z</time>
      </trkpt>
      <trkpt lat="41.97666" lon="25.43284">
        <ele>262.942161</ele>
        <time>2022-03-02T09:16:25.901Z</time>
      </trkpt>
      <trkpt lat="41.97674" lon="25.43276">
        <ele>263.347681</ele>
        <time>2022-03-02T09:16:32.907Z</time>
      </trkpt>
      <trkpt lat="41.97682" lon="25.43268">
        <ele>263.732135</ele>
        <time>2022-03-02T09:16:39.903Z</time>
      </trkpt>
      <trkpt lat="41.97689" lon="25.43259">
        <ele>264.11349</ele>
        <time>2022-03-02T09:16:45.903Z</time>
      </trkpt>
      <trkpt lat="41.97697" lon="25.43252">
        <ele>264.484028</ele>
        <time>2022-03-02T09:16:51.915Z</time>
      </trkpt>
      <trkpt lat="41.97705" lon="25.43245">
        <ele>264.859106</ele>
        <time>2022-03-02T09:16:57.902Z</time>
      </trkpt>
      <trkpt lat="41.97712" lon="25.43238">
        <ele>265.237402</ele>
        <time>2022-03-02T09:17:02.890Z</time>
      </trkpt>
      <trkpt lat="41.9772" lon="25.43231">
        <ele>265.679277</ele>
        <time>2022-03-02T09:17:09.895Z</time>
      </trkpt>
      <trkpt lat="41.97729" lon="25.43223">
        <ele>266.139715</ele>
        <time>2022-03-02T09:17:16.903Z</time>
      </trkpt>
      <trkpt lat="41.97738" lon="25.43217">
        <ele>266.583906</ele>
        <time>2022-03-02T09:17:22.913Z</time>
      </trkpt>
      <trkpt lat="41.97746" lon="25.43211">
        <ele>267.005642</ele>
        <time>2022-03-02T09:17:28.899Z</time>
      </trkpt>
      <trkpt lat="41.97755" lon="25.43204">
        <ele>267.441975</ele>
        <time>2022-03-02T09:17:34.906Z</time>
      </trkpt>
      <trkpt lat="41.97763" lon="25.43197">
        <ele>267.891999</ele>
        <time>2022-03-02T09:17:40.902Z</time>
      </trkpt>
      <trkpt lat="41.97772" lon="25.43191">
        <ele>268.326137</ele>
        <time>2022-03-02T09:17:46.895Z</time>
      </trkpt>
      <trkpt lat="41.9778" lon="25.43186">
        <ele>268.738951</ele>
        <time>2022-03-02T09:17:52.906Z</time>
      </trkpt>
      <trkpt lat="41.97789" lon="25.4318">
        <ele>269.179611</ele>
        <time>2022-03-02T09:17:58.927Z</time>
      </trkpt>
      <trkpt lat="41.97799" lon="25.43175">
        <ele>269.632498</ele>
        <time>2022-03-02T09:18:04.901Z</time>
      </trkpt>
      <trkpt lat="41.97808" lon="25.43168">
        <ele>270.086113</ele>
        <time>2022-03-02T09:18:10.905Z</time>
      </trkpt>
      <trkpt lat="41.97816" lon="25.43161">
        <ele>270.548878</ele>
        <time>2022-03-02T09:18:16.919Z</time>
      </trkpt>
      <trkpt lat="41.97825" lon="25.43155">
        <ele>270.967177</ele>
        <time>2022-03-02T09:18:22.942Z</time>
      </trkpt>
      <trkpt lat="41.97834" lon="25.43148">
        <ele>271.419385</ele>
        <time>2022-03-02T09:18:28.895Z</time>
      </trkpt>
      <trkpt lat="41.97843" lon="25.43142">
        <ele>271.882428</ele>
        <time>2022-03-02T09:18:34.922Z</time>
      </trkpt>
      <trkpt lat="41.97853" lon="25.43136">
        <ele>272.367669</ele>
        <time>2022-03-02T09:18:40.945Z</time>
      </trkpt>
      <trkpt lat="41.97861" lon="25.4313">
        <ele>272.780482</ele>
        <time>2022-03-02T09:18:45.901Z</time>
      </trkpt>
      <trkpt lat="41.97869" lon="25.43123">
        <ele>273.109331</ele>
        <time>2022-03-02T09:18:50.900Z</time>
      </trkpt>
      <trkpt lat="41.97877" lon="25.43117">
        <ele>273.240952</ele>
        <time>2022-03-02T09:18:56.918Z</time>
      </trkpt>
      <trkpt lat="41.97886" lon="25.43111">
        <ele>273.37049</ele>
        <time>2022-03-02T09:19:01.908Z</time>
      </trkpt>
      <trkpt lat="41.97895" lon="25.43105">
        <ele>273.500674</ele>
        <time>2022-03-02T09:19:06.892Z</time>
      </trkpt>
      <trkpt lat="41.97904" lon="25.431">
        <ele>273.628463</ele>
        <time>2022-03-02T09:19:11.914Z</time>
      </trkpt>
      <trkpt lat="41.97913" lon="25.43093">
        <ele>273.764423</ele>
        <time>2022-03-02T09:19:16.918Z</time>
      </trkpt>
      <trkpt lat="41.97922" lon="25.43087">
        <ele>273.899463</ele>
        <time>2022-03-02T09:19:21.900Z</time>
      </trkpt>
      <trkpt lat="41.97931" lon="25.43081">
        <ele>274.032259</ele>
        <time>2022-03-02T09:19:26.959Z</time>
      </trkpt>
      <trkpt lat="41.97939" lon="25.43074">
        <ele>274.161021</ele>
        <time>2022-03-02T09:19:31.901Z</time>
      </trkpt>
      <trkpt lat="41.97948" lon="25.43069">
        <ele>274.284012</ele>
        <time>2022-03-02T09:19:36.902Z</time>
      </trkpt>
      <trkpt lat="41.97957" lon="25.43063">
        <ele>274.422724</ele>
        <time>2022-03-02T09:19:41.904Z</time>
      </trkpt>
      <trkpt lat="41.97965" lon="25.43056">
        <ele>274.553646</ele>
        <time>2022-03-02T09:19:46.903Z</time>
      </trkpt>
      <trkpt lat="41.97974" lon="25.4305">
        <ele>274.676396</ele>
        <time>2022-03-02T09:19:51.890Z</time>
      </trkpt>
      <trkpt lat="41.97983" lon="25.43042">
        <ele>274.818784</ele>
        <time>2022-03-02T09:19:57.913Z</time>
      </trkpt>
      <trkpt lat="41.97991" lon="25.43036">
        <ele>274.949485</ele>
        <time>2022-03-02T09:20:02.892Z</time>
      </trkpt>
      <trkpt lat="41.97999" lon="25.43031">
        <ele>275.069598</ele>
        <time>2022-03-02T09:20:06.907Z</time>
      </trkpt>
      <trkpt lat="41.98009" lon="25.43024">
        <ele>275.217523</ele>
        <time>2022-03-02T09:20:11.900Z</time>
      </trkpt>
      <trkpt lat="41.98018" lon="25.43018">
        <ele>275.346413</ele>
        <time>2022-03-02T09:20:16.921Z</time>
      </trkpt>
      <trkpt lat="41.98026" lon="25.43011">
        <ele>275.430088</ele>
        <time>2022-03-02T09:20:21.909Z</time>
      </trkpt>
      <trkpt lat="41.98036" lon="25.43006">
        <ele>275.264872</ele>
        <time>2022-03-02T09:20:26.917Z</time>
      </trkpt>
      <trkpt lat="41.98046" lon="25.43003">
        <ele>275.089908</ele>
        <time>2022-03-02T09:20:31.941Z</time>
      </trkpt>
      <trkpt lat="41.98057" lon="25.43005">
        <ele>274.911504</ele>
        <time>2022-03-02T09:20:36.899Z</time>
      </trkpt>
      <trkpt lat="41.98067" lon="25.43011">
        <ele>274.740951</ele>
        <time>2022-03-02T09:20:40.890Z</time>
      </trkpt>
      <trkpt lat="41.98075" lon="25.43018">
        <ele>274.583613</ele>
        <time>2022-03-02T09:20:44.897Z</time>
      </trkpt>
      <trkpt lat="41.98084" lon="25.43025">
        <ele>274.417415</ele>
        <time>2022-03-02T09:20:48.920Z</time>
      </trkpt>
      <trkpt lat="41.98093" lon="25.43035">
        <ele>274.228609</ele>
        <time>2022-03-02T09:20:52.906Z</time>
      </trkpt>
      <trkpt lat="41.981" lon="25.43043">
        <ele>274.075884</ele>
        <time>2022-03-02T09:20:55.906Z</time>
      </trkpt>
      <trkpt lat="41.98107" lon="25.43054">
        <ele>273.900965</ele>
        <time>2022-03-02T09:20:59.910Z</time>
      </trkpt>
      <trkpt lat="41.98114" lon="25.43065">
        <ele>273.735125</ele>
        <time>2022-03-02T09:21:03.913Z</time>
      </trkpt>
      <trkpt lat="41.9812" lon="25.43077">
        <ele>273.563567</ele>
        <time>2022-03-02T09:21:07.893Z</time>
      </trkpt>
      <trkpt lat="41.98127" lon="25.43088">
        <ele>273.389702</ele>
        <time>2022-03-02T09:21:11.912Z</time>
      </trkpt>
      <trkpt lat="41.98132" lon="25.43098">
        <ele>273.233313</ele>
        <time>2022-03-02T09:21:15.925Z</time>
      </trkpt>
      <trkpt lat="41.98136" lon="25.4311">
        <ele>273.08658</ele>
        <time>2022-03-02T09:21:19.896Z</time>
      </trkpt>
      <trkpt lat="41.98141" lon="25.43121">
        <ele>272.933196</ele>
        <time>2022-03-02T09:21:23.921Z</time>
      </trkpt>
      <trkpt lat="41.98145" lon="25.43133">
        <ele>272.766433</ele>
        <time>2022-03-02T09:21:27.886Z</time>
      </trkpt>
      <trkpt lat="41.98151" lon="25.43147">
        <ele>272.581733</ele>
        <time>2022-03-02T09:21:31.914Z</time>
      </trkpt>
      <trkpt lat="41.98156" lon="25.43159">
        <ele>272.847652</ele>
        <time>2022-03-02T09:21:35.888Z</time>
      </trkpt>
      <trkpt lat="41.9816" lon="25.4317">
        <ele>273.170961</ele>
        <time>2022-03-02T09:21:39.916Z</time>
      </trkpt>
      <trkpt lat="41.98165" lon="25.43181">
        <ele>273.502589</ele>
        <time>2022-03-02T09:21:43.939Z</time>
      </trkpt>
      <trkpt lat="41.98171" lon="25.43193">
        <ele>273.87981</ele>
        <time>2022-03-02T09:21:47.896Z</time>
      </trkpt>
      <trkpt lat="41.98177" lon="25.43204">
        <ele>274.245651</ele>
        <time>2022-03-02T09:21:51.897Z</time>
      </trkpt>
      <trkpt lat="41.98184" lon="25.43214">
        <ele>274.600876</ele>
        <time>2022-03-02T09:21:55.929Z</time>
      </trkpt>
      <trkpt lat="41.98193" lon="25.4322">
        <ele>274.950187</ele>
        <time>2022-03-02T09:21:59.905Z</time>
      </trkpt>
      <trkpt lat="41.98204" lon="25.43221">
        <ele>275.336353</ele>
        <time>2022-03-02T09:22:03.907Z</time>
      </trkpt>
      <trkpt lat="41.98215" lon="25.43221">
        <ele>275.732328</ele>
        <time>2022-03-02T09:22:07.904Z</time>
      </trkpt>
      <trkpt lat="41.98226" lon="25.43219">
        <ele>276.106396</ele>
        <time>2022-03-02T09:22:11.942Z</time>
      </trkpt>
      <trkpt lat="41.98236" lon="25.43216">
        <ele>276.483653</ele>
        <time>2022-03-02T09:22:15.906Z</time>
      </trkpt>
      <trkpt lat="41.98246" lon="25.43213">
        <ele>276.834254</ele>
        <time>2022-03-02T09:22:19.943Z</time>
      </trkpt>
      <trkpt lat="41.98256" lon="25.4321">
        <ele>277.18822</ele>
        <time>2022-03-02T09:22:23.914Z</time>
      </trkpt>
      <trkpt lat="41.98266" lon="25.43208">
        <ele>277.550206</ele>
        <time>2022-03-02T09:22:27.930Z</time>
      </trkpt>
      <trkpt lat="41.98276" lon="25.43205">
        <ele>277.918427</ele>
        <time>2022-03-02T09:22:31.913Z</time>
      </trkpt>
      <trkpt lat="41.98286" lon="25.43202">
        <ele>278.251813</ele>
        <time>2022-03-02T09:22:35.906Z</time>
      </trkpt>
      <trkpt lat="41.98295" lon="25.43199">
        <ele>278.599018</ele>
        <time>2022-03-02T09:22:39.902Z</time>
      </trkpt>
      <trkpt lat="41.98305" lon="25.43196">
        <ele>278.81936</ele>
        <time>2022-03-02T09:22:43.894Z</time>
      </trkpt>
      <trkpt lat="41.98315" lon="25.43193">
        <ele>278.703629</ele>
        <time>2022-03-02T09:22:47.914Z</time>
      </trkpt>
      <trkpt lat="41.98325" lon="25.4319">
        <ele>278.590518</ele>
        <time>2022-03-02T09:22:51.899Z</time>
      </trkpt>
      <trkpt lat="41.98335" lon="25.43187">
        <ele>278.473012</ele>
        <time>2022-03-02T09:22:56.932Z</time>
      </trkpt>
      <trkpt lat="41.98345" lon="25.43186">
        <ele>278.364338</ele>
        <time>2022-03-02T09:23:00.895Z</time>
      </trkpt>
      <trkpt lat="41.98354" lon="25.43183">
        <ele>278.262498</ele>
        <time>2022-03-02T09:23:04.891Z</time>
      </trkpt>
      <trkpt lat="41.98363" lon="25.43182">
        <ele>278.15855</ele>
        <time>2022-03-02T09:23:08.917Z</time>
      </trkpt>
      <trkpt lat="41.98373" lon="25.43182">
        <ele>278.048245</ele>
        <time>2022-03-02T09:23:12.895Z</time>
      </trkpt>
      <trkpt lat="41.98382" lon="25.43186">
        <ele>277.943039</ele>
        <time>2022-03-02T09:23:17.955Z</time>
      </trkpt>
      <trkpt lat="41.98391" lon="25.4319">
        <ele>277.839188</ele>
        <time>2022-03-02T09:23:24.924Z</time>
      </trkpt>
      <trkpt lat="41.98401" lon="25.43193">
        <ele>277.713805</ele>
        <time>2022-03-02T09:23:29.953Z</time>
      </trkpt>
      <trkpt lat="41.98414" lon="25.43191">
        <ele>277.574468</ele>
        <time>2022-03-02T09:23:33.927Z</time>
      </trkpt>
      <trkpt lat="41.98425" lon="25.43188">
        <ele>277.446709</ele>
        <time>2022-03-02T09:23:36.907Z</time>
      </trkpt>
      <trkpt lat="41.98435" lon="25.43185">
        <ele>277.327924</ele>
        <time>2022-03-02T09:23:39.902Z</time>
      </trkpt>
      <trkpt lat="41.98447" lon="25.43182">
        <ele>277.196689</ele>
        <time>2022-03-02T09:23:43.925Z</time>
      </trkpt>
      <trkpt lat="41.98455" lon="25.43178">
        <ele>277.092674</ele>
        <time>2022-03-02T09:23:47.935Z</time>
      </trkpt>
      <trkpt lat="41.98464" lon="25.43176">
        <ele>276.990834</ele>
        <time>2022-03-02T09:23:51.952Z</time>
      </trkpt>
      <trkpt lat="41.98474" lon="25.43173">
        <ele>276.876806</ele>
        <time>2022-03-02T09:23:55.914Z</time>
      </trkpt>
      <trkpt lat="41.98485" lon="25.43169">
        <ele>276.725684</ele>
        <time>2022-03-02T09:23:59.952Z</time>
      </trkpt>
      <trkpt lat="41.98495" lon="25.43166">
        <ele>276.562688</ele>
        <time>2022-03-02T09:24:03.932Z</time>
      </trkpt>
      <trkpt lat="41.98506" lon="25.43162">
        <ele>276.393303</ele>
        <time>2022-03-02T09:24:07.952Z</time>
      </trkpt>
      <trkpt lat="41.98517" lon="25.43158">
        <ele>276.225969</ele>
        <time>2022-03-02T09:24:11.913Z</time>
      </trkpt>
      <trkpt lat="41.98527" lon="25.43153">
        <ele>276.073063</ele>
        <time>2022-03-02T09:24:15.939Z</time>
      </trkpt>
      <trkpt lat="41.98536" lon="25.43147">
        <ele>275.919366</ele>
        <time>2022-03-02T09:24:19.925Z</time>
      </trkpt>
      <trkpt lat="41.98544" lon="25.43141">
        <ele>275.773353</ele>
        <time>2022-03-02T09:24:23.911Z</time>
      </trkpt>
      <trkpt lat="41.98552" lon="25.43131">
        <ele>275.616311</ele>
        <time>2022-03-02T09:24:27.924Z</time>
      </trkpt>
      <trkpt lat="41.98559" lon="25.43122">
        <ele>275.469142</ele>
        <time>2022-03-02T09:24:31.921Z</time>
      </trkpt>
      <trkpt lat="41.98567" lon="25.43112">
        <ele>275.305745</ele>
        <time>2022-03-02T09:24:35.926Z</time>
      </trkpt>
      <trkpt lat="41.98575" lon="25.43103">
        <ele>275.142536</ele>
        <time>2022-03-02T09:24:39.920Z</time>
      </trkpt>
      <trkpt lat="41.98583" lon="25.43092">
        <ele>274.973625</ele>
        <time>2022-03-02T09:24:43.933Z</time>
      </trkpt>
      <trkpt lat="41.98591" lon="25.43082">
        <ele>274.803117</ele>
        <time>2022-03-02T09:24:47.950Z</time>
      </trkpt>
      <trkpt lat="41.986" lon="25.43073">
        <ele>274.634254</ele>
        <time>2022-03-02T09:24:51.924Z</time>
      </trkpt>
      <trkpt lat="41.98609" lon="25.43063">
        <ele>274.465986</ele>
        <time>2022-03-02T09:24:55.934Z</time>
      </trkpt>
      <trkpt lat="41.98616" lon="25.43053">
        <ele>274.301775</ele>
        <time>2022-03-02T09:24:59.905Z</time>
      </trkpt>
      <trkpt lat="41.98625" lon="25.43043">
        <ele>274.130896</ele>
        <time>2022-03-02T09:25:03.924Z</time>
      </trkpt>
      <trkpt lat="41.98634" lon="25.43032">
        <ele>274.124192</ele>
        <time>2022-03-02T09:25:07.939Z</time>
      </trkpt>
      <trkpt lat="41.98642" lon="25.43023">
        <ele>274.129035</ele>
        <time>2022-03-02T09:25:11.942Z</time>
      </trkpt>
      <trkpt lat="41.98649" lon="25.43012">
        <ele>274.133631</ele>
        <time>2022-03-02T09:25:15.925Z</time>
      </trkpt>
      <trkpt lat="41.98657" lon="25.43003">
        <ele>274.13803</ele>
        <time>2022-03-02T09:25:19.914Z</time>
      </trkpt>
      <trkpt lat="41.98664" lon="25.42994">
        <ele>274.142439</ele>
        <time>2022-03-02T09:25:23.919Z</time>
      </trkpt>
      <trkpt lat="41.98673" lon="25.42985">
        <ele>274.14708</ele>
        <time>2022-03-02T09:25:27.913Z</time>
      </trkpt>
      <trkpt lat="41.98682" lon="25.42975">
        <ele>274.152224</ele>
        <time>2022-03-02T09:25:31.924Z</time>
      </trkpt>
      <trkpt lat="41.9869" lon="25.42966">
        <ele>274.156873</ele>
        <time>2022-03-02T09:25:35.930Z</time>
      </trkpt>
      <trkpt lat="41.98697" lon="25.42958">
        <ele>274.160876</ele>
        <time>2022-03-02T09:25:38.920Z</time>
      </trkpt>
      <trkpt lat="41.98706" lon="25.42948">
        <ele>274.165863</ele>
        <time>2022-03-02T09:25:42.906Z</time>
      </trkpt>
      <trkpt lat="41.98714" lon="25.42938">
        <ele>274.170902</ele>
        <time>2022-03-02T09:25:46.919Z</time>
      </trkpt>
      <trkpt lat="41.98722" lon="25.42928">
        <ele>274.175637</ele>
        <time>2022-03-02T09:25:50.924Z</time>
      </trkpt>
      <trkpt lat="41.98731" lon="25.42918">
        <ele>274.180567</ele>
        <time>2022-03-02T09:25:54.909Z</time>
      </trkpt>
      <trkpt lat="41.9874" lon="25.42907">
        <ele>274.185739</ele>
        <time>2022-03-02T09:25:58.907Z</time>
      </trkpt>
      <trkpt lat="41.98749" lon="25.42898">
        <ele>274.190798</ele>
        <time>2022-03-02T09:26:02.934Z</time>
      </trkpt>
      <trkpt lat="41.98756" lon="25.42891">
        <ele>274.194715</ele>
        <time>2022-03-02T09:26:05.920Z</time>
      </trkpt>
      <trkpt lat="41.98765" lon="25.42881">
        <ele>274.231899</ele>
        <time>2022-03-02T09:26:09.913Z</time>
      </trkpt>
      <trkpt lat="41.98773" lon="25.4287">
        <ele>274.322811</ele>
        <time>2022-03-02T09:26:13.945Z</time>
      </trkpt>
      <trkpt lat="41.98781" lon="25.42858">
        <ele>274.417707</ele>
        <time>2022-03-02T09:26:17.901Z</time>
      </trkpt>
      <trkpt lat="41.98789" lon="25.42847">
        <ele>274.512503</ele>
        <time>2022-03-02T09:26:21.922Z</time>
      </trkpt>
      <trkpt lat="41.98796" lon="25.42835">
        <ele>274.602201</ele>
        <time>2022-03-02T09:26:25.912Z</time>
      </trkpt>
      <trkpt lat="41.98803" lon="25.42824">
        <ele>274.689615</ele>
        <time>2022-03-02T09:26:29.936Z</time>
      </trkpt>
      <trkpt lat="41.98811" lon="25.42812">
        <ele>274.78458</ele>
        <time>2022-03-02T09:26:33.892Z</time>
      </trkpt>
      <trkpt lat="41.98818" lon="25.42801">
        <ele>274.872699</ele>
        <time>2022-03-02T09:26:37.902Z</time>
      </trkpt>
      <trkpt lat="41.98825" lon="25.42789">
        <ele>274.964291</ele>
        <time>2022-03-02T09:26:41.914Z</time>
      </trkpt>
      <trkpt lat="41.98833" lon="25.42777">
        <ele>275.055086</ele>
        <time>2022-03-02T09:26:45.950Z</time>
      </trkpt>
      <trkpt lat="41.9884" lon="25.42765">
        <ele>275.146678</ele>
        <time>2022-03-02T09:26:49.913Z</time>
      </trkpt>
      <trkpt lat="41.98848" lon="25.42754">
        <ele>275.237425</ele>
        <time>2022-03-02T09:26:53.922Z</time>
      </trkpt>
      <trkpt lat="41.98855" lon="25.42743">
        <ele>275.325231</ele>
        <time>2022-03-02T09:26:57.912Z</time>
      </trkpt>
      <trkpt lat="41.98862" lon="25.42732">
        <ele>275.412036</ele>
        <time>2022-03-02T09:27:01.894Z</time>
      </trkpt>
      <trkpt lat="41.98869" lon="25.42721">
        <ele>275.500762</ele>
        <time>2022-03-02T09:27:05.907Z</time>
      </trkpt>
      <trkpt lat="41.98876" lon="25.42711">
        <ele>275.580682</ele>
        <time>2022-03-02T09:27:09.919Z</time>
      </trkpt>
      <trkpt lat="41.98882" lon="25.427">
        <ele>275.702812</ele>
        <time>2022-03-02T09:27:13.897Z</time>
      </trkpt>
      <trkpt lat="41.98888" lon="25.42691">
        <ele>275.941213</ele>
        <time>2022-03-02T09:27:17.927Z</time>
      </trkpt>
      <trkpt lat="41.98894" lon="25.42682">
        <ele>276.175609</ele>
        <time>2022-03-02T09:27:21.952Z</time>
      </trkpt>
      <trkpt lat="41.989" lon="25.42672">
        <ele>276.424555</ele>
        <time>2022-03-02T09:27:25.918Z</time>
      </trkpt>
      <trkpt lat="41.98908" lon="25.42661">
        <ele>276.708974</ele>
        <time>2022-03-02T09:27:30.907Z</time>
      </trkpt>
      <trkpt lat="41.98916" lon="25.42654">
        <ele>276.956159</ele>
        <time>2022-03-02T09:27:34.916Z</time>
      </trkpt>
      <trkpt lat="41.98925" lon="25.42648">
        <ele>277.212679</ele>
        <time>2022-03-02T09:27:39.898Z</time>
      </trkpt>
      <trkpt lat="41.9893" lon="25.42637">
        <ele>277.469661</ele>
        <time>2022-03-02T09:27:46.901Z</time>
      </trkpt>
      <trkpt lat="41.98934" lon="25.42625">
        <ele>277.721292</ele>
        <time>2022-03-02T09:27:51.898Z</time>
      </trkpt>
      <trkpt lat="41.98935" lon="25.42613">
        <ele>277.957852</ele>
        <time>2022-03-02T09:27:56.937Z</time>
      </trkpt>
      <trkpt lat="41.98941" lon="25.42603">
        <ele>278.19353</ele>
        <time>2022-03-02T09:28:02.901Z</time>
      </trkpt>
      <trkpt lat="41.98948" lon="25.42595">
        <ele>278.435026</ele>
        <time>2022-03-02T09:28:08.917Z</time>
      </trkpt>
      <trkpt lat="41.98954" lon="25.42584">
        <ele>278.690919</ele>
        <time>2022-03-02T09:28:14.902Z</time>
      </trkpt>
      <trkpt lat="41.9896" lon="25.42574">
        <ele>278.944784</ele>
        <time>2022-03-02T09:28:20.940Z</time>
      </trkpt>
      <trkpt lat="41.98967" lon="25.42564">
        <ele>279.203543</ele>
        <time>2022-03-02T09:28:26.910Z</time>
      </trkpt>
      <trkpt lat="41.98973" lon="25.42555">
        <ele>279.443821</ele>
        <time>2022-03-02T09:28:31.938Z</time>
      </trkpt>
      <trkpt lat="41.9898" lon="25.42544">
        <ele>279.715158</ele>
        <time>2022-03-02T09:28:36.911Z</time>
      </trkpt>
      <trkpt lat="41.98987" lon="25.42532">
        <ele>279.995269</ele>
        <time>2022-03-02T09:28:41.912Z</time>
      </trkpt>
      <trkpt lat="41.98993" lon="25.4252">
        <ele>280.277004</ele>
        <time>2022-03-02T09:28:46.905Z</time>
      </trkpt>
      <trkpt lat="41.98999" lon="25.42511">
        <ele>280.605191</ele>
        <time>2022-03-02T09:28:50.907Z</time>
      </trkpt>
      <trkpt lat="41.99006" lon="25.42501">
        <ele>280.947922</ele>
        <time>2022-03-02T09:28:55.914Z</time>
      </trkpt>
      <trkpt lat="41.99012" lon="25.4249">
        <ele>281.30785</ele>
        <time>2022-03-02T09:29:00.942Z</time>
      </trkpt>
      <trkpt lat="41.99018" lon="25.4248">
        <ele>281.626423</ele>
        <time>2022-03-02T09:29:05.922Z</time>
      </trkpt>
      <trkpt lat="41.99024" lon="25.42471">
        <ele>281.942231</ele>
        <time>2022-03-02T09:29:10.894Z</time>
      </trkpt>
      <trkpt lat="41.9903" lon="25.4246">
        <ele>282.30256</ele>
        <time>2022-03-02T09:29:16.920Z</time>
      </trkpt>
      <trkpt lat="41.99037" lon="25.42449">
        <ele>282.666885</ele>
        <time>2022-03-02T09:29:22.958Z</time>
      </trkpt>
      <trkpt lat="41.99043" lon="25.42439">
        <ele>282.996589</ele>
        <time>2022-03-02T09:29:28.901Z</time>
      </trkpt>
      <trkpt lat="41.9905" lon="25.42429">
        <ele>283.342099</ele>
        <time>2022-03-02T09:29:35.914Z</time>
      </trkpt>
      <trkpt lat="41.99057" lon="25.42419">
        <ele>283.710267</ele>
        <time>2022-03-02T09:29:41.897Z</time>
      </trkpt>
      <trkpt lat="41.99064" lon="25.42409">
        <ele>284.067616</ele>
        <time>2022-03-02T09:29:47.905Z</time>
      </trkpt>
      <trkpt lat="41.99071" lon="25.42399">
        <ele>284.401399</ele>
        <time>2022-03-02T09:29:53.910Z</time>
      </trkpt>
      <trkpt lat="41.99077" lon="25.42389">
        <ele>284.736526</ele>
        <time>2022-03-02T09:29:59.914Z</time>
      </trkpt>
      <trkpt lat="41.99083" lon="25.42379">
        <ele>285.08671</ele>
        <time>2022-03-02T09:30:05.937Z</time>
      </trkpt>
      <trkpt lat="41.99089" lon="25.42368">
        <ele>285.440435</ele>
        <time>2022-03-02T09:30:11.896Z</time>
      </trkpt>
      <trkpt lat="41.99095" lon="25.42358">
        <ele>285.765659</ele>
        <time>2022-03-02T09:30:17.936Z</time>
      </trkpt>
      <trkpt lat="41.99102" lon="25.42349">
        <ele>286.079289</ele>
        <time>2022-03-02T09:30:23.889Z</time>
      </trkpt>
      <trkpt lat="41.99109" lon="25.42339">
        <ele>286.445113</ele>
        <time>2022-03-02T09:30:30.919Z</time>
      </trkpt>
      <trkpt lat="41.99115" lon="25.4233">
        <ele>286.650676</ele>
        <time>2022-03-02T09:30:36.922Z</time>
      </trkpt>
      <trkpt lat="41.99121" lon="25.42319">
        <ele>286.85113</ele>
        <time>2022-03-02T09:30:43.888Z</time>
      </trkpt>
      <trkpt lat="41.99129" lon="25.4231">
        <ele>287.039218</ele>
        <time>2022-03-02T09:30:49.904Z</time>
      </trkpt>
      <trkpt lat="41.99137" lon="25.42302">
        <ele>287.223821</ele>
        <time>2022-03-02T09:30:55.909Z</time>
      </trkpt>
      <trkpt lat="41.99146" lon="25.42296">
        <ele>287.423698</ele>
        <time>2022-03-02T09:31:01.910Z</time>
      </trkpt>
      <trkpt lat="41.99155" lon="25.42294">
        <ele>287.601001</ele>
        <time>2022-03-02T09:31:06.915Z</time>
      </trkpt>
      <trkpt lat="41.99165" lon="25.42294">
        <ele>287.790105</ele>
        <time>2022-03-02T09:31:11.914Z</time>
      </trkpt>
      <trkpt lat="41.99175" lon="25.42292">
        <ele>287.974628</ele>
        <time>2022-03-02T09:31:16.903Z</time>
      </trkpt>
      <trkpt lat="41.99185" lon="25.42293">
        <ele>288.175123</ele>
        <time>2022-03-02T09:31:20.912Z</time>
      </trkpt>
      <trkpt lat="41.99196" lon="25.42292">
        <ele>288.375642</ele>
        <time>2022-03-02T09:31:24.897Z</time>
      </trkpt>
      <trkpt lat="41.99206" lon="25.42291">
        <ele>288.574714</ele>
        <time>2022-03-02T09:31:28.908Z</time>
      </trkpt>
      <trkpt lat="41.99216" lon="25.42293">
        <ele>288.771727</ele>
        <time>2022-03-02T09:31:33.894Z</time>
      </trkpt>
      <trkpt lat="41.99226" lon="25.42293">
        <ele>288.953131</ele>
        <time>2022-03-02T09:31:38.918Z</time>
      </trkpt>
      <trkpt lat="41.99235" lon="25.42292">
        <ele>289.132962</ele>
        <time>2022-03-02T09:31:42.906Z</time>
      </trkpt>
      <trkpt lat="41.99244" lon="25.42292">
        <ele>289.308668</ele>
        <time>2022-03-02T09:31:46.936Z</time>
      </trkpt>
      <trkpt lat="41.99255" lon="25.42291">
        <ele>289.511231</ele>
        <time>2022-03-02T09:31:51.904Z</time>
      </trkpt>
      <trkpt lat="41.99265" lon="25.42291">
        <ele>289.694527</ele>
        <time>2022-03-02T09:31:56.904Z</time>
      </trkpt>
      <trkpt lat="41.99275" lon="25.42291">
        <ele>289.891204</ele>
        <time>2022-03-02T09:32:02.916Z</time>
      </trkpt>
      <trkpt lat="41.99284" lon="25.42292">
        <ele>289.97866</ele>
        <time>2022-03-02T09:32:08.924Z</time>
      </trkpt>
      <trkpt lat="41.99294" lon="25.4229">
        <ele>290.02213</ele>
        <time>2022-03-02T09:32:15.979Z</time>
      </trkpt>
      <trkpt lat="41.99304" lon="25.4229">
        <ele>290.064986</ele>
        <time>2022-03-02T09:32:22.887Z</time>
      </trkpt>
      <trkpt lat="41.99314" lon="25.4229">
        <ele>290.104374</ele>
        <time>2022-03-02T09:32:28.906Z</time>
      </trkpt>
      <trkpt lat="41.99323" lon="25.4229">
        <ele>290.146428</ele>
        <time>2022-03-02T09:32:34.896Z</time>
      </trkpt>
      <trkpt lat="41.99334" lon="25.4229">
        <ele>290.190099</ele>
        <time>2022-03-02T09:32:40.918Z</time>
      </trkpt>
      <trkpt lat="41.99345" lon="25.4229">
        <ele>290.240619</ele>
        <time>2022-03-02T09:32:45.905Z</time>
      </trkpt>
      <trkpt lat="41.99356" lon="25.42291">
        <ele>290.286447</ele>
        <time>2022-03-02T09:32:48.920Z</time>
      </trkpt>
      <trkpt lat="41.99367" lon="25.42291">
        <ele>290.332703</ele>
        <time>2022-03-02T09:32:51.913Z</time>
      </trkpt>
      <trkpt lat="41.99378" lon="25.42293">
        <ele>290.382139</ele>
        <time>2022-03-02T09:32:54.943Z</time>
      </trkpt>
      <trkpt lat="41.9939" lon="25.42294">
        <ele>290.433167</ele>
        <time>2022-03-02T09:32:57.904Z</time>
      </trkpt>
      <trkpt lat="41.99402" lon="25.42294">
        <ele>290.481983</ele>
        <time>2022-03-02T09:33:00.913Z</time>
      </trkpt>
      <trkpt lat="41.99411" lon="25.42294">
        <ele>290.522675</ele>
        <time>2022-03-02T09:33:03.913Z</time>
      </trkpt>
      <trkpt lat="41.99421" lon="25.42294">
        <ele>290.563348</ele>
        <time>2022-03-02T09:33:07.900Z</time>
      </trkpt>
      <trkpt lat="41.99431" lon="25.42294">
        <ele>290.606607</ele>
        <time>2022-03-02T09:33:11.945Z</time>
      </trkpt>
      <trkpt lat="41.99441" lon="25.42295">
        <ele>290.648768</ele>
        <time>2022-03-02T09:33:15.899Z</time>
      </trkpt>
      <trkpt lat="41.9945" lon="25.42297">
        <ele>290.688483</ele>
        <time>2022-03-02T09:33:19.898Z</time>
      </trkpt>
      <trkpt lat="41.99459" lon="25.42298">
        <ele>290.785069</ele>
        <time>2022-03-02T09:33:23.897Z</time>
      </trkpt>
      <trkpt lat="41.99468" lon="25.42299">
        <ele>291.193515</ele>
        <time>2022-03-02T09:33:27.934Z</time>
      </trkpt>
      <trkpt lat="41.99478" lon="25.423">
        <ele>291.645136</ele>
        <time>2022-03-02T09:33:31.905Z</time>
      </trkpt>
      <trkpt lat="41.99488" lon="25.423">
        <ele>292.069877</ele>
        <time>2022-03-02T09:33:35.907Z</time>
      </trkpt>
      <trkpt lat="41.99498" lon="25.42301">
        <ele>292.518693</ele>
        <time>2022-03-02T09:33:39.904Z</time>
      </trkpt>
      <trkpt lat="41.99508" lon="25.423">
        <ele>292.992847</ele>
        <time>2022-03-02T09:33:44.943Z</time>
      </trkpt>
      <trkpt lat="41.99519" lon="25.42301">
        <ele>293.466722</ele>
        <time>2022-03-02T09:33:49.944Z</time>
      </trkpt>
      <trkpt lat="41.99529" lon="25.42299">
        <ele>293.902498</ele>
        <time>2022-03-02T09:33:55.899Z</time>
      </trkpt>
      <trkpt lat="41.99538" lon="25.42299">
        <ele>294.340611</ele>
        <time>2022-03-02T09:34:00.902Z</time>
      </trkpt>
      <trkpt lat="41.99548" lon="25.42299">
        <ele>294.792122</ele>
        <time>2022-03-02T09:34:06.903Z</time>
      </trkpt>
      <trkpt lat="41.99559" lon="25.423">
        <ele>295.248153</ele>
        <time>2022-03-02T09:34:12.917Z</time>
      </trkpt>
      <trkpt lat="41.99568" lon="25.42299">
        <ele>295.668384</ele>
        <time>2022-03-02T09:34:18.916Z</time>
      </trkpt>
      <trkpt lat="41.99578" lon="25.42298">
        <ele>296.099392</ele>
        <time>2022-03-02T09:34:24.909Z</time>
      </trkpt>
      <trkpt lat="41.99587" lon="25.42298">
        <ele>296.501729</ele>
        <time>2022-03-02T09:34:30.904Z</time>
      </trkpt>
      <trkpt lat="41.99596" lon="25.42299">
        <ele>296.935562</ele>
        <time>2022-03-02T09:34:37.903Z</time>
      </trkpt>
      <trkpt lat="41.99606" lon="25.42298">
        <ele>297.352159</ele>
        <time>2022-03-02T09:34:43.947Z</time>
      </trkpt>
      <trkpt lat="41.99615" lon="25.42299">
        <ele>297.777899</ele>
        <time>2022-03-02T09:34:49.893Z</time>
      </trkpt>
      <trkpt lat="41.99624" lon="25.42298">
        <ele>298.186345</ele>
        <time>2022-03-02T09:34:55.908Z</time>
      </trkpt>
      <trkpt lat="41.99633" lon="25.42297">
        <ele>298.588737</ele>
        <time>2022-03-02T09:35:01.903Z</time>
      </trkpt>
      <trkpt lat="41.99642" lon="25.42296">
        <ele>298.719695</ele>
        <time>2022-03-02T09:35:07.914Z</time>
      </trkpt>
      <trkpt lat="41.99652" lon="25.42294">
        <ele>298.633115</ele>
        <time>2022-03-02T09:35:14.892Z</time>
      </trkpt>
      <trkpt lat="41.99662" lon="25.42296">
        <ele>298.551064</ele>
        <time>2022-03-02T09:35:20.917Z</time>
      </trkpt>
      <trkpt lat="41.99671" lon="25.42297">
        <ele>298.474771</ele>
        <time>2022-03-02T09:35:26.906Z</time>
      </trkpt>
      <trkpt lat="41.99681" lon="25.42297">
        <ele>298.389484</ele>
        <time>2022-03-02T09:35:32.906Z</time>
      </trkpt>
      <trkpt lat="41.99691" lon="25.42297">
        <ele>298.310885</ele>
        <time>2022-03-02T09:35:36.904Z</time>
      </trkpt>
      <trkpt lat="41.99702" lon="25.42296">
        <ele>298.21722</ele>
        <time>2022-03-02T09:35:40.901Z</time>
      </trkpt>
      <trkpt lat="41.99714" lon="25.42295">
        <ele>298.120823</ele>
        <time>2022-03-02T09:35:44.922Z</time>
      </trkpt>
      <trkpt lat="41.99723" lon="25.42295">
        <ele>298.039708</ele>
        <time>2022-03-02T09:35:47.884Z</time>
      </trkpt>
      <trkpt lat="41.99733" lon="25.42295">
        <ele>297.960266</ele>
        <time>2022-03-02T09:35:50.905Z</time>
      </trkpt>
      <trkpt lat="41.99742" lon="25.42294">
        <ele>297.882417</ele>
        <time>2022-03-02T09:35:53.924Z</time>
      </trkpt>
      <trkpt lat="41.99753" lon="25.42293">
        <ele>297.78773</ele>
        <time>2022-03-02T09:35:57.905Z</time>
      </trkpt>
      <trkpt lat="41.99764" lon="25.42293">
        <ele>297.702389</ele>
        <time>2022-03-02T09:36:01.945Z</time>
      </trkpt>
      <trkpt lat="41.99774" lon="25.42292">
        <ele>297.616959</ele>
        <time>2022-03-02T09:36:05.918Z</time>
      </trkpt>
      <trkpt lat="41.99784" lon="25.42292">
        <ele>297.528294</ele>
        <time>2022-03-02T09:36:09.913Z</time>
      </trkpt>
      <trkpt lat="41.99796" lon="25.42292">
        <ele>297.430449</ele>
        <time>2022-03-02T09:36:13.938Z</time>
      </trkpt>
      <trkpt lat="41.99805" lon="25.42291">
        <ele>297.353102</ele>
        <time>2022-03-02T09:36:16.910Z</time>
      </trkpt>
      <trkpt lat="41.99815" lon="25.4229">
        <ele>297.274497</ele>
        <time>2022-03-02T09:36:19.894Z</time>
      </trkpt>
      <trkpt lat="41.99825" lon="25.42291">
        <ele>296.619257</ele>
        <time>2022-03-02T09:36:22.906Z</time>
      </trkpt>
      <trkpt lat="41.99837" lon="25.42292">
        <ele>295.697081</ele>
        <time>2022-03-02T09:36:25.900Z</time>
      </trkpt>
      <trkpt lat="41.99848" lon="25.42292">
        <ele>294.925972</ele>
        <time>2022-03-02T09:36:28.899Z</time>
      </trkpt>
      <trkpt lat="41.99859" lon="25.42292">
        <ele>294.109795</ele>
        <time>2022-03-02T09:36:31.946Z</time>
      </trkpt>
      <trkpt lat="41.99871" lon="25.42291">
        <ele>293.188375</ele>
        <time>2022-03-02T09:36:34.913Z</time>
      </trkpt>
      <trkpt lat="41.99884" lon="25.42291">
        <ele>292.199417</ele>
        <time>2022-03-02T09:36:37.898Z</time>
      </trkpt>
      <trkpt lat="41.99897" lon="25.42291">
        <ele>291.202978</ele>
        <time>2022-03-02T09:36:40.933Z</time>
      </trkpt>
      <trkpt lat="41.9991" lon="25.42294">
        <ele>290.236226</ele>
        <time>2022-03-02T09:36:43.905Z</time>
      </trkpt>
      <trkpt lat="41.99919" lon="25.42296">
        <ele>289.549356</ele>
        <time>2022-03-02T09:36:45.921Z</time>
      </trkpt>
      <trkpt lat="41.99932" lon="25.42301">
        <ele>288.573651</ele>
        <time>2022-03-02T09:36:48.901Z</time>
      </trkpt>
      <trkpt lat="41.99943" lon="25.42308">
        <ele>287.678671</ele>
        <time>2022-03-02T09:36:51.919Z</time>
      </trkpt>
      <trkpt lat="41.99953" lon="25.42315">
        <ele>286.792247</ele>
        <time>2022-03-02T09:36:54.910Z</time>
      </trkpt>
      <trkpt lat="41.99963" lon="25.42322">
        <ele>285.930888</ele>
        <time>2022-03-02T09:36:57.896Z</time>
      </trkpt>
      <trkpt lat="41.99974" lon="25.42329">
        <ele>285.044465</ele>
        <time>2022-03-02T09:37:00.903Z</time>
      </trkpt>
      <trkpt lat="41.99984" lon="25.42335">
        <ele>284.228213</ele>
        <time>2022-03-02T09:37:02.956Z</time>
      </trkpt>
      <trkpt lat="41.99994" lon="25.42343">
        <ele>283.676948</ele>
        <time>2022-03-02T09:37:04.900Z</time>
      </trkpt>
      <trkpt lat="42.00003" lon="25.42349">
        <ele>283.48023</ele>
        <time>2022-03-02T09:37:06.893Z</time>
      </trkpt>
      <trkpt lat="42.00014" lon="25.42358">
        <ele>283.202532</ele>
        <time>2022-03-02T09:37:09.913Z</time>
      </trkpt>
      <trkpt lat="42.00023" lon="25.42365">
        <ele>282.997948</ele>
        <time>2022-03-02T09:37:11.932Z</time>
      </trkpt>
      <trkpt lat="42.00031" lon="25.42371">
        <ele>282.803917</ele>
        <time>2022-03-02T09:37:13.951Z</time>
      </trkpt>
      <trkpt lat="42.0004" lon="25.42379">
        <ele>282.591576</ele>
        <time>2022-03-02T09:37:16.900Z</time>
      </trkpt>
      <trkpt lat="42.00048" lon="25.42384">
        <ele>282.404362</ele>
        <time>2022-03-02T09:37:20.916Z</time>
      </trkpt>
      <trkpt lat="42.00056" lon="25.42391">
        <ele>282.217107</ele>
        <time>2022-03-02T09:37:24.887Z</time>
      </trkpt>
      <trkpt lat="42.00064" lon="25.42398">
        <ele>282.03342</ele>
        <time>2022-03-02T09:37:28.909Z</time>
      </trkpt>
      <trkpt lat="42.00071" lon="25.42405">
        <ele>281.847982</ele>
        <time>2022-03-02T09:37:32.900Z</time>
      </trkpt>
      <trkpt lat="42.0008" lon="25.42412">
        <ele>281.633361</ele>
        <time>2022-03-02T09:37:36.905Z</time>
      </trkpt>
      <trkpt lat="42.0009" lon="25.42419">
        <ele>281.404838</ele>
        <time>2022-03-02T09:37:40.908Z</time>
      </trkpt>
      <trkpt lat="42.00101" lon="25.42427">
        <ele>281.164513</ele>
        <time>2022-03-02T09:37:44.888Z</time>
      </trkpt>
      <trkpt lat="42.00109" lon="25.42434">
        <ele>280.959745</ele>
        <time>2022-03-02T09:37:47.946Z</time>
      </trkpt>
      <trkpt lat="42.00119" lon="25.42441">
        <ele>280.731936</ele>
        <time>2022-03-02T09:37:50.925Z</time>
      </trkpt>
      <trkpt lat="42.00129" lon="25.42448">
        <ele>280.509029</ele>
        <time>2022-03-02T09:37:53.895Z</time>
      </trkpt>
      <trkpt lat="42.00137" lon="25.42456">
        <ele>280.298151</ele>
        <time>2022-03-02T09:37:56.895Z</time>
      </trkpt>
      <trkpt lat="42.00146" lon="25.42463">
        <ele>280.080802</ele>
        <time>2022-03-02T09:37:59.907Z</time>
      </trkpt>
      <trkpt lat="42.00154" lon="25.42469">
        <ele>279.792085</ele>
        <time>2022-03-02T09:38:02.916Z</time>
      </trkpt>
      <trkpt lat="42.00163" lon="25.42476">
        <ele>279.466029</ele>
        <time>2022-03-02T09:38:06.906Z</time>
      </trkpt>
      <trkpt lat="42.00171" lon="25.42483">
        <ele>279.179554</ele>
        <time>2022-03-02T09:38:10.903Z</time>
      </trkpt>
      <trkpt lat="42.00179" lon="25.4249">
        <ele>278.886685</ele>
        <time>2022-03-02T09:38:14.911Z</time>
      </trkpt>
      <trkpt lat="42.00187" lon="25.42496">
        <ele>278.599927</ele>
        <time>2022-03-02T09:38:18.896Z</time>
      </trkpt>
      <trkpt lat="42.00196" lon="25.42503">
        <ele>278.300332</ele>
        <time>2022-03-02T09:38:22.898Z</time>
      </trkpt>
      <trkpt lat="42.00204" lon="25.42509">
        <ele>278.007158</ele>
        <time>2022-03-02T09:38:26.910Z</time>
      </trkpt>
      <trkpt lat="42.00214" lon="25.42515">
        <ele>277.662687</ele>
        <time>2022-03-02T09:38:30.903Z</time>
      </trkpt>
      <trkpt lat="42.00223" lon="25.42521">
        <ele>277.380925</ele>
        <time>2022-03-02T09:38:33.909Z</time>
      </trkpt>
      <trkpt lat="42.00233" lon="25.42528">
        <ele>277.040558</ele>
        <time>2022-03-02T09:38:36.919Z</time>
      </trkpt>
      <trkpt lat="42.00242" lon="25.42536">
        <ele>276.682046</ele>
        <time>2022-03-02T09:38:39.943Z</time>
      </trkpt>
      <trkpt lat="42.00252" lon="25.42544">
        <ele>276.330668</ele>
        <time>2022-03-02T09:38:42.944Z</time>
      </trkpt>
      <trkpt lat="42.00262" lon="25.42551">
        <ele>275.989801</ele>
        <time>2022-03-02T09:38:45.905Z</time>
      </trkpt>
      <trkpt lat="42.0027" lon="25.42558">
        <ele>275.693146</ele>
        <time>2022-03-02T09:38:48.958Z</time>
      </trkpt>
      <trkpt lat="42.0028" lon="25.42566">
        <ele>275.351017</ele>
        <time>2022-03-02T09:38:51.915Z</time>
      </trkpt>
      <trkpt lat="42.00289" lon="25.42574">
        <ele>275.007679</ele>
        <time>2022-03-02T09:38:54.919Z</time>
      </trkpt>
      <trkpt lat="42.00298" lon="25.4258">
        <ele>274.718408</ele>
        <time>2022-03-02T09:38:57.907Z</time>
      </trkpt>
      <trkpt lat="42.00308" lon="25.42588">
        <ele>273.874357</ele>
        <time>2022-03-02T09:39:00.892Z</time>
      </trkpt>
      <trkpt lat="42.00319" lon="25.42596">
        <ele>272.890803</ele>
        <time>2022-03-02T09:39:03.908Z</time>
      </trkpt>
      <trkpt lat="42.00329" lon="25.42602">
        <ele>271.999632</ele>
        <time>2022-03-02T09:39:06.920Z</time>
      </trkpt>
      <trkpt lat="42.00339" lon="25.4261">
        <ele>271.028884</ele>
        <time>2022-03-02T09:39:09.924Z</time>
      </trkpt>
      <trkpt lat="42.00349" lon="25.42617">
        <ele>270.110657</ele>
        <time>2022-03-02T09:39:12.939Z</time>
      </trkpt>
      <trkpt lat="42.00359" lon="25.42624">
        <ele>269.209447</ele>
        <time>2022-03-02T09:39:15.893Z</time>
      </trkpt>
      <trkpt lat="42.00369" lon="25.42632">
        <ele>268.277089</ele>
        <time>2022-03-02T09:39:18.917Z</time>
      </trkpt>
      <trkpt lat="42.00379" lon="25.42639">
        <ele>267.409911</ele>
        <time>2022-03-02T09:39:21.917Z</time>
      </trkpt>
      <trkpt lat="42.00388" lon="25.42647">
        <ele>266.531061</ele>
        <time>2022-03-02T09:39:24.898Z</time>
      </trkpt>
      <trkpt lat="42.00399" lon="25.42657">
        <ele>265.420367</ele>
        <time>2022-03-02T09:39:27.910Z</time>
      </trkpt>
      <trkpt lat="42.00408" lon="25.42663">
        <ele>264.624187</ele>
        <time>2022-03-02T09:39:29.895Z</time>
      </trkpt>
      <trkpt lat="42.00416" lon="25.42669">
        <ele>263.883956</ele>
        <time>2022-03-02T09:39:31.900Z</time>
      </trkpt>
      <trkpt lat="42.00425" lon="25.42675">
        <ele>263.033201</ele>
        <time>2022-03-02T09:39:34.925Z</time>
      </trkpt>
      <trkpt lat="42.00434" lon="25.4268">
        <ele>262.289575</ele>
        <time>2022-03-02T09:39:37.934Z</time>
      </trkpt>
      <trkpt lat="42.00445" lon="25.42682">
        <ele>261.393962</ele>
        <time>2022-03-02T09:39:40.889Z</time>
      </trkpt>
      <trkpt lat="42.00456" lon="25.4268">
        <ele>260.506372</ele>
        <time>2022-03-02T09:39:43.909Z</time>
      </trkpt>
      <trkpt lat="42.00465" lon="25.42677">
        <ele>259.919625</ele>
        <time>2022-03-02T09:39:46.917Z</time>
      </trkpt>
      <trkpt lat="42.00477" lon="25.42675">
        <ele>259.383235</ele>
        <time>2022-03-02T09:39:50.913Z</time>
      </trkpt>
      <trkpt lat="42.00487" lon="25.42681">
        <ele>258.883734</ele>
        <time>2022-03-02T09:39:53.919Z</time>
      </trkpt>
      <trkpt lat="42.00496" lon="25.42692">
        <ele>258.332612</ele>
        <time>2022-03-02T09:39:56.913Z</time>
      </trkpt>
      <trkpt lat="42.00502" lon="25.42707">
        <ele>257.772449</ele>
        <time>2022-03-02T09:39:59.905Z</time>
      </trkpt>
      <trkpt lat="42.00507" lon="25.4272">
        <ele>257.318253</ele>
        <time>2022-03-02T09:40:01.946Z</time>
      </trkpt>
      <trkpt lat="42.0051" lon="25.42732">
        <ele>256.870429</ele>
        <time>2022-03-02T09:40:03.914Z</time>
      </trkpt>
      <trkpt lat="42.00514" lon="25.42744">
        <ele>256.446576</ele>
        <time>2022-03-02T09:40:05.906Z</time>
      </trkpt>
      <trkpt lat="42.00519" lon="25.4276">
        <ele>255.888486</ele>
        <time>2022-03-02T09:40:08.900Z</time>
      </trkpt>
      <trkpt lat="42.00523" lon="25.42775">
        <ele>255.340834</ele>
        <time>2022-03-02T09:40:11.899Z</time>
      </trkpt>
      <trkpt lat="42.0053" lon="25.42788">
        <ele>254.827039</ele>
        <time>2022-03-02T09:40:14.901Z</time>
      </trkpt>
      <trkpt lat="42.00539" lon="25.42799">
        <ele>254.260669</ele>
        <time>2022-03-02T09:40:17.916Z</time>
      </trkpt>
      <trkpt lat="42.00551" lon="25.42804">
        <ele>253.728345</ele>
        <time>2022-03-02T09:40:20.896Z</time>
      </trkpt>
      <trkpt lat="42.00561" lon="25.42808">
        <ele>253.234976</ele>
        <time>2022-03-02T09:40:24.914Z</time>
      </trkpt>
      <trkpt lat="42.00573" lon="25.42812">
        <ele>252.691853</ele>
        <time>2022-03-02T09:40:28.916Z</time>
      </trkpt>
      <trkpt lat="42.00582" lon="25.42817">
        <ele>252.265662</ele>
        <time>2022-03-02T09:40:31.894Z</time>
      </trkpt>
      <trkpt lat="42.00593" lon="25.42821">
        <ele>251.807122</ele>
        <time>2022-03-02T09:40:34.940Z</time>
      </trkpt>
      <trkpt lat="42.00603" lon="25.42826">
        <ele>251.377761</ele>
        <time>2022-03-02T09:40:37.953Z</time>
      </trkpt>
      <trkpt lat="42.00613" lon="25.42829">
        <ele>250.940484</ele>
        <time>2022-03-02T09:40:40.916Z</time>
      </trkpt>
      <trkpt lat="42.00624" lon="25.42831">
        <ele>250.522611</ele>
        <time>2022-03-02T09:40:43.907Z</time>
      </trkpt>
      <trkpt lat="42.00635" lon="25.42835">
        <ele>250.06231</ele>
        <time>2022-03-02T09:40:46.912Z</time>
      </trkpt>
      <trkpt lat="42.00645" lon="25.42838">
        <ele>249.647226</ele>
        <time>2022-03-02T09:40:49.902Z</time>
      </trkpt>
      <trkpt lat="42.00657" lon="25.42841">
        <ele>249.158756</ele>
        <time>2022-03-02T09:40:52.907Z</time>
      </trkpt>
      <trkpt lat="42.00667" lon="25.42844">
        <ele>248.720551</ele>
        <time>2022-03-02T09:40:55.906Z</time>
      </trkpt>
      <trkpt lat="42.00678" lon="25.42846">
        <ele>248.273754</ele>
        <time>2022-03-02T09:40:58.912Z</time>
      </trkpt>
      <trkpt lat="42.00689" lon="25.42846">
        <ele>247.838773</ele>
        <time>2022-03-02T09:41:01.914Z</time>
      </trkpt>
      <trkpt lat="42.007" lon="25.42846">
        <ele>247.395635</ele>
        <time>2022-03-02T09:41:04.956Z</time>
      </trkpt>
      <trkpt lat="42.00712" lon="25.42847">
        <ele>246.919897</ele>
        <time>2022-03-02T09:41:07.907Z</time>
      </trkpt>
      <trkpt lat="42.00723" lon="25.42848">
        <ele>246.457874</ele>
        <time>2022-03-02T09:41:10.906Z</time>
      </trkpt>
      <trkpt lat="42.00734" lon="25.42849">
        <ele>246.022318</ele>
        <time>2022-03-02T09:41:13.897Z</time>
      </trkpt>
      <trkpt lat="42.00743" lon="25.4285">
        <ele>245.651563</ele>
        <time>2022-03-02T09:41:16.922Z</time>
      </trkpt>
      <trkpt lat="42.00754" lon="25.42851">
        <ele>245.22284</ele>
        <time>2022-03-02T09:41:19.916Z</time>
      </trkpt>
      <trkpt lat="42.00765" lon="25.42852">
        <ele>244.675573</ele>
        <time>2022-03-02T09:41:22.907Z</time>
      </trkpt>
      <trkpt lat="42.00774" lon="25.42852">
        <ele>243.88639</ele>
        <time>2022-03-02T09:41:25.913Z</time>
      </trkpt>
      <trkpt lat="42.00785" lon="25.42852">
        <ele>242.945352</ele>
        <time>2022-03-02T09:41:29.903Z</time>
      </trkpt>
      <trkpt lat="42.00797" lon="25.42851">
        <ele>241.927517</ele>
        <time>2022-03-02T09:41:32.912Z</time>
      </trkpt>
      <trkpt lat="42.00808" lon="25.42851">
        <ele>240.994613</ele>
        <time>2022-03-02T09:41:35.910Z</time>
      </trkpt>
      <trkpt lat="42.00819" lon="25.42852">
        <ele>240.120461</ele>
        <time>2022-03-02T09:41:39.901Z</time>
      </trkpt>
      <trkpt lat="42.00829" lon="25.42854">
        <ele>239.259177</ele>
        <time>2022-03-02T09:41:44.900Z</time>
      </trkpt>
      <trkpt lat="42.00839" lon="25.42852">
        <ele>238.357536</ele>
        <time>2022-03-02T09:41:49.893Z</time>
      </trkpt>
      <trkpt lat="42.0085" lon="25.42852">
        <ele>237.457282</ele>
        <time>2022-03-02T09:41:53.897Z</time>
      </trkpt>
      <trkpt lat="42.0086" lon="25.42851">
        <ele>236.608829</ele>
        <time>2022-03-02T09:41:58.905Z</time>
      </trkpt>
      <trkpt lat="42.00871" lon="25.42849">
        <ele>235.661175</ele>
        <time>2022-03-02T09:42:03.901Z</time>
      </trkpt>
      <trkpt lat="42.00882" lon="25.42848">
        <ele>234.758984</ele>
        <time>2022-03-02T09:42:08.939Z</time>
      </trkpt>
      <trkpt lat="42.00892" lon="25.42846">
        <ele>233.907438</ele>
        <time>2022-03-02T09:42:12.915Z</time>
      </trkpt>
      <trkpt lat="42.00902" lon="25.42842">
        <ele>233.021104</ele>
        <time>2022-03-02T09:42:17.921Z</time>
      </trkpt>
      <trkpt lat="42.00913" lon="25.42839">
        <ele>232.025734</ele>
        <time>2022-03-02T09:42:21.920Z</time>
      </trkpt>
      <trkpt lat="42.00922" lon="25.42836">
        <ele>231.219976</ele>
        <time>2022-03-02T09:42:24.913Z</time>
      </trkpt>
      <trkpt lat="42.00933" lon="25.42831">
        <ele>230.283902</ele>
        <time>2022-03-02T09:42:28.903Z</time>
      </trkpt>
      <trkpt lat="42.00943" lon="25.42828">
        <ele>229.448635</ele>
        <time>2022-03-02T09:42:31.900Z</time>
      </trkpt>
      <trkpt lat="42.00954" lon="25.42824">
        <ele>228.588618</ele>
        <time>2022-03-02T09:42:34.913Z</time>
      </trkpt>
      <trkpt lat="42.00965" lon="25.42819">
        <ele>227.680896</ele>
        <time>2022-03-02T09:42:37.934Z</time>
      </trkpt>
      <trkpt lat="42.00976" lon="25.42815">
        <ele>226.829747</ele>
        <time>2022-03-02T09:42:40.904Z</time>
      </trkpt>
      <trkpt lat="42.00987" lon="25.42812">
        <ele>225.945279</ele>
        <time>2022-03-02T09:42:44.903Z</time>
      </trkpt>
      <trkpt lat="42.00996" lon="25.42811">
        <ele>225.244187</ele>
        <time>2022-03-02T09:42:47.906Z</time>
      </trkpt>
      <trkpt lat="42.01007" lon="25.42811">
        <ele>224.44758</ele>
        <time>2022-03-02T09:42:50.890Z</time>
      </trkpt>
      <trkpt lat="42.0102" lon="25.42814">
        <ele>223.422778</ele>
        <time>2022-03-02T09:42:53.889Z</time>
      </trkpt>
      <trkpt lat="42.0103" lon="25.42816">
        <ele>222.710113</ele>
        <time>2022-03-02T09:42:55.884Z</time>
      </trkpt>
      <trkpt lat="42.01039" lon="25.42818">
        <ele>221.964908</ele>
        <time>2022-03-02T09:42:57.931Z</time>
      </trkpt>
      <trkpt lat="42.01049" lon="25.42821">
        <ele>221.21471</ele>
        <time>2022-03-02T09:42:59.903Z</time>
      </trkpt>
      <trkpt lat="42.01061" lon="25.42823">
        <ele>220.319405</ele>
        <time>2022-03-02T09:43:02.904Z</time>
      </trkpt>
      <trkpt lat="42.01072" lon="25.42825">
        <ele>219.475043</ele>
        <time>2022-03-02T09:43:05.918Z</time>
      </trkpt>
      <trkpt lat="42.01082" lon="25.42829">
        <ele>218.638486</ele>
        <time>2022-03-02T09:43:08.875Z</time>
      </trkpt>
      <trkpt lat="42.01094" lon="25.42833">
        <ele>217.730202</ele>
        <time>2022-03-02T09:43:11.914Z</time>
      </trkpt>
      <trkpt lat="42.01107" lon="25.42838">
        <ele>216.703112</ele>
        <time>2022-03-02T09:43:14.923Z</time>
      </trkpt>
      <trkpt lat="42.01117" lon="25.42841">
        <ele>215.960982</ele>
        <time>2022-03-02T09:43:16.902Z</time>
      </trkpt>
      <trkpt lat="42.01125" lon="25.42844">
        <ele>215.532931</ele>
        <time>2022-03-02T09:43:18.924Z</time>
      </trkpt>
      <trkpt lat="42.01135" lon="25.42847">
        <ele>215.073749</ele>
        <time>2022-03-02T09:43:23.907Z</time>
      </trkpt>
      <trkpt lat="42.01146" lon="25.42849">
        <ele>214.557396</ele>
        <time>2022-03-02T09:43:28.904Z</time>
      </trkpt>
      <trkpt lat="42.01155" lon="25.42852">
        <ele>214.124791</ele>
        <time>2022-03-02T09:43:31.916Z</time>
      </trkpt>
      <trkpt lat="42.01165" lon="25.42855">
        <ele>213.607883</ele>
        <time>2022-03-02T09:43:34.914Z</time>
      </trkpt>
      <trkpt lat="42.01178" lon="25.42859">
        <ele>212.992543</ele>
        <time>2022-03-02T09:43:37.912Z</time>
      </trkpt>
      <trkpt lat="42.01188" lon="25.42861">
        <ele>212.516505</ele>
        <time>2022-03-02T09:43:39.916Z</time>
      </trkpt>
      <trkpt lat="42.01199" lon="25.42864">
        <ele>212.0075</ele>
        <time>2022-03-02T09:43:41.903Z</time>
      </trkpt>
      <trkpt lat="42.0121" lon="25.42868">
        <ele>211.472577</ele>
        <time>2022-03-02T09:43:43.902Z</time>
      </trkpt>
      <trkpt lat="42.01222" lon="25.4287">
        <ele>210.909913</ele>
        <time>2022-03-02T09:43:45.922Z</time>
      </trkpt>
      <trkpt lat="42.01234" lon="25.42873">
        <ele>210.330943</ele>
        <time>2022-03-02T09:43:47.918Z</time>
      </trkpt>
      <trkpt lat="42.01245" lon="25.42876">
        <ele>209.79602</ele>
        <time>2022-03-02T09:43:49.912Z</time>
      </trkpt>
      <trkpt lat="42.01256" lon="25.4288">
        <ele>209.276376</ele>
        <time>2022-03-02T09:43:51.910Z</time>
      </trkpt>
      <trkpt lat="42.01266" lon="25.42882">
        <ele>208.789116</ele>
        <time>2022-03-02T09:43:53.903Z</time>
      </trkpt>
      <trkpt lat="42.01276" lon="25.42884">
        <ele>208.315123</ele>
        <time>2022-03-02T09:43:55.909Z</time>
      </trkpt>
      <trkpt lat="42.01286" lon="25.42887">
        <ele>207.847594</ele>
        <time>2022-03-02T09:43:57.912Z</time>
      </trkpt>
      <trkpt lat="42.01295" lon="25.42889">
        <ele>207.518843</ele>
        <time>2022-03-02T09:43:59.932Z</time>
      </trkpt>
      <trkpt lat="42.01306" lon="25.42894">
        <ele>207.513803</ele>
        <time>2022-03-02T09:44:02.909Z</time>
      </trkpt>
      <trkpt lat="42.01318" lon="25.42897">
        <ele>207.508601</ele>
        <time>2022-03-02T09:44:06.894Z</time>
      </trkpt>
      <trkpt lat="42.01328" lon="25.42897">
        <ele>207.50445</ele>
        <time>2022-03-02T09:44:09.904Z</time>
      </trkpt>
      <trkpt lat="42.01338" lon="25.42892">
        <ele>207.499849</ele>
        <time>2022-03-02T09:44:13.953Z</time>
      </trkpt>
      <trkpt lat="42.01345" lon="25.42882">
        <ele>207.495383</ele>
        <time>2022-03-02T09:44:18.914Z</time>
      </trkpt>
      <trkpt lat="42.01352" lon="25.42872">
        <ele>207.490909</ele>
        <time>2022-03-02T09:44:23.907Z</time>
      </trkpt>
      <trkpt lat="42.01361" lon="25.42863">
        <ele>207.485925</ele>
        <time>2022-03-02T09:44:28.932Z</time>
      </trkpt>
      <trkpt lat="42.01368" lon="25.42853">
        <ele>207.481512</ele>
        <time>2022-03-02T09:44:32.920Z</time>
      </trkpt>
      <trkpt lat="42.01376" lon="25.42842">
        <ele>207.476644</ele>
        <time>2022-03-02T09:44:36.898Z</time>
      </trkpt>
      <trkpt lat="42.01384" lon="25.42832">
        <ele>207.472102</ele>
        <time>2022-03-02T09:44:40.899Z</time>
      </trkpt>
      <trkpt lat="42.01392" lon="25.4282">
        <ele>207.466994</ele>
        <time>2022-03-02T09:44:44.896Z</time>
      </trkpt>
      <trkpt lat="42.01399" lon="25.4281">
        <ele>207.462369</ele>
        <time>2022-03-02T09:44:48.920Z</time>
      </trkpt>
      <trkpt lat="42.01407" lon="25.428">
        <ele>207.457782</ele>
        <time>2022-03-02T09:44:52.923Z</time>
      </trkpt>
      <trkpt lat="42.01414" lon="25.4279">
        <ele>207.453401</ele>
        <time>2022-03-02T09:44:56.910Z</time>
      </trkpt>
      <trkpt lat="42.01421" lon="25.42781">
        <ele>207.449309</ele>
        <time>2022-03-02T09:45:00.930Z</time>
      </trkpt>
      <trkpt lat="42.01428" lon="25.4277">
        <ele>207.44449</ele>
        <time>2022-03-02T09:45:05.906Z</time>
      </trkpt>
      <trkpt lat="42.01436" lon="25.4276">
        <ele>207.465255</ele>
        <time>2022-03-02T09:45:10.914Z</time>
      </trkpt>
      <trkpt lat="42.01444" lon="25.42752">
        <ele>207.501733</ele>
        <time>2022-03-02T09:45:14.903Z</time>
      </trkpt>
      <trkpt lat="42.01455" lon="25.42747">
        <ele>207.545126</ele>
        <time>2022-03-02T09:45:18.911Z</time>
      </trkpt>
      <trkpt lat="42.01465" lon="25.42745">
        <ele>207.583821</ele>
        <time>2022-03-02T09:45:21.932Z</time>
      </trkpt>
      <trkpt lat="42.01475" lon="25.42746">
        <ele>207.622188</ele>
        <time>2022-03-02T09:45:24.910Z</time>
      </trkpt>
      <trkpt lat="42.01486" lon="25.42746">
        <ele>207.663976</ele>
        <time>2022-03-02T09:45:27.917Z</time>
      </trkpt>
      <trkpt lat="42.01498" lon="25.42747">
        <ele>207.706816</ele>
        <time>2022-03-02T09:45:30.905Z</time>
      </trkpt>
      <trkpt lat="42.01507" lon="25.42745">
        <ele>207.742421</ele>
        <time>2022-03-02T09:45:33.922Z</time>
      </trkpt>
      <trkpt lat="42.01519" lon="25.42745">
        <ele>207.786786</ele>
        <time>2022-03-02T09:45:37.899Z</time>
      </trkpt>
      <trkpt lat="42.01531" lon="25.42748">
        <ele>207.833491</ele>
        <time>2022-03-02T09:45:40.933Z</time>
      </trkpt>
      <trkpt lat="42.01545" lon="25.42748">
        <ele>207.884241</ele>
        <time>2022-03-02T09:45:43.908Z</time>
      </trkpt>
      <trkpt lat="42.01554" lon="25.42749">
        <ele>207.919217</ele>
        <time>2022-03-02T09:45:45.905Z</time>
      </trkpt>
      <trkpt lat="42.01567" lon="25.4275">
        <ele>207.966648</ele>
        <time>2022-03-02T09:45:48.912Z</time>
      </trkpt>
      <trkpt lat="42.01578" lon="25.42752">
        <ele>208.008256</ele>
        <time>2022-03-02T09:45:51.910Z</time>
      </trkpt>
      <trkpt lat="42.01588" lon="25.42752">
        <ele>208.045851</ele>
        <time>2022-03-02T09:45:54.918Z</time>
      </trkpt>
      <trkpt lat="42.016" lon="25.42751">
        <ele>208.091352</ele>
        <time>2022-03-02T09:45:58.906Z</time>
      </trkpt>
      <trkpt lat="42.0161" lon="25.42751">
        <ele>208.07843</ele>
        <time>2022-03-02T09:46:02.897Z</time>
      </trkpt>
      <trkpt lat="42.01629" lon="25.42749">
        <ele>207.861008</ele>
        <time>2022-03-02T09:46:23.911Z</time>
      </trkpt>
      <trkpt lat="42.01639" lon="25.4275">
        <ele>207.746212</ele>
        <time>2022-03-02T09:46:26.928Z</time>
      </trkpt>
      <trkpt lat="42.0165" lon="25.42751">
        <ele>207.61673</ele>
        <time>2022-03-02T09:46:29.906Z</time>
      </trkpt>
      <trkpt lat="42.01662" lon="25.42751">
        <ele>207.479897</ele>
        <time>2022-03-02T09:46:32.910Z</time>
      </trkpt>
      <trkpt lat="42.01674" lon="25.42751">
        <ele>207.333856</ele>
        <time>2022-03-02T09:46:35.896Z</time>
      </trkpt>
      <trkpt lat="42.01688" lon="25.42751">
        <ele>207.175032</ele>
        <time>2022-03-02T09:46:38.939Z</time>
      </trkpt>
      <trkpt lat="42.01698" lon="25.42751">
        <ele>207.056808</ele>
        <time>2022-03-02T09:46:40.890Z</time>
      </trkpt>
      <trkpt lat="42.01708" lon="25.42751">
        <ele>206.9407</ele>
        <time>2022-03-02T09:46:42.914Z</time>
      </trkpt>
      <trkpt lat="42.01718" lon="25.4275">
        <ele>206.834038</ele>
        <time>2022-03-02T09:46:44.934Z</time>
      </trkpt>
      <trkpt lat="42.01727" lon="25.4275">
        <ele>206.722718</ele>
        <time>2022-03-02T09:46:46.899Z</time>
      </trkpt>
      <trkpt lat="42.01737" lon="25.4275">
        <ele>206.607961</ele>
        <time>2022-03-02T09:46:48.899Z</time>
      </trkpt>
      <trkpt lat="42.01747" lon="25.4275">
        <ele>206.494324</ele>
        <time>2022-03-02T09:46:50.911Z</time>
      </trkpt>
      <trkpt lat="42.01757" lon="25.42751">
        <ele>206.376025</ele>
        <time>2022-03-02T09:46:52.903Z</time>
      </trkpt>
      <trkpt lat="42.01767" lon="25.42751">
        <ele>206.261123</ele>
        <time>2022-03-02T09:46:54.904Z</time>
      </trkpt>
      <trkpt lat="42.01776" lon="25.42752">
        <ele>206.154211</ele>
        <time>2022-03-02T09:46:56.918Z</time>
      </trkpt>
      <trkpt lat="42.0179" lon="25.42753">
        <ele>205.974121</ele>
        <time>2022-03-02T09:46:59.906Z</time>
      </trkpt>
      <trkpt lat="42.01802" lon="25.42754">
        <ele>205.721015</ele>
        <time>2022-03-02T09:47:02.908Z</time>
      </trkpt>
      <trkpt lat="42.01815" lon="25.42755">
        <ele>205.479724</ele>
        <time>2022-03-02T09:47:05.916Z</time>
      </trkpt>
      <trkpt lat="42.01826" lon="25.42755">
        <ele>205.256424</ele>
        <time>2022-03-02T09:47:08.905Z</time>
      </trkpt>
      <trkpt lat="42.01836" lon="25.42753">
        <ele>205.046508</ele>
        <time>2022-03-02T09:47:11.913Z</time>
      </trkpt>
      <trkpt lat="42.01846" lon="25.42752">
        <ele>204.853994</ele>
        <time>2022-03-02T09:47:14.908Z</time>
      </trkpt>
      <trkpt lat="42.01856" lon="25.4275">
        <ele>204.64903</ele>
        <time>2022-03-02T09:47:17.896Z</time>
      </trkpt>
      <trkpt lat="42.01867" lon="25.42748">
        <ele>204.446887</ele>
        <time>2022-03-02T09:47:20.909Z</time>
      </trkpt>
      <trkpt lat="42.01877" lon="25.42746">
        <ele>204.232777</ele>
        <time>2022-03-02T09:47:23.929Z</time>
      </trkpt>
      <trkpt lat="42.01888" lon="25.42746">
        <ele>204.031151</ele>
        <time>2022-03-02T09:47:26.915Z</time>
      </trkpt>
      <trkpt lat="42.01898" lon="25.42744">
        <ele>203.826708</ele>
        <time>2022-03-02T09:47:29.902Z</time>
      </trkpt>
      <trkpt lat="42.01909" lon="25.42742">
        <ele>203.612645</ele>
        <time>2022-03-02T09:47:32.919Z</time>
      </trkpt>
      <trkpt lat="42.0192" lon="25.42739">
        <ele>203.39102</ele>
        <time>2022-03-02T09:47:35.913Z</time>
      </trkpt>
      <trkpt lat="42.01931" lon="25.42737">
        <ele>203.168684</ele>
        <time>2022-03-02T09:47:38.909Z</time>
      </trkpt>
      <trkpt lat="42.01942" lon="25.42733">
        <ele>202.944539</ele>
        <time>2022-03-02T09:47:41.909Z</time>
      </trkpt>
      <trkpt lat="42.01952" lon="25.42727">
        <ele>202.733512</ele>
        <time>2022-03-02T09:47:44.904Z</time>
      </trkpt>
      <trkpt lat="42.01961" lon="25.42721">
        <ele>202.519825</ele>
        <time>2022-03-02T09:47:47.927Z</time>
      </trkpt>
      <trkpt lat="42.01971" lon="25.42714">
        <ele>202.900348</ele>
        <time>2022-03-02T09:47:50.929Z</time>
      </trkpt>
      <trkpt lat="42.01979" lon="25.42704">
        <ele>203.395761</ele>
        <time>2022-03-02T09:47:53.904Z</time>
      </trkpt>
      <trkpt lat="42.01985" lon="25.42694">
        <ele>203.840749</ele>
        <time>2022-03-02T09:47:56.894Z</time>
      </trkpt>
      <trkpt lat="42.01992" lon="25.42684">
        <ele>204.337892</ele>
        <time>2022-03-02T09:48:00.919Z</time>
      </trkpt>
      <trkpt lat="42.01998" lon="25.42674">
        <ele>204.771044</ele>
        <time>2022-03-02T09:48:03.897Z</time>
      </trkpt>
      <trkpt lat="42.02004" lon="25.42665">
        <ele>205.207751</ele>
        <time>2022-03-02T09:48:06.919Z</time>
      </trkpt>
      <trkpt lat="42.02011" lon="25.42655">
        <ele>205.6631</ele>
        <time>2022-03-02T09:48:09.927Z</time>
      </trkpt>
      <trkpt lat="42.02016" lon="25.42645">
        <ele>206.090755</ele>
        <time>2022-03-02T09:48:12.944Z</time>
      </trkpt>
      <trkpt lat="42.02023" lon="25.42633">
        <ele>206.635525</ele>
        <time>2022-03-02T09:48:16.913Z</time>
      </trkpt>
      <trkpt lat="42.0203" lon="25.42623">
        <ele>207.070619</ele>
        <time>2022-03-02T09:48:19.895Z</time>
      </trkpt>
      <trkpt lat="42.02036" lon="25.42614">
        <ele>207.512978</ele>
        <time>2022-03-02T09:48:22.909Z</time>
      </trkpt>
      <trkpt lat="42.02043" lon="25.42605">
        <ele>207.955414</ele>
        <time>2022-03-02T09:48:25.910Z</time>
      </trkpt>
      <trkpt lat="42.02051" lon="25.42598">
        <ele>208.415079</ele>
        <time>2022-03-02T09:48:28.902Z</time>
      </trkpt>
      <trkpt lat="42.02058" lon="25.42588">
        <ele>208.860984</ele>
        <time>2022-03-02T09:48:31.915Z</time>
      </trkpt>
      <trkpt lat="42.02065" lon="25.4258">
        <ele>209.286057</ele>
        <time>2022-03-02T09:48:34.940Z</time>
      </trkpt>
      <trkpt lat="42.02074" lon="25.4257">
        <ele>209.839942</ele>
        <time>2022-03-02T09:48:38.915Z</time>
      </trkpt>
      <trkpt lat="42.02082" lon="25.42563">
        <ele>210.289684</ele>
        <time>2022-03-02T09:48:41.902Z</time>
      </trkpt>
      <trkpt lat="42.02091" lon="25.42553">
        <ele>210.831373</ele>
        <time>2022-03-02T09:48:45.890Z</time>
      </trkpt>
      <trkpt lat="42.02098" lon="25.42544">
        <ele>210.772168</ele>
        <time>2022-03-02T09:48:48.914Z</time>
      </trkpt>
      <trkpt lat="42.02104" lon="25.42535">
        <ele>210.689771</ele>
        <time>2022-03-02T09:48:51.986Z</time>
      </trkpt>
      <trkpt lat="42.02113" lon="25.42526">
        <ele>210.589743</ele>
        <time>2022-03-02T09:48:55.893Z</time>
      </trkpt>
      <trkpt lat="42.0212" lon="25.42518">
        <ele>210.509289</ele>
        <time>2022-03-02T09:48:58.911Z</time>
      </trkpt>
      <trkpt lat="42.02126" lon="25.42509">
        <ele>210.424262</ele>
        <time>2022-03-02T09:49:01.903Z</time>
      </trkpt>
      <trkpt lat="42.02133" lon="25.425">
        <ele>210.341981</ele>
        <time>2022-03-02T09:49:04.910Z</time>
      </trkpt>
      <trkpt lat="42.02143" lon="25.42491">
        <ele>210.234733</ele>
        <time>2022-03-02T09:49:08.915Z</time>
      </trkpt>
      <trkpt lat="42.02152" lon="25.42481">
        <ele>210.128414</ele>
        <time>2022-03-02T09:49:12.945Z</time>
      </trkpt>
      <trkpt lat="42.02159" lon="25.42473">
        <ele>210.044611</ele>
        <time>2022-03-02T09:49:15.905Z</time>
      </trkpt>
      <trkpt lat="42.02169" lon="25.42467">
        <ele>209.94278</ele>
        <time>2022-03-02T09:49:19.901Z</time>
      </trkpt>
      <trkpt lat="42.02179" lon="25.42469">
        <ele>209.854</ele>
        <time>2022-03-02T09:49:22.945Z</time>
      </trkpt>
      <trkpt lat="42.02186" lon="25.42478">
        <ele>209.76959</ele>
        <time>2022-03-02T09:49:25.907Z</time>
      </trkpt>
      <trkpt lat="42.02186" lon="25.42492">
        <ele>209.672881</ele>
        <time>2022-03-02T09:49:29.904Z</time>
      </trkpt>
      <trkpt lat="42.02186" lon="25.42508">
        <ele>209.568183</ele>
        <time>2022-03-02T09:49:33.978Z</time>
      </trkpt>
      <trkpt lat="42.02185" lon="25.42521">
        <ele>209.483926</ele>
        <time>2022-03-02T09:49:36.907Z</time>
      </trkpt>
      <trkpt lat="42.02189" lon="25.42532">
        <ele>209.402188</ele>
        <time>2022-03-02T09:49:39.940Z</time>
      </trkpt>
      <trkpt lat="42.02197" lon="25.42542">
        <ele>209.306789</ele>
        <time>2022-03-02T09:49:42.922Z</time>
      </trkpt>
      <trkpt lat="42.02207" lon="25.42547">
        <ele>209.277354</ele>
        <time>2022-03-02T09:49:46.911Z</time>
      </trkpt>
      <trkpt lat="42.02216" lon="25.4255">
        <ele>209.382318</ele>
        <time>2022-03-02T09:49:49.910Z</time>
      </trkpt>
      <trkpt lat="42.02227" lon="25.42554">
        <ele>209.516029</ele>
        <time>2022-03-02T09:49:53.887Z</time>
      </trkpt>
      <trkpt lat="42.02238" lon="25.42559">
        <ele>209.647817</ele>
        <time>2022-03-02T09:49:57.903Z</time>
      </trkpt>
      <trkpt lat="42.02246" lon="25.42564">
        <ele>209.755365</ele>
        <time>2022-03-02T09:50:00.906Z</time>
      </trkpt>
      <trkpt lat="42.02255" lon="25.42568">
        <ele>209.861748</ele>
        <time>2022-03-02T09:50:03.896Z</time>
      </trkpt>
      <trkpt lat="42.02264" lon="25.42571">
        <ele>209.97295</ele>
        <time>2022-03-02T09:50:06.898Z</time>
      </trkpt>
      <trkpt lat="42.02275" lon="25.42576">
        <ele>210.102827</ele>
        <time>2022-03-02T09:50:10.898Z</time>
      </trkpt>
      <trkpt lat="42.02285" lon="25.42579">
        <ele>210.224725</ele>
        <time>2022-03-02T09:50:14.911Z</time>
      </trkpt>
      <trkpt lat="42.02295" lon="25.42583">
        <ele>210.341089</ele>
        <time>2022-03-02T09:50:18.895Z</time>
      </trkpt>
      <trkpt lat="42.02306" lon="25.42588">
        <ele>210.471786</ele>
        <time>2022-03-02T09:50:23.901Z</time>
      </trkpt>
      <trkpt lat="42.02316" lon="25.42593">
        <ele>210.593027</ele>
        <time>2022-03-02T09:50:28.903Z</time>
      </trkpt>
      <trkpt lat="42.02325" lon="25.42599">
        <ele>210.711502</ele>
        <time>2022-03-02T09:50:32.912Z</time>
      </trkpt>
      <trkpt lat="42.02332" lon="25.42607">
        <ele>210.818344</ele>
        <time>2022-03-02T09:50:36.915Z</time>
      </trkpt>
      <trkpt lat="42.02337" lon="25.42617">
        <ele>210.925046</ele>
        <time>2022-03-02T09:50:41.909Z</time>
      </trkpt>
      <trkpt lat="42.02343" lon="25.42629">
        <ele>211.049041</ele>
        <time>2022-03-02T09:50:47.008Z</time>
      </trkpt>
      <trkpt lat="42.0235" lon="25.4264">
        <ele>211.17025</ele>
        <time>2022-03-02T09:50:50.914Z</time>
      </trkpt>
      <trkpt lat="42.02357" lon="25.42647">
        <ele>211.274151</ele>
        <time>2022-03-02T09:50:53.887Z</time>
      </trkpt>
      <trkpt lat="42.02366" lon="25.42653">
        <ele>211.145883</ele>
        <time>2022-03-02T09:50:57.901Z</time>
      </trkpt>
      <trkpt lat="42.02376" lon="25.42657">
        <ele>210.88923</ele>
        <time>2022-03-02T09:51:01.927Z</time>
      </trkpt>
      <trkpt lat="42.02384" lon="25.42664">
        <ele>210.630564</ele>
        <time>2022-03-02T09:51:05.918Z</time>
      </trkpt>
      <trkpt lat="42.02395" lon="25.42671">
        <ele>210.32727</ele>
        <time>2022-03-02T09:51:09.965Z</time>
      </trkpt>
      <trkpt lat="42.02406" lon="25.42676">
        <ele>210.025414</ele>
        <time>2022-03-02T09:51:13.927Z</time>
      </trkpt>
      <trkpt lat="42.02414" lon="25.4268">
        <ele>209.791478</ele>
        <time>2022-03-02T09:51:16.907Z</time>
      </trkpt>
      <trkpt lat="42.02425" lon="25.42684">
        <ele>209.511055</ele>
        <time>2022-03-02T09:51:20.939Z</time>
      </trkpt>
      <trkpt lat="42.02434" lon="25.42688">
        <ele>209.271607</ele>
        <time>2022-03-02T09:51:23.923Z</time>
      </trkpt>
      <trkpt lat="42.02445" lon="25.42693">
        <ele>208.960002</ele>
        <time>2022-03-02T09:51:27.909Z</time>
      </trkpt>
      <trkpt lat="42.02454" lon="25.42697">
        <ele>208.722477</ele>
        <time>2022-03-02T09:51:30.914Z</time>
      </trkpt>
      <trkpt lat="42.02462" lon="25.42702">
        <ele>208.487872</ele>
        <time>2022-03-02T09:51:33.908Z</time>
      </trkpt>
      <trkpt lat="42.02472" lon="25.4271">
        <ele>208.199371</ele>
        <time>2022-03-02T09:51:37.916Z</time>
      </trkpt>
      <trkpt lat="42.02481" lon="25.42714">
        <ele>207.95616</ele>
        <time>2022-03-02T09:51:42.956Z</time>
      </trkpt>
      <trkpt lat="42.02492" lon="25.42715">
        <ele>207.668293</ele>
        <time>2022-03-02T09:51:46.913Z</time>
      </trkpt>
      <trkpt lat="42.02503" lon="25.42716">
        <ele>207.381503</ele>
        <time>2022-03-02T09:51:50.907Z</time>
      </trkpt>
      <trkpt lat="42.02514" lon="25.42716">
        <ele>207.094694</ele>
        <time>2022-03-02T09:51:54.914Z</time>
      </trkpt>
      <trkpt lat="42.02524" lon="25.42715">
        <ele>206.823303</ele>
        <time>2022-03-02T09:51:58.905Z</time>
      </trkpt>
      <trkpt lat="42.02534" lon="25.42716">
        <ele>206.79961</ele>
        <time>2022-03-02T09:52:02.916Z</time>
      </trkpt>
      <trkpt lat="42.02544" lon="25.42717">
        <ele>207.113892</ele>
        <time>2022-03-02T09:52:06.898Z</time>
      </trkpt>
      <trkpt lat="42.02553" lon="25.42719">
        <ele>207.407114</ele>
        <time>2022-03-02T09:52:10.956Z</time>
      </trkpt>
      <trkpt lat="42.02563" lon="25.4272">
        <ele>207.727616</ele>
        <time>2022-03-02T09:52:15.908Z</time>
      </trkpt>
      <trkpt lat="42.02573" lon="25.42721">
        <ele>208.055208</ele>
        <time>2022-03-02T09:52:20.910Z</time>
      </trkpt>
      <trkpt lat="42.02582" lon="25.42726">
        <ele>208.36667</ele>
        <time>2022-03-02T09:52:25.909Z</time>
      </trkpt>
      <trkpt lat="42.02582" lon="25.42741">
        <ele>208.728806</ele>
        <time>2022-03-02T09:52:30.904Z</time>
      </trkpt>
      <trkpt lat="42.0258" lon="25.42753">
        <ele>209.019869</ele>
        <time>2022-03-02T09:52:35.898Z</time>
      </trkpt>
      <trkpt lat="42.02588" lon="25.42763">
        <ele>209.371387</ele>
        <time>2022-03-02T09:52:42.917Z</time>
      </trkpt>
      <trkpt lat="42.02598" lon="25.42769">
        <ele>209.717756</ele>
        <time>2022-03-02T09:52:48.920Z</time>
      </trkpt>
      <trkpt lat="42.02608" lon="25.42772">
        <ele>210.052363</ele>
        <time>2022-03-02T09:52:53.917Z</time>
      </trkpt>
      <trkpt lat="42.02617" lon="25.42778">
        <ele>210.389229</ele>
        <time>2022-03-02T09:52:58.913Z</time>
      </trkpt>
      <trkpt lat="42.02627" lon="25.42784">
        <ele>210.729552</ele>
        <time>2022-03-02T09:53:03.906Z</time>
      </trkpt>
      <trkpt lat="42.02636" lon="25.42789">
        <ele>211.046044</ele>
        <time>2022-03-02T09:53:08.910Z</time>
      </trkpt>
      <trkpt lat="42.02645" lon="25.42795">
        <ele>211.364777</ele>
        <time>2022-03-02T09:53:13.901Z</time>
      </trkpt>
      <trkpt lat="42.02654" lon="25.42801">
        <ele>211.690659</ele>
        <time>2022-03-02T09:53:18.906Z</time>
      </trkpt>
      <trkpt lat="42.02663" lon="25.42808">
        <ele>212.021672</ele>
        <time>2022-03-02T09:53:23.915Z</time>
      </trkpt>
      <trkpt lat="42.02671" lon="25.42816">
        <ele>212.351985</ele>
        <time>2022-03-02T09:53:28.912Z</time>
      </trkpt>
      <trkpt lat="42.02679" lon="25.42826">
        <ele>212.419808</ele>
        <time>2022-03-02T09:53:33.941Z</time>
      </trkpt>
      <trkpt lat="42.02687" lon="25.42835">
        <ele>212.346074</ele>
        <time>2022-03-02T09:53:38.914Z</time>
      </trkpt>
      <trkpt lat="42.02695" lon="25.42846">
        <ele>212.27021</ele>
        <time>2022-03-02T09:53:43.912Z</time>
      </trkpt>
      <trkpt lat="42.02702" lon="25.42856">
        <ele>212.194777</ele>
        <time>2022-03-02T09:53:48.921Z</time>
      </trkpt>
      <trkpt lat="42.02711" lon="25.42865">
        <ele>212.118299</ele>
        <time>2022-03-02T09:53:53.900Z</time>
      </trkpt>
      <trkpt lat="42.02718" lon="25.42874">
        <ele>212.04808</ele>
        <time>2022-03-02T09:53:58.905Z</time>
      </trkpt>
      <trkpt lat="42.02727" lon="25.42884">
        <ele>211.971602</ele>
        <time>2022-03-02T09:54:03.899Z</time>
      </trkpt>
      <trkpt lat="42.02734" lon="25.42893">
        <ele>211.90323</ele>
        <time>2022-03-02T09:54:07.916Z</time>
      </trkpt>
      <trkpt lat="42.02741" lon="25.42904">
        <ele>211.826652</ele>
        <time>2022-03-02T09:54:11.948Z</time>
      </trkpt>
      <trkpt lat="42.02748" lon="25.42912">
        <ele>211.761074</ele>
        <time>2022-03-02T09:54:15.917Z</time>
      </trkpt>
      <trkpt lat="42.02756" lon="25.42921">
        <ele>211.686043</ele>
        <time>2022-03-02T09:54:20.912Z</time>
      </trkpt>
      <trkpt lat="42.02765" lon="25.42931">
        <ele>211.610094</ele>
        <time>2022-03-02T09:54:24.900Z</time>
      </trkpt>
      <trkpt lat="42.02771" lon="25.42941">
        <ele>211.538334</ele>
        <time>2022-03-02T09:54:28.907Z</time>
      </trkpt>
      <trkpt lat="42.02778" lon="25.42951">
        <ele>211.467951</ele>
        <time>2022-03-02T09:54:32.910Z</time>
      </trkpt>
      <trkpt lat="42.02786" lon="25.42963">
        <ele>211.387574</ele>
        <time>2022-03-02T09:54:36.914Z</time>
      </trkpt>
      <trkpt lat="42.02792" lon="25.42972">
        <ele>211.323638</ele>
        <time>2022-03-02T09:54:39.918Z</time>
      </trkpt>
      <trkpt lat="42.02799" lon="25.42981">
        <ele>211.25835</ele>
        <time>2022-03-02T09:54:42.887Z</time>
      </trkpt>
      <trkpt lat="42.02805" lon="25.4299">
        <ele>211.098068</ele>
        <time>2022-03-02T09:54:45.911Z</time>
      </trkpt>
      <trkpt lat="42.02813" lon="25.42999">
        <ele>210.735211</ele>
        <time>2022-03-02T09:54:48.904Z</time>
      </trkpt>
      <trkpt lat="42.02821" lon="25.43009">
        <ele>210.326529</ele>
        <time>2022-03-02T09:54:51.909Z</time>
      </trkpt>
      <trkpt lat="42.02829" lon="25.43021">
        <ele>209.885055</ele>
        <time>2022-03-02T09:54:54.920Z</time>
      </trkpt>
      <trkpt lat="42.02837" lon="25.43034">
        <ele>209.437736</ele>
        <time>2022-03-02T09:54:57.914Z</time>
      </trkpt>
      <trkpt lat="42.02845" lon="25.43048">
        <ele>208.97991</ele>
        <time>2022-03-02T09:55:00.914Z</time>
      </trkpt>
      <trkpt lat="42.0285" lon="25.43057">
        <ele>208.651768</ele>
        <time>2022-03-02T09:55:02.909Z</time>
      </trkpt>
      <trkpt lat="42.02856" lon="25.43067">
        <ele>208.31926</ele>
        <time>2022-03-02T09:55:04.914Z</time>
      </trkpt>
      <trkpt lat="42.02862" lon="25.43077">
        <ele>207.986753</ele>
        <time>2022-03-02T09:55:06.911Z</time>
      </trkpt>
      <trkpt lat="42.02869" lon="25.43092">
        <ele>207.505222</ele>
        <time>2022-03-02T09:55:09.907Z</time>
      </trkpt>
      <trkpt lat="42.02875" lon="25.43101">
        <ele>207.17058</ele>
        <time>2022-03-02T09:55:11.920Z</time>
      </trkpt>
      <trkpt lat="42.02881" lon="25.43112">
        <ele>206.822787</ele>
        <time>2022-03-02T09:55:13.900Z</time>
      </trkpt>
      <trkpt lat="42.02888" lon="25.43121">
        <ele>206.466579</ele>
        <time>2022-03-02T09:55:15.920Z</time>
      </trkpt>
      <trkpt lat="42.02894" lon="25.43131">
        <ele>206.105401</ele>
        <time>2022-03-02T09:55:17.900Z</time>
      </trkpt>
      <trkpt lat="42.02902" lon="25.4314">
        <ele>205.743379</ele>
        <time>2022-03-02T09:55:19.910Z</time>
      </trkpt>
      <trkpt lat="42.02909" lon="25.43149">
        <ele>205.384131</ele>
        <time>2022-03-02T09:55:21.908Z</time>
      </trkpt>
      <trkpt lat="42.02917" lon="25.43158">
        <ele>205.02082</ele>
        <time>2022-03-02T09:55:23.914Z</time>
      </trkpt>
      <trkpt lat="42.02925" lon="25.43165">
        <ele>204.6602</ele>
        <time>2022-03-02T09:55:25.922Z</time>
      </trkpt>
      <trkpt lat="42.02934" lon="25.43172">
        <ele>204.343183</ele>
        <time>2022-03-02T09:55:27.915Z</time>
      </trkpt>
      <trkpt lat="42.02943" lon="25.43179">
        <ele>204.005797</ele>
        <time>2022-03-02T09:55:29.898Z</time>
      </trkpt>
      <trkpt lat="42.02953" lon="25.43186">
        <ele>203.643668</ele>
        <time>2022-03-02T09:55:31.914Z</time>
      </trkpt>
      <trkpt lat="42.02964" lon="25.43193">
        <ele>203.263331</ele>
        <time>2022-03-02T09:55:33.913Z</time>
      </trkpt>
      <trkpt lat="42.02975" lon="25.43199">
        <ele>202.872156</ele>
        <time>2022-03-02T09:55:35.941Z</time>
      </trkpt>
      <trkpt lat="42.02987" lon="25.43206">
        <ele>202.459929</ele>
        <time>2022-03-02T09:55:37.918Z</time>
      </trkpt>
      <trkpt lat="42.03" lon="25.43214">
        <ele>202.03033</ele>
        <time>2022-03-02T09:55:39.916Z</time>
      </trkpt>
      <trkpt lat="42.03012" lon="25.43222">
        <ele>201.587109</ele>
        <time>2022-03-02T09:55:41.950Z</time>
      </trkpt>
      <trkpt lat="42.03026" lon="25.4323">
        <ele>201.123648</ele>
        <time>2022-03-02T09:55:43.921Z</time>
      </trkpt>
      <trkpt lat="42.0304" lon="25.43238">
        <ele>200.614462</ele>
        <time>2022-03-02T09:55:45.914Z</time>
      </trkpt>
      <trkpt lat="42.03054" lon="25.43245">
        <ele>200.132118</ele>
        <time>2022-03-02T09:55:47.916Z</time>
      </trkpt>
      <trkpt lat="42.03068" lon="25.43253">
        <ele>199.657945</ele>
        <time>2022-03-02T09:55:49.898Z</time>
      </trkpt>
      <trkpt lat="42.03082" lon="25.43261">
        <ele>199.180846</ele>
        <time>2022-03-02T09:55:51.921Z</time>
      </trkpt>
      <trkpt lat="42.03096" lon="25.43269">
        <ele>198.702614</ele>
        <time>2022-03-02T09:55:53.911Z</time>
      </trkpt>
      <trkpt lat="42.0311" lon="25.43278">
        <ele>198.219617</ele>
        <time>2022-03-02T09:55:55.907Z</time>
      </trkpt>
      <trkpt lat="42.03124" lon="25.43286">
        <ele>197.731889</ele>
        <time>2022-03-02T09:55:57.910Z</time>
      </trkpt>
      <trkpt lat="42.03139" lon="25.43295">
        <ele>197.251764</ele>
        <time>2022-03-02T09:55:59.910Z</time>
      </trkpt>
      <trkpt lat="42.03152" lon="25.43303">
        <ele>196.785725</ele>
        <time>2022-03-02T09:56:01.917Z</time>
      </trkpt>
      <trkpt lat="42.03166" lon="25.4331">
        <ele>196.322036</ele>
        <time>2022-03-02T09:56:03.957Z</time>
      </trkpt>
      <trkpt lat="42.0318" lon="25.43317">
        <ele>195.87907</ele>
        <time>2022-03-02T09:56:05.912Z</time>
      </trkpt>
      <trkpt lat="42.03192" lon="25.43324">
        <ele>195.44883</ele>
        <time>2022-03-02T09:56:07.896Z</time>
      </trkpt>
      <trkpt lat="42.03205" lon="25.43331">
        <ele>195.032974</ele>
        <time>2022-03-02T09:56:09.910Z</time>
      </trkpt>
      <trkpt lat="42.03216" lon="25.4334">
        <ele>194.632372</ele>
        <time>2022-03-02T09:56:11.902Z</time>
      </trkpt>
      <trkpt lat="42.03227" lon="25.43348">
        <ele>194.247033</ele>
        <time>2022-03-02T09:56:13.913Z</time>
      </trkpt>
      <trkpt lat="42.03236" lon="25.43356">
        <ele>193.895084</ele>
        <time>2022-03-02T09:56:15.913Z</time>
      </trkpt>
      <trkpt lat="42.03245" lon="25.43364">
        <ele>193.565087</ele>
        <time>2022-03-02T09:56:17.906Z</time>
      </trkpt>
      <trkpt lat="42.03253" lon="25.43371">
        <ele>193.480732</ele>
        <time>2022-03-02T09:56:19.909Z</time>
      </trkpt>
      <trkpt lat="42.03264" lon="25.43379">
        <ele>193.767059</ele>
        <time>2022-03-02T09:56:22.901Z</time>
      </trkpt>
      <trkpt lat="42.03274" lon="25.43387">
        <ele>194.038706</ele>
        <time>2022-03-02T09:56:25.956Z</time>
      </trkpt>
      <trkpt lat="42.03284" lon="25.43395">
        <ele>194.307227</ele>
        <time>2022-03-02T09:56:28.921Z</time>
      </trkpt>
      <trkpt lat="42.03293" lon="25.43403">
        <ele>194.558734</ele>
        <time>2022-03-02T09:56:31.914Z</time>
      </trkpt>
      <trkpt lat="42.03302" lon="25.4341">
        <ele>194.795167</ele>
        <time>2022-03-02T09:56:34.918Z</time>
      </trkpt>
      <trkpt lat="42.0331" lon="25.43417">
        <ele>195.032463</ele>
        <time>2022-03-02T09:56:37.907Z</time>
      </trkpt>
      <trkpt lat="42.03319" lon="25.43424">
        <ele>195.256924</ele>
        <time>2022-03-02T09:56:40.907Z</time>
      </trkpt>
      <trkpt lat="42.03327" lon="25.43429">
        <ele>195.467125</ele>
        <time>2022-03-02T09:56:43.904Z</time>
      </trkpt>
      <trkpt lat="42.03336" lon="25.43437">
        <ele>195.725247</ele>
        <time>2022-03-02T09:56:47.910Z</time>
      </trkpt>
      <trkpt lat="42.03345" lon="25.43444">
        <ele>195.975366</ele>
        <time>2022-03-02T09:56:51.920Z</time>
      </trkpt>
      <trkpt lat="42.03355" lon="25.43452">
        <ele>196.244778</ele>
        <time>2022-03-02T09:56:55.900Z</time>
      </trkpt>
      <trkpt lat="42.03365" lon="25.43461">
        <ele>196.519064</ele>
        <time>2022-03-02T09:56:59.922Z</time>
      </trkpt>
      <trkpt lat="42.03376" lon="25.43468">
        <ele>196.7869</ele>
        <time>2022-03-02T09:57:03.936Z</time>
      </trkpt>
      <trkpt lat="42.03386" lon="25.43476">
        <ele>197.054534</ele>
        <time>2022-03-02T09:57:07.913Z</time>
      </trkpt>
      <trkpt lat="42.03394" lon="25.43483">
        <ele>197.280334</ele>
        <time>2022-03-02T09:57:10.926Z</time>
      </trkpt>
      <trkpt lat="42.03401" lon="25.43489">
        <ele>197.488804</ele>
        <time>2022-03-02T09:57:13.913Z</time>
      </trkpt>
      <trkpt lat="42.03411" lon="25.43497">
        <ele>197.703236</ele>
        <time>2022-03-02T09:57:17.915Z</time>
      </trkpt>
      <trkpt lat="42.03419" lon="25.43503">
        <ele>197.863951</ele>
        <time>2022-03-02T09:57:20.902Z</time>
      </trkpt>
      <trkpt lat="42.03427" lon="25.4351">
        <ele>198.015912</ele>
        <time>2022-03-02T09:57:23.898Z</time>
      </trkpt>
      <trkpt lat="42.03435" lon="25.43517">
        <ele>198.175801</ele>
        <time>2022-03-02T09:57:26.979Z</time>
      </trkpt>
      <trkpt lat="42.03443" lon="25.43524">
        <ele>198.3368</ele>
        <time>2022-03-02T09:57:29.909Z</time>
      </trkpt>
      <trkpt lat="42.03453" lon="25.43532">
        <ele>198.527063</ele>
        <time>2022-03-02T09:57:33.917Z</time>
      </trkpt>
      <trkpt lat="42.03462" lon="25.4354">
        <ele>198.716473</ele>
        <time>2022-03-02T09:57:37.946Z</time>
      </trkpt>
      <trkpt lat="42.03471" lon="25.43546">
        <ele>198.879727</ele>
        <time>2022-03-02T09:57:41.921Z</time>
      </trkpt>
      <trkpt lat="42.03481" lon="25.43554">
        <ele>199.069686</ele>
        <time>2022-03-02T09:57:45.890Z</time>
      </trkpt>
      <trkpt lat="42.03491" lon="25.43561">
        <ele>199.270892</ele>
        <time>2022-03-02T09:57:49.950Z</time>
      </trkpt>
      <trkpt lat="42.03499" lon="25.43567">
        <ele>199.423914</ele>
        <time>2022-03-02T09:57:52.917Z</time>
      </trkpt>
      <trkpt lat="42.03507" lon="25.43573">
        <ele>199.577847</ele>
        <time>2022-03-02T09:57:55.924Z</time>
      </trkpt>
      <trkpt lat="42.03517" lon="25.43579">
        <ele>199.767036</ele>
        <time>2022-03-02T09:57:59.925Z</time>
      </trkpt>
      <trkpt lat="42.03527" lon="25.43587">
        <ele>199.957299</ele>
        <time>2022-03-02T09:58:03.905Z</time>
      </trkpt>
      <trkpt lat="42.03535" lon="25.43592">
        <ele>200.109383</ele>
        <time>2022-03-02T09:58:06.918Z</time>
      </trkpt>
      <trkpt lat="42.03544" lon="25.43598">
        <ele>200.262763</ele>
        <time>2022-03-02T09:58:09.900Z</time>
      </trkpt>
      <trkpt lat="42.03554" lon="25.43604">
        <ele>200.454552</ele>
        <time>2022-03-02T09:58:13.942Z</time>
      </trkpt>
      <trkpt lat="42.03565" lon="25.43607">
        <ele>200.620693</ele>
        <time>2022-03-02T09:58:17.936Z</time>
      </trkpt>
      <trkpt lat="42.03574" lon="25.4361">
        <ele>200.699564</ele>
        <time>2022-03-02T09:58:20.909Z</time>
      </trkpt>
      <trkpt lat="42.03586" lon="25.43616">
        <ele>200.802957</ele>
        <time>2022-03-02T09:58:24.912Z</time>
      </trkpt>
      <trkpt lat="42.03597" lon="25.43621">
        <ele>200.902531</ele>
        <time>2022-03-02T09:58:28.931Z</time>
      </trkpt>
      <trkpt lat="42.03608" lon="25.43627">
        <ele>201.006397</ele>
        <time>2022-03-02T09:58:32.911Z</time>
      </trkpt>
      <trkpt lat="42.03618" lon="25.43631">
        <ele>201.098689</ele>
        <time>2022-03-02T09:58:36.915Z</time>
      </trkpt>
      <trkpt lat="42.03629" lon="25.43637">
        <ele>201.19669</ele>
        <time>2022-03-02T09:58:40.947Z</time>
      </trkpt>
      <trkpt lat="42.0364" lon="25.43641">
        <ele>201.290863</ele>
        <time>2022-03-02T09:58:44.898Z</time>
      </trkpt>
      <trkpt lat="42.0365" lon="25.43646">
        <ele>201.382578</ele>
        <time>2022-03-02T09:58:48.907Z</time>
      </trkpt>
      <trkpt lat="42.03661" lon="25.43652">
        <ele>201.482152</ele>
        <time>2022-03-02T09:58:52.897Z</time>
      </trkpt>
      <trkpt lat="42.0367" lon="25.43656">
        <ele>201.563758</ele>
        <time>2022-03-02T09:58:55.956Z</time>
      </trkpt>
      <trkpt lat="42.03679" lon="25.43661">
        <ele>201.652431</ele>
        <time>2022-03-02T09:58:58.915Z</time>
      </trkpt>
      <trkpt lat="42.03689" lon="25.43666">
        <ele>201.737093</ele>
        <time>2022-03-02T09:59:01.896Z</time>
      </trkpt>
      <trkpt lat="42.037" lon="25.43672">
        <ele>201.841106</ele>
        <time>2022-03-02T09:59:05.919Z</time>
      </trkpt>
      <trkpt lat="42.03709" lon="25.43676">
        <ele>201.921001</ele>
        <time>2022-03-02T09:59:08.920Z</time>
      </trkpt>
      <trkpt lat="42.03719" lon="25.43682">
        <ele>202.016797</ele>
        <time>2022-03-02T09:59:12.907Z</time>
      </trkpt>
      <trkpt lat="42.0373" lon="25.43686">
        <ele>202.115238</ele>
        <time>2022-03-02T09:59:16.907Z</time>
      </trkpt>
      <trkpt lat="42.03741" lon="25.43692">
        <ele>202.158461</ele>
        <time>2022-03-02T09:59:20.949Z</time>
      </trkpt>
      <trkpt lat="42.0375" lon="25.43697">
        <ele>202.185244</ele>
        <time>2022-03-02T09:59:23.911Z</time>
      </trkpt>
      <trkpt lat="42.03759" lon="25.43702">
        <ele>202.21269</ele>
        <time>2022-03-02T09:59:26.909Z</time>
      </trkpt>
      <trkpt lat="42.03767" lon="25.43705">
        <ele>202.239663</ele>
        <time>2022-03-02T09:59:29.906Z</time>
      </trkpt>
      <trkpt lat="42.03777" lon="25.43709">
        <ele>202.267317</ele>
        <time>2022-03-02T09:59:32.905Z</time>
      </trkpt>
      <trkpt lat="42.03787" lon="25.43714">
        <ele>202.301106</ele>
        <time>2022-03-02T09:59:36.944Z</time>
      </trkpt>
      <trkpt lat="42.03799" lon="25.43719">
        <ele>202.335233</ele>
        <time>2022-03-02T09:59:40.907Z</time>
      </trkpt>
      <trkpt lat="42.03809" lon="25.43724">
        <ele>202.366528</ele>
        <time>2022-03-02T09:59:44.933Z</time>
      </trkpt>
      <trkpt lat="42.03819" lon="25.43728">
        <ele>202.397202</ele>
        <time>2022-03-02T09:59:48.909Z</time>
      </trkpt>
      <trkpt lat="42.03828" lon="25.43732">
        <ele>202.424771</ele>
        <time>2022-03-02T09:59:51.921Z</time>
      </trkpt>
      <trkpt lat="42.03837" lon="25.43737">
        <ele>202.45448</ele>
        <time>2022-03-02T09:59:54.906Z</time>
      </trkpt>
      <trkpt lat="42.03846" lon="25.43743">
        <ele>202.483918</ele>
        <time>2022-03-02T09:59:57.902Z</time>
      </trkpt>
      <trkpt lat="42.03855" lon="25.43747">
        <ele>202.51152</ele>
        <time>2022-03-02T10:00:00.918Z</time>
      </trkpt>
      <trkpt lat="42.03866" lon="25.43751">
        <ele>202.543502</ele>
        <time>2022-03-02T10:00:04.920Z</time>
      </trkpt>
      <trkpt lat="42.03876" lon="25.43756">
        <ele>202.576048</ele>
        <time>2022-03-02T10:00:08.903Z</time>
      </trkpt>
      <trkpt lat="42.03887" lon="25.43761">
        <ele>202.608931</ele>
        <time>2022-03-02T10:00:12.922Z</time>
      </trkpt>
      <trkpt lat="42.03897" lon="25.43765">
        <ele>202.639472</ele>
        <time>2022-03-02T10:00:16.913Z</time>
      </trkpt>
      <trkpt lat="42.03907" lon="25.43769">
        <ele>202.754708</ele>
        <time>2022-03-02T10:00:20.910Z</time>
      </trkpt>
      <trkpt lat="42.03917" lon="25.43775">
        <ele>202.946709</ele>
        <time>2022-03-02T10:00:24.918Z</time>
      </trkpt>
      <trkpt lat="42.03927" lon="25.4378">
        <ele>203.135362</ele>
        <time>2022-03-02T10:00:28.913Z</time>
      </trkpt>
      <trkpt lat="42.03936" lon="25.43784">
        <ele>203.305065</ele>
        <time>2022-03-02T10:00:32.917Z</time>
      </trkpt>
      <trkpt lat="42.03945" lon="25.43788">
        <ele>203.471823</ele>
        <time>2022-03-02T10:00:36.946Z</time>
      </trkpt>
      <trkpt lat="42.03954" lon="25.43792">
        <ele>203.647142</ele>
        <time>2022-03-02T10:00:40.908Z</time>
      </trkpt>
      <trkpt lat="42.03964" lon="25.43795">
        <ele>203.826226</ele>
        <time>2022-03-02T10:00:44.895Z</time>
      </trkpt>
      <trkpt lat="42.03974" lon="25.43799">
        <ele>204.002296</ele>
        <time>2022-03-02T10:00:48.910Z</time>
      </trkpt>
      <trkpt lat="42.03983" lon="25.43803">
        <ele>204.180396</ele>
        <time>2022-03-02T10:00:52.912Z</time>
      </trkpt>
      <trkpt lat="42.03993" lon="25.43807">
        <ele>204.363567</ele>
        <time>2022-03-02T10:00:56.910Z</time>
      </trkpt>
      <trkpt lat="42.04003" lon="25.43809">
        <ele>204.545385</ele>
        <time>2022-03-02T10:01:00.918Z</time>
      </trkpt>
      <trkpt lat="42.04013" lon="25.43811">
        <ele>204.715282</ele>
        <time>2022-03-02T10:01:04.907Z</time>
      </trkpt>
      <trkpt lat="42.04022" lon="25.43813">
        <ele>204.890122</ele>
        <time>2022-03-02T10:01:08.903Z</time>
      </trkpt>
      <trkpt lat="42.04032" lon="25.43817">
        <ele>205.06815</ele>
        <time>2022-03-02T10:01:12.906Z</time>
      </trkpt>
      <trkpt lat="42.04042" lon="25.43819">
        <ele>205.249128</ele>
        <time>2022-03-02T10:01:16.905Z</time>
      </trkpt>
      <trkpt lat="42.04052" lon="25.4382">
        <ele>205.431175</ele>
        <time>2022-03-02T10:01:20.924Z</time>
      </trkpt>
      <trkpt lat="42.04063" lon="25.43822">
        <ele>205.615479</ele>
        <time>2022-03-02T10:01:24.902Z</time>
      </trkpt>
      <trkpt lat="42.04073" lon="25.43824">
        <ele>205.800158</ele>
        <time>2022-03-02T10:01:28.921Z</time>
      </trkpt>
      <trkpt lat="42.04082" lon="25.43827">
        <ele>206.003684</ele>
        <time>2022-03-02T10:01:32.912Z</time>
      </trkpt>
      <trkpt lat="42.04092" lon="25.43828">
        <ele>206.228802</ele>
        <time>2022-03-02T10:01:36.914Z</time>
      </trkpt>
      <trkpt lat="42.04102" lon="25.43829">
        <ele>206.459823</ele>
        <time>2022-03-02T10:01:40.928Z</time>
      </trkpt>
      <trkpt lat="42.04112" lon="25.43831">
        <ele>206.69671</ele>
        <time>2022-03-02T10:01:44.906Z</time>
      </trkpt>
      <trkpt lat="42.04121" lon="25.43833">
        <ele>206.916085</ele>
        <time>2022-03-02T10:01:48.900Z</time>
      </trkpt>
      <trkpt lat="42.0413" lon="25.43836">
        <ele>207.138448</ele>
        <time>2022-03-02T10:01:52.909Z</time>
      </trkpt>
      <trkpt lat="42.04141" lon="25.43838">
        <ele>207.385228</ele>
        <time>2022-03-02T10:01:56.924Z</time>
      </trkpt>
      <trkpt lat="42.04151" lon="25.43839">
        <ele>207.632745</ele>
        <time>2022-03-02T10:02:00.897Z</time>
      </trkpt>
      <trkpt lat="42.04162" lon="25.43839">
        <ele>207.875497</ele>
        <time>2022-03-02T10:02:04.905Z</time>
      </trkpt>
      <trkpt lat="42.04173" lon="25.43842">
        <ele>208.132233</ele>
        <time>2022-03-02T10:02:09.920Z</time>
      </trkpt>
      <trkpt lat="42.04183" lon="25.43844">
        <ele>208.388423</ele>
        <time>2022-03-02T10:02:14.886Z</time>
      </trkpt>
      <trkpt lat="42.04192" lon="25.43847">
        <ele>208.601491</ele>
        <time>2022-03-02T10:02:18.918Z</time>
      </trkpt>
      <trkpt lat="42.04202" lon="25.43848">
        <ele>208.815492</ele>
        <time>2022-03-02T10:02:22.932Z</time>
      </trkpt>
      <trkpt lat="42.04212" lon="25.43849">
        <ele>209.069415</ele>
        <time>2022-03-02T10:02:27.920Z</time>
      </trkpt>
      <trkpt lat="42.04221" lon="25.43849">
        <ele>209.279235</ele>
        <time>2022-03-02T10:02:31.917Z</time>
      </trkpt>
      <trkpt lat="42.04232" lon="25.4385">
        <ele>209.524696</ele>
        <time>2022-03-02T10:02:36.900Z</time>
      </trkpt>
      <trkpt lat="42.04242" lon="25.43851">
        <ele>209.757689</ele>
        <time>2022-03-02T10:02:41.913Z</time>
      </trkpt>
      <trkpt lat="42.04252" lon="25.43849">
        <ele>209.991707</ele>
        <time>2022-03-02T10:02:46.912Z</time>
      </trkpt>
      <trkpt lat="42.04263" lon="25.43848">
        <ele>210.284339</ele>
        <time>2022-03-02T10:02:51.894Z</time>
      </trkpt>
      <trkpt lat="42.04274" lon="25.43845">
        <ele>210.577574</ele>
        <time>2022-03-02T10:02:56.926Z</time>
      </trkpt>
      <trkpt lat="42.04285" lon="25.43842">
        <ele>210.869295</ele>
        <time>2022-03-02T10:03:01.916Z</time>
      </trkpt>
      <trkpt lat="42.04296" lon="25.43839">
        <ele>211.170944</ele>
        <time>2022-03-02T10:03:06.935Z</time>
      </trkpt>
      <trkpt lat="42.04306" lon="25.43834">
        <ele>211.468616</ele>
        <time>2022-03-02T10:03:11.906Z</time>
      </trkpt>
      <trkpt lat="42.04316" lon="25.43829">
        <ele>211.749188</ele>
        <time>2022-03-02T10:03:16.904Z</time>
      </trkpt>
      <trkpt lat="42.04326" lon="25.43825">
        <ele>212.04303</ele>
        <time>2022-03-02T10:03:21.956Z</time>
      </trkpt>
      <trkpt lat="42.04336" lon="25.4382">
        <ele>212.309674</ele>
        <time>2022-03-02T10:03:26.913Z</time>
      </trkpt>
      <trkpt lat="42.04345" lon="25.43816">
        <ele>212.58202</ele>
        <time>2022-03-02T10:03:31.917Z</time>
      </trkpt>
      <trkpt lat="42.04355" lon="25.43811">
        <ele>212.852151</ele>
        <time>2022-03-02T10:03:36.927Z</time>
      </trkpt>
      <trkpt lat="42.04364" lon="25.43806">
        <ele>213.106243</ele>
        <time>2022-03-02T10:03:41.904Z</time>
      </trkpt>
      <trkpt lat="42.04372" lon="25.43801">
        <ele>213.359066</ele>
        <time>2022-03-02T10:03:46.920Z</time>
      </trkpt>
      <trkpt lat="42.04382" lon="25.43796">
        <ele>213.630968</ele>
        <time>2022-03-02T10:03:52.910Z</time>
      </trkpt>
      <trkpt lat="42.04391" lon="25.43792">
        <ele>213.885765</ele>
        <time>2022-03-02T10:03:57.916Z</time>
      </trkpt>
      <trkpt lat="42.04401" lon="25.4379">
        <ele>214.150396</ele>
        <time>2022-03-02T10:04:02.912Z</time>
      </trkpt>
      <trkpt lat="42.04409" lon="25.43786">
        <ele>214.395644</ele>
        <time>2022-03-02T10:04:07.899Z</time>
      </trkpt>
      <trkpt lat="42.04418" lon="25.43781">
        <ele>214.654946</ele>
        <time>2022-03-02T10:04:12.942Z</time>
      </trkpt>
      <trkpt lat="42.04427" lon="25.43776">
        <ele>214.827669</ele>
        <time>2022-03-02T10:04:17.951Z</time>
      </trkpt>
      <trkpt lat="42.04437" lon="25.43771">
        <ele>214.786925</ele>
        <time>2022-03-02T10:04:22.917Z</time>
      </trkpt>
      <trkpt lat="42.04446" lon="25.43765">
        <ele>214.747949</ele>
        <time>2022-03-02T10:04:27.909Z</time>
      </trkpt>
      <trkpt lat="42.04456" lon="25.43761">
        <ele>214.708019</ele>
        <time>2022-03-02T10:04:33.902Z</time>
      </trkpt>
      <trkpt lat="42.04466" lon="25.43756">
        <ele>214.668258</ele>
        <time>2022-03-02T10:04:38.902Z</time>
      </trkpt>
      <trkpt lat="42.04476" lon="25.43751">
        <ele>214.627421</ele>
        <time>2022-03-02T10:04:43.927Z</time>
      </trkpt>
      <trkpt lat="42.04486" lon="25.43747">
        <ele>214.589021</ele>
        <time>2022-03-02T10:04:47.918Z</time>
      </trkpt>
      <trkpt lat="42.04497" lon="25.43744">
        <ele>214.544562</ele>
        <time>2022-03-02T10:04:51.907Z</time>
      </trkpt>
      <trkpt lat="42.04507" lon="25.43741">
        <ele>214.506615</ele>
        <time>2022-03-02T10:04:54.935Z</time>
      </trkpt>
      <trkpt lat="42.04518" lon="25.43738">
        <ele>214.465302</ele>
        <time>2022-03-02T10:04:57.913Z</time>
      </trkpt>
      <trkpt lat="42.0453" lon="25.43736">
        <ele>214.416821</ele>
        <time>2022-03-02T10:05:00.920Z</time>
      </trkpt>
      <trkpt lat="42.04544" lon="25.43734">
        <ele>214.36456</ele>
        <time>2022-03-02T10:05:03.917Z</time>
      </trkpt>
      <trkpt lat="42.04554" lon="25.43732">
        <ele>214.32555</ele>
        <time>2022-03-02T10:05:05.909Z</time>
      </trkpt>
      <trkpt lat="42.04565" lon="25.4373">
        <ele>214.282543</ele>
        <time>2022-03-02T10:05:07.909Z</time>
      </trkpt>
      <trkpt lat="42.04577" lon="25.43728">
        <ele>214.23878</ele>
        <time>2022-03-02T10:05:09.913Z</time>
      </trkpt>
      <trkpt lat="42.04588" lon="25.43726">
        <ele>214.195916</ele>
        <time>2022-03-02T10:05:11.911Z</time>
      </trkpt>
      <trkpt lat="42.04599" lon="25.43723">
        <ele>214.152719</ele>
        <time>2022-03-02T10:05:13.958Z</time>
      </trkpt>
      <trkpt lat="42.04611" lon="25.43722">
        <ele>213.515535</ele>
        <time>2022-03-02T10:05:15.914Z</time>
      </trkpt>
      <trkpt lat="42.04624" lon="25.43719">
        <ele>212.819911</ele>
        <time>2022-03-02T10:05:17.913Z</time>
      </trkpt>
      <trkpt lat="42.04637" lon="25.43717">
        <ele>212.065081</ele>
        <time>2022-03-02T10:05:19.915Z</time>
      </trkpt>
      <trkpt lat="42.04652" lon="25.43714">
        <ele>211.261701</ele>
        <time>2022-03-02T10:05:21.927Z</time>
      </trkpt>
      <trkpt lat="42.04666" lon="25.43711">
        <ele>210.494542</ele>
        <time>2022-03-02T10:05:23.921Z</time>
      </trkpt>
      <trkpt lat="42.04681" lon="25.43709">
        <ele>209.701836</ele>
        <time>2022-03-02T10:05:25.904Z</time>
      </trkpt>
      <trkpt lat="42.04695" lon="25.43706">
        <ele>208.92459</ele>
        <time>2022-03-02T10:05:27.918Z</time>
      </trkpt>
      <trkpt lat="42.0471" lon="25.43704">
        <ele>208.143577</ele>
        <time>2022-03-02T10:05:29.914Z</time>
      </trkpt>
      <trkpt lat="42.04724" lon="25.43701">
        <ele>207.367906</ele>
        <time>2022-03-02T10:05:31.959Z</time>
      </trkpt>
      <trkpt lat="42.04738" lon="25.43698">
        <ele>206.611976</ele>
        <time>2022-03-02T10:05:33.927Z</time>
      </trkpt>
      <trkpt lat="42.04752" lon="25.43696">
        <ele>205.848826</ele>
        <time>2022-03-02T10:05:35.914Z</time>
      </trkpt>
      <trkpt lat="42.04766" lon="25.43694">
        <ele>205.100836</ele>
        <time>2022-03-02T10:05:37.959Z</time>
      </trkpt>
      <trkpt lat="42.04779" lon="25.43692">
        <ele>204.400378</ele>
        <time>2022-03-02T10:05:39.926Z</time>
      </trkpt>
      <trkpt lat="42.04793" lon="25.43689">
        <ele>203.91379</ele>
        <time>2022-03-02T10:05:41.921Z</time>
      </trkpt>
      <trkpt lat="42.04805" lon="25.43687">
        <ele>203.454078</ele>
        <time>2022-03-02T10:05:43.898Z</time>
      </trkpt>
      <trkpt lat="42.04817" lon="25.43685">
        <ele>203.012018</ele>
        <time>2022-03-02T10:05:45.917Z</time>
      </trkpt>
      <trkpt lat="42.04829" lon="25.43684">
        <ele>202.587224</ele>
        <time>2022-03-02T10:05:47.902Z</time>
      </trkpt>
      <trkpt lat="42.0484" lon="25.43683">
        <ele>202.184125</ele>
        <time>2022-03-02T10:05:49.971Z</time>
      </trkpt>
      <trkpt lat="42.04851" lon="25.43681">
        <ele>201.782932</ele>
        <time>2022-03-02T10:05:51.916Z</time>
      </trkpt>
      <trkpt lat="42.04862" lon="25.43679">
        <ele>201.392038</ele>
        <time>2022-03-02T10:05:53.923Z</time>
      </trkpt>
      <trkpt lat="42.04872" lon="25.43676">
        <ele>201.003821</ele>
        <time>2022-03-02T10:05:55.934Z</time>
      </trkpt>
      <trkpt lat="42.04883" lon="25.43675">
        <ele>200.624219</ele>
        <time>2022-03-02T10:05:57.911Z</time>
      </trkpt>
      <trkpt lat="42.04893" lon="25.43673">
        <ele>200.244283</ele>
        <time>2022-03-02T10:05:59.924Z</time>
      </trkpt>
      <trkpt lat="42.04903" lon="25.43671">
        <ele>199.870797</ele>
        <time>2022-03-02T10:06:01.912Z</time>
      </trkpt>
      <trkpt lat="42.04913" lon="25.43669">
        <ele>199.504075</ele>
        <time>2022-03-02T10:06:03.907Z</time>
      </trkpt>
      <trkpt lat="42.04923" lon="25.43667">
        <ele>199.143384</ele>
        <time>2022-03-02T10:06:05.917Z</time>
      </trkpt>
      <trkpt lat="42.04933" lon="25.43667">
        <ele>198.780233</ele>
        <time>2022-03-02T10:06:07.912Z</time>
      </trkpt>
      <trkpt lat="42.04944" lon="25.43665">
        <ele>198.401241</ele>
        <time>2022-03-02T10:06:09.917Z</time>
      </trkpt>
      <trkpt lat="42.04954" lon="25.43663">
        <ele>198.006586</ele>
        <time>2022-03-02T10:06:11.912Z</time>
      </trkpt>
      <trkpt lat="42.04966" lon="25.43661">
        <ele>197.543259</ele>
        <time>2022-03-02T10:06:13.918Z</time>
      </trkpt>
      <trkpt lat="42.04978" lon="25.43658">
        <ele>197.071731</ele>
        <time>2022-03-02T10:06:15.906Z</time>
      </trkpt>
      <trkpt lat="42.0499" lon="25.43656">
        <ele>196.608793</ele>
        <time>2022-03-02T10:06:17.934Z</time>
      </trkpt>
      <trkpt lat="42.05002" lon="25.43654">
        <ele>196.127522</ele>
        <time>2022-03-02T10:06:19.917Z</time>
      </trkpt>
      <trkpt lat="42.05015" lon="25.43652">
        <ele>195.622561</ele>
        <time>2022-03-02T10:06:21.900Z</time>
      </trkpt>
      <trkpt lat="42.05028" lon="25.4365">
        <ele>195.102026</ele>
        <time>2022-03-02T10:06:23.941Z</time>
      </trkpt>
      <trkpt lat="42.05042" lon="25.43648">
        <ele>194.563737</ele>
        <time>2022-03-02T10:06:25.914Z</time>
      </trkpt>
      <trkpt lat="42.05055" lon="25.43645">
        <ele>194.017276</ele>
        <time>2022-03-02T10:06:27.924Z</time>
      </trkpt>
      <trkpt lat="42.05069" lon="25.43642">
        <ele>193.471226</ele>
        <time>2022-03-02T10:06:29.914Z</time>
      </trkpt>
      <trkpt lat="42.05083" lon="25.4364">
        <ele>192.929838</ele>
        <time>2022-03-02T10:06:31.925Z</time>
      </trkpt>
      <trkpt lat="42.05096" lon="25.43638">
        <ele>192.405724</ele>
        <time>2022-03-02T10:06:33.913Z</time>
      </trkpt>
      <trkpt lat="42.05109" lon="25.43636">
        <ele>191.891525</ele>
        <time>2022-03-02T10:06:35.941Z</time>
      </trkpt>
      <trkpt lat="42.05122" lon="25.43633">
        <ele>191.377327</ele>
        <time>2022-03-02T10:06:37.933Z</time>
      </trkpt>
      <trkpt lat="42.05135" lon="25.43631">
        <ele>190.868876</ele>
        <time>2022-03-02T10:06:39.919Z</time>
      </trkpt>
      <trkpt lat="42.05148" lon="25.43629">
        <ele>190.420265</ele>
        <time>2022-03-02T10:06:41.903Z</time>
      </trkpt>
      <trkpt lat="42.05161" lon="25.43627">
        <ele>189.957078</ele>
        <time>2022-03-02T10:06:43.933Z</time>
      </trkpt>
      <trkpt lat="42.05174" lon="25.43624">
        <ele>189.497003</ele>
        <time>2022-03-02T10:06:45.919Z</time>
      </trkpt>
      <trkpt lat="42.05186" lon="25.43622">
        <ele>189.066727</ele>
        <time>2022-03-02T10:06:47.918Z</time>
      </trkpt>
      <trkpt lat="42.05197" lon="25.4362">
        <ele>188.666335</ele>
        <time>2022-03-02T10:06:49.912Z</time>
      </trkpt>
      <trkpt lat="42.05209" lon="25.43618">
        <ele>188.262855</ele>
        <time>2022-03-02T10:06:51.960Z</time>
      </trkpt>
      <trkpt lat="42.0522" lon="25.43615">
        <ele>187.862777</ele>
        <time>2022-03-02T10:06:53.905Z</time>
      </trkpt>
      <trkpt lat="42.05232" lon="25.43613">
        <ele>187.447273</ele>
        <time>2022-03-02T10:06:55.916Z</time>
      </trkpt>
      <trkpt lat="42.05244" lon="25.43612">
        <ele>187.032259</ele>
        <time>2022-03-02T10:06:57.919Z</time>
      </trkpt>
      <trkpt lat="42.05255" lon="25.43611">
        <ele>186.618028</ele>
        <time>2022-03-02T10:06:59.924Z</time>
      </trkpt>
      <trkpt lat="42.05267" lon="25.4361">
        <ele>186.19645</ele>
        <time>2022-03-02T10:07:01.902Z</time>
      </trkpt>
      <trkpt lat="42.05279" lon="25.43608">
        <ele>185.77771</ele>
        <time>2022-03-02T10:07:03.911Z</time>
      </trkpt>
      <trkpt lat="42.05291" lon="25.43608">
        <ele>185.367792</ele>
        <time>2022-03-02T10:07:05.918Z</time>
      </trkpt>
      <trkpt lat="42.05303" lon="25.43608">
        <ele>184.943836</ele>
        <time>2022-03-02T10:07:07.923Z</time>
      </trkpt>
      <trkpt lat="42.05315" lon="25.43608">
        <ele>184.55958</ele>
        <time>2022-03-02T10:07:09.915Z</time>
      </trkpt>
      <trkpt lat="42.05327" lon="25.43608">
        <ele>184.33657</ele>
        <time>2022-03-02T10:07:11.912Z</time>
      </trkpt>
      <trkpt lat="42.0534" lon="25.43608">
        <ele>184.106293</ele>
        <time>2022-03-02T10:07:13.945Z</time>
      </trkpt>
      <trkpt lat="42.05352" lon="25.43608">
        <ele>183.87416</ele>
        <time>2022-03-02T10:07:15.922Z</time>
      </trkpt>
      <trkpt lat="42.05364" lon="25.43608">
        <ele>183.660427</ele>
        <time>2022-03-02T10:07:17.930Z</time>
      </trkpt>
      <trkpt lat="42.05375" lon="25.43609">
        <ele>183.457767</ele>
        <time>2022-03-02T10:07:19.959Z</time>
      </trkpt>
      <trkpt lat="42.05386" lon="25.43609">
        <ele>183.26042</ele>
        <time>2022-03-02T10:07:21.910Z</time>
      </trkpt>
      <trkpt lat="42.05396" lon="25.4361">
        <ele>183.068789</ele>
        <time>2022-03-02T10:07:23.910Z</time>
      </trkpt>
      <trkpt lat="42.05407" lon="25.4361">
        <ele>182.871669</ele>
        <time>2022-03-02T10:07:25.921Z</time>
      </trkpt>
      <trkpt lat="42.05418" lon="25.4361">
        <ele>182.665326</ele>
        <time>2022-03-02T10:07:27.913Z</time>
      </trkpt>
      <trkpt lat="42.0543" lon="25.4361">
        <ele>182.451614</ele>
        <time>2022-03-02T10:07:29.914Z</time>
      </trkpt>
      <trkpt lat="42.05442" lon="25.43609">
        <ele>182.228671</ele>
        <time>2022-03-02T10:07:31.914Z</time>
      </trkpt>
      <trkpt lat="42.05454" lon="25.4361">
        <ele>182.005661</ele>
        <time>2022-03-02T10:07:33.910Z</time>
      </trkpt>
      <trkpt lat="42.05465" lon="25.43611">
        <ele>181.795433</ele>
        <time>2022-03-02T10:07:35.921Z</time>
      </trkpt>
      <trkpt lat="42.05477" lon="25.43612">
        <ele>181.584783</ele>
        <time>2022-03-02T10:07:37.921Z</time>
      </trkpt>
      <trkpt lat="42.05487" lon="25.43613">
        <ele>181.392494</ele>
        <time>2022-03-02T10:07:39.917Z</time>
      </trkpt>
      <trkpt lat="42.05497" lon="25.43613">
        <ele>181.371418</ele>
        <time>2022-03-02T10:07:41.941Z</time>
      </trkpt>
      <trkpt lat="42.05506" lon="25.43614">
        <ele>181.559016</ele>
        <time>2022-03-02T10:07:43.913Z</time>
      </trkpt>
      <trkpt lat="42.05518" lon="25.43615">
        <ele>181.798703</ele>
        <time>2022-03-02T10:07:46.932Z</time>
      </trkpt>
      <trkpt lat="42.0553" lon="25.43616">
        <ele>182.046315</ele>
        <time>2022-03-02T10:07:49.913Z</time>
      </trkpt>
      <trkpt lat="42.05542" lon="25.43616">
        <ele>182.277522</ele>
        <time>2022-03-02T10:07:52.917Z</time>
      </trkpt>
      <trkpt lat="42.05552" lon="25.43616">
        <ele>182.480477</ele>
        <time>2022-03-02T10:07:55.920Z</time>
      </trkpt>
      <trkpt lat="42.05562" lon="25.43616">
        <ele>182.691659</ele>
        <time>2022-03-02T10:07:58.916Z</time>
      </trkpt>
      <trkpt lat="42.05573" lon="25.43616">
        <ele>182.910709</ele>
        <time>2022-03-02T10:08:01.914Z</time>
      </trkpt>
      <trkpt lat="42.05583" lon="25.43615">
        <ele>183.117731</ele>
        <time>2022-03-02T10:08:04.928Z</time>
      </trkpt>
      <trkpt lat="42.05594" lon="25.43614">
        <ele>183.32161</ele>
        <time>2022-03-02T10:08:07.908Z</time>
      </trkpt>
      <trkpt lat="42.05603" lon="25.43614">
        <ele>183.508584</ele>
        <time>2022-03-02T10:08:10.907Z</time>
      </trkpt>
      <trkpt lat="42.05614" lon="25.43615">
        <ele>183.725933</ele>
        <time>2022-03-02T10:08:14.962Z</time>
      </trkpt>
      <trkpt lat="42.05625" lon="25.43615">
        <ele>183.959201</ele>
        <time>2022-03-02T10:08:18.914Z</time>
      </trkpt>
      <trkpt lat="42.05635" lon="25.43617">
        <ele>184.167018</ele>
        <time>2022-03-02T10:08:22.933Z</time>
      </trkpt>
      <trkpt lat="42.05647" lon="25.43618">
        <ele>184.390386</ele>
        <time>2022-03-02T10:08:27.914Z</time>
      </trkpt>
      <trkpt lat="42.05657" lon="25.43619">
        <ele>184.591685</ele>
        <time>2022-03-02T10:08:32.911Z</time>
      </trkpt>
      <trkpt lat="42.05666" lon="25.43618">
        <ele>184.776608</ele>
        <time>2022-03-02T10:08:37.905Z</time>
      </trkpt>
      <trkpt lat="42.05675" lon="25.43618">
        <ele>185.062794</ele>
        <time>2022-03-02T10:08:42.918Z</time>
      </trkpt>
      <trkpt lat="42.05684" lon="25.43619">
        <ele>185.638752</ele>
        <time>2022-03-02T10:08:47.953Z</time>
      </trkpt>
      <trkpt lat="42.05695" lon="25.43619">
        <ele>186.250332</ele>
        <time>2022-03-02T10:08:53.918Z</time>
      </trkpt>
      <trkpt lat="42.05704" lon="25.43618">
        <ele>186.840945</ele>
        <time>2022-03-02T10:08:59.908Z</time>
      </trkpt>
      <trkpt lat="42.05713" lon="25.43618">
        <ele>187.385935</ele>
        <time>2022-03-02T10:09:05.910Z</time>
      </trkpt>
      <trkpt lat="42.05723" lon="25.43617">
        <ele>187.937487</ele>
        <time>2022-03-02T10:09:11.915Z</time>
      </trkpt>
      <trkpt lat="42.05732" lon="25.43617">
        <ele>188.482424</ele>
        <time>2022-03-02T10:09:17.925Z</time>
      </trkpt>
      <trkpt lat="42.05741" lon="25.43618">
        <ele>189.047829</ele>
        <time>2022-03-02T10:09:23.915Z</time>
      </trkpt>
      <trkpt lat="42.05751" lon="25.4362">
        <ele>189.622938</ele>
        <time>2022-03-02T10:09:30.919Z</time>
      </trkpt>
      <trkpt lat="42.0576" lon="25.43622">
        <ele>190.183811</ele>
        <time>2022-03-02T10:09:36.918Z</time>
      </trkpt>
      <trkpt lat="42.0577" lon="25.43622">
        <ele>190.812579</ele>
        <time>2022-03-02T10:09:42.950Z</time>
      </trkpt>
      <trkpt lat="42.05779" lon="25.43623">
        <ele>191.356184</ele>
        <time>2022-03-02T10:09:48.917Z</time>
      </trkpt>
      <trkpt lat="42.0579" lon="25.43623">
        <ele>191.990986</ele>
        <time>2022-03-02T10:09:54.934Z</time>
      </trkpt>
      <trkpt lat="42.05801" lon="25.43624">
        <ele>192.625788</ele>
        <time>2022-03-02T10:10:00.917Z</time>
      </trkpt>
      <trkpt lat="42.05811" lon="25.43623">
        <ele>193.249567</ele>
        <time>2022-03-02T10:10:06.913Z</time>
      </trkpt>
      <trkpt lat="42.05822" lon="25.43623">
        <ele>193.884369</ele>
        <time>2022-03-02T10:10:12.917Z</time>
      </trkpt>
      <trkpt lat="42.05832" lon="25.43622">
        <ele>194.483593</ele>
        <time>2022-03-02T10:10:18.917Z</time>
      </trkpt>
      <trkpt lat="42.05841" lon="25.43625">
        <ele>195.070851</ele>
        <time>2022-03-02T10:10:24.925Z</time>
      </trkpt>
      <trkpt lat="42.05852" lon="25.43625">
        <ele>195.692721</ele>
        <time>2022-03-02T10:10:31.915Z</time>
      </trkpt>
      <trkpt lat="42.05862" lon="25.43625">
        <ele>195.947156</ele>
        <time>2022-03-02T10:10:37.916Z</time>
      </trkpt>
      <trkpt lat="42.05871" lon="25.43626">
        <ele>196.175604</ele>
        <time>2022-03-02T10:10:43.985Z</time>
      </trkpt>
      <trkpt lat="42.05881" lon="25.43627">
        <ele>196.415912</ele>
        <time>2022-03-02T10:10:49.918Z</time>
      </trkpt>
      <trkpt lat="42.0589" lon="25.43627">
        <ele>196.645856</ele>
        <time>2022-03-02T10:10:54.972Z</time>
      </trkpt>
      <trkpt lat="42.059" lon="25.43626">
        <ele>196.881041</ele>
        <time>2022-03-02T10:10:59.916Z</time>
      </trkpt>
      <trkpt lat="42.0591" lon="25.43626">
        <ele>197.14299</ele>
        <time>2022-03-02T10:11:05.952Z</time>
      </trkpt>
      <trkpt lat="42.0592" lon="25.43624">
        <ele>197.393952</ele>
        <time>2022-03-02T10:11:11.964Z</time>
      </trkpt>
      <trkpt lat="42.0593" lon="25.43626">
        <ele>197.645126</ele>
        <time>2022-03-02T10:11:17.912Z</time>
      </trkpt>
      <trkpt lat="42.0594" lon="25.43626">
        <ele>197.904549</ele>
        <time>2022-03-02T10:11:23.910Z</time>
      </trkpt>
      <trkpt lat="42.05951" lon="25.43626">
        <ele>198.161558</ele>
        <time>2022-03-02T10:11:29.910Z</time>
      </trkpt>
      <trkpt lat="42.0596" lon="25.43626">
        <ele>198.38631</ele>
        <time>2022-03-02T10:11:35.910Z</time>
      </trkpt>
      <trkpt lat="42.0597" lon="25.43627">
        <ele>198.638252</ele>
        <time>2022-03-02T10:11:41.917Z</time>
      </trkpt>
      <trkpt lat="42.0598" lon="25.43627">
        <ele>198.882711</ele>
        <time>2022-03-02T10:11:46.918Z</time>
      </trkpt>
      <trkpt lat="42.0599" lon="25.43627">
        <ele>199.147258</ele>
        <time>2022-03-02T10:11:52.952Z</time>
      </trkpt>
      <trkpt lat="42.06001" lon="25.43627">
        <ele>199.409155</ele>
        <time>2022-03-02T10:11:58.916Z</time>
      </trkpt>
      <trkpt lat="42.0601" lon="25.43629">
        <ele>199.649998</ele>
        <time>2022-03-02T10:12:03.918Z</time>
      </trkpt>
      <trkpt lat="42.0602" lon="25.4363">
        <ele>199.897367</ele>
        <time>2022-03-02T10:12:09.916Z</time>
      </trkpt>
      <trkpt lat="42.0603" lon="25.4363">
        <ele>200.1443</ele>
        <time>2022-03-02T10:12:15.920Z</time>
      </trkpt>
      <trkpt lat="42.0604" lon="25.43629">
        <ele>200.236529</ele>
        <time>2022-03-02T10:12:21.937Z</time>
      </trkpt>
      <trkpt lat="42.06049" lon="25.43629">
        <ele>200.308499</ele>
        <time>2022-03-02T10:12:26.916Z</time>
      </trkpt>
      <trkpt lat="42.0606" lon="25.43629">
        <ele>200.389154</ele>
        <time>2022-03-02T10:12:31.943Z</time>
      </trkpt>
      <trkpt lat="42.0607" lon="25.43629">
        <ele>200.472181</ele>
        <time>2022-03-02T10:12:36.907Z</time>
      </trkpt>
      <trkpt lat="42.06081" lon="25.43629">
        <ele>200.555998</ele>
        <time>2022-03-02T10:12:41.932Z</time>
      </trkpt>
      <trkpt lat="42.06091" lon="25.43629">
        <ele>200.640616</ele>
        <time>2022-03-02T10:12:46.906Z</time>
      </trkpt>
      <trkpt lat="42.06102" lon="25.43629">
        <ele>200.722862</ele>
        <time>2022-03-02T10:12:51.921Z</time>
      </trkpt>
      <trkpt lat="42.06111" lon="25.43629">
        <ele>200.794833</ele>
        <time>2022-03-02T10:12:55.914Z</time>
      </trkpt>
      <trkpt lat="42.06121" lon="25.43629">
        <ele>200.877854</ele>
        <time>2022-03-02T10:13:00.918Z</time>
      </trkpt>
      <trkpt lat="42.06133" lon="25.4363">
        <ele>200.967228</ele>
        <time>2022-03-02T10:13:05.941Z</time>
      </trkpt>
      <trkpt lat="42.06144" lon="25.43631">
        <ele>201.053133</ele>
        <time>2022-03-02T10:13:10.900Z</time>
      </trkpt>
      <trkpt lat="42.06153" lon="25.43632">
        <ele>201.126748</ele>
        <time>2022-03-02T10:13:14.911Z</time>
      </trkpt>
      <trkpt lat="42.06165" lon="25.43632">
        <ele>201.220865</ele>
        <time>2022-03-02T10:13:18.914Z</time>
      </trkpt>
      <trkpt lat="42.06176" lon="25.43634">
        <ele>201.312215</ele>
        <time>2022-03-02T10:13:22.911Z</time>
      </trkpt>
      <trkpt lat="42.06188" lon="25.43633">
        <ele>201.406348</ele>
        <time>2022-03-02T10:13:26.915Z</time>
      </trkpt>
      <trkpt lat="42.062" lon="25.43633">
        <ele>201.500437</ele>
        <time>2022-03-02T10:13:30.930Z</time>
      </trkpt>
      <trkpt lat="42.06212" lon="25.43634">
        <ele>201.521784</ele>
        <time>2022-03-02T10:13:34.945Z</time>
      </trkpt>
      <trkpt lat="42.06221" lon="25.43634">
        <ele>201.184888</ele>
        <time>2022-03-02T10:13:37.913Z</time>
      </trkpt>
      <trkpt lat="42.06231" lon="25.43635">
        <ele>200.825801</ele>
        <time>2022-03-02T10:13:40.946Z</time>
      </trkpt>
      <trkpt lat="42.06241" lon="25.43635">
        <ele>200.44815</ele>
        <time>2022-03-02T10:13:43.899Z</time>
      </trkpt>
      <trkpt lat="42.0625" lon="25.43636">
        <ele>200.087692</ele>
        <time>2022-03-02T10:13:46.908Z</time>
      </trkpt>
      <trkpt lat="42.06261" lon="25.43636">
        <ele>199.698826</ele>
        <time>2022-03-02T10:13:49.931Z</time>
      </trkpt>
      <trkpt lat="42.06271" lon="25.43635">
        <ele>199.309911</ele>
        <time>2022-03-02T10:13:52.893Z</time>
      </trkpt>
      <trkpt lat="42.06283" lon="25.43636">
        <ele>198.88312</ele>
        <time>2022-03-02T10:13:55.917Z</time>
      </trkpt>
      <trkpt lat="42.06293" lon="25.43637">
        <ele>198.482732</ele>
        <time>2022-03-02T10:13:58.920Z</time>
      </trkpt>
      <trkpt lat="42.06305" lon="25.43637">
        <ele>198.034009</ele>
        <time>2022-03-02T10:14:01.920Z</time>
      </trkpt>
      <trkpt lat="42.06317" lon="25.43638">
        <ele>197.610797</ele>
        <time>2022-03-02T10:14:04.923Z</time>
      </trkpt>
      <trkpt lat="42.06327" lon="25.4364">
        <ele>197.219119</ele>
        <time>2022-03-02T10:14:07.913Z</time>
      </trkpt>
      <trkpt lat="42.06338" lon="25.43641">
        <ele>196.795733</ele>
        <time>2022-03-02T10:14:10.920Z</time>
      </trkpt>
      <trkpt lat="42.0635" lon="25.43643">
        <ele>196.356957</ele>
        <time>2022-03-02T10:14:13.914Z</time>
      </trkpt>
      <trkpt lat="42.06361" lon="25.43645">
        <ele>195.924112</ele>
        <time>2022-03-02T10:14:16.916Z</time>
      </trkpt>
      <trkpt lat="42.06373" lon="25.43646">
        <ele>195.481689</ele>
        <time>2022-03-02T10:14:19.910Z</time>
      </trkpt>
      <trkpt lat="42.06386" lon="25.43649">
        <ele>194.998129</ele>
        <time>2022-03-02T10:14:22.897Z</time>
      </trkpt>
      <trkpt lat="42.06395" lon="25.4365">
        <ele>194.792705</ele>
        <time>2022-03-02T10:14:24.915Z</time>
      </trkpt>
      <trkpt lat="42.06404" lon="25.43652">
        <ele>194.680035</ele>
        <time>2022-03-02T10:14:26.914Z</time>
      </trkpt>
      <trkpt lat="42.06414" lon="25.43653">
        <ele>194.565862</ele>
        <time>2022-03-02T10:14:28.924Z</time>
      </trkpt>
      <trkpt lat="42.06423" lon="25.43654">
        <ele>194.453566</ele>
        <time>2022-03-02T10:14:30.903Z</time>
      </trkpt>
      <trkpt lat="42.06432" lon="25.43656">
        <ele>194.34309</ele>
        <time>2022-03-02T10:14:32.945Z</time>
      </trkpt>
      <trkpt lat="42.06444" lon="25.4366">
        <ele>194.196017</ele>
        <time>2022-03-02T10:14:35.917Z</time>
      </trkpt>
      <trkpt lat="42.06453" lon="25.43662">
        <ele>194.085098</ele>
        <time>2022-03-02T10:14:38.902Z</time>
      </trkpt>
      <trkpt lat="42.06464" lon="25.43663">
        <ele>193.954648</ele>
        <time>2022-03-02T10:14:42.918Z</time>
      </trkpt>
      <trkpt lat="42.06475" lon="25.43666">
        <ele>193.824216</ele>
        <time>2022-03-02T10:14:46.930Z</time>
      </trkpt>
      <trkpt lat="42.06485" lon="25.43668">
        <ele>193.702258</ele>
        <time>2022-03-02T10:14:50.896Z</time>
      </trkpt>
      <trkpt lat="42.06494" lon="25.43669">
        <ele>193.588084</ele>
        <time>2022-03-02T10:14:54.905Z</time>
      </trkpt>
      <trkpt lat="42.06506" lon="25.4367">
        <ele>193.446866</ele>
        <time>2022-03-02T10:14:58.913Z</time>
      </trkpt>
      <trkpt lat="42.06515" lon="25.43673">
        <ele>193.326524</ele>
        <time>2022-03-02T10:15:01.909Z</time>
      </trkpt>
      <trkpt lat="42.06525" lon="25.43675">
        <ele>193.205544</ele>
        <time>2022-03-02T10:15:04.926Z</time>
      </trkpt>
      <trkpt lat="42.06536" lon="25.43675">
        <ele>193.071595</ele>
        <time>2022-03-02T10:15:07.914Z</time>
      </trkpt>
      <trkpt lat="42.06549" lon="25.43677">
        <ele>192.921399</ele>
        <time>2022-03-02T10:15:10.901Z</time>
      </trkpt>
      <trkpt lat="42.06558" lon="25.43679">
        <ele>192.81212</ele>
        <time>2022-03-02T10:15:12.902Z</time>
      </trkpt>
      <trkpt lat="42.0657" lon="25.43681">
        <ele>192.495065</ele>
        <time>2022-03-02T10:15:15.937Z</time>
      </trkpt>
      <trkpt lat="42.06583" lon="25.43683">
        <ele>191.240932</ele>
        <time>2022-03-02T10:15:18.918Z</time>
      </trkpt>
      <trkpt lat="42.06593" lon="25.43685">
        <ele>190.339665</ele>
        <time>2022-03-02T10:15:20.919Z</time>
      </trkpt>
      <trkpt lat="42.06605" lon="25.43687">
        <ele>189.132239</ele>
        <time>2022-03-02T10:15:23.922Z</time>
      </trkpt>
      <trkpt lat="42.06619" lon="25.4369">
        <ele>187.862733</ele>
        <time>2022-03-02T10:15:26.937Z</time>
      </trkpt>
      <trkpt lat="42.06628" lon="25.43692">
        <ele>186.941047</ele>
        <time>2022-03-02T10:15:28.900Z</time>
      </trkpt>
      <trkpt lat="42.06638" lon="25.43693">
        <ele>186.032599</ele>
        <time>2022-03-02T10:15:30.949Z</time>
      </trkpt>
      <trkpt lat="42.06651" lon="25.43693">
        <ele>184.750661</ele>
        <time>2022-03-02T10:15:33.914Z</time>
      </trkpt>
      <trkpt lat="42.06661" lon="25.43695">
        <ele>183.831446</ele>
        <time>2022-03-02T10:15:35.920Z</time>
      </trkpt>
      <trkpt lat="42.06671" lon="25.43697">
        <ele>182.868503</ele>
        <time>2022-03-02T10:15:37.945Z</time>
      </trkpt>
      <trkpt lat="42.06682" lon="25.43699">
        <ele>181.867242</ele>
        <time>2022-03-02T10:15:39.929Z</time>
      </trkpt>
      <trkpt lat="42.06692" lon="25.43701">
        <ele>180.889466</ele>
        <time>2022-03-02T10:15:41.913Z</time>
      </trkpt>
      <trkpt lat="42.06702" lon="25.43704">
        <ele>179.899382</ele>
        <time>2022-03-02T10:15:43.912Z</time>
      </trkpt>
      <trkpt lat="42.06715" lon="25.43708">
        <ele>178.707118</ele>
        <time>2022-03-02T10:15:46.934Z</time>
      </trkpt>
      <trkpt lat="42.06725" lon="25.43714">
        <ele>177.626307</ele>
        <time>2022-03-02T10:15:49.911Z</time>
      </trkpt>
      <trkpt lat="42.06735" lon="25.43725">
        <ele>176.436882</ele>
        <time>2022-03-02T10:15:52.912Z</time>
      </trkpt>
      <trkpt lat="42.06745" lon="25.43736">
        <ele>175.492926</ele>
        <time>2022-03-02T10:15:55.900Z</time>
      </trkpt>
      <trkpt lat="42.06754" lon="25.43746">
        <ele>175.007345</ele>
        <time>2022-03-02T10:15:58.940Z</time>
      </trkpt>
      <trkpt lat="42.06763" lon="25.43755">
        <ele>174.547206</ele>
        <time>2022-03-02T10:16:02.921Z</time>
      </trkpt>
      <trkpt lat="42.06773" lon="25.43762">
        <ele>174.070094</ele>
        <time>2022-03-02T10:16:06.922Z</time>
      </trkpt>
      <trkpt lat="42.06781" lon="25.43771">
        <ele>173.647321</ele>
        <time>2022-03-02T10:16:10.925Z</time>
      </trkpt>
      <trkpt lat="42.06788" lon="25.43782">
        <ele>173.196693</ele>
        <time>2022-03-02T10:16:16.950Z</time>
      </trkpt>
      <trkpt lat="42.06796" lon="25.43793">
        <ele>172.726651</ele>
        <time>2022-03-02T10:16:20.913Z</time>
      </trkpt>
      <trkpt lat="42.06804" lon="25.43805">
        <ele>172.234054</ele>
        <time>2022-03-02T10:16:23.931Z</time>
      </trkpt>
      <trkpt lat="42.0681" lon="25.43813">
        <ele>171.858019</ele>
        <time>2022-03-02T10:16:25.910Z</time>
      </trkpt>
      <trkpt lat="42.06817" lon="25.43822">
        <ele>171.472414</ele>
        <time>2022-03-02T10:16:27.934Z</time>
      </trkpt>
      <trkpt lat="42.06824" lon="25.43831">
        <ele>171.080618</ele>
        <time>2022-03-02T10:16:29.914Z</time>
      </trkpt>
      <trkpt lat="42.06832" lon="25.4384">
        <ele>170.642214</ele>
        <time>2022-03-02T10:16:31.914Z</time>
      </trkpt>
      <trkpt lat="42.0684" lon="25.43851">
        <ele>170.15638</ele>
        <time>2022-03-02T10:16:33.913Z</time>
      </trkpt>
      <trkpt lat="42.0685" lon="25.43862">
        <ele>169.62391</ele>
        <time>2022-03-02T10:16:35.973Z</time>
      </trkpt>
      <trkpt lat="42.0686" lon="25.43873">
        <ele>169.080181</ele>
        <time>2022-03-02T10:16:37.904Z</time>
      </trkpt>
      <trkpt lat="42.06869" lon="25.43885">
        <ele>168.541606</ele>
        <time>2022-03-02T10:16:39.911Z</time>
      </trkpt>
      <trkpt lat="42.06878" lon="25.43898">
        <ele>168.134026</ele>
        <time>2022-03-02T10:16:41.948Z</time>
      </trkpt>
      <trkpt lat="42.06887" lon="25.4391">
        <ele>167.903327</ele>
        <time>2022-03-02T10:16:43.910Z</time>
      </trkpt>
      <trkpt lat="42.06894" lon="25.43922">
        <ele>167.694902</ele>
        <time>2022-03-02T10:16:45.913Z</time>
      </trkpt>
      <trkpt lat="42.06901" lon="25.43932">
        <ele>167.50388</ele>
        <time>2022-03-02T10:16:47.908Z</time>
      </trkpt>
      <trkpt lat="42.06907" lon="25.43942">
        <ele>167.329424</ele>
        <time>2022-03-02T10:16:49.918Z</time>
      </trkpt>
      <trkpt lat="42.06914" lon="25.43951">
        <ele>167.155466</ele>
        <time>2022-03-02T10:16:51.976Z</time>
      </trkpt>
      <trkpt lat="42.06921" lon="25.43961">
        <ele>166.971191</ele>
        <time>2022-03-02T10:16:53.921Z</time>
      </trkpt>
      <trkpt lat="42.06927" lon="25.43971">
        <ele>166.790809</ele>
        <time>2022-03-02T10:16:55.922Z</time>
      </trkpt>
      <trkpt lat="42.06933" lon="25.43981">
        <ele>166.618945</ele>
        <time>2022-03-02T10:16:57.935Z</time>
      </trkpt>
      <trkpt lat="42.06942" lon="25.43994">
        <ele>166.374242</ele>
        <time>2022-03-02T10:17:00.937Z</time>
      </trkpt>
      <trkpt lat="42.06949" lon="25.44002">
        <ele>166.208584</ele>
        <time>2022-03-02T10:17:02.945Z</time>
      </trkpt>
      <trkpt lat="42.06957" lon="25.44014">
        <ele>165.97985</ele>
        <time>2022-03-02T10:17:05.909Z</time>
      </trkpt>
      <trkpt lat="42.06966" lon="25.44025">
        <ele>165.754986</ele>
        <time>2022-03-02T10:17:08.911Z</time>
      </trkpt>
      <trkpt lat="42.06974" lon="25.44032">
        <ele>165.585908</ele>
        <time>2022-03-02T10:17:11.922Z</time>
      </trkpt>
      <trkpt lat="42.06983" lon="25.44023">
        <ele>165.376281</ele>
        <time>2022-03-02T10:17:16.928Z</time>
      </trkpt>
      <trkpt lat="42.06987" lon="25.44009">
        <ele>165.170852</ele>
        <time>2022-03-02T10:17:20.907Z</time>
      </trkpt>
      <trkpt lat="42.06991" lon="25.43996">
        <ele>164.97669</ele>
        <time>2022-03-02T10:17:24.905Z</time>
      </trkpt>
      <trkpt lat="42.06996" lon="25.43984">
        <ele>165.476259</ele>
        <time>2022-03-02T10:17:30.912Z</time>
      </trkpt>
      <trkpt lat="42.07002" lon="25.43973">
        <ele>166.223372</ele>
        <time>2022-03-02T10:17:37.916Z</time>
      </trkpt>
      <trkpt lat="42.07006" lon="25.43962">
        <ele>166.88699</ele>
        <time>2022-03-02T10:17:47.916Z</time>
      </trkpt>
      <trkpt lat="42.06998" lon="25.43952">
        <ele>167.670419</ele>
        <time>2022-03-02T10:37:38.934Z</time>
      </trkpt>
      <trkpt lat="42.07001" lon="25.4394">
        <ele>168.354273</ele>
        <time>2022-03-02T10:37:43.918Z</time>
      </trkpt>
      <trkpt lat="42.07006" lon="25.4393">
        <ele>169.04105</ele>
        <time>2022-03-02T10:37:48.920Z</time>
      </trkpt>
      <trkpt lat="42.07011" lon="25.43917">
        <ele>169.799701</ele>
        <time>2022-03-02T10:37:54.917Z</time>
      </trkpt>
      <trkpt lat="42.07014" lon="25.43904">
        <ele>170.531215</ele>
        <time>2022-03-02T10:38:01.926Z</time>
      </trkpt>
      <trkpt lat="42.07017" lon="25.43891">
        <ele>171.257322</ele>
        <time>2022-03-02T10:38:07.929Z</time>
      </trkpt>
      <trkpt lat="42.07021" lon="25.43879">
        <ele>171.970814</ele>
        <time>2022-03-02T10:38:12.922Z</time>
      </trkpt>
      <trkpt lat="42.07025" lon="25.43868">
        <ele>172.627227</ele>
        <time>2022-03-02T10:38:17.928Z</time>
      </trkpt>
      <trkpt lat="42.07027" lon="25.43855">
        <ele>173.307689</ele>
        <time>2022-03-02T10:38:22.915Z</time>
      </trkpt>
      <trkpt lat="42.07029" lon="25.43843">
        <ele>173.983389</ele>
        <time>2022-03-02T10:38:27.918Z</time>
      </trkpt>
      <trkpt lat="42.07029" lon="25.43831">
        <ele>174.650336</ele>
        <time>2022-03-02T10:38:32.953Z</time>
      </trkpt>
      <trkpt lat="42.07027" lon="25.43817">
        <ele>175.407996</ele>
        <time>2022-03-02T10:38:38.918Z</time>
      </trkpt>
      <trkpt lat="42.07026" lon="25.43804">
        <ele>176.09655</ele>
        <time>2022-03-02T10:38:43.954Z</time>
      </trkpt>
      <trkpt lat="42.07027" lon="25.43792">
        <ele>176.750581</ele>
        <time>2022-03-02T10:38:48.938Z</time>
      </trkpt>
      <trkpt lat="42.07028" lon="25.43778">
        <ele>177.503202</ele>
        <time>2022-03-02T10:38:54.961Z</time>
      </trkpt>
      <trkpt lat="42.07029" lon="25.43765">
        <ele>178.213735</ele>
        <time>2022-03-02T10:39:00.926Z</time>
      </trkpt>
      <trkpt lat="42.0703" lon="25.43753">
        <ele>178.928696</ele>
        <time>2022-03-02T10:39:05.971Z</time>
      </trkpt>
      <trkpt lat="42.07031" lon="25.4374">
        <ele>179.681757</ele>
        <time>2022-03-02T10:39:10.924Z</time>
      </trkpt>
      <trkpt lat="42.0703" lon="25.43727">
        <ele>180.400031</ele>
        <time>2022-03-02T10:39:16.951Z</time>
      </trkpt>
      <trkpt lat="42.07032" lon="25.43715">
        <ele>181.111892</ele>
        <time>2022-03-02T10:39:22.972Z</time>
      </trkpt>
      <trkpt lat="42.07033" lon="25.43702">
        <ele>181.840557</ele>
        <time>2022-03-02T10:39:29.933Z</time>
      </trkpt>
      <trkpt lat="42.07035" lon="25.4369">
        <ele>182.548888</ele>
        <time>2022-03-02T10:39:35.926Z</time>
      </trkpt>
      <trkpt lat="42.07038" lon="25.43677">
        <ele>183.299847</ele>
        <time>2022-03-02T10:39:41.924Z</time>
      </trkpt>
      <trkpt lat="42.07039" lon="25.43664">
        <ele>184.067531</ele>
        <time>2022-03-02T10:39:47.922Z</time>
      </trkpt>
      <trkpt lat="42.07041" lon="25.43651">
        <ele>184.836821</ele>
        <time>2022-03-02T10:39:54.904Z</time>
      </trkpt>
      <trkpt lat="42.07042" lon="25.43638">
        <ele>185.585031</ele>
        <time>2022-03-02T10:40:02.910Z</time>
      </trkpt>
      <trkpt lat="42.07043" lon="25.43624">
        <ele>186.369731</ele>
        <time>2022-03-02T10:40:09.957Z</time>
      </trkpt>
      <trkpt lat="42.07045" lon="25.43612">
        <ele>187.069148</ele>
        <time>2022-03-02T10:40:16.929Z</time>
      </trkpt>
      <trkpt lat="42.07048" lon="25.43599">
        <ele>187.8298</ele>
        <time>2022-03-02T10:40:23.910Z</time>
      </trkpt>
      <trkpt lat="42.07051" lon="25.43586">
        <ele>188.599698</ele>
        <time>2022-03-02T10:40:30.923Z</time>
      </trkpt>
      <trkpt lat="42.07055" lon="25.43574">
        <ele>189.337475</ele>
        <time>2022-03-02T10:40:37.933Z</time>
      </trkpt>
      <trkpt lat="42.07058" lon="25.43562">
        <ele>190.085031</ele>
        <time>2022-03-02T10:40:44.921Z</time>
      </trkpt>
      <trkpt lat="42.07063" lon="25.4355">
        <ele>190.855888</ele>
        <time>2022-03-02T10:40:51.940Z</time>
      </trkpt>
      <trkpt lat="42.07068" lon="25.43539">
        <ele>191.600873</ele>
        <time>2022-03-02T10:40:59.939Z</time>
      </trkpt>
      <trkpt lat="42.07071" lon="25.43527">
        <ele>191.805625</ele>
        <time>2022-03-02T10:41:07.917Z</time>
      </trkpt>
      <trkpt lat="42.07075" lon="25.43516">
        <ele>191.848272</ele>
        <time>2022-03-02T10:41:15.940Z</time>
      </trkpt>
      <trkpt lat="42.07079" lon="25.43504">
        <ele>191.89264</ele>
        <time>2022-03-02T10:41:23.909Z</time>
      </trkpt>
      <trkpt lat="42.07084" lon="25.43494">
        <ele>191.934407</ele>
        <time>2022-03-02T10:41:29.961Z</time>
      </trkpt>
      <trkpt lat="42.07089" lon="25.43481">
        <ele>191.982898</ele>
        <time>2022-03-02T10:41:36.941Z</time>
      </trkpt>
      <trkpt lat="42.07093" lon="25.4347">
        <ele>192.027285</ele>
        <time>2022-03-02T10:41:42.910Z</time>
      </trkpt>
      <trkpt lat="42.07099" lon="25.43458">
        <ele>192.075183</ele>
        <time>2022-03-02T10:41:49.921Z</time>
      </trkpt>
      <trkpt lat="42.07102" lon="25.43447">
        <ele>192.117955</ele>
        <time>2022-03-02T10:41:56.932Z</time>
      </trkpt>
      <trkpt lat="42.07107" lon="25.43435">
        <ele>192.162038</ele>
        <time>2022-03-02T10:42:03.922Z</time>
      </trkpt>
      <trkpt lat="42.07111" lon="25.43423">
        <ele>192.20749</ele>
        <time>2022-03-02T10:42:09.925Z</time>
      </trkpt>
      <trkpt lat="42.07114" lon="25.43411">
        <ele>192.253153</ele>
        <time>2022-03-02T10:42:15.928Z</time>
      </trkpt>
      <trkpt lat="42.07119" lon="25.43399">
        <ele>192.30076</ele>
        <time>2022-03-02T10:42:21.928Z</time>
      </trkpt>
      <trkpt lat="42.07124" lon="25.43388">
        <ele>192.343501</ele>
        <time>2022-03-02T10:42:26.953Z</time>
      </trkpt>
      <trkpt lat="42.07129" lon="25.43376">
        <ele>192.390752</ele>
        <time>2022-03-02T10:42:32.929Z</time>
      </trkpt>
      <trkpt lat="42.07133" lon="25.43363">
        <ele>192.440999</ele>
        <time>2022-03-02T10:42:38.925Z</time>
      </trkpt>
      <trkpt lat="42.07137" lon="25.43349">
        <ele>192.490012</ele>
        <time>2022-03-02T10:42:43.911Z</time>
      </trkpt>
      <trkpt lat="42.07141" lon="25.43337">
        <ele>192.534972</ele>
        <time>2022-03-02T10:42:48.915Z</time>
      </trkpt>
      <trkpt lat="42.07145" lon="25.43324">
        <ele>192.583985</ele>
        <time>2022-03-02T10:42:53.928Z</time>
      </trkpt>
      <trkpt lat="42.07148" lon="25.43311">
        <ele>192.502907</ele>
        <time>2022-03-02T10:42:57.918Z</time>
      </trkpt>
      <trkpt lat="42.07151" lon="25.43297">
        <ele>192.298777</ele>
        <time>2022-03-02T10:43:01.920Z</time>
      </trkpt>
      <trkpt lat="42.07154" lon="25.43283">
        <ele>192.083401</ele>
        <time>2022-03-02T10:43:05.954Z</time>
      </trkpt>
      <trkpt lat="42.07157" lon="25.43267">
        <ele>191.85413</ele>
        <time>2022-03-02T10:43:09.928Z</time>
      </trkpt>
      <trkpt lat="42.07159" lon="25.43253">
        <ele>191.655481</ele>
        <time>2022-03-02T10:43:12.954Z</time>
      </trkpt>
      <trkpt lat="42.07161" lon="25.4324">
        <ele>191.460674</ele>
        <time>2022-03-02T10:43:15.919Z</time>
      </trkpt>
      <trkpt lat="42.07163" lon="25.43227">
        <ele>191.273834</ele>
        <time>2022-03-02T10:43:18.994Z</time>
      </trkpt>
      <trkpt lat="42.07165" lon="25.43214">
        <ele>191.092893</ele>
        <time>2022-03-02T10:43:21.929Z</time>
      </trkpt>
      <trkpt lat="42.07166" lon="25.43201">
        <ele>190.909182</ele>
        <time>2022-03-02T10:43:24.913Z</time>
      </trkpt>
      <trkpt lat="42.07168" lon="25.43188">
        <ele>190.725053</ele>
        <time>2022-03-02T10:43:27.925Z</time>
      </trkpt>
      <trkpt lat="42.0717" lon="25.43176">
        <ele>190.542498</ele>
        <time>2022-03-02T10:43:30.898Z</time>
      </trkpt>
      <trkpt lat="42.07173" lon="25.43163">
        <ele>190.355675</ele>
        <time>2022-03-02T10:43:33.914Z</time>
      </trkpt>
      <trkpt lat="42.07176" lon="25.4315">
        <ele>190.165817</ele>
        <time>2022-03-02T10:43:36.942Z</time>
      </trkpt>
      <trkpt lat="42.07178" lon="25.43137">
        <ele>189.980104</ele>
        <time>2022-03-02T10:43:39.910Z</time>
      </trkpt>
      <trkpt lat="42.0718" lon="25.43125">
        <ele>189.8035</ele>
        <time>2022-03-02T10:43:42.954Z</time>
      </trkpt>
      <trkpt lat="42.07183" lon="25.43113">
        <ele>189.620527</ele>
        <time>2022-03-02T10:43:45.937Z</time>
      </trkpt>
      <trkpt lat="42.07185" lon="25.431">
        <ele>189.435252</ele>
        <time>2022-03-02T10:43:48.930Z</time>
      </trkpt>
      <trkpt lat="42.07186" lon="25.43087">
        <ele>189.24772</ele>
        <time>2022-03-02T10:43:51.930Z</time>
      </trkpt>
      <trkpt lat="42.07188" lon="25.43074">
        <ele>189.081986</ele>
        <time>2022-03-02T10:43:54.913Z</time>
      </trkpt>
      <trkpt lat="42.0719" lon="25.43062">
        <ele>188.930407</ele>
        <time>2022-03-02T10:43:57.914Z</time>
      </trkpt>
      <trkpt lat="42.07192" lon="25.43049">
        <ele>188.765789</ele>
        <time>2022-03-02T10:44:00.926Z</time>
      </trkpt>
      <trkpt lat="42.07194" lon="25.43036">
        <ele>188.600269</ele>
        <time>2022-03-02T10:44:03.928Z</time>
      </trkpt>
      <trkpt lat="42.07196" lon="25.43023">
        <ele>188.438947</ele>
        <time>2022-03-02T10:44:06.918Z</time>
      </trkpt>
      <trkpt lat="42.07197" lon="25.4301">
        <ele>188.280078</ele>
        <time>2022-03-02T10:44:09.916Z</time>
      </trkpt>
      <trkpt lat="42.07199" lon="25.42997">
        <ele>188.111509</ele>
        <time>2022-03-02T10:44:12.918Z</time>
      </trkpt>
      <trkpt lat="42.07202" lon="25.42983">
        <ele>187.936705</ele>
        <time>2022-03-02T10:44:15.951Z</time>
      </trkpt>
      <trkpt lat="42.07204" lon="25.4297">
        <ele>187.767449</ele>
        <time>2022-03-02T10:44:18.924Z</time>
      </trkpt>
      <trkpt lat="42.07206" lon="25.42955">
        <ele>187.583477</ele>
        <time>2022-03-02T10:44:21.964Z</time>
      </trkpt>
      <trkpt lat="42.07209" lon="25.4294">
        <ele>187.390694</ele>
        <time>2022-03-02T10:44:24.908Z</time>
      </trkpt>
      <trkpt lat="42.07213" lon="25.42924">
        <ele>187.191361</ele>
        <time>2022-03-02T10:44:27.910Z</time>
      </trkpt>
      <trkpt lat="42.07217" lon="25.42909">
        <ele>186.988977</ele>
        <time>2022-03-02T10:44:30.919Z</time>
      </trkpt>
      <trkpt lat="42.07221" lon="25.42893">
        <ele>186.773912</ele>
        <time>2022-03-02T10:44:33.915Z</time>
      </trkpt>
      <trkpt lat="42.07225" lon="25.42881">
        <ele>186.623536</ele>
        <time>2022-03-02T10:44:35.926Z</time>
      </trkpt>
      <trkpt lat="42.07228" lon="25.4287">
        <ele>186.469107</ele>
        <time>2022-03-02T10:44:37.914Z</time>
      </trkpt>
      <trkpt lat="42.07232" lon="25.42859">
        <ele>186.319877</ele>
        <time>2022-03-02T10:44:39.922Z</time>
      </trkpt>
      <trkpt lat="42.07236" lon="25.42848">
        <ele>186.122758</ele>
        <time>2022-03-02T10:44:41.924Z</time>
      </trkpt>
      <trkpt lat="42.07241" lon="25.42837">
        <ele>185.72311</ele>
        <time>2022-03-02T10:44:43.913Z</time>
      </trkpt>
      <trkpt lat="42.07246" lon="25.42827">
        <ele>185.318202</ele>
        <time>2022-03-02T10:44:45.920Z</time>
      </trkpt>
      <trkpt lat="42.07251" lon="25.42815">
        <ele>184.879774</ele>
        <time>2022-03-02T10:44:47.921Z</time>
      </trkpt>
      <trkpt lat="42.07258" lon="25.42804">
        <ele>184.413118</ele>
        <time>2022-03-02T10:44:49.970Z</time>
      </trkpt>
      <trkpt lat="42.07264" lon="25.42791">
        <ele>183.920461</ele>
        <time>2022-03-02T10:44:51.917Z</time>
      </trkpt>
      <trkpt lat="42.07271" lon="25.42778">
        <ele>183.404642</ele>
        <time>2022-03-02T10:44:53.920Z</time>
      </trkpt>
      <trkpt lat="42.07278" lon="25.42764">
        <ele>182.862834</ele>
        <time>2022-03-02T10:44:55.915Z</time>
      </trkpt>
      <trkpt lat="42.07286" lon="25.4275">
        <ele>182.295386</ele>
        <time>2022-03-02T10:44:57.962Z</time>
      </trkpt>
      <trkpt lat="42.07293" lon="25.42735">
        <ele>181.714471</ele>
        <time>2022-03-02T10:44:59.912Z</time>
      </trkpt>
      <trkpt lat="42.073" lon="25.42721">
        <ele>181.162229</ele>
        <time>2022-03-02T10:45:01.929Z</time>
      </trkpt>
      <trkpt lat="42.07307" lon="25.42708">
        <ele>180.631054</ele>
        <time>2022-03-02T10:45:03.933Z</time>
      </trkpt>
      <trkpt lat="42.07314" lon="25.42694">
        <ele>180.12017</ele>
        <time>2022-03-02T10:45:05.927Z</time>
      </trkpt>
      <trkpt lat="42.07322" lon="25.42681">
        <ele>179.560512</ele>
        <time>2022-03-02T10:45:07.942Z</time>
      </trkpt>
      <trkpt lat="42.0733" lon="25.42665">
        <ele>178.948219</ele>
        <time>2022-03-02T10:45:09.938Z</time>
      </trkpt>
      <trkpt lat="42.07338" lon="25.42649">
        <ele>178.314755</ele>
        <time>2022-03-02T10:45:11.917Z</time>
      </trkpt>
      <trkpt lat="42.07346" lon="25.42632">
        <ele>177.67542</ele>
        <time>2022-03-02T10:45:13.907Z</time>
      </trkpt>
      <trkpt lat="42.07355" lon="25.42614">
        <ele>177.015517</ele>
        <time>2022-03-02T10:45:15.911Z</time>
      </trkpt>
      <trkpt lat="42.07364" lon="25.42597">
        <ele>176.340444</ele>
        <time>2022-03-02T10:45:17.994Z</time>
      </trkpt>
      <trkpt lat="42.07373" lon="25.42579">
        <ele>175.660394</ele>
        <time>2022-03-02T10:45:19.927Z</time>
      </trkpt>
      <trkpt lat="42.07383" lon="25.42561">
        <ele>174.958096</ele>
        <time>2022-03-02T10:45:21.927Z</time>
      </trkpt>
      <trkpt lat="42.07393" lon="25.42542">
        <ele>174.240794</ele>
        <time>2022-03-02T10:45:23.970Z</time>
      </trkpt>
      <trkpt lat="42.07403" lon="25.42523">
        <ele>173.508032</ele>
        <time>2022-03-02T10:45:25.917Z</time>
      </trkpt>
      <trkpt lat="42.07413" lon="25.42503">
        <ele>172.744935</ele>
        <time>2022-03-02T10:45:27.921Z</time>
      </trkpt>
      <trkpt lat="42.07418" lon="25.42493">
        <ele>172.360703</ele>
        <time>2022-03-02T10:45:28.898Z</time>
      </trkpt>
      <trkpt lat="42.07423" lon="25.42483">
        <ele>171.979068</ele>
        <time>2022-03-02T10:45:29.902Z</time>
      </trkpt>
      <trkpt lat="42.07433" lon="25.42463">
        <ele>171.22264</ele>
        <time>2022-03-02T10:45:31.920Z</time>
      </trkpt>
      <trkpt lat="42.07443" lon="25.42444">
        <ele>170.767607</ele>
        <time>2022-03-02T10:45:33.911Z</time>
      </trkpt>
      <trkpt lat="42.07452" lon="25.42426">
        <ele>170.790429</ele>
        <time>2022-03-02T10:45:35.912Z</time>
      </trkpt>
      <trkpt lat="42.07461" lon="25.42409">
        <ele>170.811991</ele>
        <time>2022-03-02T10:45:37.914Z</time>
      </trkpt>
      <trkpt lat="42.07469" lon="25.42393">
        <ele>170.831803</ele>
        <time>2022-03-02T10:45:39.920Z</time>
      </trkpt>
      <trkpt lat="42.07476" lon="25.4238">
        <ele>170.849031</ele>
        <time>2022-03-02T10:45:41.933Z</time>
      </trkpt>
      <trkpt lat="42.07482" lon="25.42367">
        <ele>170.865035</ele>
        <time>2022-03-02T10:45:43.924Z</time>
      </trkpt>
      <trkpt lat="42.07488" lon="25.42356">
        <ele>170.878768</ele>
        <time>2022-03-02T10:45:45.922Z</time>
      </trkpt>
      <trkpt lat="42.07496" lon="25.42342">
        <ele>170.897</ele>
        <time>2022-03-02T10:45:48.930Z</time>
      </trkpt>
      <trkpt lat="42.07502" lon="25.42331">
        <ele>170.911483</ele>
        <time>2022-03-02T10:45:51.914Z</time>
      </trkpt>
      <trkpt lat="42.07508" lon="25.42321">
        <ele>170.924052</ele>
        <time>2022-03-02T10:45:54.915Z</time>
      </trkpt>
      <trkpt lat="42.07513" lon="25.4231">
        <ele>170.937453</ele>
        <time>2022-03-02T10:45:57.924Z</time>
      </trkpt>
      <trkpt lat="42.07519" lon="25.423">
        <ele>170.951113</ele>
        <time>2022-03-02T10:46:00.900Z</time>
      </trkpt>
      <trkpt lat="42.07524" lon="25.42289">
        <ele>170.964596</ele>
        <time>2022-03-02T10:46:03.918Z</time>
      </trkpt>
      <trkpt lat="42.0753" lon="25.42279">
        <ele>170.977331</ele>
        <time>2022-03-02T10:46:06.957Z</time>
      </trkpt>
      <trkpt lat="42.07536" lon="25.42266">
        <ele>170.993565</ele>
        <time>2022-03-02T10:46:10.930Z</time>
      </trkpt>
      <trkpt lat="42.07542" lon="25.42254">
        <ele>171.008697</ele>
        <time>2022-03-02T10:46:14.937Z</time>
      </trkpt>
      <trkpt lat="42.07548" lon="25.42243">
        <ele>171.511433</ele>
        <time>2022-03-02T10:46:18.910Z</time>
      </trkpt>
      <trkpt lat="42.07552" lon="25.42232">
        <ele>172.022699</ele>
        <time>2022-03-02T10:46:22.909Z</time>
      </trkpt>
      <trkpt lat="42.07558" lon="25.42222">
        <ele>172.538337</ele>
        <time>2022-03-02T10:46:26.910Z</time>
      </trkpt>
      <trkpt lat="42.07563" lon="25.42211">
        <ele>173.077221</ele>
        <time>2022-03-02T10:46:30.939Z</time>
      </trkpt>
      <trkpt lat="42.07569" lon="25.42201">
        <ele>173.582744</ele>
        <time>2022-03-02T10:46:34.949Z</time>
      </trkpt>
      <trkpt lat="42.07575" lon="25.42189">
        <ele>174.200207</ele>
        <time>2022-03-02T10:46:39.901Z</time>
      </trkpt>
      <trkpt lat="42.07581" lon="25.42179">
        <ele>174.718634</ele>
        <time>2022-03-02T10:46:43.938Z</time>
      </trkpt>
      <trkpt lat="42.07586" lon="25.42169">
        <ele>175.237035</ele>
        <time>2022-03-02T10:46:47.907Z</time>
      </trkpt>
      <trkpt lat="42.07592" lon="25.42158">
        <ele>175.766002</ele>
        <time>2022-03-02T10:46:51.921Z</time>
      </trkpt>
      <trkpt lat="42.07597" lon="25.42146">
        <ele>176.358786</ele>
        <time>2022-03-02T10:46:56.906Z</time>
      </trkpt>
      <trkpt lat="42.07603" lon="25.42134">
        <ele>176.95157</ele>
        <time>2022-03-02T10:47:01.942Z</time>
      </trkpt>
      <trkpt lat="42.07608" lon="25.42123">
        <ele>177.472068</ele>
        <time>2022-03-02T10:47:05.913Z</time>
      </trkpt>
      <trkpt lat="42.07612" lon="25.42111">
        <ele>178.000433</ele>
        <time>2022-03-02T10:47:09.918Z</time>
      </trkpt>
      <trkpt lat="42.07617" lon="25.42099">
        <ele>178.592657</ele>
        <time>2022-03-02T10:47:13.958Z</time>
      </trkpt>
      <trkpt lat="42.07622" lon="25.42087">
        <ele>179.119973</ele>
        <time>2022-03-02T10:47:16.900Z</time>
      </trkpt>
      <trkpt lat="42.07627" lon="25.42077">
        <ele>179.634778</ele>
        <time>2022-03-02T10:47:19.913Z</time>
      </trkpt>
      <trkpt lat="42.07632" lon="25.42064">
        <ele>180.241075</ele>
        <time>2022-03-02T10:47:23.951Z</time>
      </trkpt>
      <trkpt lat="42.07637" lon="25.42051">
        <ele>180.852046</ele>
        <time>2022-03-02T10:47:27.910Z</time>
      </trkpt>
      <trkpt lat="42.07643" lon="25.42038">
        <ele>181.12348</ele>
        <time>2022-03-02T10:47:31.925Z</time>
      </trkpt>
      <trkpt lat="42.07648" lon="25.42026">
        <ele>181.301625</ele>
        <time>2022-03-02T10:47:35.920Z</time>
      </trkpt>
      <trkpt lat="42.07654" lon="25.42013">
        <ele>181.485423</ele>
        <time>2022-03-02T10:47:39.918Z</time>
      </trkpt>
      <trkpt lat="42.07659" lon="25.42001">
        <ele>181.669806</ele>
        <time>2022-03-02T10:47:43.913Z</time>
      </trkpt>
      <trkpt lat="42.07664" lon="25.41989">
        <ele>181.842961</ele>
        <time>2022-03-02T10:47:47.925Z</time>
      </trkpt>
      <trkpt lat="42.0767" lon="25.41978">
        <ele>182.015643</ele>
        <time>2022-03-02T10:47:51.926Z</time>
      </trkpt>
      <trkpt lat="42.07675" lon="25.41966">
        <ele>182.184652</ele>
        <time>2022-03-02T10:47:55.922Z</time>
      </trkpt>
      <trkpt lat="42.07679" lon="25.41955">
        <ele>182.347322</ele>
        <time>2022-03-02T10:47:59.953Z</time>
      </trkpt>
      <trkpt lat="42.07685" lon="25.41944">
        <ele>182.514604</ele>
        <time>2022-03-02T10:48:03.949Z</time>
      </trkpt>
      <trkpt lat="42.0769" lon="25.41932">
        <ele>182.684038</ele>
        <time>2022-03-02T10:48:07.925Z</time>
      </trkpt>
      <trkpt lat="42.07695" lon="25.4192">
        <ele>182.858577</ele>
        <time>2022-03-02T10:48:11.922Z</time>
      </trkpt>
      <trkpt lat="42.07699" lon="25.41909">
        <ele>183.022342</ele>
        <time>2022-03-02T10:48:15.922Z</time>
      </trkpt>
      <trkpt lat="42.07704" lon="25.41898">
        <ele>183.176417</ele>
        <time>2022-03-02T10:48:19.928Z</time>
      </trkpt>
      <trkpt lat="42.07709" lon="25.41886">
        <ele>183.357888</ele>
        <time>2022-03-02T10:48:24.934Z</time>
      </trkpt>
      <trkpt lat="42.07715" lon="25.41875">
        <ele>183.529485</ele>
        <time>2022-03-02T10:48:29.922Z</time>
      </trkpt>
      <trkpt lat="42.0772" lon="25.41863">
        <ele>183.701296</ele>
        <time>2022-03-02T10:48:34.900Z</time>
      </trkpt>
      <trkpt lat="42.07725" lon="25.4185">
        <ele>183.883343</ele>
        <time>2022-03-02T10:48:39.931Z</time>
      </trkpt>
      <trkpt lat="42.0773" lon="25.41839">
        <ele>184.084342</ele>
        <time>2022-03-02T10:48:44.920Z</time>
      </trkpt>
      <trkpt lat="42.07735" lon="25.41827">
        <ele>184.717576</ele>
        <time>2022-03-02T10:48:49.924Z</time>
      </trkpt>
      <trkpt lat="42.0774" lon="25.41816">
        <ele>185.3775</ele>
        <time>2022-03-02T10:48:54.957Z</time>
      </trkpt>
      <trkpt lat="42.07745" lon="25.41805">
        <ele>186.007701</ele>
        <time>2022-03-02T10:48:59.924Z</time>
      </trkpt>
      <trkpt lat="42.0775" lon="25.41793">
        <ele>186.669574</ele>
        <time>2022-03-02T10:49:04.916Z</time>
      </trkpt>
      <trkpt lat="42.07754" lon="25.4178">
        <ele>187.368914</ele>
        <time>2022-03-02T10:49:10.913Z</time>
      </trkpt>
      <trkpt lat="42.07759" lon="25.41768">
        <ele>188.03151</ele>
        <time>2022-03-02T10:49:16.925Z</time>
      </trkpt>
      <trkpt lat="42.07763" lon="25.41755">
        <ele>188.726421</ele>
        <time>2022-03-02T10:49:22.951Z</time>
      </trkpt>
      <trkpt lat="42.07767" lon="25.41741">
        <ele>189.419558</ele>
        <time>2022-03-02T10:49:28.951Z</time>
      </trkpt>
      <trkpt lat="42.07771" lon="25.41728">
        <ele>190.090056</ele>
        <time>2022-03-02T10:49:33.914Z</time>
      </trkpt>
      <trkpt lat="42.07774" lon="25.41716">
        <ele>190.719756</ele>
        <time>2022-03-02T10:49:38.926Z</time>
      </trkpt>
      <trkpt lat="42.07777" lon="25.41704">
        <ele>191.321802</ele>
        <time>2022-03-02T10:49:43.899Z</time>
      </trkpt>
      <trkpt lat="42.07781" lon="25.4169">
        <ele>192.04909</ele>
        <time>2022-03-02T10:49:49.899Z</time>
      </trkpt>
      <trkpt lat="42.07784" lon="25.41678">
        <ele>192.69219</ele>
        <time>2022-03-02T10:49:54.892Z</time>
      </trkpt>
      <trkpt lat="42.07786" lon="25.41666">
        <ele>193.287627</ele>
        <time>2022-03-02T10:49:59.897Z</time>
      </trkpt>
      <trkpt lat="42.07788" lon="25.41654">
        <ele>193.879783</ele>
        <time>2022-03-02T10:50:04.896Z</time>
      </trkpt>
      <trkpt lat="42.07791" lon="25.41641">
        <ele>194.570901</ele>
        <time>2022-03-02T10:50:10.894Z</time>
      </trkpt>
      <trkpt lat="42.07793" lon="25.41628">
        <ele>195.194159</ele>
        <time>2022-03-02T10:50:15.894Z</time>
      </trkpt>
      <trkpt lat="42.07797" lon="25.41616">
        <ele>195.848981</ele>
        <time>2022-03-02T10:50:21.895Z</time>
      </trkpt>
      <trkpt lat="42.078" lon="25.41602">
        <ele>196.313982</ele>
        <time>2022-03-02T10:50:27.907Z</time>
      </trkpt>
      <trkpt lat="42.07804" lon="25.4159">
        <ele>196.760244</ele>
        <time>2022-03-02T10:50:33.907Z</time>
      </trkpt>
      <trkpt lat="42.07805" lon="25.41577">
        <ele>197.174636</ele>
        <time>2022-03-02T10:50:39.899Z</time>
      </trkpt>
      <trkpt lat="42.07807" lon="25.41564">
        <ele>197.623215</ele>
        <time>2022-03-02T10:50:45.896Z</time>
      </trkpt>
      <trkpt lat="42.0781" lon="25.41552">
        <ele>198.066497</ele>
        <time>2022-03-02T10:50:50.892Z</time>
      </trkpt>
      <trkpt lat="42.07813" lon="25.41539">
        <ele>198.503372</ele>
        <time>2022-03-02T10:50:55.892Z</time>
      </trkpt>
      <trkpt lat="42.07817" lon="25.41527">
        <ele>198.943388</ele>
        <time>2022-03-02T10:51:00.896Z</time>
      </trkpt>
      <trkpt lat="42.0782" lon="25.41515">
        <ele>199.372455</ele>
        <time>2022-03-02T10:51:05.928Z</time>
      </trkpt>
      <trkpt lat="42.07823" lon="25.41502">
        <ele>199.809295</ele>
        <time>2022-03-02T10:51:10.892Z</time>
      </trkpt>
      <trkpt lat="42.07827" lon="25.4149">
        <ele>200.267054</ele>
        <time>2022-03-02T10:51:15.890Z</time>
      </trkpt>
      <trkpt lat="42.0783" lon="25.41477">
        <ele>200.713366</ele>
        <time>2022-03-02T10:51:20.890Z</time>
      </trkpt>
      <trkpt lat="42.07833" lon="25.41465">
        <ele>201.142414</ele>
        <time>2022-03-02T10:51:25.906Z</time>
      </trkpt>
      <trkpt lat="42.07837" lon="25.41452">
        <ele>201.601198</ele>
        <time>2022-03-02T10:51:30.891Z</time>
      </trkpt>
      <trkpt lat="42.07839" lon="25.41439">
        <ele>202.041107</ele>
        <time>2022-03-02T10:51:35.902Z</time>
      </trkpt>
      <trkpt lat="42.07842" lon="25.41428">
        <ele>202.456076</ele>
        <time>2022-03-02T10:51:40.892Z</time>
      </trkpt>
      <trkpt lat="42.07845" lon="25.41416">
        <ele>202.876251</ele>
        <time>2022-03-02T10:51:45.921Z</time>
      </trkpt>
      <trkpt lat="42.07847" lon="25.41403">
        <ele>203.307531</ele>
        <time>2022-03-02T10:51:50.893Z</time>
      </trkpt>
      <trkpt lat="42.07851" lon="25.4139">
        <ele>203.772595</ele>
        <time>2022-03-02T10:51:56.888Z</time>
      </trkpt>
      <trkpt lat="42.07853" lon="25.41378">
        <ele>203.958568</ele>
        <time>2022-03-02T10:52:01.895Z</time>
      </trkpt>
      <trkpt lat="42.07856" lon="25.41367">
        <ele>204.014383</ele>
        <time>2022-03-02T10:52:06.899Z</time>
      </trkpt>
      <trkpt lat="42.07859" lon="25.41355">
        <ele>204.074687</ele>
        <time>2022-03-02T10:52:12.892Z</time>
      </trkpt>
      <trkpt lat="42.07862" lon="25.41341">
        <ele>204.138782</ele>
        <time>2022-03-02T10:52:18.922Z</time>
      </trkpt>
      <trkpt lat="42.07865" lon="25.41329">
        <ele>204.196706</ele>
        <time>2022-03-02T10:52:23.897Z</time>
      </trkpt>
      <trkpt lat="42.07868" lon="25.41318">
        <ele>204.253972</ele>
        <time>2022-03-02T10:52:28.904Z</time>
      </trkpt>
      <trkpt lat="42.07872" lon="25.41306">
        <ele>204.313249</ele>
        <time>2022-03-02T10:52:33.904Z</time>
      </trkpt>
      <trkpt lat="42.07875" lon="25.41292">
        <ele>204.381124</ele>
        <time>2022-03-02T10:52:38.899Z</time>
      </trkpt>
      <trkpt lat="42.07877" lon="25.41279">
        <ele>204.44298</ele>
        <time>2022-03-02T10:52:43.892Z</time>
      </trkpt>
      <trkpt lat="42.0788" lon="25.41267">
        <ele>204.5027</ele>
        <time>2022-03-02T10:52:48.892Z</time>
      </trkpt>
      <trkpt lat="42.07883" lon="25.41255">
        <ele>204.560468</ele>
        <time>2022-03-02T10:52:53.895Z</time>
      </trkpt>
      <trkpt lat="42.07886" lon="25.41242">
        <ele>204.621513</ele>
        <time>2022-03-02T10:52:58.898Z</time>
      </trkpt>
      <trkpt lat="42.07888" lon="25.41229">
        <ele>204.682311</ele>
        <time>2022-03-02T10:53:03.898Z</time>
      </trkpt>
      <trkpt lat="42.07891" lon="25.41216">
        <ele>204.74892</ele>
        <time>2022-03-02T10:53:09.896Z</time>
      </trkpt>
      <trkpt lat="42.07895" lon="25.41202">
        <ele>204.815328</ele>
        <time>2022-03-02T10:53:15.904Z</time>
      </trkpt>
      <trkpt lat="42.07898" lon="25.4119">
        <ele>204.87442</ele>
        <time>2022-03-02T10:53:20.895Z</time>
      </trkpt>
      <trkpt lat="42.07901" lon="25.41178">
        <ele>204.933654</ele>
        <time>2022-03-02T10:53:25.927Z</time>
      </trkpt>
      <trkpt lat="42.07903" lon="25.41165">
        <ele>204.996992</ele>
        <time>2022-03-02T10:53:30.898Z</time>
      </trkpt>
      <trkpt lat="42.07907" lon="25.41152">
        <ele>205.107233</ele>
        <time>2022-03-02T10:53:35.910Z</time>
      </trkpt>
      <trkpt lat="42.07911" lon="25.41139">
        <ele>205.346386</ele>
        <time>2022-03-02T10:53:40.890Z</time>
      </trkpt>
      <trkpt lat="42.07914" lon="25.41127">
        <ele>205.566203</ele>
        <time>2022-03-02T10:53:45.907Z</time>
      </trkpt>
      <trkpt lat="42.07915" lon="25.41114">
        <ele>205.804366</ele>
        <time>2022-03-02T10:53:50.891Z</time>
      </trkpt>
      <trkpt lat="42.07918" lon="25.41102">
        <ele>206.025134</ele>
        <time>2022-03-02T10:53:55.901Z</time>
      </trkpt>
      <trkpt lat="42.07921" lon="25.41089">
        <ele>206.254285</ele>
        <time>2022-03-02T10:54:00.897Z</time>
      </trkpt>
      <trkpt lat="42.07925" lon="25.41077">
        <ele>206.491694</ele>
        <time>2022-03-02T10:54:05.900Z</time>
      </trkpt>
      <trkpt lat="42.07928" lon="25.41064">
        <ele>206.739829</ele>
        <time>2022-03-02T10:54:10.892Z</time>
      </trkpt>
      <trkpt lat="42.07931" lon="25.41052">
        <ele>206.955065</ele>
        <time>2022-03-02T10:54:14.908Z</time>
      </trkpt>
      <trkpt lat="42.07934" lon="25.41039">
        <ele>207.193089</ele>
        <time>2022-03-02T10:54:19.903Z</time>
      </trkpt>
      <trkpt lat="42.07936" lon="25.41027">
        <ele>207.409532</ele>
        <time>2022-03-02T10:54:23.902Z</time>
      </trkpt>
      <trkpt lat="42.07939" lon="25.41016">
        <ele>207.623876</ele>
        <time>2022-03-02T10:54:27.899Z</time>
      </trkpt>
      <trkpt lat="42.07942" lon="25.41004">
        <ele>207.845789</ele>
        <time>2022-03-02T10:54:31.916Z</time>
      </trkpt>
      <trkpt lat="42.07945" lon="25.40992">
        <ele>208.070114</ele>
        <time>2022-03-02T10:54:35.889Z</time>
      </trkpt>
      <trkpt lat="42.07948" lon="25.40979">
        <ele>208.300194</ele>
        <time>2022-03-02T10:54:39.899Z</time>
      </trkpt>
      <trkpt lat="42.07951" lon="25.40967">
        <ele>208.526649</ele>
        <time>2022-03-02T10:54:43.897Z</time>
      </trkpt>
      <trkpt lat="42.07954" lon="25.40955">
        <ele>208.749517</ele>
        <time>2022-03-02T10:54:47.900Z</time>
      </trkpt>
      <trkpt lat="42.07957" lon="25.40942">
        <ele>208.985549</ele>
        <time>2022-03-02T10:54:51.900Z</time>
      </trkpt>
      <trkpt lat="42.0796" lon="25.40929">
        <ele>209.22158</ele>
        <time>2022-03-02T10:54:55.897Z</time>
      </trkpt>
      <trkpt lat="42.07962" lon="25.40917">
        <ele>209.497034</ele>
        <time>2022-03-02T10:54:59.897Z</time>
      </trkpt>
      <trkpt lat="42.07965" lon="25.40904">
        <ele>209.822276</ele>
        <time>2022-03-02T10:55:03.898Z</time>
      </trkpt>
      <trkpt lat="42.07968" lon="25.40892">
        <ele>210.134473</ele>
        <time>2022-03-02T10:55:07.898Z</time>
      </trkpt>
      <trkpt lat="42.07971" lon="25.40878">
        <ele>210.473181</ele>
        <time>2022-03-02T10:55:11.902Z</time>
      </trkpt>
      <trkpt lat="42.07974" lon="25.40865">
        <ele>210.818001</ele>
        <time>2022-03-02T10:55:15.896Z</time>
      </trkpt>
      <trkpt lat="42.07976" lon="25.40852">
        <ele>211.136013</ele>
        <time>2022-03-02T10:55:19.901Z</time>
      </trkpt>
      <trkpt lat="42.07979" lon="25.4084">
        <ele>211.454514</ele>
        <time>2022-03-02T10:55:23.896Z</time>
      </trkpt>
      <trkpt lat="42.07983" lon="25.40827">
        <ele>211.775291</ele>
        <time>2022-03-02T10:55:27.898Z</time>
      </trkpt>
      <trkpt lat="42.07986" lon="25.40813">
        <ele>212.138373</ele>
        <time>2022-03-02T10:55:32.902Z</time>
      </trkpt>
      <trkpt lat="42.07989" lon="25.40801">
        <ele>212.445641</ele>
        <time>2022-03-02T10:55:36.897Z</time>
      </trkpt>
      <trkpt lat="42.07992" lon="25.40789">
        <ele>212.758555</ele>
        <time>2022-03-02T10:55:40.893Z</time>
      </trkpt>
      <trkpt lat="42.07995" lon="25.40776">
        <ele>213.080583</ele>
        <time>2022-03-02T10:55:44.892Z</time>
      </trkpt>
      <trkpt lat="42.07997" lon="25.40762">
        <ele>213.418217</ele>
        <time>2022-03-02T10:55:48.889Z</time>
      </trkpt>
      <trkpt lat="42.08" lon="25.4075">
        <ele>213.736229</ele>
        <time>2022-03-02T10:55:52.896Z</time>
      </trkpt>
      <trkpt lat="42.08003" lon="25.40737">
        <ele>214.060646</ele>
        <time>2022-03-02T10:55:56.890Z</time>
      </trkpt>
      <trkpt lat="42.08006" lon="25.40724">
        <ele>214.382758</ele>
        <time>2022-03-02T10:56:00.889Z</time>
      </trkpt>
      <trkpt lat="42.0801" lon="25.4071">
        <ele>214.745664</ele>
        <time>2022-03-02T10:56:05.897Z</time>
      </trkpt>
      <trkpt lat="42.08013" lon="25.40698">
        <ele>215.074474</ele>
        <time>2022-03-02T10:56:10.901Z</time>
      </trkpt>
      <trkpt lat="42.08016" lon="25.40685">
        <ele>215.289913</ele>
        <time>2022-03-02T10:56:14.893Z</time>
      </trkpt>
      <trkpt lat="42.08018" lon="25.40671">
        <ele>215.478237</ele>
        <time>2022-03-02T10:56:19.896Z</time>
      </trkpt>
      <trkpt lat="42.08022" lon="25.40658">
        <ele>215.652742</ele>
        <time>2022-03-02T10:56:24.889Z</time>
      </trkpt>
      <trkpt lat="42.08026" lon="25.40646">
        <ele>215.823168</ele>
        <time>2022-03-02T10:56:29.904Z</time>
      </trkpt>
      <trkpt lat="42.08029" lon="25.40634">
        <ele>215.979539</ele>
        <time>2022-03-02T10:56:33.893Z</time>
      </trkpt>
      <trkpt lat="42.08032" lon="25.4062">
        <ele>216.161309</ele>
        <time>2022-03-02T10:56:38.893Z</time>
      </trkpt>
      <trkpt lat="42.08035" lon="25.40609">
        <ele>216.320327</ele>
        <time>2022-03-02T10:56:42.892Z</time>
      </trkpt>
      <trkpt lat="42.08038" lon="25.40597">
        <ele>216.479344</ele>
        <time>2022-03-02T10:56:46.898Z</time>
      </trkpt>
      <trkpt lat="42.08042" lon="25.40584">
        <ele>216.651106</ele>
        <time>2022-03-02T10:56:50.897Z</time>
      </trkpt>
      <trkpt lat="42.08045" lon="25.40571">
        <ele>216.8251</ele>
        <time>2022-03-02T10:56:55.905Z</time>
      </trkpt>
      <trkpt lat="42.08048" lon="25.40559">
        <ele>216.996146</ele>
        <time>2022-03-02T10:57:00.889Z</time>
      </trkpt>
      <trkpt lat="42.08051" lon="25.40544">
        <ele>217.180784</ele>
        <time>2022-03-02T10:57:05.903Z</time>
      </trkpt>
      <trkpt lat="42.08054" lon="25.40531">
        <ele>217.359608</ele>
        <time>2022-03-02T10:57:10.900Z</time>
      </trkpt>
      <trkpt lat="42.08057" lon="25.40519">
        <ele>217.515107</ele>
        <time>2022-03-02T10:57:15.889Z</time>
      </trkpt>
      <trkpt lat="42.08059" lon="25.40506">
        <ele>217.693951</ele>
        <time>2022-03-02T10:57:21.900Z</time>
      </trkpt>
      <trkpt lat="42.08061" lon="25.40493">
        <ele>217.856043</ele>
        <time>2022-03-02T10:57:26.894Z</time>
      </trkpt>
      <trkpt lat="42.08064" lon="25.40481">
        <ele>218.017055</ele>
        <time>2022-03-02T10:57:31.894Z</time>
      </trkpt>
      <trkpt lat="42.08068" lon="25.4047">
        <ele>218.172606</ele>
        <time>2022-03-02T10:57:36.920Z</time>
      </trkpt>
      <trkpt lat="42.08071" lon="25.40458">
        <ele>218.193826</ele>
        <time>2022-03-02T10:57:41.906Z</time>
      </trkpt>
      <trkpt lat="42.08074" lon="25.40446">
        <ele>218.011636</ele>
        <time>2022-03-02T10:57:46.895Z</time>
      </trkpt>
      <trkpt lat="42.08076" lon="25.40434">
        <ele>217.838129</ele>
        <time>2022-03-02T10:57:51.903Z</time>
      </trkpt>
      <trkpt lat="42.08079" lon="25.40421">
        <ele>217.660216</ele>
        <time>2022-03-02T10:57:56.896Z</time>
      </trkpt>
      <trkpt lat="42.0808" lon="25.40409">
        <ele>217.489816</ele>
        <time>2022-03-02T10:58:01.893Z</time>
      </trkpt>
      <trkpt lat="42.08083" lon="25.40397">
        <ele>217.315918</ele>
        <time>2022-03-02T10:58:06.898Z</time>
      </trkpt>
      <trkpt lat="42.08085" lon="25.40384">
        <ele>217.142162</ele>
        <time>2022-03-02T10:58:11.893Z</time>
      </trkpt>
      <trkpt lat="42.08087" lon="25.40371">
        <ele>216.955143</ele>
        <time>2022-03-02T10:58:16.896Z</time>
      </trkpt>
      <trkpt lat="42.08088" lon="25.40358">
        <ele>216.766462</ele>
        <time>2022-03-02T10:58:21.917Z</time>
      </trkpt>
      <trkpt lat="42.0809" lon="25.40343">
        <ele>216.557087</ele>
        <time>2022-03-02T10:58:26.902Z</time>
      </trkpt>
      <trkpt lat="42.08091" lon="25.40327">
        <ele>216.34024</ele>
        <time>2022-03-02T10:58:30.902Z</time>
      </trkpt>
      <trkpt lat="42.08091" lon="25.40314">
        <ele>216.165153</ele>
        <time>2022-03-02T10:58:33.894Z</time>
      </trkpt>
      <trkpt lat="42.08091" lon="25.40299">
        <ele>215.961184</ele>
        <time>2022-03-02T10:58:36.893Z</time>
      </trkpt>
      <trkpt lat="42.08091" lon="25.40282">
        <ele>215.728245</ele>
        <time>2022-03-02T10:58:39.907Z</time>
      </trkpt>
      <trkpt lat="42.08091" lon="25.4027">
        <ele>215.558748</ele>
        <time>2022-03-02T10:58:41.896Z</time>
      </trkpt>
      <trkpt lat="42.0809" lon="25.40257">
        <ele>215.382336</ele>
        <time>2022-03-02T10:58:43.898Z</time>
      </trkpt>
      <trkpt lat="42.08088" lon="25.40244">
        <ele>215.198038</ele>
        <time>2022-03-02T10:58:45.892Z</time>
      </trkpt>
      <trkpt lat="42.08088" lon="25.40231">
        <ele>215.008677</ele>
        <time>2022-03-02T10:58:47.892Z</time>
      </trkpt>
      <trkpt lat="42.08087" lon="25.40216">
        <ele>214.717663</ele>
        <time>2022-03-02T10:58:49.900Z</time>
      </trkpt>
      <trkpt lat="42.08085" lon="25.40201">
        <ele>214.31495</ele>
        <time>2022-03-02T10:58:51.899Z</time>
      </trkpt>
      <trkpt lat="42.08083" lon="25.40185">
        <ele>213.89704</ele>
        <time>2022-03-02T10:58:53.913Z</time>
      </trkpt>
      <trkpt lat="42.08081" lon="25.40168">
        <ele>213.456533</ele>
        <time>2022-03-02T10:58:55.889Z</time>
      </trkpt>
      <trkpt lat="42.08079" lon="25.40151">
        <ele>213.022903</ele>
        <time>2022-03-02T10:58:57.925Z</time>
      </trkpt>
      <trkpt lat="42.08077" lon="25.40135">
        <ele>212.610839</ele>
        <time>2022-03-02T10:58:59.889Z</time>
      </trkpt>
      <trkpt lat="42.08076" lon="25.4012">
        <ele>212.216962</ele>
        <time>2022-03-02T10:59:01.907Z</time>
      </trkpt>
      <trkpt lat="42.08075" lon="25.40105">
        <ele>211.83395</ele>
        <time>2022-03-02T10:59:03.905Z</time>
      </trkpt>
      <trkpt lat="42.08074" lon="25.4009">
        <ele>211.458887</ele>
        <time>2022-03-02T10:59:05.920Z</time>
      </trkpt>
      <trkpt lat="42.08074" lon="25.40076">
        <ele>211.089201</ele>
        <time>2022-03-02T10:59:07.905Z</time>
      </trkpt>
      <trkpt lat="42.08072" lon="25.40061">
        <ele>210.712745</ele>
        <time>2022-03-02T10:59:09.945Z</time>
      </trkpt>
      <trkpt lat="42.08071" lon="25.40046">
        <ele>210.318867</ele>
        <time>2022-03-02T10:59:11.899Z</time>
      </trkpt>
      <trkpt lat="42.0807" lon="25.40031">
        <ele>209.923105</ele>
        <time>2022-03-02T10:59:13.900Z</time>
      </trkpt>
      <trkpt lat="42.08069" lon="25.40014">
        <ele>209.492447</ele>
        <time>2022-03-02T10:59:15.898Z</time>
      </trkpt>
      <trkpt lat="42.08066" lon="25.39996">
        <ele>209.014753</ele>
        <time>2022-03-02T10:59:17.904Z</time>
      </trkpt>
      <trkpt lat="42.0806" lon="25.39975">
        <ele>208.45718</ele>
        <time>2022-03-02T10:59:19.893Z</time>
      </trkpt>
      <trkpt lat="42.08051" lon="25.39956">
        <ele>207.843527</ele>
        <time>2022-03-02T10:59:21.895Z</time>
      </trkpt>
      <trkpt lat="42.08045" lon="25.39946">
        <ele>207.51757</ele>
        <time>2022-03-02T10:59:22.974Z</time>
      </trkpt>
      <trkpt lat="42.08039" lon="25.39936">
        <ele>207.185352</ele>
        <time>2022-03-02T10:59:23.933Z</time>
      </trkpt>
      <trkpt lat="42.08034" lon="25.39926">
        <ele>206.865732</ele>
        <time>2022-03-02T10:59:24.908Z</time>
      </trkpt>
      <trkpt lat="42.08024" lon="25.39906">
        <ele>206.247236</ele>
        <time>2022-03-02T10:59:26.925Z</time>
      </trkpt>
      <trkpt lat="42.08014" lon="25.39887">
        <ele>205.653405</ele>
        <time>2022-03-02T10:59:28.890Z</time>
      </trkpt>
      <trkpt lat="42.08006" lon="25.3987">
        <ele>205.106531</ele>
        <time>2022-03-02T10:59:30.893Z</time>
      </trkpt>
      <trkpt lat="42.07999" lon="25.39854">
        <ele>204.616421</ele>
        <time>2022-03-02T10:59:32.890Z</time>
      </trkpt>
      <trkpt lat="42.07992" lon="25.39839">
        <ele>204.157666</ele>
        <time>2022-03-02T10:59:34.899Z</time>
      </trkpt>
      <trkpt lat="42.07984" lon="25.39824">
        <ele>203.704152</ele>
        <time>2022-03-02T10:59:36.894Z</time>
      </trkpt>
      <trkpt lat="42.07976" lon="25.39811">
        <ele>203.249831</ele>
        <time>2022-03-02T10:59:38.890Z</time>
      </trkpt>
      <trkpt lat="42.07968" lon="25.39797">
        <ele>202.798603</ele>
        <time>2022-03-02T10:59:40.895Z</time>
      </trkpt>
      <trkpt lat="42.0796" lon="25.39783">
        <ele>202.437835</ele>
        <time>2022-03-02T10:59:42.898Z</time>
      </trkpt>
      <trkpt lat="42.07952" lon="25.39767">
        <ele>202.54061</ele>
        <time>2022-03-02T10:59:44.916Z</time>
      </trkpt>
      <trkpt lat="42.07945" lon="25.39751">
        <ele>202.64044</ele>
        <time>2022-03-02T10:59:46.897Z</time>
      </trkpt>
      <trkpt lat="42.07941" lon="25.39733">
        <ele>202.74775</ele>
        <time>2022-03-02T10:59:48.903Z</time>
      </trkpt>
      <trkpt lat="42.0794" lon="25.39713">
        <ele>202.859252</ele>
        <time>2022-03-02T10:59:50.888Z</time>
      </trkpt>
      <trkpt lat="42.0794" lon="25.39694">
        <ele>202.96362</ele>
        <time>2022-03-02T10:59:52.898Z</time>
      </trkpt>
      <trkpt lat="42.0794" lon="25.39679">
        <ele>203.043978</ele>
        <time>2022-03-02T10:59:54.908Z</time>
      </trkpt>
      <trkpt lat="42.07942" lon="25.39666">
        <ele>203.11776</ele>
        <time>2022-03-02T10:59:56.891Z</time>
      </trkpt>
      <trkpt lat="42.07944" lon="25.39653">
        <ele>203.185939</ele>
        <time>2022-03-02T10:59:58.896Z</time>
      </trkpt>
      <trkpt lat="42.07945" lon="25.39638">
        <ele>203.270704</ele>
        <time>2022-03-02T11:00:01.899Z</time>
      </trkpt>
      <trkpt lat="42.07946" lon="25.39623">
        <ele>203.353741</ele>
        <time>2022-03-02T11:00:05.892Z</time>
      </trkpt>
      <trkpt lat="42.07947" lon="25.3961">
        <ele>203.427165</ele>
        <time>2022-03-02T11:00:10.895Z</time>
      </trkpt>
      <trkpt lat="42.0795" lon="25.39596">
        <ele>203.507145</ele>
        <time>2022-03-02T11:00:16.892Z</time>
      </trkpt>
      <trkpt lat="42.07952" lon="25.39584">
        <ele>203.57411</ele>
        <time>2022-03-02T11:00:21.901Z</time>
      </trkpt>
      <trkpt lat="42.07953" lon="25.3957">
        <ele>203.647463</ele>
        <time>2022-03-02T11:00:26.893Z</time>
      </trkpt>
      <trkpt lat="42.07954" lon="25.39557">
        <ele>203.722876</ele>
        <time>2022-03-02T11:00:32.888Z</time>
      </trkpt>
      <trkpt lat="42.07956" lon="25.39544">
        <ele>203.854687</ele>
        <time>2022-03-02T11:00:38.897Z</time>
      </trkpt>
      <trkpt lat="42.07959" lon="25.3953">
        <ele>204.022356</ele>
        <time>2022-03-02T11:00:45.895Z</time>
      </trkpt>
      <trkpt lat="42.07962" lon="25.39518">
        <ele>204.177939</ele>
        <time>2022-03-02T11:00:49.899Z</time>
      </trkpt>
      <trkpt lat="42.07966" lon="25.39504">
        <ele>204.355959</ele>
        <time>2022-03-02T11:00:53.933Z</time>
      </trkpt>
      <trkpt lat="42.07969" lon="25.39491">
        <ele>204.516081</ele>
        <time>2022-03-02T11:00:56.889Z</time>
      </trkpt>
      <trkpt lat="42.07971" lon="25.39479">
        <ele>204.665327</ele>
        <time>2022-03-02T11:00:59.951Z</time>
      </trkpt>
      <trkpt lat="42.07972" lon="25.39464">
        <ele>204.840234</ele>
        <time>2022-03-02T11:01:02.902Z</time>
      </trkpt>
      <trkpt lat="42.07975" lon="25.39448">
        <ele>205.041843</ele>
        <time>2022-03-02T11:01:05.905Z</time>
      </trkpt>
      <trkpt lat="42.07975" lon="25.39435">
        <ele>205.190443</ele>
        <time>2022-03-02T11:01:07.916Z</time>
      </trkpt>
      <trkpt lat="42.07976" lon="25.39422">
        <ele>205.349888</ele>
        <time>2022-03-02T11:01:09.922Z</time>
      </trkpt>
      <trkpt lat="42.07977" lon="25.3941">
        <ele>205.496613</ele>
        <time>2022-03-02T11:01:11.925Z</time>
      </trkpt>
      <trkpt lat="42.07979" lon="25.39394">
        <ele>205.683916</ele>
        <time>2022-03-02T11:01:14.936Z</time>
      </trkpt>
      <trkpt lat="42.07982" lon="25.39378">
        <ele>205.88797</ele>
        <time>2022-03-02T11:01:17.944Z</time>
      </trkpt>
      <trkpt lat="42.07983" lon="25.39365">
        <ele>206.041762</ele>
        <time>2022-03-02T11:01:19.954Z</time>
      </trkpt>
      <trkpt lat="42.07984" lon="25.39351">
        <ele>206.206902</ele>
        <time>2022-03-02T11:01:21.920Z</time>
      </trkpt>
      <trkpt lat="42.0798" lon="25.39335">
        <ele>206.414134</ele>
        <time>2022-03-02T11:01:24.912Z</time>
      </trkpt>
      <trkpt lat="42.07975" lon="25.39323">
        <ele>206.578432</ele>
        <time>2022-03-02T11:01:27.909Z</time>
      </trkpt>
      <trkpt lat="42.07969" lon="25.3931">
        <ele>206.385555</ele>
        <time>2022-03-02T11:01:31.901Z</time>
      </trkpt>
      <trkpt lat="42.07963" lon="25.39297">
        <ele>205.977586</ele>
        <time>2022-03-02T11:01:35.921Z</time>
      </trkpt>
      <trkpt lat="42.0796" lon="25.39285">
        <ele>205.647553</ele>
        <time>2022-03-02T11:01:38.917Z</time>
      </trkpt>
      <trkpt lat="42.07956" lon="25.39273">
        <ele>205.287764</ele>
        <time>2022-03-02T11:01:42.910Z</time>
      </trkpt>
      <trkpt lat="42.07951" lon="25.39259">
        <ele>204.909549</ele>
        <time>2022-03-02T11:01:46.922Z</time>
      </trkpt>
      <trkpt lat="42.07946" lon="25.39249">
        <ele>204.586351</ele>
        <time>2022-03-02T11:01:49.906Z</time>
      </trkpt>
      <trkpt lat="42.07942" lon="25.39237">
        <ele>204.241288</ele>
        <time>2022-03-02T11:01:53.900Z</time>
      </trkpt>
      <trkpt lat="42.07936" lon="25.39226">
        <ele>203.884551</ele>
        <time>2022-03-02T11:01:57.926Z</time>
      </trkpt>
      <trkpt lat="42.0793" lon="25.39213">
        <ele>203.475632</ele>
        <time>2022-03-02T11:02:01.929Z</time>
      </trkpt>
      <trkpt lat="42.07924" lon="25.39201">
        <ele>203.09359</ele>
        <time>2022-03-02T11:02:06.913Z</time>
      </trkpt>
      <trkpt lat="42.07918" lon="25.3919">
        <ele>202.750181</ele>
        <time>2022-03-02T11:02:10.903Z</time>
      </trkpt>
      <trkpt lat="42.07923" lon="25.39204">
        <ele>202.367579</ele>
        <time>2022-03-02T11:02:26.953Z</time>
      </trkpt>
      <trkpt lat="42.07927" lon="25.39218">
        <ele>201.970325</ele>
        <time>2022-03-02T11:02:31.922Z</time>
      </trkpt>
      <trkpt lat="42.0793" lon="25.39231">
        <ele>201.604868</ele>
        <time>2022-03-02T11:02:35.935Z</time>
      </trkpt>
      <trkpt lat="42.07936" lon="25.39243">
        <ele>201.220625</ele>
        <time>2022-03-02T11:02:39.932Z</time>
      </trkpt>
      <trkpt lat="42.07942" lon="25.39255">
        <ele>200.834177</ele>
        <time>2022-03-02T11:02:43.940Z</time>
      </trkpt>
      <trkpt lat="42.07948" lon="25.39268">
        <ele>200.451909</ele>
        <time>2022-03-02T11:02:47.953Z</time>
      </trkpt>
      <trkpt lat="42.07953" lon="25.39281">
        <ele>200.090803</ele>
        <time>2022-03-02T11:02:51.922Z</time>
      </trkpt>
      <trkpt lat="42.0796" lon="25.39292">
        <ele>199.745492</ele>
        <time>2022-03-02T11:02:55.912Z</time>
      </trkpt>
      <trkpt lat="42.07966" lon="25.39302">
        <ele>199.459571</ele>
        <time>2022-03-02T11:02:58.922Z</time>
      </trkpt>
      <trkpt lat="42.07972" lon="25.39316">
        <ele>199.084981</ele>
        <time>2022-03-02T11:03:02.924Z</time>
      </trkpt>
      <trkpt lat="42.07976" lon="25.39327">
        <ele>198.784118</ele>
        <time>2022-03-02T11:03:05.924Z</time>
      </trkpt>
      <trkpt lat="42.0798" lon="25.3934">
        <ele>198.476292</ele>
        <time>2022-03-02T11:03:09.014Z</time>
      </trkpt>
      <trkpt lat="42.07988" lon="25.39351">
        <ele>198.113943</ele>
        <time>2022-03-02T11:03:12.930Z</time>
      </trkpt>
      <trkpt lat="42.08" lon="25.39352">
        <ele>197.728232</ele>
        <time>2022-03-02T11:03:15.910Z</time>
      </trkpt>
      <trkpt lat="42.08011" lon="25.39344">
        <ele>197.326984</ele>
        <time>2022-03-02T11:03:18.934Z</time>
      </trkpt>
      <trkpt lat="42.08022" lon="25.39333">
        <ele>196.920973</ele>
        <time>2022-03-02T11:03:21.930Z</time>
      </trkpt>
      <trkpt lat="42.08032" lon="25.39324">
        <ele>196.529953</ele>
        <time>2022-03-02T11:03:24.925Z</time>
      </trkpt>
      <trkpt lat="42.08041" lon="25.39318">
        <ele>196.205757</ele>
        <time>2022-03-02T11:03:26.916Z</time>
      </trkpt>
      <trkpt lat="42.08052" lon="25.39309">
        <ele>195.826345</ele>
        <time>2022-03-02T11:03:28.929Z</time>
      </trkpt>
      <trkpt lat="42.08063" lon="25.39299">
        <ele>195.403553</ele>
        <time>2022-03-02T11:03:30.911Z</time>
      </trkpt>
      <trkpt lat="42.08072" lon="25.39284">
        <ele>194.955088</ele>
        <time>2022-03-02T11:03:32.959Z</time>
      </trkpt>
      <trkpt lat="42.08081" lon="25.39268">
        <ele>194.670505</ele>
        <time>2022-03-02T11:03:34.924Z</time>
      </trkpt>
      <trkpt lat="42.08089" lon="25.39251">
        <ele>194.697847</ele>
        <time>2022-03-02T11:03:36.902Z</time>
      </trkpt>
      <trkpt lat="42.08099" lon="25.39233">
        <ele>194.726672</ele>
        <time>2022-03-02T11:03:38.920Z</time>
      </trkpt>
      <trkpt lat="42.08106" lon="25.39214">
        <ele>194.755048</ele>
        <time>2022-03-02T11:03:40.905Z</time>
      </trkpt>
      <trkpt lat="42.0811" lon="25.39195">
        <ele>194.782144</ele>
        <time>2022-03-02T11:03:42.908Z</time>
      </trkpt>
      <trkpt lat="42.08114" lon="25.39177">
        <ele>194.806901</ele>
        <time>2022-03-02T11:03:44.924Z</time>
      </trkpt>
      <trkpt lat="42.08119" lon="25.39162">
        <ele>194.829079</ele>
        <time>2022-03-02T11:03:46.901Z</time>
      </trkpt>
      <trkpt lat="42.08124" lon="25.3915">
        <ele>194.847064</ele>
        <time>2022-03-02T11:03:48.927Z</time>
      </trkpt>
      <trkpt lat="42.0813" lon="25.39138">
        <ele>194.866034</ele>
        <time>2022-03-02T11:03:51.894Z</time>
      </trkpt>
      <trkpt lat="42.08136" lon="25.39125">
        <ele>194.886568</ele>
        <time>2022-03-02T11:03:55.914Z</time>
      </trkpt>
      <trkpt lat="42.08142" lon="25.39115">
        <ele>194.903286</ele>
        <time>2022-03-02T11:03:59.908Z</time>
      </trkpt>
      <trkpt lat="42.08147" lon="25.39102">
        <ele>194.923313</ele>
        <time>2022-03-02T11:04:04.946Z</time>
      </trkpt>
      <trkpt lat="42.08153" lon="25.39091">
        <ele>194.941338</ele>
        <time>2022-03-02T11:04:09.912Z</time>
      </trkpt>
      <trkpt lat="42.08157" lon="25.39079">
        <ele>194.959118</ele>
        <time>2022-03-02T11:04:14.917Z</time>
      </trkpt>
      <trkpt lat="42.08162" lon="25.39068">
        <ele>194.975786</ele>
        <time>2022-03-02T11:04:19.955Z</time>
      </trkpt>
      <trkpt lat="42.08167" lon="25.39056">
        <ele>195.130208</ele>
        <time>2022-03-02T11:04:25.906Z</time>
      </trkpt>
      <trkpt lat="42.08172" lon="25.39045">
        <ele>195.383974</ele>
        <time>2022-03-02T11:04:31.949Z</time>
      </trkpt>
      <trkpt lat="42.08176" lon="25.39033">
        <ele>195.628103</ele>
        <time>2022-03-02T11:04:37.918Z</time>
      </trkpt>
      <trkpt lat="42.08181" lon="25.39023">
        <ele>195.863248</ele>
        <time>2022-03-02T11:04:42.900Z</time>
      </trkpt>
      <trkpt lat="42.08185" lon="25.39011">
        <ele>196.106749</ele>
        <time>2022-03-02T11:04:47.889Z</time>
      </trkpt>
      <trkpt lat="42.0819" lon="25.39001">
        <ele>196.339795</ele>
        <time>2022-03-02T11:04:52.887Z</time>
      </trkpt>
      <trkpt lat="42.08195" lon="25.38991">
        <ele>196.580579</ele>
        <time>2022-03-02T11:04:57.892Z</time>
      </trkpt>
      <trkpt lat="42.08202" lon="25.38979">
        <ele>196.854955</ele>
        <time>2022-03-02T11:05:02.885Z</time>
      </trkpt>
      <trkpt lat="42.08207" lon="25.38968">
        <ele>197.111362</ele>
        <time>2022-03-02T11:05:07.890Z</time>
      </trkpt>
      <trkpt lat="42.08212" lon="25.38958">
        <ele>197.345972</ele>
        <time>2022-03-02T11:05:11.898Z</time>
      </trkpt>
      <trkpt lat="42.08217" lon="25.38945">
        <ele>197.618728</ele>
        <time>2022-03-02T11:05:15.917Z</time>
      </trkpt>
      <trkpt lat="42.08221" lon="25.3893">
        <ele>197.929293</ele>
        <time>2022-03-02T11:05:19.896Z</time>
      </trkpt>
      <trkpt lat="42.08225" lon="25.38916">
        <ele>198.220101</ele>
        <time>2022-03-02T11:05:22.897Z</time>
      </trkpt>
      <trkpt lat="42.0823" lon="25.389">
        <ele>198.542257</ele>
        <time>2022-03-02T11:05:25.890Z</time>
      </trkpt>
      <trkpt lat="42.08234" lon="25.38883">
        <ele>198.877827</ele>
        <time>2022-03-02T11:05:28.894Z</time>
      </trkpt>
      <trkpt lat="42.08238" lon="25.38871">
        <ele>199.129367</ele>
        <time>2022-03-02T11:05:30.905Z</time>
      </trkpt>
      <trkpt lat="42.08242" lon="25.38858">
        <ele>199.405859</ele>
        <time>2022-03-02T11:05:32.896Z</time>
      </trkpt>
      <trkpt lat="42.08245" lon="25.38843">
        <ele>199.583156</ele>
        <time>2022-03-02T11:05:34.899Z</time>
      </trkpt>
      <trkpt lat="42.08249" lon="25.3883">
        <ele>199.4987</ele>
        <time>2022-03-02T11:05:36.904Z</time>
      </trkpt>
      <trkpt lat="42.08254" lon="25.38817">
        <ele>199.413636</ele>
        <time>2022-03-02T11:05:38.893Z</time>
      </trkpt>
      <trkpt lat="42.08258" lon="25.38805">
        <ele>199.337326</ele>
        <time>2022-03-02T11:05:40.900Z</time>
      </trkpt>
      <trkpt lat="42.08263" lon="25.38794">
        <ele>199.259286</ele>
        <time>2022-03-02T11:05:42.898Z</time>
      </trkpt>
      <trkpt lat="42.08268" lon="25.38782">
        <ele>199.182771</ele>
        <time>2022-03-02T11:05:44.893Z</time>
      </trkpt>
      <trkpt lat="42.08273" lon="25.38768">
        <ele>199.086769</ele>
        <time>2022-03-02T11:05:47.892Z</time>
      </trkpt>
      <trkpt lat="42.08277" lon="25.38755">
        <ele>199.005378</ele>
        <time>2022-03-02T11:05:50.895Z</time>
      </trkpt>
      <trkpt lat="42.08281" lon="25.38743">
        <ele>198.926119</ele>
        <time>2022-03-02T11:05:53.897Z</time>
      </trkpt>
      <trkpt lat="42.08285" lon="25.38731">
        <ele>198.850636</ele>
        <time>2022-03-02T11:05:56.907Z</time>
      </trkpt>
      <trkpt lat="42.08288" lon="25.38719">
        <ele>198.776097</ele>
        <time>2022-03-02T11:05:59.891Z</time>
      </trkpt>
      <trkpt lat="42.08294" lon="25.38705">
        <ele>198.681672</ele>
        <time>2022-03-02T11:06:03.890Z</time>
      </trkpt>
      <trkpt lat="42.08298" lon="25.38694">
        <ele>198.609393</ele>
        <time>2022-03-02T11:06:06.901Z</time>
      </trkpt>
      <trkpt lat="42.08302" lon="25.38683">
        <ele>198.534293</ele>
        <time>2022-03-02T11:06:09.892Z</time>
      </trkpt>
      <trkpt lat="42.08306" lon="25.38671">
        <ele>198.459671</ele>
        <time>2022-03-02T11:06:12.886Z</time>
      </trkpt>
      <trkpt lat="42.08311" lon="25.38657">
        <ele>198.369471</ele>
        <time>2022-03-02T11:06:16.892Z</time>
      </trkpt>
      <trkpt lat="42.08314" lon="25.38646">
        <ele>198.297991</ele>
        <time>2022-03-02T11:06:19.892Z</time>
      </trkpt>
      <trkpt lat="42.08317" lon="25.38633">
        <ele>198.221236</ele>
        <time>2022-03-02T11:06:22.896Z</time>
      </trkpt>
      <trkpt lat="42.0832" lon="25.38621">
        <ele>198.002708</ele>
        <time>2022-03-02T11:06:25.889Z</time>
      </trkpt>
      <trkpt lat="42.08324" lon="25.38608">
        <ele>197.618669</ele>
        <time>2022-03-02T11:06:28.887Z</time>
      </trkpt>
      <trkpt lat="42.08327" lon="25.38596">
        <ele>197.24519</ele>
        <time>2022-03-02T11:06:31.893Z</time>
      </trkpt>
      <trkpt lat="42.08331" lon="25.38583">
        <ele>196.867716</ele>
        <time>2022-03-02T11:06:34.897Z</time>
      </trkpt>
      <trkpt lat="42.08335" lon="25.3857">
        <ele>196.479355</ele>
        <time>2022-03-02T11:06:37.891Z</time>
      </trkpt>
      <trkpt lat="42.08339" lon="25.38557">
        <ele>196.086291</ele>
        <time>2022-03-02T11:06:40.897Z</time>
      </trkpt>
      <trkpt lat="42.08342" lon="25.38545">
        <ele>195.715311</ele>
        <time>2022-03-02T11:06:43.891Z</time>
      </trkpt>
      <trkpt lat="42.08345" lon="25.38532">
        <ele>195.341834</ele>
        <time>2022-03-02T11:06:46.892Z</time>
      </trkpt>
      <trkpt lat="42.08349" lon="25.38518">
        <ele>194.940185</ele>
        <time>2022-03-02T11:06:49.915Z</time>
      </trkpt>
      <trkpt lat="42.08352" lon="25.38505">
        <ele>194.539293</ele>
        <time>2022-03-02T11:06:52.897Z</time>
      </trkpt>
      <trkpt lat="42.08356" lon="25.3849">
        <ele>194.112278</ele>
        <time>2022-03-02T11:06:55.903Z</time>
      </trkpt>
      <trkpt lat="42.0836" lon="25.38476">
        <ele>193.69041</ele>
        <time>2022-03-02T11:06:58.902Z</time>
      </trkpt>
      <trkpt lat="42.08364" lon="25.38461">
        <ele>193.245067</ele>
        <time>2022-03-02T11:07:01.891Z</time>
      </trkpt>
      <trkpt lat="42.08369" lon="25.38444">
        <ele>192.747411</ele>
        <time>2022-03-02T11:07:04.889Z</time>
      </trkpt>
      <trkpt lat="42.08374" lon="25.38432">
        <ele>192.370392</ele>
        <time>2022-03-02T11:07:06.895Z</time>
      </trkpt>
      <trkpt lat="42.0838" lon="25.38419">
        <ele>191.935229</ele>
        <time>2022-03-02T11:07:08.895Z</time>
      </trkpt>
      <trkpt lat="42.08388" lon="25.38405">
        <ele>191.436363</ele>
        <time>2022-03-02T11:07:10.897Z</time>
      </trkpt>
      <trkpt lat="42.08396" lon="25.38388">
        <ele>190.744943</ele>
        <time>2022-03-02T11:07:12.940Z</time>
      </trkpt>
      <trkpt lat="42.08406" lon="25.38372">
        <ele>190.030349</ele>
        <time>2022-03-02T11:07:14.890Z</time>
      </trkpt>
      <trkpt lat="42.08416" lon="25.38355">
        <ele>189.276949</ele>
        <time>2022-03-02T11:07:16.892Z</time>
      </trkpt>
      <trkpt lat="42.08426" lon="25.38336">
        <ele>188.48511</ele>
        <time>2022-03-02T11:07:18.899Z</time>
      </trkpt>
      <trkpt lat="42.08436" lon="25.38317">
        <ele>187.662874</ele>
        <time>2022-03-02T11:07:20.896Z</time>
      </trkpt>
      <trkpt lat="42.08442" lon="25.38307">
        <ele>187.246197</ele>
        <time>2022-03-02T11:07:21.893Z</time>
      </trkpt>
      <trkpt lat="42.08452" lon="25.38288">
        <ele>186.432207</ele>
        <time>2022-03-02T11:07:23.888Z</time>
      </trkpt>
      <trkpt lat="42.08463" lon="25.3827">
        <ele>185.632029</ele>
        <time>2022-03-02T11:07:25.917Z</time>
      </trkpt>
      <trkpt lat="42.08473" lon="25.38252">
        <ele>184.859254</ele>
        <time>2022-03-02T11:07:27.889Z</time>
      </trkpt>
      <trkpt lat="42.08483" lon="25.38235">
        <ele>184.13088</ele>
        <time>2022-03-02T11:07:29.888Z</time>
      </trkpt>
      <trkpt lat="42.08492" lon="25.38219">
        <ele>183.426887</ele>
        <time>2022-03-02T11:07:31.887Z</time>
      </trkpt>
      <trkpt lat="42.08503" lon="25.38204">
        <ele>182.756356</ele>
        <time>2022-03-02T11:07:33.886Z</time>
      </trkpt>
      <trkpt lat="42.08515" lon="25.3819">
        <ele>182.108932</ele>
        <time>2022-03-02T11:07:35.892Z</time>
      </trkpt>
      <trkpt lat="42.08529" lon="25.3818">
        <ele>181.437229</ele>
        <time>2022-03-02T11:07:37.886Z</time>
      </trkpt>
      <trkpt lat="42.08544" lon="25.3817">
        <ele>180.739543</ele>
        <time>2022-03-02T11:07:39.917Z</time>
      </trkpt>
      <trkpt lat="42.08559" lon="25.38161">
        <ele>180.045616</ele>
        <time>2022-03-02T11:07:41.891Z</time>
      </trkpt>
      <trkpt lat="42.08574" lon="25.38151">
        <ele>179.356228</ele>
        <time>2022-03-02T11:07:43.885Z</time>
      </trkpt>
      <trkpt lat="42.08589" lon="25.3814">
        <ele>178.656683</ele>
        <time>2022-03-02T11:07:45.915Z</time>
      </trkpt>
      <trkpt lat="42.08604" lon="25.3813">
        <ele>177.950671</ele>
        <time>2022-03-02T11:07:47.888Z</time>
      </trkpt>
      <trkpt lat="42.0862" lon="25.3812">
        <ele>177.243712</ele>
        <time>2022-03-02T11:07:49.890Z</time>
      </trkpt>
      <trkpt lat="42.08635" lon="25.38109">
        <ele>176.522444</ele>
        <time>2022-03-02T11:07:51.891Z</time>
      </trkpt>
      <trkpt lat="42.08651" lon="25.38098">
        <ele>175.783835</ele>
        <time>2022-03-02T11:07:53.890Z</time>
      </trkpt>
      <trkpt lat="42.08659" lon="25.38091">
        <ele>175.309751</ele>
        <time>2022-03-02T11:07:54.898Z</time>
      </trkpt>
      <trkpt lat="42.08667" lon="25.38084">
        <ele>174.776264</ele>
        <time>2022-03-02T11:07:55.886Z</time>
      </trkpt>
      <trkpt lat="42.08675" lon="25.38077">
        <ele>174.2174</ele>
        <time>2022-03-02T11:07:56.914Z</time>
      </trkpt>
      <trkpt lat="42.08684" lon="25.38068">
        <ele>173.644231</ele>
        <time>2022-03-02T11:07:57.894Z</time>
      </trkpt>
      <trkpt lat="42.08692" lon="25.3806">
        <ele>173.052691</ele>
        <time>2022-03-02T11:07:58.906Z</time>
      </trkpt>
      <trkpt lat="42.08701" lon="25.38051">
        <ele>172.442766</ele>
        <time>2022-03-02T11:07:59.900Z</time>
      </trkpt>
      <trkpt lat="42.0871" lon="25.38042">
        <ele>171.814117</ele>
        <time>2022-03-02T11:08:00.898Z</time>
      </trkpt>
      <trkpt lat="42.08719" lon="25.38033">
        <ele>171.189416</ele>
        <time>2022-03-02T11:08:01.891Z</time>
      </trkpt>
      <trkpt lat="42.08728" lon="25.38024">
        <ele>170.564023</ele>
        <time>2022-03-02T11:08:02.892Z</time>
      </trkpt>
      <trkpt lat="42.08737" lon="25.38014">
        <ele>169.935155</ele>
        <time>2022-03-02T11:08:03.891Z</time>
      </trkpt>
      <trkpt lat="42.08745" lon="25.38004">
        <ele>169.314905</ele>
        <time>2022-03-02T11:08:04.900Z</time>
      </trkpt>
      <trkpt lat="42.08752" lon="25.37993">
        <ele>168.707387</ele>
        <time>2022-03-02T11:08:05.887Z</time>
      </trkpt>
      <trkpt lat="42.08759" lon="25.37981">
        <ele>168.103127</ele>
        <time>2022-03-02T11:08:06.893Z</time>
      </trkpt>
      <trkpt lat="42.08765" lon="25.37969">
        <ele>167.498234</ele>
        <time>2022-03-02T11:08:07.919Z</time>
      </trkpt>
      <trkpt lat="42.0877" lon="25.37956">
        <ele>166.888829</ele>
        <time>2022-03-02T11:08:08.903Z</time>
      </trkpt>
      <trkpt lat="42.08775" lon="25.37943">
        <ele>166.284741</ele>
        <time>2022-03-02T11:08:09.888Z</time>
      </trkpt>
      <trkpt lat="42.0878" lon="25.37931">
        <ele>165.683252</ele>
        <time>2022-03-02T11:08:10.897Z</time>
      </trkpt>
      <trkpt lat="42.08785" lon="25.37917">
        <ele>165.147841</ele>
        <time>2022-03-02T11:08:11.899Z</time>
      </trkpt>
      <trkpt lat="42.0879" lon="25.37904">
        <ele>164.610337</ele>
        <time>2022-03-02T11:08:12.908Z</time>
      </trkpt>
      <trkpt lat="42.08795" lon="25.37891">
        <ele>164.079231</ele>
        <time>2022-03-02T11:08:13.892Z</time>
      </trkpt>
      <trkpt lat="42.08801" lon="25.37878">
        <ele>163.546669</ele>
        <time>2022-03-02T11:08:14.904Z</time>
      </trkpt>
      <trkpt lat="42.08806" lon="25.37865">
        <ele>163.007777</ele>
        <time>2022-03-02T11:08:15.897Z</time>
      </trkpt>
      <trkpt lat="42.08811" lon="25.37852">
        <ele>162.452331</ele>
        <time>2022-03-02T11:08:16.899Z</time>
      </trkpt>
      <trkpt lat="42.08817" lon="25.37838">
        <ele>161.903901</ele>
        <time>2022-03-02T11:08:17.898Z</time>
      </trkpt>
      <trkpt lat="42.08822" lon="25.37825">
        <ele>161.359503</ele>
        <time>2022-03-02T11:08:18.915Z</time>
      </trkpt>
      <trkpt lat="42.08827" lon="25.37812">
        <ele>160.829284</ele>
        <time>2022-03-02T11:08:19.894Z</time>
      </trkpt>
      <trkpt lat="42.08832" lon="25.378">
        <ele>160.304555</ele>
        <time>2022-03-02T11:08:20.895Z</time>
      </trkpt>
      <trkpt lat="42.08837" lon="25.37787">
        <ele>159.793966</ele>
        <time>2022-03-02T11:08:21.893Z</time>
      </trkpt>
      <trkpt lat="42.08842" lon="25.37775">
        <ele>159.286568</ele>
        <time>2022-03-02T11:08:22.892Z</time>
      </trkpt>
      <trkpt lat="42.08847" lon="25.37763">
        <ele>158.791876</ele>
        <time>2022-03-02T11:08:23.894Z</time>
      </trkpt>
      <trkpt lat="42.08852" lon="25.37751">
        <ele>158.301792</ele>
        <time>2022-03-02T11:08:24.913Z</time>
      </trkpt>
      <trkpt lat="42.08857" lon="25.3774">
        <ele>157.821562</ele>
        <time>2022-03-02T11:08:25.888Z</time>
      </trkpt>
      <trkpt lat="42.08863" lon="25.37729">
        <ele>157.35161</ele>
        <time>2022-03-02T11:08:26.897Z</time>
      </trkpt>
      <trkpt lat="42.08869" lon="25.37719">
        <ele>156.88514</ele>
        <time>2022-03-02T11:08:27.904Z</time>
      </trkpt>
      <trkpt lat="42.08875" lon="25.37709">
        <ele>156.766092</ele>
        <time>2022-03-02T11:08:28.896Z</time>
      </trkpt>
      <trkpt lat="42.0888" lon="25.377">
        <ele>156.649891</ele>
        <time>2022-03-02T11:08:29.890Z</time>
      </trkpt>
      <trkpt lat="42.08892" lon="25.37682">
        <ele>156.427424</ele>
        <time>2022-03-02T11:08:31.896Z</time>
      </trkpt>
      <trkpt lat="42.08903" lon="25.37665">
        <ele>156.210682</ele>
        <time>2022-03-02T11:08:33.888Z</time>
      </trkpt>
      <trkpt lat="42.08915" lon="25.37649">
        <ele>155.998924</ele>
        <time>2022-03-02T11:08:35.924Z</time>
      </trkpt>
      <trkpt lat="42.08926" lon="25.37635">
        <ele>155.801328</ele>
        <time>2022-03-02T11:08:37.899Z</time>
      </trkpt>
      <trkpt lat="42.08937" lon="25.3762">
        <ele>155.609372</ele>
        <time>2022-03-02T11:08:39.894Z</time>
      </trkpt>
      <trkpt lat="42.08948" lon="25.37608">
        <ele>155.421784</ele>
        <time>2022-03-02T11:08:41.886Z</time>
      </trkpt>
      <trkpt lat="42.08959" lon="25.37595">
        <ele>155.238611</ele>
        <time>2022-03-02T11:08:43.902Z</time>
      </trkpt>
      <trkpt lat="42.0897" lon="25.37585">
        <ele>155.064</ele>
        <time>2022-03-02T11:08:45.889Z</time>
      </trkpt>
      <trkpt lat="42.08981" lon="25.37576">
        <ele>154.901077</ele>
        <time>2022-03-02T11:08:47.893Z</time>
      </trkpt>
      <trkpt lat="42.08992" lon="25.37569">
        <ele>154.747159</ele>
        <time>2022-03-02T11:08:49.897Z</time>
      </trkpt>
      <trkpt lat="42.09002" lon="25.37562">
        <ele>154.601232</ele>
        <time>2022-03-02T11:08:51.887Z</time>
      </trkpt>
      <trkpt lat="42.09012" lon="25.37556">
        <ele>154.608459</ele>
        <time>2022-03-02T11:08:53.905Z</time>
      </trkpt>
      <trkpt lat="42.09021" lon="25.3755">
        <ele>154.635112</ele>
        <time>2022-03-02T11:08:55.895Z</time>
      </trkpt>
      <trkpt lat="42.0903" lon="25.37545">
        <ele>154.660879</ele>
        <time>2022-03-02T11:08:57.930Z</time>
      </trkpt>
      <trkpt lat="42.09041" lon="25.37537">
        <ele>154.695204</ele>
        <time>2022-03-02T11:09:00.889Z</time>
      </trkpt>
      <trkpt lat="42.09052" lon="25.37529">
        <ele>154.726017</ele>
        <time>2022-03-02T11:09:03.890Z</time>
      </trkpt>
      <trkpt lat="42.09061" lon="25.37522">
        <ele>154.755041</ele>
        <time>2022-03-02T11:09:06.899Z</time>
      </trkpt>
      <trkpt lat="42.09071" lon="25.37516">
        <ele>154.783313</ele>
        <time>2022-03-02T11:09:09.900Z</time>
      </trkpt>
      <trkpt lat="42.0908" lon="25.3751">
        <ele>154.811497</ele>
        <time>2022-03-02T11:09:12.895Z</time>
      </trkpt>
      <trkpt lat="42.0909" lon="25.37504">
        <ele>154.840238</ele>
        <time>2022-03-02T11:09:15.890Z</time>
      </trkpt>
      <trkpt lat="42.09101" lon="25.37497">
        <ele>154.870844</ele>
        <time>2022-03-02T11:09:18.901Z</time>
      </trkpt>
      <trkpt lat="42.09111" lon="25.3749">
        <ele>154.901713</ele>
        <time>2022-03-02T11:09:21.900Z</time>
      </trkpt>
      <trkpt lat="42.09122" lon="25.37483">
        <ele>154.932557</ele>
        <time>2022-03-02T11:09:24.927Z</time>
      </trkpt>
      <trkpt lat="42.09132" lon="25.37477">
        <ele>154.962184</ele>
        <time>2022-03-02T11:09:27.888Z</time>
      </trkpt>
      <trkpt lat="42.09142" lon="25.3747">
        <ele>154.993101</ele>
        <time>2022-03-02T11:09:30.900Z</time>
      </trkpt>
      <trkpt lat="42.09154" lon="25.37464">
        <ele>155.027492</ele>
        <time>2022-03-02T11:09:33.893Z</time>
      </trkpt>
      <trkpt lat="42.09163" lon="25.37459">
        <ele>155.051564</ele>
        <time>2022-03-02T11:09:35.888Z</time>
      </trkpt>
      <trkpt lat="42.09175" lon="25.37452">
        <ele>155.419726</ele>
        <time>2022-03-02T11:09:38.894Z</time>
      </trkpt>
      <trkpt lat="42.09187" lon="25.37446">
        <ele>155.887595</ele>
        <time>2022-03-02T11:09:41.897Z</time>
      </trkpt>
      <trkpt lat="42.09196" lon="25.37443">
        <ele>156.219195</ele>
        <time>2022-03-02T11:09:43.889Z</time>
      </trkpt>
      <trkpt lat="42.09206" lon="25.37441">
        <ele>156.574011</ele>
        <time>2022-03-02T11:09:45.892Z</time>
      </trkpt>
      <trkpt lat="42.09216" lon="25.37441">
        <ele>156.915078</ele>
        <time>2022-03-02T11:09:47.898Z</time>
      </trkpt>
      <trkpt lat="42.09226" lon="25.37442">
        <ele>157.263405</ele>
        <time>2022-03-02T11:09:49.894Z</time>
      </trkpt>
      <trkpt lat="42.09239" lon="25.37441">
        <ele>157.725413</ele>
        <time>2022-03-02T11:09:52.900Z</time>
      </trkpt>
      <trkpt lat="42.09251" lon="25.37437">
        <ele>158.167305</ele>
        <time>2022-03-02T11:09:55.888Z</time>
      </trkpt>
      <trkpt lat="42.09261" lon="25.37428">
        <ele>158.594489</ele>
        <time>2022-03-02T11:09:58.906Z</time>
      </trkpt>
      <trkpt lat="42.09269" lon="25.37417">
        <ele>159.003185</ele>
        <time>2022-03-02T11:10:01.893Z</time>
      </trkpt>
      <trkpt lat="42.09275" lon="25.37404">
        <ele>159.405483</ele>
        <time>2022-03-02T11:10:05.892Z</time>
      </trkpt>
      <trkpt lat="42.0928" lon="25.37392">
        <ele>159.775125</ele>
        <time>2022-03-02T11:10:09.897Z</time>
      </trkpt>
      <trkpt lat="42.09285" lon="25.3738">
        <ele>160.154071</ele>
        <time>2022-03-02T11:10:13.893Z</time>
      </trkpt>
      <trkpt lat="42.09289" lon="25.37368">
        <ele>160.481674</ele>
        <time>2022-03-02T11:10:16.901Z</time>
      </trkpt>
      <trkpt lat="42.09294" lon="25.37356">
        <ele>160.84814</ele>
        <time>2022-03-02T11:10:19.895Z</time>
      </trkpt>
      <trkpt lat="42.09299" lon="25.37344">
        <ele>161.211682</ele>
        <time>2022-03-02T11:10:22.890Z</time>
      </trkpt>
      <trkpt lat="42.09303" lon="25.37333">
        <ele>161.544647</ele>
        <time>2022-03-02T11:10:25.922Z</time>
      </trkpt>
      <trkpt lat="42.09307" lon="25.37322">
        <ele>161.920063</ele>
        <time>2022-03-02T11:10:28.892Z</time>
      </trkpt>
      <trkpt lat="42.09312" lon="25.37311">
        <ele>162.287988</ele>
        <time>2022-03-02T11:10:31.891Z</time>
      </trkpt>
      <trkpt lat="42.09317" lon="25.37298">
        <ele>162.741648</ele>
        <time>2022-03-02T11:10:35.891Z</time>
      </trkpt>
      <trkpt lat="42.09323" lon="25.37284">
        <ele>163.201731</ele>
        <time>2022-03-02T11:10:39.889Z</time>
      </trkpt>
      <trkpt lat="42.09328" lon="25.3727">
        <ele>163.663305</ele>
        <time>2022-03-02T11:10:43.897Z</time>
      </trkpt>
      <trkpt lat="42.09334" lon="25.37258">
        <ele>164.103362</ele>
        <time>2022-03-02T11:10:47.917Z</time>
      </trkpt>
      <trkpt lat="42.0934" lon="25.37245">
        <ele>164.545299</ele>
        <time>2022-03-02T11:10:51.887Z</time>
      </trkpt>
      <trkpt lat="42.09344" lon="25.37235">
        <ele>164.909107</ele>
        <time>2022-03-02T11:10:54.893Z</time>
      </trkpt>
      <trkpt lat="42.09349" lon="25.37223">
        <ele>165.294281</ele>
        <time>2022-03-02T11:10:57.896Z</time>
      </trkpt>
      <trkpt lat="42.09352" lon="25.37211">
        <ele>165.683028</ele>
        <time>2022-03-02T11:11:00.888Z</time>
      </trkpt>
      <trkpt lat="42.09356" lon="25.372">
        <ele>166.045589</ele>
        <time>2022-03-02T11:11:03.893Z</time>
      </trkpt>
      <trkpt lat="42.09361" lon="25.37189">
        <ele>166.408716</ele>
        <time>2022-03-02T11:11:06.898Z</time>
      </trkpt>
      <trkpt lat="42.09366" lon="25.37178">
        <ele>166.792369</ele>
        <time>2022-03-02T11:11:09.892Z</time>
      </trkpt>
      <trkpt lat="42.09371" lon="25.37165">
        <ele>167.240106</ele>
        <time>2022-03-02T11:11:13.898Z</time>
      </trkpt>
      <trkpt lat="42.09376" lon="25.37154">
        <ele>167.626294</ele>
        <time>2022-03-02T11:11:16.893Z</time>
      </trkpt>
      <trkpt lat="42.09381" lon="25.37141">
        <ele>168.046224</ele>
        <time>2022-03-02T11:11:19.888Z</time>
      </trkpt>
      <trkpt lat="42.09386" lon="25.3713">
        <ele>168.446734</ele>
        <time>2022-03-02T11:11:22.900Z</time>
      </trkpt>
      <trkpt lat="42.09391" lon="25.37118">
        <ele>168.577034</ele>
        <time>2022-03-02T11:11:25.890Z</time>
      </trkpt>
      <trkpt lat="42.09396" lon="25.37106">
        <ele>168.436663</ele>
        <time>2022-03-02T11:11:28.896Z</time>
      </trkpt>
      <trkpt lat="42.09402" lon="25.37095">
        <ele>168.295554</ele>
        <time>2022-03-02T11:11:31.891Z</time>
      </trkpt>
      <trkpt lat="42.09407" lon="25.37083">
        <ele>168.158926</ele>
        <time>2022-03-02T11:11:34.891Z</time>
      </trkpt>
      <trkpt lat="42.09412" lon="25.37072">
        <ele>168.023623</ele>
        <time>2022-03-02T11:11:37.913Z</time>
      </trkpt>
      <trkpt lat="42.09417" lon="25.3706">
        <ele>167.881804</ele>
        <time>2022-03-02T11:11:40.897Z</time>
      </trkpt>
      <trkpt lat="42.09421" lon="25.37047">
        <ele>167.744518</ele>
        <time>2022-03-02T11:11:43.887Z</time>
      </trkpt>
      <trkpt lat="42.09426" lon="25.37035">
        <ele>167.606694</ele>
        <time>2022-03-02T11:11:46.898Z</time>
      </trkpt>
      <trkpt lat="42.0943" lon="25.37024">
        <ele>167.471017</ele>
        <time>2022-03-02T11:11:49.902Z</time>
      </trkpt>
      <trkpt lat="42.09434" lon="25.37011">
        <ele>167.333494</ele>
        <time>2022-03-02T11:11:52.895Z</time>
      </trkpt>
      <trkpt lat="42.09438" lon="25.37">
        <ele>167.204451</ele>
        <time>2022-03-02T11:11:55.897Z</time>
      </trkpt>
      <trkpt lat="42.09443" lon="25.36986">
        <ele>167.046078</ele>
        <time>2022-03-02T11:11:59.913Z</time>
      </trkpt>
      <trkpt lat="42.09448" lon="25.36976">
        <ele>166.922244</ele>
        <time>2022-03-02T11:12:02.897Z</time>
      </trkpt>
      <trkpt lat="42.09451" lon="25.36965">
        <ele>166.797867</ele>
        <time>2022-03-02T11:12:05.927Z</time>
      </trkpt>
      <trkpt lat="42.09455" lon="25.36954">
        <ele>166.673824</ele>
        <time>2022-03-02T11:12:08.893Z</time>
      </trkpt>
      <trkpt lat="42.09459" lon="25.36943">
        <ele>166.547334</ele>
        <time>2022-03-02T11:12:11.889Z</time>
      </trkpt>
      <trkpt lat="42.09464" lon="25.36931">
        <ele>166.411047</ele>
        <time>2022-03-02T11:12:14.904Z</time>
      </trkpt>
      <trkpt lat="42.09469" lon="25.36918">
        <ele>166.265721</ele>
        <time>2022-03-02T11:12:17.887Z</time>
      </trkpt>
      <trkpt lat="42.09473" lon="25.36906">
        <ele>166.138918</ele>
        <time>2022-03-02T11:12:20.897Z</time>
      </trkpt>
      <trkpt lat="42.09476" lon="25.36892">
        <ele>166.041862</ele>
        <time>2022-03-02T11:12:23.891Z</time>
      </trkpt>
      <trkpt lat="42.0948" lon="25.36878">
        <ele>165.941594</ele>
        <time>2022-03-02T11:12:26.896Z</time>
      </trkpt>
      <trkpt lat="42.09484" lon="25.36864">
        <ele>165.841325</ele>
        <time>2022-03-02T11:12:29.888Z</time>
      </trkpt>
      <trkpt lat="42.09489" lon="25.36849">
        <ele>165.732081</ele>
        <time>2022-03-02T11:12:32.901Z</time>
      </trkpt>
      <trkpt lat="42.09493" lon="25.36832">
        <ele>165.6175</ele>
        <time>2022-03-02T11:12:35.895Z</time>
      </trkpt>
      <trkpt lat="42.09498" lon="25.36816">
        <ele>165.501942</ele>
        <time>2022-03-02T11:12:38.895Z</time>
      </trkpt>
      <trkpt lat="42.09502" lon="25.36805">
        <ele>165.421479</ele>
        <time>2022-03-02T11:12:40.894Z</time>
      </trkpt>
      <trkpt lat="42.09505" lon="25.36794">
        <ele>165.340132</ele>
        <time>2022-03-02T11:12:42.889Z</time>
      </trkpt>
      <trkpt lat="42.0951" lon="25.36777">
        <ele>165.222739</ele>
        <time>2022-03-02T11:12:45.892Z</time>
      </trkpt>
      <trkpt lat="42.09513" lon="25.36766">
        <ele>165.142878</ele>
        <time>2022-03-02T11:12:47.903Z</time>
      </trkpt>
      <trkpt lat="42.09517" lon="25.36753">
        <ele>165.055657</ele>
        <time>2022-03-02T11:12:49.893Z</time>
      </trkpt>
      <trkpt lat="42.0952" lon="25.36742">
        <ele>164.971796</ele>
        <time>2022-03-02T11:12:51.896Z</time>
      </trkpt>
      <trkpt lat="42.09524" lon="25.36731">
        <ele>164.890983</ele>
        <time>2022-03-02T11:12:53.895Z</time>
      </trkpt>
      <trkpt lat="42.09527" lon="25.36719">
        <ele>164.808953</ele>
        <time>2022-03-02T11:12:55.900Z</time>
      </trkpt>
      <trkpt lat="42.09531" lon="25.36707">
        <ele>164.723287</ele>
        <time>2022-03-02T11:12:57.897Z</time>
      </trkpt>
      <trkpt lat="42.09533" lon="25.36695">
        <ele>164.639721</ele>
        <time>2022-03-02T11:12:59.895Z</time>
      </trkpt>
      <trkpt lat="42.09536" lon="25.36683">
        <ele>164.558676</ele>
        <time>2022-03-02T11:13:01.889Z</time>
      </trkpt>
      <trkpt lat="42.0954" lon="25.36672">
        <ele>164.432463</ele>
        <time>2022-03-02T11:13:03.893Z</time>
      </trkpt>
      <trkpt lat="42.09542" lon="25.3666">
        <ele>164.308032</ele>
        <time>2022-03-02T11:13:05.896Z</time>
      </trkpt>
      <trkpt lat="42.09546" lon="25.36648">
        <ele>164.179069</ele>
        <time>2022-03-02T11:13:07.893Z</time>
      </trkpt>
      <trkpt lat="42.0955" lon="25.36635">
        <ele>164.042993</ele>
        <time>2022-03-02T11:13:09.902Z</time>
      </trkpt>
      <trkpt lat="42.09553" lon="25.36623">
        <ele>163.912619</ele>
        <time>2022-03-02T11:13:11.916Z</time>
      </trkpt>
      <trkpt lat="42.09557" lon="25.3661">
        <ele>163.778043</ele>
        <time>2022-03-02T11:13:13.894Z</time>
      </trkpt>
      <trkpt lat="42.09561" lon="25.36598">
        <ele>163.644188</ele>
        <time>2022-03-02T11:13:15.894Z</time>
      </trkpt>
      <trkpt lat="42.09565" lon="25.36586">
        <ele>163.510866</ele>
        <time>2022-03-02T11:13:17.895Z</time>
      </trkpt>
      <trkpt lat="42.09569" lon="25.36574">
        <ele>163.383931</ele>
        <time>2022-03-02T11:13:19.892Z</time>
      </trkpt>
      <trkpt lat="42.09573" lon="25.36558">
        <ele>163.211518</ele>
        <time>2022-03-02T11:13:22.900Z</time>
      </trkpt>
      <trkpt lat="42.09575" lon="25.36542">
        <ele>163.048043</ele>
        <time>2022-03-02T11:13:25.900Z</time>
      </trkpt>
      <trkpt lat="42.09577" lon="25.36529">
        <ele>162.924483</ele>
        <time>2022-03-02T11:13:27.897Z</time>
      </trkpt>
      <trkpt lat="42.09579" lon="25.36517">
        <ele>162.800757</ele>
        <time>2022-03-02T11:13:29.904Z</time>
      </trkpt>
      <trkpt lat="42.09581" lon="25.365">
        <ele>162.629424</ele>
        <time>2022-03-02T11:13:32.899Z</time>
      </trkpt>
      <trkpt lat="42.09583" lon="25.36484">
        <ele>162.46714</ele>
        <time>2022-03-02T11:13:35.889Z</time>
      </trkpt>
      <trkpt lat="42.09585" lon="25.36468">
        <ele>162.304063</ele>
        <time>2022-03-02T11:13:38.900Z</time>
      </trkpt>
      <trkpt lat="42.09588" lon="25.36452">
        <ele>162.134432</ele>
        <time>2022-03-02T11:13:41.902Z</time>
      </trkpt>
      <trkpt lat="42.09591" lon="25.36436">
        <ele>161.952646</ele>
        <time>2022-03-02T11:13:44.899Z</time>
      </trkpt>
      <trkpt lat="42.09591" lon="25.36419">
        <ele>161.762927</ele>
        <time>2022-03-02T11:13:47.888Z</time>
      </trkpt>
      <trkpt lat="42.09594" lon="25.36405">
        <ele>161.600502</ele>
        <time>2022-03-02T11:13:50.910Z</time>
      </trkpt>
      <trkpt lat="42.09595" lon="25.36393">
        <ele>161.456311</ele>
        <time>2022-03-02T11:13:53.898Z</time>
      </trkpt>
      <trkpt lat="42.09598" lon="25.3638">
        <ele>161.307008</ele>
        <time>2022-03-02T11:13:56.901Z</time>
      </trkpt>
      <trkpt lat="42.09599" lon="25.36365">
        <ele>161.141317</ele>
        <time>2022-03-02T11:13:59.915Z</time>
      </trkpt>
      <trkpt lat="42.09601" lon="25.36353">
        <ele>160.996582</ele>
        <time>2022-03-02T11:14:02.896Z</time>
      </trkpt>
      <trkpt lat="42.09602" lon="25.36338">
        <ele>160.833444</ele>
        <time>2022-03-02T11:14:05.891Z</time>
      </trkpt>
      <trkpt lat="42.09604" lon="25.36324">
        <ele>160.670981</ele>
        <time>2022-03-02T11:14:08.900Z</time>
      </trkpt>
      <trkpt lat="42.09607" lon="25.36309">
        <ele>160.496514</ele>
        <time>2022-03-02T11:14:11.893Z</time>
      </trkpt>
      <trkpt lat="42.09609" lon="25.36294">
        <ele>160.316292</ele>
        <time>2022-03-02T11:14:14.888Z</time>
      </trkpt>
      <trkpt lat="42.09611" lon="25.36278">
        <ele>160.133274</ele>
        <time>2022-03-02T11:14:17.892Z</time>
      </trkpt>
      <trkpt lat="42.09614" lon="25.36261">
        <ele>159.941107</ele>
        <time>2022-03-02T11:14:20.893Z</time>
      </trkpt>
      <trkpt lat="42.09616" lon="25.36245">
        <ele>159.765015</ele>
        <time>2022-03-02T11:14:23.891Z</time>
      </trkpt>
      <trkpt lat="42.09614" lon="25.3623">
        <ele>159.585144</ele>
        <time>2022-03-02T11:14:26.890Z</time>
      </trkpt>
      <trkpt lat="42.09609" lon="25.36216">
        <ele>159.410235</ele>
        <time>2022-03-02T11:14:29.900Z</time>
      </trkpt>
      <trkpt lat="42.09602" lon="25.36206">
        <ele>159.46786</ele>
        <time>2022-03-02T11:14:32.899Z</time>
      </trkpt>
      <trkpt lat="42.09596" lon="25.36197">
        <ele>159.523828</ele>
        <time>2022-03-02T11:14:35.899Z</time>
      </trkpt>
      <trkpt lat="42.09587" lon="25.36186">
        <ele>159.59512</ele>
        <time>2022-03-02T11:14:39.891Z</time>
      </trkpt>
      <trkpt lat="42.09579" lon="25.36175">
        <ele>159.664091</ele>
        <time>2022-03-02T11:14:43.921Z</time>
      </trkpt>
      <trkpt lat="42.09571" lon="25.36163">
        <ele>159.73453</ele>
        <time>2022-03-02T11:14:47.894Z</time>
      </trkpt>
      <trkpt lat="42.09563" lon="25.36153">
        <ele>159.800464</ele>
        <time>2022-03-02T11:14:51.892Z</time>
      </trkpt>
      <trkpt lat="42.09555" lon="25.36143">
        <ele>159.865224</ele>
        <time>2022-03-02T11:14:55.892Z</time>
      </trkpt>
      <trkpt lat="42.09547" lon="25.36133">
        <ele>159.92981</ele>
        <time>2022-03-02T11:14:59.892Z</time>
      </trkpt>
      <trkpt lat="42.0954" lon="25.36122">
        <ele>159.994639</ele>
        <time>2022-03-02T11:15:03.946Z</time>
      </trkpt>
      <trkpt lat="42.09533" lon="25.36113">
        <ele>160.054916</ele>
        <time>2022-03-02T11:15:07.926Z</time>
      </trkpt>
      <trkpt lat="42.09524" lon="25.36104">
        <ele>160.119995</ele>
        <time>2022-03-02T11:15:12.911Z</time>
      </trkpt>
      <trkpt lat="42.09515" lon="25.36095">
        <ele>160.187573</ele>
        <time>2022-03-02T11:15:17.930Z</time>
      </trkpt>
      <trkpt lat="42.09507" lon="25.36087">
        <ele>160.246419</ele>
        <time>2022-03-02T11:15:21.924Z</time>
      </trkpt>
      <trkpt lat="42.09499" lon="25.36078">
        <ele>160.3075</ele>
        <time>2022-03-02T11:15:25.918Z</time>
      </trkpt>
      <trkpt lat="42.09491" lon="25.36068">
        <ele>160.374471</ele>
        <time>2022-03-02T11:15:29.920Z</time>
      </trkpt>
      <trkpt lat="42.09483" lon="25.3606">
        <ele>160.434344</ele>
        <time>2022-03-02T11:15:33.925Z</time>
      </trkpt>
      <trkpt lat="42.09476" lon="25.36051">
        <ele>160.501055</ele>
        <time>2022-03-02T11:15:38.012Z</time>
      </trkpt>
      <trkpt lat="42.09468" lon="25.36044">
        <ele>160.636042</ele>
        <time>2022-03-02T11:15:41.917Z</time>
      </trkpt>
      <trkpt lat="42.0946" lon="25.36036">
        <ele>160.770605</ele>
        <time>2022-03-02T11:15:45.941Z</time>
      </trkpt>
      <trkpt lat="42.09452" lon="25.36025">
        <ele>160.924896</ele>
        <time>2022-03-02T11:15:50.954Z</time>
      </trkpt>
      <trkpt lat="42.09447" lon="25.36014">
        <ele>161.059717</ele>
        <time>2022-03-02T11:15:54.905Z</time>
      </trkpt>
      <trkpt lat="42.09445" lon="25.36002">
        <ele>161.184001</ele>
        <time>2022-03-02T11:15:57.925Z</time>
      </trkpt>
      <trkpt lat="42.09443" lon="25.35987">
        <ele>161.344345</ele>
        <time>2022-03-02T11:16:01.954Z</time>
      </trkpt>
      <trkpt lat="42.09442" lon="25.35972">
        <ele>161.500439</ele>
        <time>2022-03-02T11:16:05.939Z</time>
      </trkpt>
      <trkpt lat="42.0944" lon="25.35959">
        <ele>161.625981</ele>
        <time>2022-03-02T11:16:08.920Z</time>
      </trkpt>
      <trkpt lat="42.09439" lon="25.35946">
        <ele>161.764663</ele>
        <time>2022-03-02T11:16:11.920Z</time>
      </trkpt>
      <trkpt lat="42.09437" lon="25.35932">
        <ele>161.909622</ele>
        <time>2022-03-02T11:16:14.905Z</time>
      </trkpt>
      <trkpt lat="42.09437" lon="25.35918">
        <ele>162.050154</ele>
        <time>2022-03-02T11:16:17.946Z</time>
      </trkpt>
      <trkpt lat="42.09435" lon="25.35905">
        <ele>162.187436</ele>
        <time>2022-03-02T11:16:20.923Z</time>
      </trkpt>
      <trkpt lat="42.09434" lon="25.35892">
        <ele>162.32633</ele>
        <time>2022-03-02T11:16:23.914Z</time>
      </trkpt>
      <trkpt lat="42.09433" lon="25.35878">
        <ele>162.462883</ele>
        <time>2022-03-02T11:16:26.921Z</time>
      </trkpt>
      <trkpt lat="42.09432" lon="25.35865">
        <ele>162.597122</ele>
        <time>2022-03-02T11:16:29.921Z</time>
      </trkpt>
      <trkpt lat="42.09431" lon="25.35852">
        <ele>162.73889</ele>
        <time>2022-03-02T11:16:32.914Z</time>
      </trkpt>
      <trkpt lat="42.09429" lon="25.35837">
        <ele>162.889339</ele>
        <time>2022-03-02T11:16:35.931Z</time>
      </trkpt>
      <trkpt lat="42.09427" lon="25.35823">
        <ele>162.882157</ele>
        <time>2022-03-02T11:16:38.928Z</time>
      </trkpt>
      <trkpt lat="42.09426" lon="25.3581">
        <ele>162.70488</ele>
        <time>2022-03-02T11:16:41.909Z</time>
      </trkpt>
      <trkpt lat="42.09423" lon="25.35796">
        <ele>162.5172</ele>
        <time>2022-03-02T11:16:44.944Z</time>
      </trkpt>
      <trkpt lat="42.09421" lon="25.35782">
        <ele>162.334186</ele>
        <time>2022-03-02T11:16:47.943Z</time>
      </trkpt>
      <trkpt lat="42.0942" lon="25.35768">
        <ele>162.143806</ele>
        <time>2022-03-02T11:16:50.954Z</time>
      </trkpt>
      <trkpt lat="42.0942" lon="25.35753">
        <ele>161.946379</ele>
        <time>2022-03-02T11:16:53.919Z</time>
      </trkpt>
      <trkpt lat="42.0942" lon="25.35739">
        <ele>161.768732</ele>
        <time>2022-03-02T11:16:56.924Z</time>
      </trkpt>
      <trkpt lat="42.09419" lon="25.35724">
        <ele>161.575367</ele>
        <time>2022-03-02T11:16:59.922Z</time>
      </trkpt>
      <trkpt lat="42.09417" lon="25.35709">
        <ele>161.376135</ele>
        <time>2022-03-02T11:17:02.920Z</time>
      </trkpt>
      <trkpt lat="42.09415" lon="25.35693">
        <ele>161.167343</ele>
        <time>2022-03-02T11:17:05.916Z</time>
      </trkpt>
      <trkpt lat="42.09414" lon="25.35677">
        <ele>160.956696</ele>
        <time>2022-03-02T11:17:08.927Z</time>
      </trkpt>
      <trkpt lat="42.09412" lon="25.35662">
        <ele>160.748628</ele>
        <time>2022-03-02T11:17:11.929Z</time>
      </trkpt>
      <trkpt lat="42.0941" lon="25.35646">
        <ele>160.539276</ele>
        <time>2022-03-02T11:17:14.921Z</time>
      </trkpt>
      <trkpt lat="42.09409" lon="25.35631">
        <ele>160.345463</ele>
        <time>2022-03-02T11:17:17.921Z</time>
      </trkpt>
      <trkpt lat="42.09407" lon="25.35616">
        <ele>160.145114</ele>
        <time>2022-03-02T11:17:20.921Z</time>
      </trkpt>
      <trkpt lat="42.09405" lon="25.35601">
        <ele>159.942775</ele>
        <time>2022-03-02T11:17:23.906Z</time>
      </trkpt>
      <trkpt lat="42.09403" lon="25.35586">
        <ele>159.779558</ele>
        <time>2022-03-02T11:17:26.920Z</time>
      </trkpt>
      <trkpt lat="42.09402" lon="25.3557">
        <ele>159.704086</ele>
        <time>2022-03-02T11:17:29.914Z</time>
      </trkpt>
      <trkpt lat="42.094" lon="25.35554">
        <ele>159.625636</ele>
        <time>2022-03-02T11:17:32.921Z</time>
      </trkpt>
      <trkpt lat="42.09399" lon="25.35539">
        <ele>159.547987</ele>
        <time>2022-03-02T11:17:35.946Z</time>
      </trkpt>
      <trkpt lat="42.09397" lon="25.35522">
        <ele>159.467524</ele>
        <time>2022-03-02T11:17:38.944Z</time>
      </trkpt>
      <trkpt lat="42.09396" lon="25.35506">
        <ele>159.389875</ele>
        <time>2022-03-02T11:17:41.913Z</time>
      </trkpt>
      <trkpt lat="42.09394" lon="25.35489">
        <ele>159.304235</ele>
        <time>2022-03-02T11:17:44.949Z</time>
      </trkpt>
      <trkpt lat="42.09392" lon="25.35471">
        <ele>159.217054</ele>
        <time>2022-03-02T11:17:47.935Z</time>
      </trkpt>
      <trkpt lat="42.09391" lon="25.35459">
        <ele>159.157589</ele>
        <time>2022-03-02T11:17:49.941Z</time>
      </trkpt>
      <trkpt lat="42.09391" lon="25.35446">
        <ele>159.093635</ele>
        <time>2022-03-02T11:17:51.908Z</time>
      </trkpt>
      <trkpt lat="42.0939" lon="25.35433">
        <ele>159.031374</ele>
        <time>2022-03-02T11:17:53.909Z</time>
      </trkpt>
      <trkpt lat="42.09389" lon="25.35421">
        <ele>158.970563</ele>
        <time>2022-03-02T11:17:55.926Z</time>
      </trkpt>
      <trkpt lat="42.09387" lon="25.35408">
        <ele>158.907819</ele>
        <time>2022-03-02T11:17:57.918Z</time>
      </trkpt>
      <trkpt lat="42.09386" lon="25.35395">
        <ele>158.84521</ele>
        <time>2022-03-02T11:17:59.928Z</time>
      </trkpt>
      <trkpt lat="42.09384" lon="25.35383">
        <ele>158.784287</ele>
        <time>2022-03-02T11:18:01.923Z</time>
      </trkpt>
      <trkpt lat="42.09381" lon="25.35371">
        <ele>158.721717</ele>
        <time>2022-03-02T11:18:03.909Z</time>
      </trkpt>
      <trkpt lat="42.09379" lon="25.35353">
        <ele>158.634632</ele>
        <time>2022-03-02T11:18:06.943Z</time>
      </trkpt>
      <trkpt lat="42.09379" lon="25.35341">
        <ele>158.589794</ele>
        <time>2022-03-02T11:18:08.923Z</time>
      </trkpt>
      <trkpt lat="42.09378" lon="25.35328">
        <ele>158.548721</ele>
        <time>2022-03-02T11:18:10.920Z</time>
      </trkpt>
      <trkpt lat="42.09377" lon="25.35315">
        <ele>158.508064</ele>
        <time>2022-03-02T11:18:12.920Z</time>
      </trkpt>
      <trkpt lat="42.09374" lon="25.35298">
        <ele>158.451273</ele>
        <time>2022-03-02T11:18:15.923Z</time>
      </trkpt>
      <trkpt lat="42.09373" lon="25.3528">
        <ele>158.393878</ele>
        <time>2022-03-02T11:18:18.921Z</time>
      </trkpt>
      <trkpt lat="42.09372" lon="25.35268">
        <ele>158.355026</ele>
        <time>2022-03-02T11:18:20.930Z</time>
      </trkpt>
      <trkpt lat="42.09372" lon="25.35251">
        <ele>158.301079</ele>
        <time>2022-03-02T11:18:23.914Z</time>
      </trkpt>
      <trkpt lat="42.09371" lon="25.35235">
        <ele>158.251206</ele>
        <time>2022-03-02T11:18:26.930Z</time>
      </trkpt>
      <trkpt lat="42.09369" lon="25.35218">
        <ele>158.194005</ele>
        <time>2022-03-02T11:18:29.930Z</time>
      </trkpt>
      <trkpt lat="42.09367" lon="25.35206">
        <ele>158.155332</ele>
        <time>2022-03-02T11:18:31.931Z</time>
      </trkpt>
      <trkpt lat="42.09365" lon="25.35188">
        <ele>158.098378</ele>
        <time>2022-03-02T11:18:34.925Z</time>
      </trkpt>
      <trkpt lat="42.09362" lon="25.35171">
        <ele>158.041651</ele>
        <time>2022-03-02T11:18:37.943Z</time>
      </trkpt>
      <trkpt lat="42.0936" lon="25.35154">
        <ele>157.986339</ele>
        <time>2022-03-02T11:18:40.930Z</time>
      </trkpt>
      <trkpt lat="42.09358" lon="25.35136">
        <ele>157.930908</ele>
        <time>2022-03-02T11:18:43.912Z</time>
      </trkpt>
      <trkpt lat="42.09356" lon="25.3512">
        <ele>157.877432</ele>
        <time>2022-03-02T11:18:46.909Z</time>
      </trkpt>
      <trkpt lat="42.09355" lon="25.35104">
        <ele>157.880127</ele>
        <time>2022-03-02T11:18:49.954Z</time>
      </trkpt>
      <trkpt lat="42.09353" lon="25.3509">
        <ele>157.970824</ele>
        <time>2022-03-02T11:18:52.905Z</time>
      </trkpt>
      <trkpt lat="42.09353" lon="25.35078">
        <ele>158.044628</ele>
        <time>2022-03-02T11:18:55.910Z</time>
      </trkpt>
      <trkpt lat="42.09352" lon="25.35064">
        <ele>158.129173</ele>
        <time>2022-03-02T11:19:01.905Z</time>
      </trkpt>
      <trkpt lat="42.09352" lon="25.35049">
        <ele>158.220503</ele>
        <time>2022-03-02T11:19:05.918Z</time>
      </trkpt>
      <trkpt lat="42.09353" lon="25.35033">
        <ele>158.317249</ele>
        <time>2022-03-02T11:19:09.958Z</time>
      </trkpt>
      <trkpt lat="42.09354" lon="25.3502">
        <ele>158.391681</ele>
        <time>2022-03-02T11:19:12.910Z</time>
      </trkpt>
      <trkpt lat="42.09355" lon="25.35007">
        <ele>158.472741</ele>
        <time>2022-03-02T11:19:15.929Z</time>
      </trkpt>
      <trkpt lat="42.09354" lon="25.34993">
        <ele>158.555032</ele>
        <time>2022-03-02T11:19:18.937Z</time>
      </trkpt>
      <trkpt lat="42.09354" lon="25.3498">
        <ele>158.637386</ele>
        <time>2022-03-02T11:19:21.890Z</time>
      </trkpt>
      <trkpt lat="42.09353" lon="25.34966">
        <ele>158.723408</ele>
        <time>2022-03-02T11:19:24.927Z</time>
      </trkpt>
      <trkpt lat="42.09354" lon="25.34952">
        <ele>158.808748</ele>
        <time>2022-03-02T11:19:27.906Z</time>
      </trkpt>
      <trkpt lat="42.09354" lon="25.34937">
        <ele>158.894692</ele>
        <time>2022-03-02T11:19:30.899Z</time>
      </trkpt>
      <trkpt lat="42.09354" lon="25.34923">
        <ele>158.983054</ele>
        <time>2022-03-02T11:19:33.921Z</time>
      </trkpt>
      <trkpt lat="42.09355" lon="25.3491">
        <ele>159.062623</ele>
        <time>2022-03-02T11:19:36.928Z</time>
      </trkpt>
      <trkpt lat="42.09356" lon="25.34897">
        <ele>159.139354</ele>
        <time>2022-03-02T11:19:39.914Z</time>
      </trkpt>
      <trkpt lat="42.09357" lon="25.34883">
        <ele>159.224418</ele>
        <time>2022-03-02T11:19:42.906Z</time>
      </trkpt>
      <trkpt lat="42.09358" lon="25.34869">
        <ele>159.311369</ele>
        <time>2022-03-02T11:19:45.917Z</time>
      </trkpt>
      <trkpt lat="42.09357" lon="25.34854">
        <ele>159.362035</ele>
        <time>2022-03-02T11:19:48.924Z</time>
      </trkpt>
      <trkpt lat="42.09357" lon="25.34839">
        <ele>159.413337</ele>
        <time>2022-03-02T11:19:51.924Z</time>
      </trkpt>
      <trkpt lat="42.09358" lon="25.34825">
        <ele>159.462994</ele>
        <time>2022-03-02T11:19:54.921Z</time>
      </trkpt>
      <trkpt lat="42.09358" lon="25.34811">
        <ele>159.513258</ele>
        <time>2022-03-02T11:19:57.918Z</time>
      </trkpt>
      <trkpt lat="42.09358" lon="25.34797">
        <ele>159.559315</ele>
        <time>2022-03-02T11:20:00.921Z</time>
      </trkpt>
      <trkpt lat="42.09359" lon="25.34784">
        <ele>159.604352</ele>
        <time>2022-03-02T11:20:03.983Z</time>
      </trkpt>
      <trkpt lat="42.09358" lon="25.34771">
        <ele>159.652195</ele>
        <time>2022-03-02T11:20:06.923Z</time>
      </trkpt>
      <trkpt lat="42.09359" lon="25.34756">
        <ele>159.702543</ele>
        <time>2022-03-02T11:20:09.916Z</time>
      </trkpt>
      <trkpt lat="42.0936" lon="25.34743">
        <ele>159.746333</ele>
        <time>2022-03-02T11:20:12.924Z</time>
      </trkpt>
      <trkpt lat="42.09361" lon="25.34731">
        <ele>159.790792</ele>
        <time>2022-03-02T11:20:15.947Z</time>
      </trkpt>
      <trkpt lat="42.09361" lon="25.34716">
        <ele>159.843079</ele>
        <time>2022-03-02T11:20:19.917Z</time>
      </trkpt>
      <trkpt lat="42.09361" lon="25.34702">
        <ele>159.891567</ele>
        <time>2022-03-02T11:20:23.926Z</time>
      </trkpt>
      <trkpt lat="42.09361" lon="25.34687">
        <ele>159.943856</ele>
        <time>2022-03-02T11:20:27.918Z</time>
      </trkpt>
      <trkpt lat="42.09362" lon="25.34674">
        <ele>159.987991</ele>
        <time>2022-03-02T11:20:30.916Z</time>
      </trkpt>
      <trkpt lat="42.09362" lon="25.34661">
        <ele>160.033009</ele>
        <time>2022-03-02T11:20:33.927Z</time>
      </trkpt>
      <trkpt lat="42.09362" lon="25.34648">
        <ele>160.078027</ele>
        <time>2022-03-02T11:20:36.917Z</time>
      </trkpt>
      <trkpt lat="42.09363" lon="25.34635">
        <ele>160.121697</ele>
        <time>2022-03-02T11:20:39.908Z</time>
      </trkpt>
      <trkpt lat="42.09365" lon="25.34622">
        <ele>160.118491</ele>
        <time>2022-03-02T11:20:42.944Z</time>
      </trkpt>
      <trkpt lat="42.09364" lon="25.3461">
        <ele>160.03155</ele>
        <time>2022-03-02T11:20:45.915Z</time>
      </trkpt>
      <trkpt lat="42.09364" lon="25.34597">
        <ele>159.941869</ele>
        <time>2022-03-02T11:20:48.926Z</time>
      </trkpt>
      <trkpt lat="42.09365" lon="25.34583">
        <ele>159.846338</ele>
        <time>2022-03-02T11:20:51.939Z</time>
      </trkpt>
      <trkpt lat="42.09366" lon="25.34569">
        <ele>159.750728</ele>
        <time>2022-03-02T11:20:54.925Z</time>
      </trkpt>
      <trkpt lat="42.09368" lon="25.34556">
        <ele>159.656523</ele>
        <time>2022-03-02T11:20:57.916Z</time>
      </trkpt>
      <trkpt lat="42.09369" lon="25.34543">
        <ele>159.563692</ele>
        <time>2022-03-02T11:21:00.923Z</time>
      </trkpt>
      <trkpt lat="42.09369" lon="25.3453">
        <ele>159.471854</ele>
        <time>2022-03-02T11:21:03.933Z</time>
      </trkpt>
      <trkpt lat="42.09369" lon="25.34517">
        <ele>159.383859</ele>
        <time>2022-03-02T11:21:06.928Z</time>
      </trkpt>
      <trkpt lat="42.09373" lon="25.34502">
        <ele>159.271311</ele>
        <time>2022-03-02T11:21:10.920Z</time>
      </trkpt>
      <trkpt lat="42.09375" lon="25.3449">
        <ele>159.185187</ele>
        <time>2022-03-02T11:21:13.912Z</time>
      </trkpt>
      <trkpt lat="42.09376" lon="25.34475">
        <ele>159.078926</ele>
        <time>2022-03-02T11:21:17.900Z</time>
      </trkpt>
      <trkpt lat="42.09377" lon="25.34459">
        <ele>158.972155</ele>
        <time>2022-03-02T11:21:21.949Z</time>
      </trkpt>
      <trkpt lat="42.09376" lon="25.34446">
        <ele>158.879817</ele>
        <time>2022-03-02T11:21:25.930Z</time>
      </trkpt>
      <trkpt lat="42.09379" lon="25.34433">
        <ele>158.786217</ele>
        <time>2022-03-02T11:21:29.922Z</time>
      </trkpt>
      <trkpt lat="42.09382" lon="25.34421">
        <ele>158.695949</ele>
        <time>2022-03-02T11:21:33.912Z</time>
      </trkpt>
      <trkpt lat="42.09382" lon="25.34407">
        <ele>158.597165</ele>
        <time>2022-03-02T11:21:38.922Z</time>
      </trkpt>
      <trkpt lat="42.09386" lon="25.34395">
        <ele>158.503904</ele>
        <time>2022-03-02T11:21:44.013Z</time>
      </trkpt>
      <trkpt lat="42.09389" lon="25.34381">
        <ele>158.477771</ele>
        <time>2022-03-02T11:21:48.929Z</time>
      </trkpt>
      <trkpt lat="42.09388" lon="25.34367">
        <ele>158.495817</ele>
        <time>2022-03-02T11:21:52.911Z</time>
      </trkpt>
      <trkpt lat="42.09389" lon="25.34354">
        <ele>158.513262</ele>
        <time>2022-03-02T11:21:56.918Z</time>
      </trkpt>
      <trkpt lat="42.09393" lon="25.3434">
        <ele>158.531881</ele>
        <time>2022-03-02T11:22:00.903Z</time>
      </trkpt>
      <trkpt lat="42.09395" lon="25.34326">
        <ele>158.551416</ele>
        <time>2022-03-02T11:22:04.919Z</time>
      </trkpt>
      <trkpt lat="42.09397" lon="25.3431">
        <ele>158.571174</ele>
        <time>2022-03-02T11:22:08.914Z</time>
      </trkpt>
      <trkpt lat="42.09398" lon="25.34298">
        <ele>158.58772</ele>
        <time>2022-03-02T11:22:11.939Z</time>
      </trkpt>
      <trkpt lat="42.094" lon="25.34285">
        <ele>158.604059</ele>
        <time>2022-03-02T11:22:14.925Z</time>
      </trkpt>
      <trkpt lat="42.09402" lon="25.3427">
        <ele>158.624275</ele>
        <time>2022-03-02T11:22:18.925Z</time>
      </trkpt>
      <trkpt lat="42.09404" lon="25.34254">
        <ele>158.64456</ele>
        <time>2022-03-02T11:22:22.914Z</time>
      </trkpt>
      <trkpt lat="42.09407" lon="25.34239">
        <ele>158.665363</ele>
        <time>2022-03-02T11:22:26.898Z</time>
      </trkpt>
      <trkpt lat="42.09409" lon="25.34223">
        <ele>158.685785</ele>
        <time>2022-03-02T11:22:30.929Z</time>
      </trkpt>
      <trkpt lat="42.0941" lon="25.34211">
        <ele>158.701449</ele>
        <time>2022-03-02T11:22:33.926Z</time>
      </trkpt>
      <trkpt lat="42.09412" lon="25.34199">
        <ele>158.717543</ele>
        <time>2022-03-02T11:22:36.922Z</time>
      </trkpt>
      <trkpt lat="42.09414" lon="25.34187">
        <ele>158.733374</ele>
        <time>2022-03-02T11:22:39.949Z</time>
      </trkpt>
      <trkpt lat="42.09415" lon="25.34174">
        <ele>158.749792</ele>
        <time>2022-03-02T11:22:42.913Z</time>
      </trkpt>
      <trkpt lat="42.09415" lon="25.34161">
        <ele>158.766541</ele>
        <time>2022-03-02T11:22:45.912Z</time>
      </trkpt>
      <trkpt lat="42.09417" lon="25.34149">
        <ele>158.816228</ele>
        <time>2022-03-02T11:22:48.921Z</time>
      </trkpt>
      <trkpt lat="42.09419" lon="25.34137">
        <ele>158.961004</ele>
        <time>2022-03-02T11:22:51.922Z</time>
      </trkpt>
      <trkpt lat="42.09421" lon="25.34122">
        <ele>159.139918</ele>
        <time>2022-03-02T11:22:55.916Z</time>
      </trkpt>
      <trkpt lat="42.09426" lon="25.34109">
        <ele>159.320292</ele>
        <time>2022-03-02T11:22:59.922Z</time>
      </trkpt>
      <trkpt lat="42.09431" lon="25.34099">
        <ele>159.468641</ele>
        <time>2022-03-02T11:23:02.915Z</time>
      </trkpt>
      <trkpt lat="42.09435" lon="25.34087">
        <ele>159.616937</ele>
        <time>2022-03-02T11:23:05.919Z</time>
      </trkpt>
      <trkpt lat="42.0944" lon="25.34074">
        <ele>159.797913</ele>
        <time>2022-03-02T11:23:09.914Z</time>
      </trkpt>
      <trkpt lat="42.09446" lon="25.34061">
        <ele>159.980567</ele>
        <time>2022-03-02T11:23:13.917Z</time>
      </trkpt>
      <trkpt lat="42.09451" lon="25.34047">
        <ele>160.166276</ele>
        <time>2022-03-02T11:23:17.924Z</time>
      </trkpt>
      <trkpt lat="42.09454" lon="25.34035">
        <ele>160.313205</ele>
        <time>2022-03-02T11:23:20.916Z</time>
      </trkpt>
      <trkpt lat="42.09458" lon="25.34024">
        <ele>160.460811</ele>
        <time>2022-03-02T11:23:23.940Z</time>
      </trkpt>
      <trkpt lat="42.09463" lon="25.3401">
        <ele>160.646569</ele>
        <time>2022-03-02T11:23:27.942Z</time>
      </trkpt>
      <trkpt lat="42.09467" lon="25.33995">
        <ele>160.831765</ele>
        <time>2022-03-02T11:23:31.919Z</time>
      </trkpt>
      <trkpt lat="42.09472" lon="25.33982">
        <ele>161.00929</ele>
        <time>2022-03-02T11:23:35.913Z</time>
      </trkpt>
      <trkpt lat="42.09477" lon="25.33969">
        <ele>161.1915</ele>
        <time>2022-03-02T11:23:39.915Z</time>
      </trkpt>
      <trkpt lat="42.09481" lon="25.33957">
        <ele>161.343439</ele>
        <time>2022-03-02T11:23:42.902Z</time>
      </trkpt>
      <trkpt lat="42.09485" lon="25.33945">
        <ele>161.498921</ele>
        <time>2022-03-02T11:23:45.921Z</time>
      </trkpt>
      <trkpt lat="42.09488" lon="25.33933">
        <ele>161.652724</ele>
        <time>2022-03-02T11:23:48.927Z</time>
      </trkpt>
      <trkpt lat="42.09492" lon="25.33922">
        <ele>161.67927</ele>
        <time>2022-03-02T11:23:51.949Z</time>
      </trkpt>
      <trkpt lat="42.09496" lon="25.3391">
        <ele>161.689819</ele>
        <time>2022-03-02T11:23:54.916Z</time>
      </trkpt>
      <trkpt lat="42.095" lon="25.33898">
        <ele>161.700761</ele>
        <time>2022-03-02T11:23:57.968Z</time>
      </trkpt>
      <trkpt lat="42.09504" lon="25.33887">
        <ele>161.711143</ele>
        <time>2022-03-02T11:24:00.905Z</time>
      </trkpt>
      <trkpt lat="42.09509" lon="25.33876">
        <ele>161.721439</ele>
        <time>2022-03-02T11:24:03.926Z</time>
      </trkpt>
      <trkpt lat="42.09513" lon="25.33864">
        <ele>161.732063</ele>
        <time>2022-03-02T11:24:06.919Z</time>
      </trkpt>
      <trkpt lat="42.09517" lon="25.33853">
        <ele>161.741934</ele>
        <time>2022-03-02T11:24:09.933Z</time>
      </trkpt>
      <trkpt lat="42.09522" lon="25.3384">
        <ele>161.754396</ele>
        <time>2022-03-02T11:24:13.914Z</time>
      </trkpt>
      <trkpt lat="42.09527" lon="25.33826">
        <ele>161.767228</ele>
        <time>2022-03-02T11:24:17.921Z</time>
      </trkpt>
      <trkpt lat="42.09532" lon="25.33812">
        <ele>161.779472</ele>
        <time>2022-03-02T11:24:21.942Z</time>
      </trkpt>
      <trkpt lat="42.09536" lon="25.33798">
        <ele>161.791904</ele>
        <time>2022-03-02T11:24:25.961Z</time>
      </trkpt>
      <trkpt lat="42.0954" lon="25.33786">
        <ele>161.803264</ele>
        <time>2022-03-02T11:24:29.918Z</time>
      </trkpt>
      <trkpt lat="42.09542" lon="25.33772">
        <ele>161.814849</ele>
        <time>2022-03-02T11:24:34.907Z</time>
      </trkpt>
      <trkpt lat="42.09546" lon="25.33759">
        <ele>161.826182</ele>
        <time>2022-03-02T11:24:38.915Z</time>
      </trkpt>
      <trkpt lat="42.09551" lon="25.33746">
        <ele>161.838622</ele>
        <time>2022-03-02T11:24:42.945Z</time>
      </trkpt>
      <trkpt lat="42.09555" lon="25.33732">
        <ele>161.850405</ele>
        <time>2022-03-02T11:24:46.909Z</time>
      </trkpt>
      <trkpt lat="42.09557" lon="25.33719">
        <ele>161.861387</ele>
        <time>2022-03-02T11:24:50.925Z</time>
      </trkpt>
      <trkpt lat="42.09561" lon="25.33707">
        <ele>161.822351</ele>
        <time>2022-03-02T11:24:54.973Z</time>
      </trkpt>
      <trkpt lat="42.09566" lon="25.33693">
        <ele>161.657683</ele>
        <time>2022-03-02T11:24:58.923Z</time>
      </trkpt>
      <trkpt lat="42.09569" lon="25.33678">
        <ele>161.48881</ele>
        <time>2022-03-02T11:25:02.940Z</time>
      </trkpt>
      <trkpt lat="42.09573" lon="25.33666">
        <ele>161.329936</ele>
        <time>2022-03-02T11:25:06.923Z</time>
      </trkpt>
      <trkpt lat="42.09578" lon="25.33654">
        <ele>161.175784</ele>
        <time>2022-03-02T11:25:10.968Z</time>
      </trkpt>
      <trkpt lat="42.09581" lon="25.3364">
        <ele>161.022328</ele>
        <time>2022-03-02T11:25:14.921Z</time>
      </trkpt>
      <trkpt lat="42.09586" lon="25.33627">
        <ele>160.86061</ele>
        <time>2022-03-02T11:25:18.920Z</time>
      </trkpt>
      <trkpt lat="42.09588" lon="25.33613">
        <ele>160.7019</ele>
        <time>2022-03-02T11:25:22.928Z</time>
      </trkpt>
      <trkpt lat="42.09588" lon="25.33597">
        <ele>160.525462</ele>
        <time>2022-03-02T11:25:26.912Z</time>
      </trkpt>
      <trkpt lat="42.09587" lon="25.33582">
        <ele>160.355967</ele>
        <time>2022-03-02T11:25:30.930Z</time>
      </trkpt>
      <trkpt lat="42.09589" lon="25.33567">
        <ele>160.187441</ele>
        <time>2022-03-02T11:25:34.911Z</time>
      </trkpt>
      <trkpt lat="42.0959" lon="25.33553">
        <ele>160.031618</ele>
        <time>2022-03-02T11:25:38.913Z</time>
      </trkpt>
      <trkpt lat="42.09591" lon="25.33538">
        <ele>159.862335</ele>
        <time>2022-03-02T11:25:42.911Z</time>
      </trkpt>
      <trkpt lat="42.09592" lon="25.33522">
        <ele>159.683824</ele>
        <time>2022-03-02T11:25:46.926Z</time>
      </trkpt>
      <trkpt lat="42.09592" lon="25.3351">
        <ele>159.546706</ele>
        <time>2022-03-02T11:25:49.927Z</time>
      </trkpt>
      <trkpt lat="42.09592" lon="25.33497">
        <ele>159.406245</ele>
        <time>2022-03-02T11:25:52.917Z</time>
      </trkpt>
      <trkpt lat="42.09591" lon="25.33485">
        <ele>159.267818</ele>
        <time>2022-03-02T11:25:55.946Z</time>
      </trkpt>
      <trkpt lat="42.09591" lon="25.33473">
        <ele>159.126987</ele>
        <time>2022-03-02T11:25:58.922Z</time>
      </trkpt>
      <trkpt lat="42.09591" lon="25.33456">
        <ele>158.921027</ele>
        <time>2022-03-02T11:26:02.922Z</time>
      </trkpt>
      <trkpt lat="42.09591" lon="25.33443">
        <ele>158.746479</ele>
        <time>2022-03-02T11:26:05.923Z</time>
      </trkpt>
      <trkpt lat="42.09589" lon="25.33428">
        <ele>158.563113</ele>
        <time>2022-03-02T11:26:08.925Z</time>
      </trkpt>
      <trkpt lat="42.09588" lon="25.33414">
        <ele>158.389425</ele>
        <time>2022-03-02T11:26:11.954Z</time>
      </trkpt>
      <trkpt lat="42.09588" lon="25.33401">
        <ele>158.219908</ele>
        <time>2022-03-02T11:26:14.936Z</time>
      </trkpt>
      <trkpt lat="42.09587" lon="25.33388">
        <ele>158.06117</ele>
        <time>2022-03-02T11:26:17.956Z</time>
      </trkpt>
      <trkpt lat="42.09586" lon="25.33376">
        <ele>157.902675</ele>
        <time>2022-03-02T11:26:20.917Z</time>
      </trkpt>
      <trkpt lat="42.09584" lon="25.33363">
        <ele>157.735068</ele>
        <time>2022-03-02T11:26:23.982Z</time>
      </trkpt>
      <trkpt lat="42.09583" lon="25.33349">
        <ele>157.561639</ele>
        <time>2022-03-02T11:26:26.921Z</time>
      </trkpt>
      <trkpt lat="42.09581" lon="25.33335">
        <ele>157.38923</ele>
        <time>2022-03-02T11:26:29.925Z</time>
      </trkpt>
      <trkpt lat="42.09581" lon="25.33322">
        <ele>157.219679</ele>
        <time>2022-03-02T11:26:32.900Z</time>
      </trkpt>
      <trkpt lat="42.09581" lon="25.33308">
        <ele>157.044615</ele>
        <time>2022-03-02T11:26:35.917Z</time>
      </trkpt>
      <trkpt lat="42.09579" lon="25.33295">
        <ele>156.873208</ele>
        <time>2022-03-02T11:26:38.954Z</time>
      </trkpt>
      <trkpt lat="42.09577" lon="25.33282">
        <ele>156.708645</ele>
        <time>2022-03-02T11:26:41.951Z</time>
      </trkpt>
      <trkpt lat="42.09575" lon="25.33267">
        <ele>156.515455</ele>
        <time>2022-03-02T11:26:45.923Z</time>
      </trkpt>
      <trkpt lat="42.09573" lon="25.33251">
        <ele>156.320994</ele>
        <time>2022-03-02T11:26:49.902Z</time>
      </trkpt>
      <trkpt lat="42.0957" lon="25.33239">
        <ele>156.153428</ele>
        <time>2022-03-02T11:26:52.908Z</time>
      </trkpt>
      <trkpt lat="42.09569" lon="25.33226">
        <ele>156.265288</ele>
        <time>2022-03-02T11:26:55.933Z</time>
      </trkpt>
      <trkpt lat="42.09567" lon="25.33213">
        <ele>156.438025</ele>
        <time>2022-03-02T11:26:58.930Z</time>
      </trkpt>
      <trkpt lat="42.09566" lon="25.332">
        <ele>156.612685</ele>
        <time>2022-03-02T11:27:01.913Z</time>
      </trkpt>
      <trkpt lat="42.09567" lon="25.33188">
        <ele>156.777661</ele>
        <time>2022-03-02T11:27:04.942Z</time>
      </trkpt>
      <trkpt lat="42.09566" lon="25.33175">
        <ele>156.948201</ele>
        <time>2022-03-02T11:27:07.950Z</time>
      </trkpt>
      <trkpt lat="42.09565" lon="25.33163">
        <ele>157.114124</ele>
        <time>2022-03-02T11:27:10.927Z</time>
      </trkpt>
      <trkpt lat="42.09564" lon="25.33148">
        <ele>157.319798</ele>
        <time>2022-03-02T11:27:14.925Z</time>
      </trkpt>
      <trkpt lat="42.0956" lon="25.33136">
        <ele>157.495469</ele>
        <time>2022-03-02T11:27:17.913Z</time>
      </trkpt>
      <trkpt lat="42.09559" lon="25.33123">
        <ele>157.662071</ele>
        <time>2022-03-02T11:27:20.922Z</time>
      </trkpt>
      <trkpt lat="42.09558" lon="25.33108">
        <ele>157.871919</ele>
        <time>2022-03-02T11:27:24.958Z</time>
      </trkpt>
      <trkpt lat="42.09554" lon="25.33096">
        <ele>158.03543</ele>
        <time>2022-03-02T11:27:27.924Z</time>
      </trkpt>
      <trkpt lat="42.09552" lon="25.33081">
        <ele>158.243095</ele>
        <time>2022-03-02T11:27:31.931Z</time>
      </trkpt>
      <trkpt lat="42.0955" lon="25.33066">
        <ele>158.452148</ele>
        <time>2022-03-02T11:27:35.965Z</time>
      </trkpt>
      <trkpt lat="42.09548" lon="25.33054">
        <ele>158.617285</ele>
        <time>2022-03-02T11:27:38.921Z</time>
      </trkpt>
      <trkpt lat="42.09547" lon="25.33041">
        <ele>158.789455</ele>
        <time>2022-03-02T11:27:41.909Z</time>
      </trkpt>
      <trkpt lat="42.09546" lon="25.33029">
        <ele>158.956712</ele>
        <time>2022-03-02T11:27:44.932Z</time>
      </trkpt>
      <trkpt lat="42.09544" lon="25.33014">
        <ele>159.154887</ele>
        <time>2022-03-02T11:27:48.907Z</time>
      </trkpt>
      <trkpt lat="42.09542" lon="25.33">
        <ele>159.347732</ele>
        <time>2022-03-02T11:27:52.913Z</time>
      </trkpt>
      <trkpt lat="42.09541" lon="25.32987">
        <ele>159.468267</ele>
        <time>2022-03-02T11:27:56.927Z</time>
      </trkpt>
      <trkpt lat="42.0954" lon="25.32974">
        <ele>159.573746</ele>
        <time>2022-03-02T11:28:00.917Z</time>
      </trkpt>
      <trkpt lat="42.09538" lon="25.32961">
        <ele>159.680841</ele>
        <time>2022-03-02T11:28:04.919Z</time>
      </trkpt>
      <trkpt lat="42.09537" lon="25.32948">
        <ele>159.789605</ele>
        <time>2022-03-02T11:28:08.948Z</time>
      </trkpt>
      <trkpt lat="42.09536" lon="25.32935">
        <ele>159.897979</ele>
        <time>2022-03-02T11:28:12.922Z</time>
      </trkpt>
      <trkpt lat="42.09535" lon="25.32921">
        <ele>160.006087</ele>
        <time>2022-03-02T11:28:16.919Z</time>
      </trkpt>
      <trkpt lat="42.09533" lon="25.32908">
        <ele>160.121819</ele>
        <time>2022-03-02T11:28:20.921Z</time>
      </trkpt>
      <trkpt lat="42.09532" lon="25.32894">
        <ele>160.235379</ele>
        <time>2022-03-02T11:28:24.919Z</time>
      </trkpt>
      <trkpt lat="42.0953" lon="25.3288">
        <ele>160.34894</ele>
        <time>2022-03-02T11:28:28.912Z</time>
      </trkpt>
      <trkpt lat="42.0953" lon="25.32866">
        <ele>160.466162</ele>
        <time>2022-03-02T11:28:32.921Z</time>
      </trkpt>
      <trkpt lat="42.09528" lon="25.32852">
        <ele>160.58215</ele>
        <time>2022-03-02T11:28:36.936Z</time>
      </trkpt>
      <trkpt lat="42.09526" lon="25.32838">
        <ele>160.700735</ele>
        <time>2022-03-02T11:28:40.931Z</time>
      </trkpt>
      <trkpt lat="42.09525" lon="25.32822">
        <ele>160.825208</ele>
        <time>2022-03-02T11:28:44.929Z</time>
      </trkpt>
      <trkpt lat="42.09524" lon="25.32807">
        <ele>160.948527</ele>
        <time>2022-03-02T11:28:48.925Z</time>
      </trkpt>
      <trkpt lat="42.09523" lon="25.32795">
        <ele>161.04836</ele>
        <time>2022-03-02T11:28:51.924Z</time>
      </trkpt>
      <trkpt lat="42.09522" lon="25.3278">
        <ele>161.172901</ele>
        <time>2022-03-02T11:28:55.920Z</time>
      </trkpt>
      <trkpt lat="42.09521" lon="25.32764">
        <ele>161.304821</ele>
        <time>2022-03-02T11:28:59.908Z</time>
      </trkpt>
      <trkpt lat="42.09518" lon="25.32752">
        <ele>161.386287</ele>
        <time>2022-03-02T11:29:02.888Z</time>
      </trkpt>
      <trkpt lat="42.09517" lon="25.3274">
        <ele>161.44639</ele>
        <time>2022-03-02T11:29:05.925Z</time>
      </trkpt>
      <trkpt lat="42.09517" lon="25.32725">
        <ele>161.516762</ele>
        <time>2022-03-02T11:29:09.925Z</time>
      </trkpt>
      <trkpt lat="42.09515" lon="25.32714">
        <ele>161.575317</ele>
        <time>2022-03-02T11:29:12.933Z</time>
      </trkpt>
      <trkpt lat="42.09513" lon="25.32699">
        <ele>161.64819</ele>
        <time>2022-03-02T11:29:16.926Z</time>
      </trkpt>
      <trkpt lat="42.09511" lon="25.32684">
        <ele>161.718106</ele>
        <time>2022-03-02T11:29:20.919Z</time>
      </trkpt>
      <trkpt lat="42.09509" lon="25.32669">
        <ele>161.791097</ele>
        <time>2022-03-02T11:29:24.923Z</time>
      </trkpt>
      <trkpt lat="42.09507" lon="25.32656">
        <ele>161.857745</ele>
        <time>2022-03-02T11:29:28.927Z</time>
      </trkpt>
      <trkpt lat="42.09506" lon="25.32643">
        <ele>161.921391</ele>
        <time>2022-03-02T11:29:32.949Z</time>
      </trkpt>
      <trkpt lat="42.09508" lon="25.3263">
        <ele>161.982707</ele>
        <time>2022-03-02T11:29:36.950Z</time>
      </trkpt>
      <trkpt lat="42.09508" lon="25.32617">
        <ele>162.04721</ele>
        <time>2022-03-02T11:29:40.909Z</time>
      </trkpt>
      <trkpt lat="42.09508" lon="25.32604">
        <ele>162.106495</ele>
        <time>2022-03-02T11:29:43.929Z</time>
      </trkpt>
      <trkpt lat="42.09505" lon="25.32592">
        <ele>162.165517</ele>
        <time>2022-03-02T11:29:46.932Z</time>
      </trkpt>
      <trkpt lat="42.09504" lon="25.3258">
        <ele>162.225616</ele>
        <time>2022-03-02T11:29:49.917Z</time>
      </trkpt>
      <trkpt lat="42.09502" lon="25.32566">
        <ele>162.29199</ele>
        <time>2022-03-02T11:29:52.920Z</time>
      </trkpt>
      <trkpt lat="42.09501" lon="25.32552">
        <ele>162.359816</ele>
        <time>2022-03-02T11:29:55.933Z</time>
      </trkpt>
      <trkpt lat="42.095" lon="25.32539">
        <ele>162.426287</ele>
        <time>2022-03-02T11:29:58.916Z</time>
      </trkpt>
      <trkpt lat="42.09498" lon="25.32525">
        <ele>162.493362</ele>
        <time>2022-03-02T11:30:01.921Z</time>
      </trkpt>
      <trkpt lat="42.09496" lon="25.32511">
        <ele>162.54868</ele>
        <time>2022-03-02T11:30:04.960Z</time>
      </trkpt>
      <trkpt lat="42.09496" lon="25.32498">
        <ele>162.590012</ele>
        <time>2022-03-02T11:30:07.922Z</time>
      </trkpt>
      <trkpt lat="42.09495" lon="25.32486">
        <ele>162.629166</ele>
        <time>2022-03-02T11:30:10.930Z</time>
      </trkpt>
      <trkpt lat="42.09493" lon="25.32473">
        <ele>162.670572</ele>
        <time>2022-03-02T11:30:13.908Z</time>
      </trkpt>
      <trkpt lat="42.09492" lon="25.3246">
        <ele>162.713278</ele>
        <time>2022-03-02T11:30:16.924Z</time>
      </trkpt>
      <trkpt lat="42.09491" lon="25.32446">
        <ele>162.75739</ele>
        <time>2022-03-02T11:30:19.920Z</time>
      </trkpt>
      <trkpt lat="42.0949" lon="25.32431">
        <ele>162.80402</ele>
        <time>2022-03-02T11:30:22.908Z</time>
      </trkpt>
      <trkpt lat="42.09488" lon="25.32416">
        <ele>162.852451</ele>
        <time>2022-03-02T11:30:25.911Z</time>
      </trkpt>
      <trkpt lat="42.09487" lon="25.32401">
        <ele>162.900506</ele>
        <time>2022-03-02T11:30:28.923Z</time>
      </trkpt>
      <trkpt lat="42.09485" lon="25.32386">
        <ele>162.947817</ele>
        <time>2022-03-02T11:30:31.910Z</time>
      </trkpt>
      <trkpt lat="42.09484" lon="25.32372">
        <ele>162.992694</ele>
        <time>2022-03-02T11:30:34.946Z</time>
      </trkpt>
      <trkpt lat="42.09482" lon="25.32358">
        <ele>163.037677</ele>
        <time>2022-03-02T11:30:37.947Z</time>
      </trkpt>
      <trkpt lat="42.09479" lon="25.32345">
        <ele>163.082014</ele>
        <time>2022-03-02T11:30:40.932Z</time>
      </trkpt>
      <trkpt lat="42.09477" lon="25.32331">
        <ele>163.126865</ele>
        <time>2022-03-02T11:30:43.949Z</time>
      </trkpt>
      <trkpt lat="42.09474" lon="25.32317">
        <ele>163.171315</ele>
        <time>2022-03-02T11:30:46.975Z</time>
      </trkpt>
      <trkpt lat="42.09472" lon="25.32304">
        <ele>163.215676</ele>
        <time>2022-03-02T11:30:49.932Z</time>
      </trkpt>
      <trkpt lat="42.0947" lon="25.32289">
        <ele>163.262608</ele>
        <time>2022-03-02T11:30:52.920Z</time>
      </trkpt>
      <trkpt lat="42.09468" lon="25.32275">
        <ele>163.329772</ele>
        <time>2022-03-02T11:30:55.953Z</time>
      </trkpt>
      <trkpt lat="42.09466" lon="25.3226">
        <ele>163.437477</ele>
        <time>2022-03-02T11:30:58.928Z</time>
      </trkpt>
      <trkpt lat="42.09464" lon="25.32246">
        <ele>163.54004</ele>
        <time>2022-03-02T11:31:01.913Z</time>
      </trkpt>
      <trkpt lat="42.09462" lon="25.32234">
        <ele>163.629838</ele>
        <time>2022-03-02T11:31:04.920Z</time>
      </trkpt>
      <trkpt lat="42.09461" lon="25.32221">
        <ele>163.719241</ele>
        <time>2022-03-02T11:31:07.903Z</time>
      </trkpt>
      <trkpt lat="42.09462" lon="25.32209">
        <ele>163.808022</ele>
        <time>2022-03-02T11:31:10.920Z</time>
      </trkpt>
      <trkpt lat="42.09462" lon="25.32194">
        <ele>163.91576</ele>
        <time>2022-03-02T11:31:14.924Z</time>
      </trkpt>
      <trkpt lat="42.09462" lon="25.3218">
        <ele>164.020414</ele>
        <time>2022-03-02T11:31:18.922Z</time>
      </trkpt>
      <trkpt lat="42.09462" lon="25.32167">
        <ele>164.113687</ele>
        <time>2022-03-02T11:31:21.916Z</time>
      </trkpt>
      <trkpt lat="42.09462" lon="25.32153">
        <ele>164.213314</ele>
        <time>2022-03-02T11:31:24.912Z</time>
      </trkpt>
      <trkpt lat="42.09461" lon="25.32138">
        <ele>164.318958</ele>
        <time>2022-03-02T11:31:27.910Z</time>
      </trkpt>
      <trkpt lat="42.09459" lon="25.32124">
        <ele>164.424355</ele>
        <time>2022-03-02T11:31:30.905Z</time>
      </trkpt>
      <trkpt lat="42.09459" lon="25.32111">
        <ele>164.520376</ele>
        <time>2022-03-02T11:31:33.913Z</time>
      </trkpt>
      <trkpt lat="42.0946" lon="25.32098">
        <ele>164.615154</ele>
        <time>2022-03-02T11:31:36.901Z</time>
      </trkpt>
      <trkpt lat="42.09462" lon="25.32084">
        <ele>164.713463</ele>
        <time>2022-03-02T11:31:39.910Z</time>
      </trkpt>
      <trkpt lat="42.09462" lon="25.32071">
        <ele>164.810205</ele>
        <time>2022-03-02T11:31:42.922Z</time>
      </trkpt>
      <trkpt lat="42.09462" lon="25.32058">
        <ele>164.905539</ele>
        <time>2022-03-02T11:31:45.897Z</time>
      </trkpt>
      <trkpt lat="42.09461" lon="25.32044">
        <ele>165.005356</ele>
        <time>2022-03-02T11:31:48.908Z</time>
      </trkpt>
      <trkpt lat="42.09461" lon="25.32029">
        <ele>165.126016</ele>
        <time>2022-03-02T11:31:51.905Z</time>
      </trkpt>
      <trkpt lat="42.0946" lon="25.32014">
        <ele>165.248458</ele>
        <time>2022-03-02T11:31:54.920Z</time>
      </trkpt>
      <trkpt lat="42.09459" lon="25.31999">
        <ele>165.367969</ele>
        <time>2022-03-02T11:31:57.922Z</time>
      </trkpt>
      <trkpt lat="42.09459" lon="25.31985">
        <ele>165.484548</ele>
        <time>2022-03-02T11:32:00.917Z</time>
      </trkpt>
      <trkpt lat="42.09459" lon="25.3197">
        <ele>165.602738</ele>
        <time>2022-03-02T11:32:03.909Z</time>
      </trkpt>
      <trkpt lat="42.09459" lon="25.31956">
        <ele>165.714493</ele>
        <time>2022-03-02T11:32:06.908Z</time>
      </trkpt>
      <trkpt lat="42.09459" lon="25.31943">
        <ele>165.826976</ele>
        <time>2022-03-02T11:32:09.891Z</time>
      </trkpt>
      <trkpt lat="42.09459" lon="25.31929">
        <ele>165.938667</ele>
        <time>2022-03-02T11:32:12.904Z</time>
      </trkpt>
      <trkpt lat="42.09459" lon="25.31915">
        <ele>166.053616</ele>
        <time>2022-03-02T11:32:15.908Z</time>
      </trkpt>
      <trkpt lat="42.09459" lon="25.31901">
        <ele>166.166293</ele>
        <time>2022-03-02T11:32:18.905Z</time>
      </trkpt>
      <trkpt lat="42.09458" lon="25.31887">
        <ele>166.282292</ele>
        <time>2022-03-02T11:32:21.900Z</time>
      </trkpt>
      <trkpt lat="42.09459" lon="25.31872">
        <ele>166.407239</ele>
        <time>2022-03-02T11:32:24.925Z</time>
      </trkpt>
      <trkpt lat="42.0946" lon="25.31856">
        <ele>166.538319</ele>
        <time>2022-03-02T11:32:27.902Z</time>
      </trkpt>
      <trkpt lat="42.09461" lon="25.31838">
        <ele>166.68272</ele>
        <time>2022-03-02T11:32:30.903Z</time>
      </trkpt>
      <trkpt lat="42.09461" lon="25.31825">
        <ele>166.785634</ele>
        <time>2022-03-02T11:32:32.922Z</time>
      </trkpt>
      <trkpt lat="42.09461" lon="25.31807">
        <ele>166.934861</ele>
        <time>2022-03-02T11:32:35.917Z</time>
      </trkpt>
      <trkpt lat="42.09462" lon="25.31794">
        <ele>167.031745</ele>
        <time>2022-03-02T11:32:37.931Z</time>
      </trkpt>
      <trkpt lat="42.09462" lon="25.31782">
        <ele>167.099708</ele>
        <time>2022-03-02T11:32:39.921Z</time>
      </trkpt>
      <trkpt lat="42.09461" lon="25.3177">
        <ele>167.168277</ele>
        <time>2022-03-02T11:32:41.948Z</time>
      </trkpt>
      <trkpt lat="42.09462" lon="25.31758">
        <ele>167.237403</ele>
        <time>2022-03-02T11:32:43.923Z</time>
      </trkpt>
      <trkpt lat="42.09461" lon="25.3174">
        <ele>167.333941</ele>
        <time>2022-03-02T11:32:46.914Z</time>
      </trkpt>
      <trkpt lat="42.09459" lon="25.31724">
        <ele>167.427721</ele>
        <time>2022-03-02T11:32:49.941Z</time>
      </trkpt>
      <trkpt lat="42.0946" lon="25.31709">
        <ele>167.507162</ele>
        <time>2022-03-02T11:32:52.919Z</time>
      </trkpt>
      <trkpt lat="42.09461" lon="25.31695">
        <ele>167.584668</ele>
        <time>2022-03-02T11:32:55.942Z</time>
      </trkpt>
      <trkpt lat="42.09462" lon="25.31679">
        <ele>167.675647</ele>
        <time>2022-03-02T11:32:59.942Z</time>
      </trkpt>
      <trkpt lat="42.0946" lon="25.31663">
        <ele>167.768694</ele>
        <time>2022-03-02T11:33:02.922Z</time>
      </trkpt>
      <trkpt lat="42.0946" lon="25.31646">
        <ele>167.859627</ele>
        <time>2022-03-02T11:33:05.941Z</time>
      </trkpt>
      <trkpt lat="42.09459" lon="25.31631">
        <ele>167.945557</ele>
        <time>2022-03-02T11:33:08.952Z</time>
      </trkpt>
      <trkpt lat="42.09458" lon="25.31615">
        <ele>168.033459</ele>
        <time>2022-03-02T11:33:11.947Z</time>
      </trkpt>
      <trkpt lat="42.09457" lon="25.31603">
        <ele>168.103222</ele>
        <time>2022-03-02T11:33:14.941Z</time>
      </trkpt>
      <trkpt lat="42.09459" lon="25.31589">
        <ele>168.179822</ele>
        <time>2022-03-02T11:33:17.920Z</time>
      </trkpt>
      <trkpt lat="42.0946" lon="25.31575">
        <ele>168.25823</ele>
        <time>2022-03-02T11:33:20.925Z</time>
      </trkpt>
      <trkpt lat="42.09461" lon="25.3156">
        <ele>168.341801</ele>
        <time>2022-03-02T11:33:23.928Z</time>
      </trkpt>
      <trkpt lat="42.09463" lon="25.31546">
        <ele>168.31848</ele>
        <time>2022-03-02T11:33:26.925Z</time>
      </trkpt>
      <trkpt lat="42.09465" lon="25.31531">
        <ele>168.242819</ele>
        <time>2022-03-02T11:33:29.909Z</time>
      </trkpt>
      <trkpt lat="42.09462" lon="25.31515">
        <ele>168.157388</ele>
        <time>2022-03-02T11:33:32.920Z</time>
      </trkpt>
      <trkpt lat="42.0946" lon="25.31498">
        <ele>168.071438</ele>
        <time>2022-03-02T11:33:35.933Z</time>
      </trkpt>
      <trkpt lat="42.09458" lon="25.31481">
        <ele>167.980086</ele>
        <time>2022-03-02T11:33:38.938Z</time>
      </trkpt>
      <trkpt lat="42.09456" lon="25.31464">
        <ele>167.89352</ele>
        <time>2022-03-02T11:33:41.925Z</time>
      </trkpt>
      <trkpt lat="42.09454" lon="25.31447">
        <ele>167.803068</ele>
        <time>2022-03-02T11:33:44.914Z</time>
      </trkpt>
      <trkpt lat="42.09451" lon="25.31429">
        <ele>167.712859</ele>
        <time>2022-03-02T11:33:47.963Z</time>
      </trkpt>
      <trkpt lat="42.09451" lon="25.31414">
        <ele>167.633959</ele>
        <time>2022-03-02T11:33:50.898Z</time>
      </trkpt>
      <trkpt lat="42.09451" lon="25.31399">
        <ele>167.560361</ele>
        <time>2022-03-02T11:33:53.935Z</time>
      </trkpt>
      <trkpt lat="42.09454" lon="25.31385">
        <ele>167.48556</ele>
        <time>2022-03-02T11:33:56.927Z</time>
      </trkpt>
      <trkpt lat="42.09457" lon="25.3137">
        <ele>167.405669</ele>
        <time>2022-03-02T11:33:59.924Z</time>
      </trkpt>
      <trkpt lat="42.0946" lon="25.31355">
        <ele>167.324427</ele>
        <time>2022-03-02T11:34:02.931Z</time>
      </trkpt>
      <trkpt lat="42.09464" lon="25.3134">
        <ele>167.241483</ele>
        <time>2022-03-02T11:34:05.901Z</time>
      </trkpt>
      <trkpt lat="42.09468" lon="25.31326">
        <ele>167.167404</ele>
        <time>2022-03-02T11:34:08.906Z</time>
      </trkpt>
      <trkpt lat="42.09472" lon="25.31313">
        <ele>167.251312</ele>
        <time>2022-03-02T11:34:11.948Z</time>
      </trkpt>
      <trkpt lat="42.09478" lon="25.31301">
        <ele>167.501215</ele>
        <time>2022-03-02T11:34:14.928Z</time>
      </trkpt>
      <trkpt lat="42.09484" lon="25.3129">
        <ele>167.750627</ele>
        <time>2022-03-02T11:34:17.919Z</time>
      </trkpt>
      <trkpt lat="42.0949" lon="25.31277">
        <ele>168.007396</ele>
        <time>2022-03-02T11:34:20.909Z</time>
      </trkpt>
      <trkpt lat="42.09494" lon="25.31265">
        <ele>168.250487</ele>
        <time>2022-03-02T11:34:23.923Z</time>
      </trkpt>
      <trkpt lat="42.09499" lon="25.31254">
        <ele>168.484515</ele>
        <time>2022-03-02T11:34:26.953Z</time>
      </trkpt>
      <trkpt lat="42.09505" lon="25.31242">
        <ele>168.728518</ele>
        <time>2022-03-02T11:34:29.928Z</time>
      </trkpt>
      <trkpt lat="42.0951" lon="25.31231">
        <ele>168.961404</ele>
        <time>2022-03-02T11:34:32.945Z</time>
      </trkpt>
      <trkpt lat="42.09516" lon="25.31221">
        <ele>169.19237</ele>
        <time>2022-03-02T11:34:35.907Z</time>
      </trkpt>
      <trkpt lat="42.09521" lon="25.31211">
        <ele>169.407756</ele>
        <time>2022-03-02T11:34:38.928Z</time>
      </trkpt>
      <trkpt lat="42.09529" lon="25.312">
        <ele>169.678439</ele>
        <time>2022-03-02T11:34:42.925Z</time>
      </trkpt>
      <trkpt lat="42.09535" lon="25.3119">
        <ele>169.89322</ele>
        <time>2022-03-02T11:34:45.919Z</time>
      </trkpt>
      <trkpt lat="42.09541" lon="25.31181">
        <ele>170.114098</ele>
        <time>2022-03-02T11:34:48.941Z</time>
      </trkpt>
      <trkpt lat="42.09548" lon="25.31171">
        <ele>170.351812</ele>
        <time>2022-03-02T11:34:51.922Z</time>
      </trkpt>
      <trkpt lat="42.09556" lon="25.31161">
        <ele>170.603916</ele>
        <time>2022-03-02T11:34:54.929Z</time>
      </trkpt>
      <trkpt lat="42.09562" lon="25.31151">
        <ele>170.839593</ele>
        <time>2022-03-02T11:34:57.910Z</time>
      </trkpt>
      <trkpt lat="42.09569" lon="25.31139">
        <ele>171.097497</ele>
        <time>2022-03-02T11:35:00.927Z</time>
      </trkpt>
      <trkpt lat="42.09575" lon="25.31128">
        <ele>171.348457</ele>
        <time>2022-03-02T11:35:03.918Z</time>
      </trkpt>
      <trkpt lat="42.09581" lon="25.31117">
        <ele>171.403828</ele>
        <time>2022-03-02T11:35:06.916Z</time>
      </trkpt>
      <trkpt lat="42.09588" lon="25.31105">
        <ele>171.399757</ele>
        <time>2022-03-02T11:35:09.918Z</time>
      </trkpt>
      <trkpt lat="42.09595" lon="25.31094">
        <ele>171.395636</ele>
        <time>2022-03-02T11:35:12.934Z</time>
      </trkpt>
      <trkpt lat="42.09603" lon="25.31083">
        <ele>171.391365</ele>
        <time>2022-03-02T11:35:15.924Z</time>
      </trkpt>
      <trkpt lat="42.0961" lon="25.31072">
        <ele>171.387254</ele>
        <time>2022-03-02T11:35:18.919Z</time>
      </trkpt>
      <trkpt lat="42.09616" lon="25.3106">
        <ele>171.383355</ele>
        <time>2022-03-02T11:35:21.928Z</time>
      </trkpt>
      <trkpt lat="42.09619" lon="25.31048">
        <ele>171.379727</ele>
        <time>2022-03-02T11:35:24.903Z</time>
      </trkpt>
      <trkpt lat="42.09624" lon="25.31036">
        <ele>171.37588</ele>
        <time>2022-03-02T11:35:27.950Z</time>
      </trkpt>
      <trkpt lat="42.0963" lon="25.31025">
        <ele>171.372224</ele>
        <time>2022-03-02T11:35:30.934Z</time>
      </trkpt>
      <trkpt lat="42.09633" lon="25.31013">
        <ele>171.368599</ele>
        <time>2022-03-02T11:35:33.950Z</time>
      </trkpt>
      <trkpt lat="42.09636" lon="25.31">
        <ele>171.364779</ele>
        <time>2022-03-02T11:35:36.914Z</time>
      </trkpt>
      <trkpt lat="42.09641" lon="25.30988">
        <ele>171.36088</ele>
        <time>2022-03-02T11:35:39.925Z</time>
      </trkpt>
      <trkpt lat="42.09646" lon="25.30977">
        <ele>171.357215</ele>
        <time>2022-03-02T11:35:42.924Z</time>
      </trkpt>
      <trkpt lat="42.09651" lon="25.30962">
        <ele>171.352619</ele>
        <time>2022-03-02T11:35:46.922Z</time>
      </trkpt>
      <trkpt lat="42.09655" lon="25.30949">
        <ele>171.348645</ele>
        <time>2022-03-02T11:35:49.912Z</time>
      </trkpt>
      <trkpt lat="42.0966" lon="25.30936">
        <ele>171.344746</ele>
        <time>2022-03-02T11:35:52.924Z</time>
      </trkpt>
      <trkpt lat="42.09665" lon="25.30925">
        <ele>171.340979</ele>
        <time>2022-03-02T11:35:55.915Z</time>
      </trkpt>
      <trkpt lat="42.0967" lon="25.30913">
        <ele>171.263286</ele>
        <time>2022-03-02T11:35:58.919Z</time>
      </trkpt>
      <trkpt lat="42.09675" lon="25.30901">
        <ele>171.099666</ele>
        <time>2022-03-02T11:36:01.934Z</time>
      </trkpt>
      <trkpt lat="42.09682" lon="25.3089">
        <ele>170.932982</ele>
        <time>2022-03-02T11:36:04.926Z</time>
      </trkpt>
      <trkpt lat="42.09687" lon="25.3088">
        <ele>170.781903</ele>
        <time>2022-03-02T11:36:07.923Z</time>
      </trkpt>
      <trkpt lat="42.09692" lon="25.30865">
        <ele>170.5908</ele>
        <time>2022-03-02T11:36:11.927Z</time>
      </trkpt>
      <trkpt lat="42.09696" lon="25.30854">
        <ele>170.443812</ele>
        <time>2022-03-02T11:36:14.931Z</time>
      </trkpt>
      <trkpt lat="42.097" lon="25.30841">
        <ele>170.283836</ele>
        <time>2022-03-02T11:36:17.958Z</time>
      </trkpt>
      <trkpt lat="42.09704" lon="25.30827">
        <ele>170.096784</ele>
        <time>2022-03-02T11:36:21.913Z</time>
      </trkpt>
      <trkpt lat="42.09708" lon="25.30815">
        <ele>169.947529</ele>
        <time>2022-03-02T11:36:24.910Z</time>
      </trkpt>
      <trkpt lat="42.09711" lon="25.30802">
        <ele>169.791121</ele>
        <time>2022-03-02T11:36:27.921Z</time>
      </trkpt>
      <trkpt lat="42.09714" lon="25.3079">
        <ele>169.631312</ele>
        <time>2022-03-02T11:36:30.966Z</time>
      </trkpt>
      <trkpt lat="42.09717" lon="25.30777">
        <ele>169.474863</ele>
        <time>2022-03-02T11:36:33.919Z</time>
      </trkpt>
      <trkpt lat="42.09721" lon="25.30765">
        <ele>169.322669</ele>
        <time>2022-03-02T11:36:36.921Z</time>
      </trkpt>
      <trkpt lat="42.09725" lon="25.30753">
        <ele>169.16892</ele>
        <time>2022-03-02T11:36:39.901Z</time>
      </trkpt>
      <trkpt lat="42.09729" lon="25.30741">
        <ele>169.012374</ele>
        <time>2022-03-02T11:36:42.912Z</time>
      </trkpt>
      <trkpt lat="42.09732" lon="25.30729">
        <ele>168.859717</ele>
        <time>2022-03-02T11:36:45.930Z</time>
      </trkpt>
      <trkpt lat="42.09736" lon="25.30714">
        <ele>168.666138</ele>
        <time>2022-03-02T11:36:49.930Z</time>
      </trkpt>
      <trkpt lat="42.0974" lon="25.30702">
        <ele>168.52193</ele>
        <time>2022-03-02T11:36:52.924Z</time>
      </trkpt>
      <trkpt lat="42.09744" lon="25.30689">
        <ele>168.395488</ele>
        <time>2022-03-02T11:36:56.920Z</time>
      </trkpt>
      <trkpt lat="42.09748" lon="25.30674">
        <ele>168.284009</ele>
        <time>2022-03-02T11:37:00.927Z</time>
      </trkpt>
      <trkpt lat="42.09751" lon="25.30663">
        <ele>168.198018</ele>
        <time>2022-03-02T11:37:03.914Z</time>
      </trkpt>
      <trkpt lat="42.09756" lon="25.30649">
        <ele>168.086269</ele>
        <time>2022-03-02T11:37:07.925Z</time>
      </trkpt>
      <trkpt lat="42.09759" lon="25.30636">
        <ele>167.994379</ele>
        <time>2022-03-02T11:37:10.915Z</time>
      </trkpt>
      <trkpt lat="42.09761" lon="25.30624">
        <ele>167.904295</ele>
        <time>2022-03-02T11:37:13.921Z</time>
      </trkpt>
      <trkpt lat="42.09763" lon="25.30611">
        <ele>167.810958</ele>
        <time>2022-03-02T11:37:16.976Z</time>
      </trkpt>
      <trkpt lat="42.09766" lon="25.30598">
        <ele>167.712119</ele>
        <time>2022-03-02T11:37:19.914Z</time>
      </trkpt>
      <trkpt lat="42.09768" lon="25.30584">
        <ele>167.614192</ele>
        <time>2022-03-02T11:37:22.955Z</time>
      </trkpt>
      <trkpt lat="42.0977" lon="25.30571">
        <ele>167.519465</ele>
        <time>2022-03-02T11:37:25.926Z</time>
      </trkpt>
      <trkpt lat="42.09772" lon="25.30558">
        <ele>167.425825</ele>
        <time>2022-03-02T11:37:28.932Z</time>
      </trkpt>
      <trkpt lat="42.09774" lon="25.30545">
        <ele>167.33145</ele>
        <time>2022-03-02T11:37:31.921Z</time>
      </trkpt>
      <trkpt lat="42.09775" lon="25.30532">
        <ele>167.238054</ele>
        <time>2022-03-02T11:37:34.930Z</time>
      </trkpt>
      <trkpt lat="42.09776" lon="25.30519">
        <ele>167.146069</ele>
        <time>2022-03-02T11:37:37.925Z</time>
      </trkpt>
      <trkpt lat="42.09778" lon="25.30507">
        <ele>167.056062</ele>
        <time>2022-03-02T11:37:40.914Z</time>
      </trkpt>
      <trkpt lat="42.09779" lon="25.30494">
        <ele>166.966055</ele>
        <time>2022-03-02T11:37:43.918Z</time>
      </trkpt>
      <trkpt lat="42.0978" lon="25.30481">
        <ele>166.872659</ele>
        <time>2022-03-02T11:37:46.922Z</time>
      </trkpt>
      <trkpt lat="42.09781" lon="25.30469">
        <ele>166.78102</ele>
        <time>2022-03-02T11:37:49.957Z</time>
      </trkpt>
      <trkpt lat="42.09783" lon="25.30456">
        <ele>166.630999</ele>
        <time>2022-03-02T11:37:52.916Z</time>
      </trkpt>
      <trkpt lat="42.09785" lon="25.30442">
        <ele>166.442945</ele>
        <time>2022-03-02T11:37:55.930Z</time>
      </trkpt>
      <trkpt lat="42.09787" lon="25.30429">
        <ele>166.256908</ele>
        <time>2022-03-02T11:37:58.921Z</time>
      </trkpt>
      <trkpt lat="42.09789" lon="25.30417">
        <ele>166.075961</ele>
        <time>2022-03-02T11:38:01.921Z</time>
      </trkpt>
      <trkpt lat="42.09791" lon="25.30404">
        <ele>165.895405</ele>
        <time>2022-03-02T11:38:04.909Z</time>
      </trkpt>
      <trkpt lat="42.09793" lon="25.3039">
        <ele>165.699135</ele>
        <time>2022-03-02T11:38:07.924Z</time>
      </trkpt>
      <trkpt lat="42.09794" lon="25.30378">
        <ele>165.529329</ele>
        <time>2022-03-02T11:38:10.921Z</time>
      </trkpt>
      <trkpt lat="42.09795" lon="25.30365">
        <ele>165.350735</ele>
        <time>2022-03-02T11:38:13.916Z</time>
      </trkpt>
      <trkpt lat="42.09797" lon="25.30351">
        <ele>165.155151</ele>
        <time>2022-03-02T11:38:16.952Z</time>
      </trkpt>
      <trkpt lat="42.09799" lon="25.30337">
        <ele>164.954516</ele>
        <time>2022-03-02T11:38:19.913Z</time>
      </trkpt>
      <trkpt lat="42.098" lon="25.30323">
        <ele>164.763031</ele>
        <time>2022-03-02T11:38:22.919Z</time>
      </trkpt>
      <trkpt lat="42.09802" lon="25.30309">
        <ele>164.556515</ele>
        <time>2022-03-02T11:38:25.933Z</time>
      </trkpt>
      <trkpt lat="42.09804" lon="25.30294">
        <ele>164.352734</ele>
        <time>2022-03-02T11:38:28.923Z</time>
      </trkpt>
      <trkpt lat="42.09805" lon="25.3028">
        <ele>164.153222</ele>
        <time>2022-03-02T11:38:31.911Z</time>
      </trkpt>
      <trkpt lat="42.09807" lon="25.30265">
        <ele>163.943806</ele>
        <time>2022-03-02T11:38:34.986Z</time>
      </trkpt>
      <trkpt lat="42.09809" lon="25.30249">
        <ele>163.719163</ele>
        <time>2022-03-02T11:38:37.939Z</time>
      </trkpt>
      <trkpt lat="42.09811" lon="25.30233">
        <ele>163.4924</ele>
        <time>2022-03-02T11:38:40.921Z</time>
      </trkpt>
      <trkpt lat="42.09812" lon="25.30217">
        <ele>163.289565</ele>
        <time>2022-03-02T11:38:43.910Z</time>
      </trkpt>
      <trkpt lat="42.09814" lon="25.30201">
        <ele>163.106986</ele>
        <time>2022-03-02T11:38:46.919Z</time>
      </trkpt>
      <trkpt lat="42.09815" lon="25.30185">
        <ele>162.91926</ele>
        <time>2022-03-02T11:38:49.936Z</time>
      </trkpt>
      <trkpt lat="42.09819" lon="25.30169">
        <ele>162.737728</ele>
        <time>2022-03-02T11:38:52.905Z</time>
      </trkpt>
      <trkpt lat="42.09821" lon="25.30152">
        <ele>162.539596</ele>
        <time>2022-03-02T11:38:55.905Z</time>
      </trkpt>
      <trkpt lat="42.09822" lon="25.3014">
        <ele>162.402886</ele>
        <time>2022-03-02T11:38:57.913Z</time>
      </trkpt>
      <trkpt lat="42.09824" lon="25.30123">
        <ele>162.210721</ele>
        <time>2022-03-02T11:39:00.962Z</time>
      </trkpt>
      <trkpt lat="42.09826" lon="25.30106">
        <ele>162.023259</ele>
        <time>2022-03-02T11:39:03.915Z</time>
      </trkpt>
      <trkpt lat="42.09829" lon="25.30089">
        <ele>161.82331</ele>
        <time>2022-03-02T11:39:06.924Z</time>
      </trkpt>
      <trkpt lat="42.09831" lon="25.30077">
        <ele>161.683758</ele>
        <time>2022-03-02T11:39:08.966Z</time>
      </trkpt>
      <trkpt lat="42.09832" lon="25.30059">
        <ele>161.48429</ele>
        <time>2022-03-02T11:39:11.933Z</time>
      </trkpt>
      <trkpt lat="42.09834" lon="25.30042">
        <ele>161.29371</ele>
        <time>2022-03-02T11:39:14.911Z</time>
      </trkpt>
      <trkpt lat="42.09837" lon="25.30025">
        <ele>161.099056</ele>
        <time>2022-03-02T11:39:17.920Z</time>
      </trkpt>
      <trkpt lat="42.09839" lon="25.30008">
        <ele>160.90492</ele>
        <time>2022-03-02T11:39:20.925Z</time>
      </trkpt>
      <trkpt lat="42.09841" lon="25.29992">
        <ele>160.720747</ele>
        <time>2022-03-02T11:39:23.907Z</time>
      </trkpt>
      <trkpt lat="42.09843" lon="25.29975">
        <ele>160.689979</ele>
        <time>2022-03-02T11:39:26.926Z</time>
      </trkpt>
      <trkpt lat="42.09845" lon="25.29959">
        <ele>160.743426</ele>
        <time>2022-03-02T11:39:29.921Z</time>
      </trkpt>
      <trkpt lat="42.09846" lon="25.29944">
        <ele>160.793566</ele>
        <time>2022-03-02T11:39:32.914Z</time>
      </trkpt>
      <trkpt lat="42.09848" lon="25.2993">
        <ele>160.841046</ele>
        <time>2022-03-02T11:39:35.929Z</time>
      </trkpt>
      <trkpt lat="42.0985" lon="25.29914">
        <ele>160.893595</ele>
        <time>2022-03-02T11:39:38.923Z</time>
      </trkpt>
      <trkpt lat="42.09851" lon="25.29898">
        <ele>160.945992</ele>
        <time>2022-03-02T11:39:41.922Z</time>
      </trkpt>
      <trkpt lat="42.09853" lon="25.29882">
        <ele>161.000734</ele>
        <time>2022-03-02T11:39:44.918Z</time>
      </trkpt>
      <trkpt lat="42.09856" lon="25.29866">
        <ele>161.053286</ele>
        <time>2022-03-02T11:39:47.920Z</time>
      </trkpt>
      <trkpt lat="42.09858" lon="25.29849">
        <ele>161.110622</ele>
        <time>2022-03-02T11:39:50.920Z</time>
      </trkpt>
      <trkpt lat="42.0986" lon="25.29832">
        <ele>161.165302</ele>
        <time>2022-03-02T11:39:53.930Z</time>
      </trkpt>
      <trkpt lat="42.09861" lon="25.29816">
        <ele>161.220727</ele>
        <time>2022-03-02T11:39:56.938Z</time>
      </trkpt>
      <trkpt lat="42.09863" lon="25.29799">
        <ele>161.276173</ele>
        <time>2022-03-02T11:39:59.917Z</time>
      </trkpt>
      <trkpt lat="42.09866" lon="25.29783">
        <ele>161.3292</ele>
        <time>2022-03-02T11:40:02.917Z</time>
      </trkpt>
      <trkpt lat="42.09868" lon="25.29768">
        <ele>161.37981</ele>
        <time>2022-03-02T11:40:05.947Z</time>
      </trkpt>
      <trkpt lat="42.09869" lon="25.29752">
        <ele>161.431503</ele>
        <time>2022-03-02T11:40:08.922Z</time>
      </trkpt>
      <trkpt lat="42.09871" lon="25.29737">
        <ele>161.498866</ele>
        <time>2022-03-02T11:40:11.961Z</time>
      </trkpt>
      <trkpt lat="42.09874" lon="25.29723">
        <ele>161.571815</ele>
        <time>2022-03-02T11:40:14.908Z</time>
      </trkpt>
      <trkpt lat="42.09877" lon="25.29707">
        <ele>161.649383</ele>
        <time>2022-03-02T11:40:17.906Z</time>
      </trkpt>
      <trkpt lat="42.09878" lon="25.29692">
        <ele>161.722607</ele>
        <time>2022-03-02T11:40:20.932Z</time>
      </trkpt>
      <trkpt lat="42.09879" lon="25.29678">
        <ele>161.792575</ele>
        <time>2022-03-02T11:40:23.910Z</time>
      </trkpt>
      <trkpt lat="42.0988" lon="25.29664">
        <ele>161.861979</ele>
        <time>2022-03-02T11:40:26.929Z</time>
      </trkpt>
      <trkpt lat="42.09881" lon="25.29649">
        <ele>161.933743</ele>
        <time>2022-03-02T11:40:29.931Z</time>
      </trkpt>
      <trkpt lat="42.09883" lon="25.29635">
        <ele>162.003464</ele>
        <time>2022-03-02T11:40:32.930Z</time>
      </trkpt>
      <trkpt lat="42.09885" lon="25.29622">
        <ele>162.070785</ele>
        <time>2022-03-02T11:40:35.924Z</time>
      </trkpt>
      <trkpt lat="42.09887" lon="25.29608">
        <ele>162.138022</ele>
        <time>2022-03-02T11:40:38.940Z</time>
      </trkpt>
      <trkpt lat="42.09888" lon="25.29594">
        <ele>162.206228</ele>
        <time>2022-03-02T11:40:41.915Z</time>
      </trkpt>
      <trkpt lat="42.0989" lon="25.29581">
        <ele>162.274384</ele>
        <time>2022-03-02T11:40:44.954Z</time>
      </trkpt>
      <trkpt lat="42.09892" lon="25.29566">
        <ele>162.34628</ele>
        <time>2022-03-02T11:40:47.924Z</time>
      </trkpt>
      <trkpt lat="42.09894" lon="25.29552">
        <ele>162.415453</ele>
        <time>2022-03-02T11:40:50.929Z</time>
      </trkpt>
      <trkpt lat="42.09895" lon="25.29539">
        <ele>162.482994</ele>
        <time>2022-03-02T11:40:53.927Z</time>
      </trkpt>
      <trkpt lat="42.09897" lon="25.29524">
        <ele>162.554518</ele>
        <time>2022-03-02T11:40:56.918Z</time>
      </trkpt>
      <trkpt lat="42.09899" lon="25.2951">
        <ele>162.625325</ele>
        <time>2022-03-02T11:40:59.925Z</time>
      </trkpt>
      <trkpt lat="42.09901" lon="25.29496">
        <ele>162.695075</ele>
        <time>2022-03-02T11:41:02.913Z</time>
      </trkpt>
      <trkpt lat="42.09902" lon="25.29482">
        <ele>162.765315</ele>
        <time>2022-03-02T11:41:05.924Z</time>
      </trkpt>
      <trkpt lat="42.09904" lon="25.29468">
        <ele>162.836823</ele>
        <time>2022-03-02T11:41:08.939Z</time>
      </trkpt>
      <trkpt lat="42.09906" lon="25.29453">
        <ele>162.909525</ele>
        <time>2022-03-02T11:41:11.904Z</time>
      </trkpt>
      <trkpt lat="42.09908" lon="25.29439">
        <ele>162.981502</ele>
        <time>2022-03-02T11:41:14.914Z</time>
      </trkpt>
      <trkpt lat="42.09909" lon="25.29424">
        <ele>163.054278</ele>
        <time>2022-03-02T11:41:17.923Z</time>
      </trkpt>
      <trkpt lat="42.09911" lon="25.2941">
        <ele>163.125684</ele>
        <time>2022-03-02T11:41:20.926Z</time>
      </trkpt>
      <trkpt lat="42.09912" lon="25.29396">
        <ele>163.194549</ele>
        <time>2022-03-02T11:41:23.930Z</time>
      </trkpt>
      <trkpt lat="42.09915" lon="25.29382">
        <ele>163.26694</ele>
        <time>2022-03-02T11:41:26.930Z</time>
      </trkpt>
      <trkpt lat="42.09917" lon="25.29368">
        <ele>163.334222</ele>
        <time>2022-03-02T11:41:29.914Z</time>
      </trkpt>
      <trkpt lat="42.09918" lon="25.29354">
        <ele>163.40593</ele>
        <time>2022-03-02T11:41:32.924Z</time>
      </trkpt>
      <trkpt lat="42.0992" lon="25.29339">
        <ele>163.481642</ele>
        <time>2022-03-02T11:41:35.931Z</time>
      </trkpt>
      <trkpt lat="42.09921" lon="25.29324">
        <ele>163.556955</ele>
        <time>2022-03-02T11:41:38.941Z</time>
      </trkpt>
      <trkpt lat="42.09924" lon="25.29309">
        <ele>163.632326</ele>
        <time>2022-03-02T11:41:41.919Z</time>
      </trkpt>
      <trkpt lat="42.09925" lon="25.29294">
        <ele>163.705889</ele>
        <time>2022-03-02T11:41:44.962Z</time>
      </trkpt>
      <trkpt lat="42.09927" lon="25.2928">
        <ele>163.778479</ele>
        <time>2022-03-02T11:41:47.921Z</time>
      </trkpt>
      <trkpt lat="42.09929" lon="25.29265">
        <ele>163.85877</ele>
        <time>2022-03-02T11:41:50.924Z</time>
      </trkpt>
      <trkpt lat="42.09931" lon="25.29251">
        <ele>163.966196</ele>
        <time>2022-03-02T11:41:53.920Z</time>
      </trkpt>
      <trkpt lat="42.09933" lon="25.29236">
        <ele>164.076717</ele>
        <time>2022-03-02T11:41:56.912Z</time>
      </trkpt>
      <trkpt lat="42.09934" lon="25.29222">
        <ele>164.184898</ele>
        <time>2022-03-02T11:41:59.922Z</time>
      </trkpt>
      <trkpt lat="42.09936" lon="25.29208">
        <ele>164.290014</ele>
        <time>2022-03-02T11:42:02.918Z</time>
      </trkpt>
      <trkpt lat="42.09937" lon="25.29193">
        <ele>164.395335</ele>
        <time>2022-03-02T11:42:05.915Z</time>
      </trkpt>
      <trkpt lat="42.09939" lon="25.29179">
        <ele>164.502494</ele>
        <time>2022-03-02T11:42:08.927Z</time>
      </trkpt>
      <trkpt lat="42.09941" lon="25.29166">
        <ele>164.603133</ele>
        <time>2022-03-02T11:42:11.934Z</time>
      </trkpt>
      <trkpt lat="42.09943" lon="25.29152">
        <ele>164.704392</ele>
        <time>2022-03-02T11:42:14.926Z</time>
      </trkpt>
      <trkpt lat="42.09945" lon="25.29139">
        <ele>164.799866</ele>
        <time>2022-03-02T11:42:17.954Z</time>
      </trkpt>
      <trkpt lat="42.09946" lon="25.29127">
        <ele>164.891891</ele>
        <time>2022-03-02T11:42:20.912Z</time>
      </trkpt>
      <trkpt lat="42.09948" lon="25.29115">
        <ele>164.98141</ele>
        <time>2022-03-02T11:42:23.912Z</time>
      </trkpt>
      <trkpt lat="42.09949" lon="25.29099">
        <ele>165.09772</ele>
        <time>2022-03-02T11:42:27.902Z</time>
      </trkpt>
      <trkpt lat="42.09951" lon="25.29087">
        <ele>165.187749</ele>
        <time>2022-03-02T11:42:30.926Z</time>
      </trkpt>
      <trkpt lat="42.09952" lon="25.29075">
        <ele>165.27797</ele>
        <time>2022-03-02T11:42:33.932Z</time>
      </trkpt>
      <trkpt lat="42.09954" lon="25.29061">
        <ele>165.386729</ele>
        <time>2022-03-02T11:42:37.924Z</time>
      </trkpt>
      <trkpt lat="42.09956" lon="25.29046">
        <ele>165.499039</ele>
        <time>2022-03-02T11:42:41.916Z</time>
      </trkpt>
      <trkpt lat="42.09958" lon="25.29031">
        <ele>165.607658</ele>
        <time>2022-03-02T11:42:45.921Z</time>
      </trkpt>
      <trkpt lat="42.09959" lon="25.29017">
        <ele>165.649275</ele>
        <time>2022-03-02T11:42:49.945Z</time>
      </trkpt>
      <trkpt lat="42.09962" lon="25.29004">
        <ele>165.68062</ele>
        <time>2022-03-02T11:42:53.931Z</time>
      </trkpt>
      <trkpt lat="42.09964" lon="25.2899">
        <ele>165.714454</ele>
        <time>2022-03-02T11:42:57.912Z</time>
      </trkpt>
      <trkpt lat="42.09966" lon="25.28975">
        <ele>165.749863</ele>
        <time>2022-03-02T11:43:01.915Z</time>
      </trkpt>
      <trkpt lat="42.09968" lon="25.2896">
        <ele>165.785113</ele>
        <time>2022-03-02T11:43:05.966Z</time>
      </trkpt>
      <trkpt lat="42.09969" lon="25.28946">
        <ele>165.818919</ele>
        <time>2022-03-02T11:43:09.925Z</time>
      </trkpt>
      <trkpt lat="42.0997" lon="25.28931">
        <ele>165.854747</ele>
        <time>2022-03-02T11:43:13.935Z</time>
      </trkpt>
      <trkpt lat="42.09972" lon="25.28917">
        <ele>165.889507</ele>
        <time>2022-03-02T11:43:17.912Z</time>
      </trkpt>
      <trkpt lat="42.09974" lon="25.28902">
        <ele>165.924106</ele>
        <time>2022-03-02T11:43:21.919Z</time>
      </trkpt>
      <trkpt lat="42.09976" lon="25.28887">
        <ele>165.960954</ele>
        <time>2022-03-02T11:43:25.914Z</time>
      </trkpt>
      <trkpt lat="42.09977" lon="25.28874">
        <ele>165.990194</ele>
        <time>2022-03-02T11:43:28.947Z</time>
      </trkpt>
      <trkpt lat="42.09979" lon="25.2886">
        <ele>166.023813</ele>
        <time>2022-03-02T11:43:31.915Z</time>
      </trkpt>
      <trkpt lat="42.0998" lon="25.28846">
        <ele>166.056727</ele>
        <time>2022-03-02T11:43:34.921Z</time>
      </trkpt>
      <trkpt lat="42.09983" lon="25.28832">
        <ele>166.092269</ele>
        <time>2022-03-02T11:43:37.907Z</time>
      </trkpt>
      <trkpt lat="42.09986" lon="25.28816">
        <ele>166.130479</ele>
        <time>2022-03-02T11:43:40.940Z</time>
      </trkpt>
      <trkpt lat="42.09987" lon="25.288">
        <ele>166.169041</ele>
        <time>2022-03-02T11:43:43.915Z</time>
      </trkpt>
      <trkpt lat="42.09989" lon="25.28783">
        <ele>166.09891</ele>
        <time>2022-03-02T11:43:46.937Z</time>
      </trkpt>
      <trkpt lat="42.09992" lon="25.28766">
        <ele>165.90174</ele>
        <time>2022-03-02T11:43:49.950Z</time>
      </trkpt>
      <trkpt lat="42.09994" lon="25.28751">
        <ele>165.721544</ele>
        <time>2022-03-02T11:43:52.921Z</time>
      </trkpt>
      <trkpt lat="42.09996" lon="25.28738">
        <ele>165.581182</ele>
        <time>2022-03-02T11:43:54.922Z</time>
      </trkpt>
      <trkpt lat="42.09997" lon="25.28725">
        <ele>165.424287</ele>
        <time>2022-03-02T11:43:56.919Z</time>
      </trkpt>
      <trkpt lat="42.09999" lon="25.28712">
        <ele>165.273426</ele>
        <time>2022-03-02T11:43:58.915Z</time>
      </trkpt>
      <trkpt lat="42.1" lon="25.28698">
        <ele>165.116531</ele>
        <time>2022-03-02T11:44:00.957Z</time>
      </trkpt>
      <trkpt lat="42.10001" lon="25.28685">
        <ele>164.965462</ele>
        <time>2022-03-02T11:44:02.920Z</time>
      </trkpt>
      <trkpt lat="42.10003" lon="25.28672">
        <ele>164.825824</ele>
        <time>2022-03-02T11:44:04.922Z</time>
      </trkpt>
      <trkpt lat="42.10005" lon="25.28655">
        <ele>164.619464</ele>
        <time>2022-03-02T11:44:07.911Z</time>
      </trkpt>
      <trkpt lat="42.10007" lon="25.28637">
        <ele>164.41998</ele>
        <time>2022-03-02T11:44:10.897Z</time>
      </trkpt>
      <trkpt lat="42.10009" lon="25.2862">
        <ele>164.221122</ele>
        <time>2022-03-02T11:44:13.913Z</time>
      </trkpt>
      <trkpt lat="42.10011" lon="25.28603">
        <ele>164.031842</ele>
        <time>2022-03-02T11:44:16.923Z</time>
      </trkpt>
      <trkpt lat="42.10013" lon="25.28586">
        <ele>163.831</ele>
        <time>2022-03-02T11:44:19.919Z</time>
      </trkpt>
      <trkpt lat="42.10015" lon="25.28568">
        <ele>163.632165</ele>
        <time>2022-03-02T11:44:22.908Z</time>
      </trkpt>
      <trkpt lat="42.10016" lon="25.28556">
        <ele>163.492929</ele>
        <time>2022-03-02T11:44:24.919Z</time>
      </trkpt>
      <trkpt lat="42.10017" lon="25.28544">
        <ele>163.431863</ele>
        <time>2022-03-02T11:44:26.917Z</time>
      </trkpt>
      <trkpt lat="42.10018" lon="25.2853">
        <ele>163.412383</ele>
        <time>2022-03-02T11:44:28.926Z</time>
      </trkpt>
      <trkpt lat="42.1002" lon="25.28516">
        <ele>163.392638</ele>
        <time>2022-03-02T11:44:30.928Z</time>
      </trkpt>
      <trkpt lat="42.10021" lon="25.28501">
        <ele>163.372975</ele>
        <time>2022-03-02T11:44:32.908Z</time>
      </trkpt>
      <trkpt lat="42.10023" lon="25.28488">
        <ele>163.354593</ele>
        <time>2022-03-02T11:44:34.917Z</time>
      </trkpt>
      <trkpt lat="42.10024" lon="25.28475">
        <ele>163.335914</ele>
        <time>2022-03-02T11:44:36.915Z</time>
      </trkpt>
      <trkpt lat="42.10024" lon="25.28462">
        <ele>163.318494</ele>
        <time>2022-03-02T11:44:38.924Z</time>
      </trkpt>
      <trkpt lat="42.10026" lon="25.28449">
        <ele>163.299653</ele>
        <time>2022-03-02T11:44:40.949Z</time>
      </trkpt>
      <trkpt lat="42.10027" lon="25.28436">
        <ele>163.281568</ele>
        <time>2022-03-02T11:44:42.912Z</time>
      </trkpt>
      <trkpt lat="42.10027" lon="25.28423">
        <ele>163.264392</ele>
        <time>2022-03-02T11:44:44.914Z</time>
      </trkpt>
      <trkpt lat="42.10028" lon="25.28411">
        <ele>163.247033</ele>
        <time>2022-03-02T11:44:46.937Z</time>
      </trkpt>
      <trkpt lat="42.10029" lon="25.28399">
        <ele>163.230087</ele>
        <time>2022-03-02T11:44:48.929Z</time>
      </trkpt>
      <trkpt lat="42.10031" lon="25.28381">
        <ele>163.205483</ele>
        <time>2022-03-02T11:44:51.980Z</time>
      </trkpt>
      <trkpt lat="42.10032" lon="25.28364">
        <ele>163.181311</ele>
        <time>2022-03-02T11:44:54.932Z</time>
      </trkpt>
      <trkpt lat="42.10034" lon="25.28347">
        <ele>163.157849</ele>
        <time>2022-03-02T11:44:57.923Z</time>
      </trkpt>
      <trkpt lat="42.10035" lon="25.28331">
        <ele>163.13597</ele>
        <time>2022-03-02T11:45:00.962Z</time>
      </trkpt>
      <trkpt lat="42.10036" lon="25.28316">
        <ele>163.115609</ele>
        <time>2022-03-02T11:45:03.918Z</time>
      </trkpt>
      <trkpt lat="42.10037" lon="25.28303">
        <ele>163.269258</ele>
        <time>2022-03-02T11:45:06.929Z</time>
      </trkpt>
      <trkpt lat="42.10038" lon="25.28289">
        <ele>163.536066</ele>
        <time>2022-03-02T11:45:09.933Z</time>
      </trkpt>
      <trkpt lat="42.10039" lon="25.28275">
        <ele>163.801523</ele>
        <time>2022-03-02T11:45:12.918Z</time>
      </trkpt>
      <trkpt lat="42.10039" lon="25.28262">
        <ele>164.053831</ele>
        <time>2022-03-02T11:45:15.944Z</time>
      </trkpt>
      <trkpt lat="42.10039" lon="25.28248">
        <ele>164.315889</ele>
        <time>2022-03-02T11:45:18.922Z</time>
      </trkpt>
      <trkpt lat="42.1004" lon="25.28235">
        <ele>164.557111</ele>
        <time>2022-03-02T11:45:21.961Z</time>
      </trkpt>
      <trkpt lat="42.1004" lon="25.2822">
        <ele>164.851737</ele>
        <time>2022-03-02T11:45:25.983Z</time>
      </trkpt>
      <trkpt lat="42.10041" lon="25.28207">
        <ele>165.093137</ele>
        <time>2022-03-02T11:45:28.923Z</time>
      </trkpt>
      <trkpt lat="42.10042" lon="25.28195">
        <ele>165.329832</ele>
        <time>2022-03-02T11:45:31.907Z</time>
      </trkpt>
      <trkpt lat="42.10043" lon="25.28183">
        <ele>165.568744</ele>
        <time>2022-03-02T11:45:34.920Z</time>
      </trkpt>
      <trkpt lat="42.10044" lon="25.28167">
        <ele>165.869799</ele>
        <time>2022-03-02T11:45:38.907Z</time>
      </trkpt>
      <trkpt lat="42.10045" lon="25.28154">
        <ele>166.123051</ele>
        <time>2022-03-02T11:45:41.927Z</time>
      </trkpt>
      <trkpt lat="42.10046" lon="25.28142">
        <ele>166.354583</ele>
        <time>2022-03-02T11:45:44.928Z</time>
      </trkpt>
      <trkpt lat="42.10047" lon="25.28129">
        <ele>166.597888</ele>
        <time>2022-03-02T11:45:47.918Z</time>
      </trkpt>
      <trkpt lat="42.10047" lon="25.28114">
        <ele>166.894567</ele>
        <time>2022-03-02T11:45:51.920Z</time>
      </trkpt>
      <trkpt lat="42.10048" lon="25.28098">
        <ele>167.191101</ele>
        <time>2022-03-02T11:45:55.910Z</time>
      </trkpt>
      <trkpt lat="42.10048" lon="25.28086">
        <ele>167.424696</ele>
        <time>2022-03-02T11:45:58.914Z</time>
      </trkpt>
      <trkpt lat="42.10049" lon="25.28073">
        <ele>167.670595</ele>
        <time>2022-03-02T11:46:01.923Z</time>
      </trkpt>
      <trkpt lat="42.10051" lon="25.28061">
        <ele>167.764087</ele>
        <time>2022-03-02T11:46:04.954Z</time>
      </trkpt>
      <trkpt lat="42.10052" lon="25.28045">
        <ele>167.807702</ele>
        <time>2022-03-02T11:46:08.921Z</time>
      </trkpt>
      <trkpt lat="42.10052" lon="25.28033">
        <ele>167.842479</ele>
        <time>2022-03-02T11:46:11.925Z</time>
      </trkpt>
      <trkpt lat="42.10053" lon="25.2802">
        <ele>167.878409</ele>
        <time>2022-03-02T11:46:14.920Z</time>
      </trkpt>
      <trkpt lat="42.10053" lon="25.28007">
        <ele>167.916246</ele>
        <time>2022-03-02T11:46:17.945Z</time>
      </trkpt>
      <trkpt lat="42.10055" lon="25.27994">
        <ele>167.953085</ele>
        <time>2022-03-02T11:46:20.928Z</time>
      </trkpt>
      <trkpt lat="42.10056" lon="25.27981">
        <ele>167.989859</ele>
        <time>2022-03-02T11:46:23.941Z</time>
      </trkpt>
      <trkpt lat="42.10057" lon="25.27968">
        <ele>168.02603</ele>
        <time>2022-03-02T11:46:26.949Z</time>
      </trkpt>
      <trkpt lat="42.10058" lon="25.27956">
        <ele>168.061146</ele>
        <time>2022-03-02T11:46:29.930Z</time>
      </trkpt>
      <trkpt lat="42.10059" lon="25.2794">
        <ele>168.106558</ele>
        <time>2022-03-02T11:46:33.925Z</time>
      </trkpt>
      <trkpt lat="42.1006" lon="25.27927">
        <ele>168.14218</ele>
        <time>2022-03-02T11:46:36.939Z</time>
      </trkpt>
      <trkpt lat="42.1006" lon="25.27914">
        <ele>168.178928</ele>
        <time>2022-03-02T11:46:39.913Z</time>
      </trkpt>
      <trkpt lat="42.10061" lon="25.27901">
        <ele>168.21624</ele>
        <time>2022-03-02T11:46:42.934Z</time>
      </trkpt>
      <trkpt lat="42.10062" lon="25.27889">
        <ele>168.251754</ele>
        <time>2022-03-02T11:46:45.930Z</time>
      </trkpt>
      <trkpt lat="42.10063" lon="25.27876">
        <ele>168.28684</ele>
        <time>2022-03-02T11:46:48.961Z</time>
      </trkpt>
      <trkpt lat="42.10063" lon="25.27864">
        <ele>168.321826</ele>
        <time>2022-03-02T11:46:51.924Z</time>
      </trkpt>
      <trkpt lat="42.10064" lon="25.27851">
        <ele>168.35863</ele>
        <time>2022-03-02T11:46:54.935Z</time>
      </trkpt>
      <trkpt lat="42.10065" lon="25.27839">
        <ele>168.393351</ele>
        <time>2022-03-02T11:46:57.910Z</time>
      </trkpt>
      <trkpt lat="42.10066" lon="25.27826">
        <ele>168.406291</ele>
        <time>2022-03-02T11:47:00.913Z</time>
      </trkpt>
      <trkpt lat="42.10067" lon="25.27813">
        <ele>168.318005</ele>
        <time>2022-03-02T11:47:03.926Z</time>
      </trkpt>
      <trkpt lat="42.10068" lon="25.278">
        <ele>168.228426</ele>
        <time>2022-03-02T11:47:06.920Z</time>
      </trkpt>
      <trkpt lat="42.10069" lon="25.27787">
        <ele>168.135882</ele>
        <time>2022-03-02T11:47:09.918Z</time>
      </trkpt>
      <trkpt lat="42.1007" lon="25.27774">
        <ele>168.046303</ele>
        <time>2022-03-02T11:47:12.918Z</time>
      </trkpt>
      <trkpt lat="42.10071" lon="25.27761">
        <ele>167.951086</ele>
        <time>2022-03-02T11:47:15.933Z</time>
      </trkpt>
      <trkpt lat="42.10072" lon="25.27748">
        <ele>167.862799</ele>
        <time>2022-03-02T11:47:18.922Z</time>
      </trkpt>
      <trkpt lat="42.10072" lon="25.27734">
        <ele>167.761075</ele>
        <time>2022-03-02T11:47:21.913Z</time>
      </trkpt>
      <trkpt lat="42.10073" lon="25.27718">
        <ele>167.655365</ele>
        <time>2022-03-02T11:47:24.949Z</time>
      </trkpt>
      <trkpt lat="42.10074" lon="25.27703">
        <ele>167.544107</ele>
        <time>2022-03-02T11:47:27.926Z</time>
      </trkpt>
      <trkpt lat="42.10075" lon="25.27686">
        <ele>167.430404</ele>
        <time>2022-03-02T11:47:30.912Z</time>
      </trkpt>
      <trkpt lat="42.10076" lon="25.2767">
        <ele>167.317286</ele>
        <time>2022-03-02T11:47:33.932Z</time>
      </trkpt>
      <trkpt lat="42.10077" lon="25.27654">
        <ele>167.203165</ele>
        <time>2022-03-02T11:47:36.919Z</time>
      </trkpt>
      <trkpt lat="42.10078" lon="25.27637">
        <ele>167.082505</ele>
        <time>2022-03-02T11:47:39.909Z</time>
      </trkpt>
      <trkpt lat="42.10079" lon="25.27624">
        <ele>166.997087</ele>
        <time>2022-03-02T11:47:41.923Z</time>
      </trkpt>
      <trkpt lat="42.1008" lon="25.27612">
        <ele>166.910283</ele>
        <time>2022-03-02T11:47:43.923Z</time>
      </trkpt>
      <trkpt lat="42.10081" lon="25.27599">
        <ele>166.820507</ele>
        <time>2022-03-02T11:47:45.958Z</time>
      </trkpt>
      <trkpt lat="42.10082" lon="25.27587">
        <ele>166.729216</ele>
        <time>2022-03-02T11:47:47.911Z</time>
      </trkpt>
      <trkpt lat="42.10083" lon="25.27573">
        <ele>166.495184</ele>
        <time>2022-03-02T11:47:49.924Z</time>
      </trkpt>
      <trkpt lat="42.10084" lon="25.2756">
        <ele>166.265142</ele>
        <time>2022-03-02T11:47:51.929Z</time>
      </trkpt>
      <trkpt lat="42.10085" lon="25.27547">
        <ele>166.023016</ele>
        <time>2022-03-02T11:47:53.957Z</time>
      </trkpt>
      <trkpt lat="42.10086" lon="25.27533">
        <ele>165.778718</ele>
        <time>2022-03-02T11:47:55.906Z</time>
      </trkpt>
      <trkpt lat="42.10087" lon="25.27519">
        <ele>165.525161</ele>
        <time>2022-03-02T11:47:57.917Z</time>
      </trkpt>
      <trkpt lat="42.10089" lon="25.27505">
        <ele>165.274819</ele>
        <time>2022-03-02T11:47:59.952Z</time>
      </trkpt>
      <trkpt lat="42.10091" lon="25.2749">
        <ele>165.017126</ele>
        <time>2022-03-02T11:48:01.930Z</time>
      </trkpt>
      <trkpt lat="42.10093" lon="25.27476">
        <ele>164.766369</ele>
        <time>2022-03-02T11:48:03.925Z</time>
      </trkpt>
      <trkpt lat="42.10095" lon="25.27462">
        <ele>164.513443</ele>
        <time>2022-03-02T11:48:05.913Z</time>
      </trkpt>
      <trkpt lat="42.10097" lon="25.27448">
        <ele>164.256876</ele>
        <time>2022-03-02T11:48:07.917Z</time>
      </trkpt>
      <trkpt lat="42.101" lon="25.27433">
        <ele>163.992661</ele>
        <time>2022-03-02T11:48:09.912Z</time>
      </trkpt>
      <trkpt lat="42.10102" lon="25.27419">
        <ele>163.731078</ele>
        <time>2022-03-02T11:48:11.932Z</time>
      </trkpt>
      <trkpt lat="42.10104" lon="25.27404">
        <ele>163.470782</ele>
        <time>2022-03-02T11:48:13.904Z</time>
      </trkpt>
      <trkpt lat="42.10106" lon="25.2739">
        <ele>163.210931</ele>
        <time>2022-03-02T11:48:15.935Z</time>
      </trkpt>
      <trkpt lat="42.10108" lon="25.27375">
        <ele>162.955822</ele>
        <time>2022-03-02T11:48:17.905Z</time>
      </trkpt>
      <trkpt lat="42.1011" lon="25.27361">
        <ele>162.700942</ele>
        <time>2022-03-02T11:48:19.911Z</time>
      </trkpt>
      <trkpt lat="42.10112" lon="25.27347">
        <ele>162.449744</ele>
        <time>2022-03-02T11:48:21.903Z</time>
      </trkpt>
      <trkpt lat="42.10114" lon="25.27332">
        <ele>162.315333</ele>
        <time>2022-03-02T11:48:23.939Z</time>
      </trkpt>
      <trkpt lat="42.10116" lon="25.27318">
        <ele>162.178556</ele>
        <time>2022-03-02T11:48:25.939Z</time>
      </trkpt>
      <trkpt lat="42.10119" lon="25.27303">
        <ele>162.041297</ele>
        <time>2022-03-02T11:48:27.959Z</time>
      </trkpt>
      <trkpt lat="42.1012" lon="25.27288">
        <ele>161.905388</ele>
        <time>2022-03-02T11:48:29.938Z</time>
      </trkpt>
      <trkpt lat="42.10122" lon="25.27274">
        <ele>161.770789</ele>
        <time>2022-03-02T11:48:31.929Z</time>
      </trkpt>
      <trkpt lat="42.10124" lon="25.2726">
        <ele>161.641867</ele>
        <time>2022-03-02T11:48:33.924Z</time>
      </trkpt>
      <trkpt lat="42.10125" lon="25.27246">
        <ele>161.512501</ele>
        <time>2022-03-02T11:48:35.912Z</time>
      </trkpt>
      <trkpt lat="42.10127" lon="25.27233">
        <ele>161.386738</ele>
        <time>2022-03-02T11:48:37.920Z</time>
      </trkpt>
      <trkpt lat="42.10129" lon="25.27219">
        <ele>161.259169</ele>
        <time>2022-03-02T11:48:39.941Z</time>
      </trkpt>
      <trkpt lat="42.10131" lon="25.27206">
        <ele>161.138336</ele>
        <time>2022-03-02T11:48:41.913Z</time>
      </trkpt>
      <trkpt lat="42.10133" lon="25.27194">
        <ele>161.025567</ele>
        <time>2022-03-02T11:48:43.919Z</time>
      </trkpt>
      <trkpt lat="42.10136" lon="25.27176">
        <ele>160.862165</ele>
        <time>2022-03-02T11:48:46.922Z</time>
      </trkpt>
      <trkpt lat="42.10137" lon="25.2716">
        <ele>160.709973</ele>
        <time>2022-03-02T11:48:49.966Z</time>
      </trkpt>
      <trkpt lat="42.1014" lon="25.27144">
        <ele>160.556039</ele>
        <time>2022-03-02T11:48:52.908Z</time>
      </trkpt>
      <trkpt lat="42.10141" lon="25.27132">
        <ele>160.44425</ele>
        <time>2022-03-02T11:48:54.918Z</time>
      </trkpt>
      <trkpt lat="42.10144" lon="25.27119">
        <ele>160.325567</ele>
        <time>2022-03-02T11:48:56.925Z</time>
      </trkpt>
      <trkpt lat="42.10145" lon="25.27107">
        <ele>160.240707</ele>
        <time>2022-03-02T11:48:58.919Z</time>
      </trkpt>
      <trkpt lat="42.10146" lon="25.27094">
        <ele>160.240881</ele>
        <time>2022-03-02T11:49:00.932Z</time>
      </trkpt>
      <trkpt lat="42.10148" lon="25.27082">
        <ele>160.241043</ele>
        <time>2022-03-02T11:49:02.901Z</time>
      </trkpt>
      <trkpt lat="42.1015" lon="25.27065">
        <ele>160.241269</ele>
        <time>2022-03-02T11:49:05.905Z</time>
      </trkpt>
      <trkpt lat="42.10152" lon="25.27049">
        <ele>160.241487</ele>
        <time>2022-03-02T11:49:08.897Z</time>
      </trkpt>
      <trkpt lat="42.10155" lon="25.27033">
        <ele>160.241702</ele>
        <time>2022-03-02T11:49:11.945Z</time>
      </trkpt>
      <trkpt lat="42.10158" lon="25.27016">
        <ele>160.241938</ele>
        <time>2022-03-02T11:49:14.929Z</time>
      </trkpt>
      <trkpt lat="42.1016" lon="25.26998">
        <ele>160.242176</ele>
        <time>2022-03-02T11:49:17.897Z</time>
      </trkpt>
      <trkpt lat="42.10162" lon="25.26981">
        <ele>160.242405</ele>
        <time>2022-03-02T11:49:20.916Z</time>
      </trkpt>
      <trkpt lat="42.10165" lon="25.26965">
        <ele>160.242629</ele>
        <time>2022-03-02T11:49:23.902Z</time>
      </trkpt>
      <trkpt lat="42.10167" lon="25.26948">
        <ele>160.242858</ele>
        <time>2022-03-02T11:49:26.917Z</time>
      </trkpt>
      <trkpt lat="42.10169" lon="25.26931">
        <ele>160.243081</ele>
        <time>2022-03-02T11:49:29.932Z</time>
      </trkpt>
      <trkpt lat="42.10171" lon="25.26916">
        <ele>160.243284</ele>
        <time>2022-03-02T11:49:32.909Z</time>
      </trkpt>
      <trkpt lat="42.10173" lon="25.26901">
        <ele>160.243484</ele>
        <time>2022-03-02T11:49:35.904Z</time>
      </trkpt>
      <trkpt lat="42.10175" lon="25.26886">
        <ele>160.243693</ele>
        <time>2022-03-02T11:49:38.918Z</time>
      </trkpt>
      <trkpt lat="42.10177" lon="25.26869">
        <ele>160.274358</ele>
        <time>2022-03-02T11:49:41.989Z</time>
      </trkpt>
      <trkpt lat="42.1018" lon="25.26852">
        <ele>160.476277</ele>
        <time>2022-03-02T11:49:44.918Z</time>
      </trkpt>
      <trkpt lat="42.10183" lon="25.26836">
        <ele>160.670515</ele>
        <time>2022-03-02T11:49:47.940Z</time>
      </trkpt>
      <trkpt lat="42.10185" lon="25.26819">
        <ele>160.867985</ele>
        <time>2022-03-02T11:49:50.924Z</time>
      </trkpt>
      <trkpt lat="42.10188" lon="25.26802">
        <ele>161.074231</ele>
        <time>2022-03-02T11:49:53.911Z</time>
      </trkpt>
      <trkpt lat="42.1019" lon="25.26785">
        <ele>161.270749</ele>
        <time>2022-03-02T11:49:56.913Z</time>
      </trkpt>
      <trkpt lat="42.10192" lon="25.26769">
        <ele>161.461579</ele>
        <time>2022-03-02T11:49:59.909Z</time>
      </trkpt>
      <trkpt lat="42.10195" lon="25.26752">
        <ele>161.658666</ele>
        <time>2022-03-02T11:50:02.904Z</time>
      </trkpt>
      <trkpt lat="42.10197" lon="25.26735">
        <ele>161.863773</ele>
        <time>2022-03-02T11:50:05.928Z</time>
      </trkpt>
      <trkpt lat="42.102" lon="25.26718">
        <ele>162.069822</ele>
        <time>2022-03-02T11:50:08.928Z</time>
      </trkpt>
      <trkpt lat="42.10203" lon="25.26701">
        <ele>162.270249</ele>
        <time>2022-03-02T11:50:11.906Z</time>
      </trkpt>
      <trkpt lat="42.10206" lon="25.26684">
        <ele>162.473078</ele>
        <time>2022-03-02T11:50:14.967Z</time>
      </trkpt>
      <trkpt lat="42.10209" lon="25.26666">
        <ele>162.677364</ele>
        <time>2022-03-02T11:50:17.912Z</time>
      </trkpt>
      <trkpt lat="42.1021" lon="25.26649">
        <ele>162.881727</ele>
        <time>2022-03-02T11:50:20.921Z</time>
      </trkpt>
      <trkpt lat="42.10212" lon="25.26632">
        <ele>163.064998</ele>
        <time>2022-03-02T11:50:23.929Z</time>
      </trkpt>
      <trkpt lat="42.10214" lon="25.26616">
        <ele>163.104906</ele>
        <time>2022-03-02T11:50:26.901Z</time>
      </trkpt>
      <trkpt lat="42.10216" lon="25.26599">
        <ele>163.145257</ele>
        <time>2022-03-02T11:50:29.932Z</time>
      </trkpt>
      <trkpt lat="42.10219" lon="25.26583">
        <ele>163.185087</ele>
        <time>2022-03-02T11:50:32.925Z</time>
      </trkpt>
      <trkpt lat="42.10221" lon="25.26567">
        <ele>163.22288</ele>
        <time>2022-03-02T11:50:35.907Z</time>
      </trkpt>
      <trkpt lat="42.10223" lon="25.26552">
        <ele>163.261055</ele>
        <time>2022-03-02T11:50:38.923Z</time>
      </trkpt>
      <trkpt lat="42.10225" lon="25.26535">
        <ele>163.301062</ele>
        <time>2022-03-02T11:50:41.921Z</time>
      </trkpt>
      <trkpt lat="42.10228" lon="25.26519">
        <ele>163.339933</ele>
        <time>2022-03-02T11:50:44.914Z</time>
      </trkpt>
      <trkpt lat="42.10231" lon="25.26504">
        <ele>163.378573</ele>
        <time>2022-03-02T11:50:47.947Z</time>
      </trkpt>
      <trkpt lat="42.10234" lon="25.26488">
        <ele>163.4173</ele>
        <time>2022-03-02T11:50:50.909Z</time>
      </trkpt>
      <trkpt lat="42.10236" lon="25.26472">
        <ele>163.455768</ele>
        <time>2022-03-02T11:50:53.913Z</time>
      </trkpt>
      <trkpt lat="42.10238" lon="25.26457">
        <ele>163.492944</ele>
        <time>2022-03-02T11:50:56.939Z</time>
      </trkpt>
      <trkpt lat="42.1024" lon="25.2644">
        <ele>163.533136</ele>
        <time>2022-03-02T11:50:59.928Z</time>
      </trkpt>
      <trkpt lat="42.10242" lon="25.26423">
        <ele>163.573802</ele>
        <time>2022-03-02T11:51:02.928Z</time>
      </trkpt>
      <trkpt lat="42.10246" lon="25.26406">
        <ele>163.615851</ele>
        <time>2022-03-02T11:51:05.911Z</time>
      </trkpt>
      <trkpt lat="42.10248" lon="25.2639">
        <ele>163.690722</ele>
        <time>2022-03-02T11:51:08.920Z</time>
      </trkpt>
      <trkpt lat="42.1025" lon="25.26373">
        <ele>163.823175</ele>
        <time>2022-03-02T11:51:11.950Z</time>
      </trkpt>
      <trkpt lat="42.10253" lon="25.26356">
        <ele>163.956381</ele>
        <time>2022-03-02T11:51:14.937Z</time>
      </trkpt>
      <trkpt lat="42.10255" lon="25.26339">
        <ele>164.0847</ele>
        <time>2022-03-02T11:51:17.925Z</time>
      </trkpt>
      <trkpt lat="42.10257" lon="25.26323">
        <ele>164.206979</ele>
        <time>2022-03-02T11:51:20.916Z</time>
      </trkpt>
      <trkpt lat="42.10259" lon="25.26307">
        <ele>164.332858</ele>
        <time>2022-03-02T11:51:23.968Z</time>
      </trkpt>
      <trkpt lat="42.10261" lon="25.26291">
        <ele>164.459493</ele>
        <time>2022-03-02T11:51:26.947Z</time>
      </trkpt>
      <trkpt lat="42.10263" lon="25.26275">
        <ele>164.587236</ele>
        <time>2022-03-02T11:51:29.912Z</time>
      </trkpt>
      <trkpt lat="42.10265" lon="25.26259">
        <ele>164.710456</ele>
        <time>2022-03-02T11:51:32.945Z</time>
      </trkpt>
      <trkpt lat="42.10267" lon="25.26242">
        <ele>164.836926</ele>
        <time>2022-03-02T11:51:35.914Z</time>
      </trkpt>
      <trkpt lat="42.10269" lon="25.26226">
        <ele>164.961469</ele>
        <time>2022-03-02T11:51:38.913Z</time>
      </trkpt>
      <trkpt lat="42.10271" lon="25.2621">
        <ele>165.087635</ele>
        <time>2022-03-02T11:51:41.918Z</time>
      </trkpt>
      <trkpt lat="42.10274" lon="25.26194">
        <ele>165.212659</ele>
        <time>2022-03-02T11:51:44.920Z</time>
      </trkpt>
      <trkpt lat="42.10276" lon="25.26178">
        <ele>165.33853</ele>
        <time>2022-03-02T11:51:47.924Z</time>
      </trkpt>
      <trkpt lat="42.10278" lon="25.26162">
        <ele>165.464764</ele>
        <time>2022-03-02T11:51:50.914Z</time>
      </trkpt>
      <trkpt lat="42.1028" lon="25.26146">
        <ele>165.64046</ele>
        <time>2022-03-02T11:51:53.920Z</time>
      </trkpt>
      <trkpt lat="42.10282" lon="25.26131">
        <ele>165.840878</ele>
        <time>2022-03-02T11:51:56.903Z</time>
      </trkpt>
      <trkpt lat="42.10285" lon="25.26115">
        <ele>166.038529</ele>
        <time>2022-03-02T11:51:59.913Z</time>
      </trkpt>
      <trkpt lat="42.10287" lon="25.26098">
        <ele>166.253373</ele>
        <time>2022-03-02T11:52:02.929Z</time>
      </trkpt>
      <trkpt lat="42.1029" lon="25.26083">
        <ele>166.44759</ele>
        <time>2022-03-02T11:52:05.916Z</time>
      </trkpt>
      <trkpt lat="42.10292" lon="25.26068">
        <ele>166.642461</ele>
        <time>2022-03-02T11:52:08.921Z</time>
      </trkpt>
      <trkpt lat="42.10294" lon="25.26053">
        <ele>166.832424</ele>
        <time>2022-03-02T11:52:11.925Z</time>
      </trkpt>
      <trkpt lat="42.10296" lon="25.26038">
        <ele>167.019298</ele>
        <time>2022-03-02T11:52:14.918Z</time>
      </trkpt>
      <trkpt lat="42.10298" lon="25.26023">
        <ele>167.217941</ele>
        <time>2022-03-02T11:52:17.946Z</time>
      </trkpt>
      <trkpt lat="42.103" lon="25.26007">
        <ele>167.416849</ele>
        <time>2022-03-02T11:52:20.916Z</time>
      </trkpt>
      <trkpt lat="42.10302" lon="25.25992">
        <ele>167.60649</ele>
        <time>2022-03-02T11:52:23.920Z</time>
      </trkpt>
      <trkpt lat="42.10304" lon="25.25977">
        <ele>167.798362</ele>
        <time>2022-03-02T11:52:26.916Z</time>
      </trkpt>
      <trkpt lat="42.10305" lon="25.25962">
        <ele>167.984862</ele>
        <time>2022-03-02T11:52:29.904Z</time>
      </trkpt>
      <trkpt lat="42.10305" lon="25.25947">
        <ele>168.171293</ele>
        <time>2022-03-02T11:52:32.932Z</time>
      </trkpt>
      <trkpt lat="42.10306" lon="25.25934">
        <ele>168.341648</ele>
        <time>2022-03-02T11:52:35.918Z</time>
      </trkpt>
      <trkpt lat="42.10306" lon="25.2592">
        <ele>168.510586</ele>
        <time>2022-03-02T11:52:38.927Z</time>
      </trkpt>
      <trkpt lat="42.10305" lon="25.25907">
        <ele>168.696081</ele>
        <time>2022-03-02T11:52:41.930Z</time>
      </trkpt>
      <trkpt lat="42.10304" lon="25.25893">
        <ele>168.902614</ele>
        <time>2022-03-02T11:52:44.947Z</time>
      </trkpt>
      <trkpt lat="42.10303" lon="25.25881">
        <ele>169.087151</ele>
        <time>2022-03-02T11:52:47.928Z</time>
      </trkpt>
      <trkpt lat="42.10301" lon="25.25867">
        <ele>169.29193</ele>
        <time>2022-03-02T11:52:50.906Z</time>
      </trkpt>
      <trkpt lat="42.10299" lon="25.25853">
        <ele>169.506382</ele>
        <time>2022-03-02T11:52:53.929Z</time>
      </trkpt>
      <trkpt lat="42.10297" lon="25.25838">
        <ele>169.731867</ele>
        <time>2022-03-02T11:52:56.904Z</time>
      </trkpt>
      <trkpt lat="42.10294" lon="25.25822">
        <ele>169.966353</ele>
        <time>2022-03-02T11:52:59.934Z</time>
      </trkpt>
      <trkpt lat="42.10291" lon="25.25806">
        <ele>170.205091</ele>
        <time>2022-03-02T11:53:02.906Z</time>
      </trkpt>
      <trkpt lat="42.10288" lon="25.2579">
        <ele>170.44619</ele>
        <time>2022-03-02T11:53:05.920Z</time>
      </trkpt>
      <trkpt lat="42.10285" lon="25.25775">
        <ele>170.68401</ele>
        <time>2022-03-02T11:53:08.901Z</time>
      </trkpt>
      <trkpt lat="42.10281" lon="25.25759">
        <ele>170.915842</ele>
        <time>2022-03-02T11:53:11.918Z</time>
      </trkpt>
      <trkpt lat="42.10278" lon="25.25744">
        <ele>171.149945</ele>
        <time>2022-03-02T11:53:14.927Z</time>
      </trkpt>
      <trkpt lat="42.10274" lon="25.25729">
        <ele>171.38676</ele>
        <time>2022-03-02T11:53:17.951Z</time>
      </trkpt>
      <trkpt lat="42.1027" lon="25.25713">
        <ele>171.635299</ele>
        <time>2022-03-02T11:53:20.939Z</time>
      </trkpt>
      <trkpt lat="42.10267" lon="25.25698">
        <ele>171.860116</ele>
        <time>2022-03-02T11:53:23.912Z</time>
      </trkpt>
      <trkpt lat="42.10263" lon="25.25682">
        <ele>172.05746</ele>
        <time>2022-03-02T11:53:26.926Z</time>
      </trkpt>
      <trkpt lat="42.10259" lon="25.25666">
        <ele>171.870909</ele>
        <time>2022-03-02T11:53:29.920Z</time>
      </trkpt>
      <trkpt lat="42.10255" lon="25.25652">
        <ele>171.702942</ele>
        <time>2022-03-02T11:53:32.921Z</time>
      </trkpt>
      <trkpt lat="42.10252" lon="25.25637">
        <ele>171.53557</ele>
        <time>2022-03-02T11:53:35.908Z</time>
      </trkpt>
      <trkpt lat="42.10248" lon="25.25622">
        <ele>171.356802</ele>
        <time>2022-03-02T11:53:38.929Z</time>
      </trkpt>
      <trkpt lat="42.10245" lon="25.25607">
        <ele>171.1838</ele>
        <time>2022-03-02T11:53:41.917Z</time>
      </trkpt>
      <trkpt lat="42.10242" lon="25.25592">
        <ele>171.009465</ele>
        <time>2022-03-02T11:53:44.917Z</time>
      </trkpt>
      <trkpt lat="42.10238" lon="25.25576">
        <ele>170.824849</ele>
        <time>2022-03-02T11:53:47.911Z</time>
      </trkpt>
      <trkpt lat="42.10234" lon="25.25561">
        <ele>170.642926</ele>
        <time>2022-03-02T11:53:50.952Z</time>
      </trkpt>
      <trkpt lat="42.10231" lon="25.25546">
        <ele>170.471777</ele>
        <time>2022-03-02T11:53:53.908Z</time>
      </trkpt>
      <trkpt lat="42.10227" lon="25.25532">
        <ele>170.306586</ele>
        <time>2022-03-02T11:53:56.915Z</time>
      </trkpt>
      <trkpt lat="42.10224" lon="25.25518">
        <ele>170.144345</ele>
        <time>2022-03-02T11:53:59.918Z</time>
      </trkpt>
      <trkpt lat="42.10221" lon="25.25504">
        <ele>169.977886</ele>
        <time>2022-03-02T11:54:02.918Z</time>
      </trkpt>
      <trkpt lat="42.10218" lon="25.25489">
        <ele>169.807177</ele>
        <time>2022-03-02T11:54:05.935Z</time>
      </trkpt>
      <trkpt lat="42.10215" lon="25.25474">
        <ele>169.634175</ele>
        <time>2022-03-02T11:54:08.907Z</time>
      </trkpt>
      <trkpt lat="42.10212" lon="25.25459">
        <ele>169.459727</ele>
        <time>2022-03-02T11:54:11.916Z</time>
      </trkpt>
      <trkpt lat="42.10208" lon="25.25444">
        <ele>169.392392</ele>
        <time>2022-03-02T11:54:14.922Z</time>
      </trkpt>
      <trkpt lat="42.10205" lon="25.2543">
        <ele>169.406614</ele>
        <time>2022-03-02T11:54:17.920Z</time>
      </trkpt>
      <trkpt lat="42.10202" lon="25.25416">
        <ele>169.420262</ele>
        <time>2022-03-02T11:54:20.911Z</time>
      </trkpt>
      <trkpt lat="42.10199" lon="25.25402">
        <ele>169.43403</ele>
        <time>2022-03-02T11:54:23.963Z</time>
      </trkpt>
      <trkpt lat="42.10195" lon="25.25387">
        <ele>169.448049</ele>
        <time>2022-03-02T11:54:26.924Z</time>
      </trkpt>
      <trkpt lat="42.10192" lon="25.25373">
        <ele>169.462322</ele>
        <time>2022-03-02T11:54:29.908Z</time>
      </trkpt>
      <trkpt lat="42.10189" lon="25.25358">
        <ele>169.476756</ele>
        <time>2022-03-02T11:54:32.934Z</time>
      </trkpt>
      <trkpt lat="42.10186" lon="25.25343">
        <ele>169.491586</ele>
        <time>2022-03-02T11:54:35.933Z</time>
      </trkpt>
      <trkpt lat="42.10182" lon="25.25329">
        <ele>169.505552</ele>
        <time>2022-03-02T11:54:38.932Z</time>
      </trkpt>
      <trkpt lat="42.1018" lon="25.25314">
        <ele>169.519615</ele>
        <time>2022-03-02T11:54:41.925Z</time>
      </trkpt>
      <trkpt lat="42.10176" lon="25.253">
        <ele>169.533582</ele>
        <time>2022-03-02T11:54:44.909Z</time>
      </trkpt>
      <trkpt lat="42.10173" lon="25.25286">
        <ele>169.547295</ele>
        <time>2022-03-02T11:54:47.949Z</time>
      </trkpt>
      <trkpt lat="42.1017" lon="25.25273">
        <ele>169.560327</ele>
        <time>2022-03-02T11:54:50.909Z</time>
      </trkpt>
      <trkpt lat="42.10167" lon="25.25259">
        <ele>169.57404</ele>
        <time>2022-03-02T11:54:53.922Z</time>
      </trkpt>
      <trkpt lat="42.10165" lon="25.25245">
        <ele>169.587617</ele>
        <time>2022-03-02T11:54:56.924Z</time>
      </trkpt>
      <trkpt lat="42.10161" lon="25.25231">
        <ele>169.601525</ele>
        <time>2022-03-02T11:54:59.910Z</time>
      </trkpt>
      <trkpt lat="42.10158" lon="25.25216">
        <ele>169.624468</ele>
        <time>2022-03-02T11:55:02.953Z</time>
      </trkpt>
      <trkpt lat="42.10155" lon="25.25202">
        <ele>169.669316</ele>
        <time>2022-03-02T11:55:05.914Z</time>
      </trkpt>
      <trkpt lat="42.10151" lon="25.25189">
        <ele>169.713787</ele>
        <time>2022-03-02T11:55:08.919Z</time>
      </trkpt>
      <trkpt lat="42.10148" lon="25.25174">
        <ele>169.759577</ele>
        <time>2022-03-02T11:55:11.914Z</time>
      </trkpt>
      <trkpt lat="42.10144" lon="25.25161">
        <ele>169.804189</ele>
        <time>2022-03-02T11:55:14.914Z</time>
      </trkpt>
      <trkpt lat="42.10141" lon="25.25147">
        <ele>169.847543</ele>
        <time>2022-03-02T11:55:17.930Z</time>
      </trkpt>
      <trkpt lat="42.10138" lon="25.25134">
        <ele>169.889645</ele>
        <time>2022-03-02T11:55:20.937Z</time>
      </trkpt>
      <trkpt lat="42.10135" lon="25.25121">
        <ele>169.932112</ele>
        <time>2022-03-02T11:55:23.938Z</time>
      </trkpt>
      <trkpt lat="42.10132" lon="25.25108">
        <ele>169.974805</ele>
        <time>2022-03-02T11:55:26.918Z</time>
      </trkpt>
      <trkpt lat="42.10129" lon="25.25094">
        <ele>170.018266</ele>
        <time>2022-03-02T11:55:29.911Z</time>
      </trkpt>
      <trkpt lat="42.10126" lon="25.25081">
        <ele>170.061327</ele>
        <time>2022-03-02T11:55:32.926Z</time>
      </trkpt>
      <trkpt lat="42.10122" lon="25.25068">
        <ele>170.102926</ele>
        <time>2022-03-02T11:55:35.950Z</time>
      </trkpt>
      <trkpt lat="42.10119" lon="25.25055">
        <ele>170.145661</ele>
        <time>2022-03-02T11:55:38.914Z</time>
      </trkpt>
      <trkpt lat="42.10116" lon="25.25042">
        <ele>170.187976</ele>
        <time>2022-03-02T11:55:41.922Z</time>
      </trkpt>
      <trkpt lat="42.10112" lon="25.25031">
        <ele>170.226814</ele>
        <time>2022-03-02T11:55:44.925Z</time>
      </trkpt>
      <trkpt lat="42.1011" lon="25.25018">
        <ele>170.265594</ele>
        <time>2022-03-02T11:55:47.912Z</time>
      </trkpt>
      <trkpt lat="42.10108" lon="25.25005">
        <ele>170.30696</ele>
        <time>2022-03-02T11:55:50.921Z</time>
      </trkpt>
      <trkpt lat="42.10105" lon="25.24992">
        <ele>170.349772</ele>
        <time>2022-03-02T11:55:53.921Z</time>
      </trkpt>
      <trkpt lat="42.10103" lon="25.24979">
        <ele>170.414876</ele>
        <time>2022-03-02T11:55:56.925Z</time>
      </trkpt>
      <trkpt lat="42.10099" lon="25.24966">
        <ele>170.492009</ele>
        <time>2022-03-02T11:55:59.935Z</time>
      </trkpt>
      <trkpt lat="42.10096" lon="25.24953">
        <ele>170.570075</ele>
        <time>2022-03-02T11:56:02.919Z</time>
      </trkpt>
      <trkpt lat="42.10093" lon="25.24939">
        <ele>170.65135</ele>
        <time>2022-03-02T11:56:05.917Z</time>
      </trkpt>
      <trkpt lat="42.1009" lon="25.24925">
        <ele>170.73102</ele>
        <time>2022-03-02T11:56:08.918Z</time>
      </trkpt>
      <trkpt lat="42.10087" lon="25.24912">
        <ele>170.809727</ele>
        <time>2022-03-02T11:56:11.922Z</time>
      </trkpt>
      <trkpt lat="42.10084" lon="25.24898">
        <ele>170.890595</ele>
        <time>2022-03-02T11:56:14.933Z</time>
      </trkpt>
      <trkpt lat="42.1008" lon="25.24884">
        <ele>170.973589</ele>
        <time>2022-03-02T11:56:17.913Z</time>
      </trkpt>
      <trkpt lat="42.10077" lon="25.24869">
        <ele>171.059399</ele>
        <time>2022-03-02T11:56:20.913Z</time>
      </trkpt>
      <trkpt lat="42.10074" lon="25.24855">
        <ele>171.143027</ele>
        <time>2022-03-02T11:56:23.919Z</time>
      </trkpt>
      <trkpt lat="42.10071" lon="25.24841">
        <ele>171.225911</ele>
        <time>2022-03-02T11:56:26.926Z</time>
      </trkpt>
      <trkpt lat="42.10067" lon="25.24827">
        <ele>171.305797</ele>
        <time>2022-03-02T11:56:29.912Z</time>
      </trkpt>
      <trkpt lat="42.10064" lon="25.24814">
        <ele>171.381198</ele>
        <time>2022-03-02T11:56:32.937Z</time>
      </trkpt>
      <trkpt lat="42.10061" lon="25.24801">
        <ele>171.455004</ele>
        <time>2022-03-02T11:56:35.925Z</time>
      </trkpt>
      <trkpt lat="42.10058" lon="25.24787">
        <ele>171.535744</ele>
        <time>2022-03-02T11:56:38.938Z</time>
      </trkpt>
      <trkpt lat="42.10055" lon="25.24773">
        <ele>171.62056</ele>
        <time>2022-03-02T11:56:41.925Z</time>
      </trkpt>
      <trkpt lat="42.10052" lon="25.24759">
        <ele>171.69928</ele>
        <time>2022-03-02T11:56:44.923Z</time>
      </trkpt>
      <trkpt lat="42.10049" lon="25.24746">
        <ele>171.628215</ele>
        <time>2022-03-02T11:56:47.912Z</time>
      </trkpt>
      <trkpt lat="42.10046" lon="25.24731">
        <ele>171.525718</ele>
        <time>2022-03-02T11:56:50.934Z</time>
      </trkpt>
      <trkpt lat="42.10043" lon="25.24717">
        <ele>171.429781</ele>
        <time>2022-03-02T11:56:53.923Z</time>
      </trkpt>
      <trkpt lat="42.1004" lon="25.24704">
        <ele>171.337007</ele>
        <time>2022-03-02T11:56:56.922Z</time>
      </trkpt>
      <trkpt lat="42.10037" lon="25.2469">
        <ele>171.238244</ele>
        <time>2022-03-02T11:56:59.965Z</time>
      </trkpt>
      <trkpt lat="42.10033" lon="25.24676">
        <ele>171.136503</ele>
        <time>2022-03-02T11:57:02.923Z</time>
      </trkpt>
      <trkpt lat="42.1003" lon="25.24661">
        <ele>171.035921</ele>
        <time>2022-03-02T11:57:05.902Z</time>
      </trkpt>
      <trkpt lat="42.10026" lon="25.24647">
        <ele>170.935128</ele>
        <time>2022-03-02T11:57:08.931Z</time>
      </trkpt>
      <trkpt lat="42.10023" lon="25.24633">
        <ele>170.837644</ele>
        <time>2022-03-02T11:57:11.922Z</time>
      </trkpt>
      <trkpt lat="42.10019" lon="25.2462">
        <ele>170.742078</ele>
        <time>2022-03-02T11:57:14.955Z</time>
      </trkpt>
      <trkpt lat="42.10016" lon="25.24606">
        <ele>170.646141</ele>
        <time>2022-03-02T11:57:17.929Z</time>
      </trkpt>
      <trkpt lat="42.10013" lon="25.24592">
        <ele>170.551358</ele>
        <time>2022-03-02T11:57:20.896Z</time>
      </trkpt>
      <trkpt lat="42.1001" lon="25.24579">
        <ele>170.454939</ele>
        <time>2022-03-02T11:57:23.900Z</time>
      </trkpt>
      <trkpt lat="42.10006" lon="25.24564">
        <ele>170.353498</ele>
        <time>2022-03-02T11:57:26.929Z</time>
      </trkpt>
      <trkpt lat="42.10003" lon="25.24551">
        <ele>170.25638</ele>
        <time>2022-03-02T11:57:29.919Z</time>
      </trkpt>
      <trkpt lat="42.09999" lon="25.24537">
        <ele>170.159328</ele>
        <time>2022-03-02T11:57:32.914Z</time>
      </trkpt>
      <trkpt lat="42.09996" lon="25.24523">
        <ele>170.07521</ele>
        <time>2022-03-02T11:57:35.921Z</time>
      </trkpt>
      <trkpt lat="42.09993" lon="25.24509">
        <ele>170.033333</ele>
        <time>2022-03-02T11:57:38.950Z</time>
      </trkpt>
      <trkpt lat="42.0999" lon="25.24495">
        <ele>169.990128</ele>
        <time>2022-03-02T11:57:41.917Z</time>
      </trkpt>
      <trkpt lat="42.09987" lon="25.2448">
        <ele>169.945756</ele>
        <time>2022-03-02T11:57:44.927Z</time>
      </trkpt>
      <trkpt lat="42.09983" lon="25.24466">
        <ele>169.90308</ele>
        <time>2022-03-02T11:57:47.913Z</time>
      </trkpt>
      <trkpt lat="42.0998" lon="25.24453">
        <ele>169.860966</ele>
        <time>2022-03-02T11:57:50.927Z</time>
      </trkpt>
      <trkpt lat="42.09976" lon="25.24439">
        <ele>169.818813</ele>
        <time>2022-03-02T11:57:53.911Z</time>
      </trkpt>
      <trkpt lat="42.09973" lon="25.24425">
        <ele>169.778282</ele>
        <time>2022-03-02T11:57:56.920Z</time>
      </trkpt>
      <trkpt lat="42.0997" lon="25.24411">
        <ele>169.734131</ele>
        <time>2022-03-02T11:57:59.912Z</time>
      </trkpt>
      <trkpt lat="42.09967" lon="25.24396">
        <ele>169.689981</ele>
        <time>2022-03-02T11:58:02.926Z</time>
      </trkpt>
      <trkpt lat="42.09964" lon="25.24382">
        <ele>169.646881</ele>
        <time>2022-03-02T11:58:05.909Z</time>
      </trkpt>
      <trkpt lat="42.09961" lon="25.24368">
        <ele>169.605181</ele>
        <time>2022-03-02T11:58:08.926Z</time>
      </trkpt>
      <trkpt lat="42.09958" lon="25.24354">
        <ele>169.563182</ele>
        <time>2022-03-02T11:58:11.966Z</time>
      </trkpt>
      <trkpt lat="42.09955" lon="25.24341">
        <ele>169.520984</ele>
        <time>2022-03-02T11:58:14.922Z</time>
      </trkpt>
      <trkpt lat="42.09952" lon="25.24327">
        <ele>169.478507</ele>
        <time>2022-03-02T11:58:17.951Z</time>
      </trkpt>
      <trkpt lat="42.09949" lon="25.24313">
        <ele>169.438038</ele>
        <time>2022-03-02T11:58:20.913Z</time>
      </trkpt>
      <trkpt lat="42.09946" lon="25.24299">
        <ele>169.396788</ele>
        <time>2022-03-02T11:58:23.954Z</time>
      </trkpt>
      <trkpt lat="42.09944" lon="25.24286">
        <ele>169.681478</ele>
        <time>2022-03-02T11:58:26.937Z</time>
      </trkpt>
      <trkpt lat="42.09942" lon="25.24272">
        <ele>170.145266</ele>
        <time>2022-03-02T11:58:29.922Z</time>
      </trkpt>
      <trkpt lat="42.0994" lon="25.24257">
        <ele>170.623498</ele>
        <time>2022-03-02T11:58:32.901Z</time>
      </trkpt>
      <trkpt lat="42.09937" lon="25.24243">
        <ele>171.087586</ele>
        <time>2022-03-02T11:58:35.959Z</time>
      </trkpt>
      <trkpt lat="42.09935" lon="25.24229">
        <ele>171.558037</ele>
        <time>2022-03-02T11:58:38.927Z</time>
      </trkpt>
      <trkpt lat="42.09932" lon="25.24215">
        <ele>172.039986</ele>
        <time>2022-03-02T11:58:41.909Z</time>
      </trkpt>
      <trkpt lat="42.09929" lon="25.24202">
        <ele>172.469885</ele>
        <time>2022-03-02T11:58:44.906Z</time>
      </trkpt>
      <trkpt lat="42.09927" lon="25.24186">
        <ele>172.998627</ele>
        <time>2022-03-02T11:58:48.918Z</time>
      </trkpt>
      <trkpt lat="42.09925" lon="25.24173">
        <ele>173.435176</ele>
        <time>2022-03-02T11:58:51.916Z</time>
      </trkpt>
      <trkpt lat="42.09923" lon="25.2416">
        <ele>173.877397</ele>
        <time>2022-03-02T11:58:54.929Z</time>
      </trkpt>
      <trkpt lat="42.0992" lon="25.24146">
        <ele>174.355167</ele>
        <time>2022-03-02T11:58:57.917Z</time>
      </trkpt>
      <trkpt lat="42.09918" lon="25.24132">
        <ele>174.829758</ele>
        <time>2022-03-02T11:59:00.935Z</time>
      </trkpt>
      <trkpt lat="42.09916" lon="25.24117">
        <ele>175.307528</ele>
        <time>2022-03-02T11:59:03.920Z</time>
      </trkpt>
      <trkpt lat="42.09914" lon="25.24103">
        <ele>175.77853</ele>
        <time>2022-03-02T11:59:06.931Z</time>
      </trkpt>
      <trkpt lat="42.09911" lon="25.24088">
        <ele>176.26994</ele>
        <time>2022-03-02T11:59:09.962Z</time>
      </trkpt>
      <trkpt lat="42.09909" lon="25.24075">
        <ele>176.72122</ele>
        <time>2022-03-02T11:59:12.905Z</time>
      </trkpt>
      <trkpt lat="42.09907" lon="25.24062">
        <ele>177.144297</ele>
        <time>2022-03-02T11:59:15.929Z</time>
      </trkpt>
      <trkpt lat="42.09905" lon="25.24048">
        <ele>177.27357</ele>
        <time>2022-03-02T11:59:18.914Z</time>
      </trkpt>
      <trkpt lat="42.09903" lon="25.24034">
        <ele>177.261778</ele>
        <time>2022-03-02T11:59:21.974Z</time>
      </trkpt>
      <trkpt lat="42.09901" lon="25.24019">
        <ele>177.250278</ele>
        <time>2022-03-02T11:59:24.940Z</time>
      </trkpt>
      <trkpt lat="42.09898" lon="25.24006">
        <ele>177.239457</ele>
        <time>2022-03-02T11:59:27.922Z</time>
      </trkpt>
      <trkpt lat="42.09896" lon="25.23992">
        <ele>177.228122</ele>
        <time>2022-03-02T11:59:30.922Z</time>
      </trkpt>
      <trkpt lat="42.09894" lon="25.23978">
        <ele>177.216154</ele>
        <time>2022-03-02T11:59:33.928Z</time>
      </trkpt>
      <trkpt lat="42.09891" lon="25.23964">
        <ele>177.205326</ele>
        <time>2022-03-02T11:59:36.921Z</time>
      </trkpt>
      <trkpt lat="42.09888" lon="25.23952">
        <ele>177.19462</ele>
        <time>2022-03-02T11:59:39.902Z</time>
      </trkpt>
      <trkpt lat="42.09885" lon="25.23939">
        <ele>177.18403</ele>
        <time>2022-03-02T11:59:42.921Z</time>
      </trkpt>
      <trkpt lat="42.09883" lon="25.23925">
        <ele>177.17321</ele>
        <time>2022-03-02T11:59:45.921Z</time>
      </trkpt>
      <trkpt lat="42.09881" lon="25.23913">
        <ele>177.162852</ele>
        <time>2022-03-02T11:59:48.914Z</time>
      </trkpt>
      <trkpt lat="42.09879" lon="25.23899">
        <ele>177.151946</ele>
        <time>2022-03-02T11:59:51.923Z</time>
      </trkpt>
      <trkpt lat="42.09877" lon="25.23885">
        <ele>177.140659</ele>
        <time>2022-03-02T11:59:54.954Z</time>
      </trkpt>
      <trkpt lat="42.09874" lon="25.23871">
        <ele>177.129003</ele>
        <time>2022-03-02T11:59:57.922Z</time>
      </trkpt>
      <trkpt lat="42.09874" lon="25.23856">
        <ele>177.117008</ele>
        <time>2022-03-02T12:00:00.918Z</time>
      </trkpt>
      <trkpt lat="42.09874" lon="25.23842">
        <ele>177.105637</ele>
        <time>2022-03-02T12:00:03.924Z</time>
      </trkpt>
      <trkpt lat="42.09872" lon="25.23826">
        <ele>177.093201</ele>
        <time>2022-03-02T12:00:06.938Z</time>
      </trkpt>
      <trkpt lat="42.09869" lon="25.2381">
        <ele>177.205169</ele>
        <time>2022-03-02T12:00:09.921Z</time>
      </trkpt>
      <trkpt lat="42.09867" lon="25.23796">
        <ele>177.366173</ele>
        <time>2022-03-02T12:00:12.929Z</time>
      </trkpt>
      <trkpt lat="42.09865" lon="25.23782">
        <ele>177.518062</ele>
        <time>2022-03-02T12:00:15.945Z</time>
      </trkpt>
      <trkpt lat="42.09863" lon="25.23769">
        <ele>177.651771</ele>
        <time>2022-03-02T12:00:18.933Z</time>
      </trkpt>
      <trkpt lat="42.09862" lon="25.23757">
        <ele>177.78261</ele>
        <time>2022-03-02T12:00:21.951Z</time>
      </trkpt>
      <trkpt lat="42.0986" lon="25.23745">
        <ele>177.918946</ele>
        <time>2022-03-02T12:00:24.933Z</time>
      </trkpt>
      <trkpt lat="42.09857" lon="25.23732">
        <ele>178.057959</ele>
        <time>2022-03-02T12:00:27.943Z</time>
      </trkpt>
      <trkpt lat="42.09854" lon="25.23718">
        <ele>178.2193</ele>
        <time>2022-03-02T12:00:30.918Z</time>
      </trkpt>
      <trkpt lat="42.09851" lon="25.23703">
        <ele>178.384307</ele>
        <time>2022-03-02T12:00:33.914Z</time>
      </trkpt>
      <trkpt lat="42.09849" lon="25.23689">
        <ele>178.537976</ele>
        <time>2022-03-02T12:00:36.919Z</time>
      </trkpt>
      <trkpt lat="42.09847" lon="25.23674">
        <ele>178.695074</ele>
        <time>2022-03-02T12:00:39.925Z</time>
      </trkpt>
      <trkpt lat="42.09844" lon="25.23661">
        <ele>178.841445</ele>
        <time>2022-03-02T12:00:42.949Z</time>
      </trkpt>
      <trkpt lat="42.09842" lon="25.23648">
        <ele>178.988134</ele>
        <time>2022-03-02T12:00:45.921Z</time>
      </trkpt>
      <trkpt lat="42.0984" lon="25.23634">
        <ele>179.135862</ele>
        <time>2022-03-02T12:00:48.928Z</time>
      </trkpt>
      <trkpt lat="42.09837" lon="25.23621">
        <ele>179.281259</ele>
        <time>2022-03-02T12:00:51.929Z</time>
      </trkpt>
      <trkpt lat="42.09835" lon="25.23608">
        <ele>179.421526</ele>
        <time>2022-03-02T12:00:54.951Z</time>
      </trkpt>
      <trkpt lat="42.09833" lon="25.23595">
        <ele>179.565464</ele>
        <time>2022-03-02T12:00:57.921Z</time>
      </trkpt>
      <trkpt lat="42.09831" lon="25.2358">
        <ele>179.776988</ele>
        <time>2022-03-02T12:01:00.962Z</time>
      </trkpt>
      <trkpt lat="42.09828" lon="25.23566">
        <ele>180.093122</ele>
        <time>2022-03-02T12:01:03.932Z</time>
      </trkpt>
      <trkpt lat="42.09826" lon="25.23553">
        <ele>180.385226</ele>
        <time>2022-03-02T12:01:06.904Z</time>
      </trkpt>
      <trkpt lat="42.09823" lon="25.23538">
        <ele>180.726584</ele>
        <time>2022-03-02T12:01:09.944Z</time>
      </trkpt>
      <trkpt lat="42.0982" lon="25.23522">
        <ele>181.082395</ele>
        <time>2022-03-02T12:01:12.928Z</time>
      </trkpt>
      <trkpt lat="42.09818" lon="25.23508">
        <ele>181.398326</ele>
        <time>2022-03-02T12:01:15.920Z</time>
      </trkpt>
      <trkpt lat="42.09816" lon="25.23495">
        <ele>181.692031</ele>
        <time>2022-03-02T12:01:18.915Z</time>
      </trkpt>
      <trkpt lat="42.09813" lon="25.23481">
        <ele>182.007856</ele>
        <time>2022-03-02T12:01:21.921Z</time>
      </trkpt>
      <trkpt lat="42.09811" lon="25.23467">
        <ele>182.329393</ele>
        <time>2022-03-02T12:01:24.925Z</time>
      </trkpt>
      <trkpt lat="42.09807" lon="25.23455">
        <ele>182.61562</ele>
        <time>2022-03-02T12:01:27.922Z</time>
      </trkpt>
      <trkpt lat="42.09805" lon="25.23442">
        <ele>182.906775</ele>
        <time>2022-03-02T12:01:30.910Z</time>
      </trkpt>
      <trkpt lat="42.09803" lon="25.23428">
        <ele>183.219945</ele>
        <time>2022-03-02T12:01:33.913Z</time>
      </trkpt>
      <trkpt lat="42.098" lon="25.23413">
        <ele>183.548523</ele>
        <time>2022-03-02T12:01:36.917Z</time>
      </trkpt>
      <trkpt lat="42.09799" lon="25.234">
        <ele>183.830427</ele>
        <time>2022-03-02T12:01:39.928Z</time>
      </trkpt>
      <trkpt lat="42.09797" lon="25.23388">
        <ele>184.098347</ele>
        <time>2022-03-02T12:01:42.914Z</time>
      </trkpt>
      <trkpt lat="42.09794" lon="25.23377">
        <ele>184.368576</ele>
        <time>2022-03-02T12:01:45.919Z</time>
      </trkpt>
      <trkpt lat="42.09791" lon="25.23363">
        <ele>184.679629</ele>
        <time>2022-03-02T12:01:48.913Z</time>
      </trkpt>
      <trkpt lat="42.09789" lon="25.23347">
        <ele>184.918567</ele>
        <time>2022-03-02T12:01:51.920Z</time>
      </trkpt>
      <trkpt lat="42.09786" lon="25.23331">
        <ele>184.562661</ele>
        <time>2022-03-02T12:01:54.928Z</time>
      </trkpt>
      <trkpt lat="42.09782" lon="25.23314">
        <ele>184.189206</ele>
        <time>2022-03-02T12:01:57.925Z</time>
      </trkpt>
      <trkpt lat="42.09779" lon="25.233">
        <ele>183.875414</ele>
        <time>2022-03-02T12:02:00.920Z</time>
      </trkpt>
      <trkpt lat="42.09777" lon="25.23285">
        <ele>183.559334</ele>
        <time>2022-03-02T12:02:03.921Z</time>
      </trkpt>
      <trkpt lat="42.09775" lon="25.23271">
        <ele>183.255883</ele>
        <time>2022-03-02T12:02:06.918Z</time>
      </trkpt>
      <trkpt lat="42.09773" lon="25.23258">
        <ele>182.971116</ele>
        <time>2022-03-02T12:02:09.940Z</time>
      </trkpt>
      <trkpt lat="42.09771" lon="25.23245">
        <ele>182.686348</ele>
        <time>2022-03-02T12:02:12.910Z</time>
      </trkpt>
      <trkpt lat="42.09769" lon="25.23232">
        <ele>182.395331</ele>
        <time>2022-03-02T12:02:15.922Z</time>
      </trkpt>
      <trkpt lat="42.09766" lon="25.23219">
        <ele>182.107831</ele>
        <time>2022-03-02T12:02:18.932Z</time>
      </trkpt>
      <trkpt lat="42.09764" lon="25.23206">
        <ele>181.820981</ele>
        <time>2022-03-02T12:02:21.923Z</time>
      </trkpt>
      <trkpt lat="42.09762" lon="25.23193">
        <ele>181.547295</ele>
        <time>2022-03-02T12:02:24.915Z</time>
      </trkpt>
      <trkpt lat="42.0976" lon="25.2318">
        <ele>181.26166</ele>
        <time>2022-03-02T12:02:27.935Z</time>
      </trkpt>
      <trkpt lat="42.09757" lon="25.23168">
        <ele>180.987234</ele>
        <time>2022-03-02T12:02:30.952Z</time>
      </trkpt>
      <trkpt lat="42.09753" lon="25.23154">
        <ele>180.673475</ele>
        <time>2022-03-02T12:02:33.920Z</time>
      </trkpt>
      <trkpt lat="42.09748" lon="25.23141">
        <ele>180.349908</ele>
        <time>2022-03-02T12:02:36.938Z</time>
      </trkpt>
      <trkpt lat="42.09747" lon="25.23127">
        <ele>180.047387</ele>
        <time>2022-03-02T12:02:39.923Z</time>
      </trkpt>
      <trkpt lat="42.09745" lon="25.23114">
        <ele>179.8074</ele>
        <time>2022-03-02T12:02:42.960Z</time>
      </trkpt>
      <trkpt lat="42.09742" lon="25.23101">
        <ele>179.872958</ele>
        <time>2022-03-02T12:02:45.925Z</time>
      </trkpt>
      <trkpt lat="42.0974" lon="25.23087">
        <ele>179.940104</ele>
        <time>2022-03-02T12:02:48.924Z</time>
      </trkpt>
      <trkpt lat="42.09738" lon="25.23074">
        <ele>180.003138</ele>
        <time>2022-03-02T12:02:51.972Z</time>
      </trkpt>
      <trkpt lat="42.09736" lon="25.23061">
        <ele>180.064555</ele>
        <time>2022-03-02T12:02:54.921Z</time>
      </trkpt>
      <trkpt lat="42.09734" lon="25.23047">
        <ele>180.133508</ele>
        <time>2022-03-02T12:02:57.924Z</time>
      </trkpt>
      <trkpt lat="42.09732" lon="25.23033">
        <ele>180.204519</ele>
        <time>2022-03-02T12:03:00.917Z</time>
      </trkpt>
      <trkpt lat="42.0973" lon="25.23018">
        <ele>180.27447</ele>
        <time>2022-03-02T12:03:03.914Z</time>
      </trkpt>
      <trkpt lat="42.09728" lon="25.23005">
        <ele>180.34086</ele>
        <time>2022-03-02T12:03:06.941Z</time>
      </trkpt>
      <trkpt lat="42.09726" lon="25.2299">
        <ele>180.41315</ele>
        <time>2022-03-02T12:03:09.909Z</time>
      </trkpt>
      <trkpt lat="42.09724" lon="25.22974">
        <ele>180.48861</ele>
        <time>2022-03-02T12:03:12.907Z</time>
      </trkpt>
      <trkpt lat="42.09721" lon="25.22958">
        <ele>180.566048</ele>
        <time>2022-03-02T12:03:15.908Z</time>
      </trkpt>
      <trkpt lat="42.09719" lon="25.22944">
        <ele>180.633662</ele>
        <time>2022-03-02T12:03:18.943Z</time>
      </trkpt>
      <trkpt lat="42.09717" lon="25.22932">
        <ele>180.694947</ele>
        <time>2022-03-02T12:03:21.929Z</time>
      </trkpt>
      <trkpt lat="42.09714" lon="25.22919">
        <ele>180.759385</ele>
        <time>2022-03-02T12:03:24.929Z</time>
      </trkpt>
      <trkpt lat="42.09711" lon="25.22905">
        <ele>180.830253</ele>
        <time>2022-03-02T12:03:27.926Z</time>
      </trkpt>
      <trkpt lat="42.09708" lon="25.22891">
        <ele>180.897657</ele>
        <time>2022-03-02T12:03:30.942Z</time>
      </trkpt>
      <trkpt lat="42.09706" lon="25.22877">
        <ele>180.962655</ele>
        <time>2022-03-02T12:03:33.917Z</time>
      </trkpt>
      <trkpt lat="42.09704" lon="25.22863">
        <ele>181.016413</ele>
        <time>2022-03-02T12:03:36.940Z</time>
      </trkpt>
      <trkpt lat="42.09702" lon="25.22847">
        <ele>181.073685</ele>
        <time>2022-03-02T12:03:39.925Z</time>
      </trkpt>
      <trkpt lat="42.09699" lon="25.22832">
        <ele>181.128203</ele>
        <time>2022-03-02T12:03:42.915Z</time>
      </trkpt>
      <trkpt lat="42.09697" lon="25.22818">
        <ele>181.181336</ele>
        <time>2022-03-02T12:03:45.946Z</time>
      </trkpt>
      <trkpt lat="42.09695" lon="25.22803">
        <ele>181.233589</ele>
        <time>2022-03-02T12:03:48.928Z</time>
      </trkpt>
      <trkpt lat="42.09693" lon="25.22789">
        <ele>181.284535</ele>
        <time>2022-03-02T12:03:51.920Z</time>
      </trkpt>
      <trkpt lat="42.09691" lon="25.22776">
        <ele>181.33443</ele>
        <time>2022-03-02T12:03:54.931Z</time>
      </trkpt>
      <trkpt lat="42.09688" lon="25.22762">
        <ele>181.386281</ele>
        <time>2022-03-02T12:03:57.924Z</time>
      </trkpt>
      <trkpt lat="42.09686" lon="25.22748">
        <ele>181.438012</ele>
        <time>2022-03-02T12:04:00.917Z</time>
      </trkpt>
      <trkpt lat="42.09683" lon="25.22735">
        <ele>181.486615</ele>
        <time>2022-03-02T12:04:03.934Z</time>
      </trkpt>
      <trkpt lat="42.09681" lon="25.22721">
        <ele>181.536615</ele>
        <time>2022-03-02T12:04:06.924Z</time>
      </trkpt>
      <trkpt lat="42.09678" lon="25.22707">
        <ele>181.58916</ele>
        <time>2022-03-02T12:04:09.921Z</time>
      </trkpt>
      <trkpt lat="42.09676" lon="25.22692">
        <ele>181.642284</ele>
        <time>2022-03-02T12:04:12.906Z</time>
      </trkpt>
      <trkpt lat="42.09673" lon="25.22677">
        <ele>181.700296</ele>
        <time>2022-03-02T12:04:16.911Z</time>
      </trkpt>
      <trkpt lat="42.09671" lon="25.22663">
        <ele>181.748939</ele>
        <time>2022-03-02T12:04:19.912Z</time>
      </trkpt>
      <trkpt lat="42.09669" lon="25.22649">
        <ele>181.800587</ele>
        <time>2022-03-02T12:04:22.902Z</time>
      </trkpt>
      <trkpt lat="42.09667" lon="25.22635">
        <ele>181.926441</ele>
        <time>2022-03-02T12:04:25.912Z</time>
      </trkpt>
      <trkpt lat="42.09664" lon="25.22622">
        <ele>182.126851</ele>
        <time>2022-03-02T12:04:28.933Z</time>
      </trkpt>
      <trkpt lat="42.09661" lon="25.22607">
        <ele>182.351411</ele>
        <time>2022-03-02T12:04:31.914Z</time>
      </trkpt>
      <trkpt lat="42.09658" lon="25.22593">
        <ele>182.570223</ele>
        <time>2022-03-02T12:04:34.904Z</time>
      </trkpt>
      <trkpt lat="42.09656" lon="25.2258">
        <ele>182.766388</ele>
        <time>2022-03-02T12:04:37.907Z</time>
      </trkpt>
      <trkpt lat="42.09654" lon="25.22567">
        <ele>182.952999</ele>
        <time>2022-03-02T12:04:40.901Z</time>
      </trkpt>
      <trkpt lat="42.09652" lon="25.22554">
        <ele>183.147322</ele>
        <time>2022-03-02T12:04:43.912Z</time>
      </trkpt>
      <trkpt lat="42.09649" lon="25.22541">
        <ele>183.354991</ele>
        <time>2022-03-02T12:04:46.905Z</time>
      </trkpt>
      <trkpt lat="42.09647" lon="25.22527">
        <ele>183.558726</ele>
        <time>2022-03-02T12:04:49.906Z</time>
      </trkpt>
      <trkpt lat="42.09645" lon="25.22514">
        <ele>183.755316</ele>
        <time>2022-03-02T12:04:52.915Z</time>
      </trkpt>
      <trkpt lat="42.09642" lon="25.22502">
        <ele>183.934081</ele>
        <time>2022-03-02T12:04:55.939Z</time>
      </trkpt>
      <trkpt lat="42.09639" lon="25.2249">
        <ele>184.126239</ele>
        <time>2022-03-02T12:04:58.913Z</time>
      </trkpt>
      <trkpt lat="42.09637" lon="25.22477">
        <ele>184.325559</ele>
        <time>2022-03-02T12:05:01.942Z</time>
      </trkpt>
      <trkpt lat="42.09635" lon="25.22462">
        <ele>184.546518</ele>
        <time>2022-03-02T12:05:04.922Z</time>
      </trkpt>
      <trkpt lat="42.09632" lon="25.22448">
        <ele>184.761573</ele>
        <time>2022-03-02T12:05:07.910Z</time>
      </trkpt>
      <trkpt lat="42.0963" lon="25.22432">
        <ele>184.996036</ele>
        <time>2022-03-02T12:05:10.918Z</time>
      </trkpt>
      <trkpt lat="42.09628" lon="25.22417">
        <ele>185.209812</ele>
        <time>2022-03-02T12:05:13.920Z</time>
      </trkpt>
      <trkpt lat="42.09626" lon="25.22404">
        <ele>185.355677</ele>
        <time>2022-03-02T12:05:16.908Z</time>
      </trkpt>
      <trkpt lat="42.09624" lon="25.22391">
        <ele>185.238518</ele>
        <time>2022-03-02T12:05:19.919Z</time>
      </trkpt>
      <trkpt lat="42.09621" lon="25.22377">
        <ele>185.10561</ele>
        <time>2022-03-02T12:05:22.943Z</time>
      </trkpt>
      <trkpt lat="42.09619" lon="25.22362">
        <ele>184.980743</ele>
        <time>2022-03-02T12:05:25.915Z</time>
      </trkpt>
      <trkpt lat="42.09617" lon="25.22348">
        <ele>184.850125</ele>
        <time>2022-03-02T12:05:28.939Z</time>
      </trkpt>
      <trkpt lat="42.09615" lon="25.22334">
        <ele>184.729026</ele>
        <time>2022-03-02T12:05:31.906Z</time>
      </trkpt>
      <trkpt lat="42.09614" lon="25.22321">
        <ele>184.615828</ele>
        <time>2022-03-02T12:05:34.900Z</time>
      </trkpt>
      <trkpt lat="42.09611" lon="25.22308">
        <ele>184.495267</ele>
        <time>2022-03-02T12:05:37.906Z</time>
      </trkpt>
      <trkpt lat="42.09607" lon="25.22294">
        <ele>184.371102</ele>
        <time>2022-03-02T12:05:40.908Z</time>
      </trkpt>
      <trkpt lat="42.09605" lon="25.22279">
        <ele>184.239193</ele>
        <time>2022-03-02T12:05:43.915Z</time>
      </trkpt>
      <trkpt lat="42.09603" lon="25.22264">
        <ele>184.107402</ele>
        <time>2022-03-02T12:05:46.907Z</time>
      </trkpt>
      <trkpt lat="42.09601" lon="25.22251">
        <ele>183.987243</ele>
        <time>2022-03-02T12:05:49.915Z</time>
      </trkpt>
      <trkpt lat="42.09598" lon="25.22236">
        <ele>183.855706</ele>
        <time>2022-03-02T12:05:52.911Z</time>
      </trkpt>
      <trkpt lat="42.09596" lon="25.22221">
        <ele>183.725339</ele>
        <time>2022-03-02T12:05:55.908Z</time>
      </trkpt>
      <trkpt lat="42.09594" lon="25.22207">
        <ele>183.597492</ele>
        <time>2022-03-02T12:05:58.910Z</time>
      </trkpt>
      <trkpt lat="42.09593" lon="25.22192">
        <ele>183.4718</ele>
        <time>2022-03-02T12:06:01.906Z</time>
      </trkpt>
      <trkpt lat="42.0959" lon="25.22177">
        <ele>183.336094</ele>
        <time>2022-03-02T12:06:04.937Z</time>
      </trkpt>
      <trkpt lat="42.09588" lon="25.22162">
        <ele>183.352093</ele>
        <time>2022-03-02T12:06:07.906Z</time>
      </trkpt>
      <trkpt lat="42.09585" lon="25.22147">
        <ele>183.510069</ele>
        <time>2022-03-02T12:06:10.908Z</time>
      </trkpt>
      <trkpt lat="42.09582" lon="25.22132">
        <ele>183.65881</ele>
        <time>2022-03-02T12:06:13.909Z</time>
      </trkpt>
      <trkpt lat="42.0958" lon="25.22119">
        <ele>183.796406</ele>
        <time>2022-03-02T12:06:16.896Z</time>
      </trkpt>
      <trkpt lat="42.09577" lon="25.22106">
        <ele>183.936686</ele>
        <time>2022-03-02T12:06:19.906Z</time>
      </trkpt>
      <trkpt lat="42.09574" lon="25.22092">
        <ele>184.087065</ele>
        <time>2022-03-02T12:06:22.919Z</time>
      </trkpt>
      <trkpt lat="42.09572" lon="25.22077">
        <ele>184.240222</ele>
        <time>2022-03-02T12:06:25.942Z</time>
      </trkpt>
      <trkpt lat="42.0957" lon="25.22062">
        <ele>184.397629</ele>
        <time>2022-03-02T12:06:28.921Z</time>
      </trkpt>
      <trkpt lat="42.09567" lon="25.22048">
        <ele>184.543741</ele>
        <time>2022-03-02T12:06:31.942Z</time>
      </trkpt>
      <trkpt lat="42.09565" lon="25.22034">
        <ele>184.682709</ele>
        <time>2022-03-02T12:06:34.907Z</time>
      </trkpt>
      <trkpt lat="42.09563" lon="25.22022">
        <ele>184.810434</ele>
        <time>2022-03-02T12:06:37.902Z</time>
      </trkpt>
      <trkpt lat="42.09561" lon="25.2201">
        <ele>184.934241</ele>
        <time>2022-03-02T12:06:40.908Z</time>
      </trkpt>
      <trkpt lat="42.09559" lon="25.21998">
        <ele>185.061723</ele>
        <time>2022-03-02T12:06:43.907Z</time>
      </trkpt>
      <trkpt lat="42.09558" lon="25.21984">
        <ele>185.206458</ele>
        <time>2022-03-02T12:06:46.972Z</time>
      </trkpt>
      <trkpt lat="42.09555" lon="25.21969">
        <ele>185.355224</ele>
        <time>2022-03-02T12:06:49.916Z</time>
      </trkpt>
      <trkpt lat="42.09553" lon="25.21955">
        <ele>185.500886</ele>
        <time>2022-03-02T12:06:52.948Z</time>
      </trkpt>
      <trkpt lat="42.09551" lon="25.21942">
        <ele>185.645026</ele>
        <time>2022-03-02T12:06:55.911Z</time>
      </trkpt>
      <trkpt lat="42.09548" lon="25.21928">
        <ele>185.780519</ele>
        <time>2022-03-02T12:06:58.938Z</time>
      </trkpt>
      <trkpt lat="42.09545" lon="25.21916">
        <ele>185.89902</ele>
        <time>2022-03-02T12:07:01.930Z</time>
      </trkpt>
      <trkpt lat="42.09546" lon="25.21903">
        <ele>186.022201</ele>
        <time>2022-03-02T12:07:06.937Z</time>
      </trkpt>
      <trkpt lat="42.09551" lon="25.21891">
        <ele>186.149488</ele>
        <time>2022-03-02T12:07:12.940Z</time>
      </trkpt>
      <trkpt lat="42.09548" lon="25.21879">
        <ele>186.268449</ele>
        <time>2022-03-02T12:07:16.955Z</time>
      </trkpt>
      <trkpt lat="42.09543" lon="25.21868">
        <ele>186.388779</ele>
        <time>2022-03-02T12:07:19.987Z</time>
      </trkpt>
      <trkpt lat="42.09538" lon="25.21857">
        <ele>186.509035</ele>
        <time>2022-03-02T12:07:22.924Z</time>
      </trkpt>
      <trkpt lat="42.09532" lon="25.21847">
        <ele>186.628443</ele>
        <time>2022-03-02T12:07:25.902Z</time>
      </trkpt>
      <trkpt lat="42.09526" lon="25.21837">
        <ele>186.750187</ele>
        <time>2022-03-02T12:07:28.922Z</time>
      </trkpt>
      <trkpt lat="42.0952" lon="25.21826">
        <ele>186.87489</ele>
        <time>2022-03-02T12:07:31.945Z</time>
      </trkpt>
      <trkpt lat="42.09513" lon="25.21815">
        <ele>187.006997</ele>
        <time>2022-03-02T12:07:34.958Z</time>
      </trkpt>
      <trkpt lat="42.09507" lon="25.21803">
        <ele>187.141339</ele>
        <time>2022-03-02T12:07:37.931Z</time>
      </trkpt>
      <trkpt lat="42.095" lon="25.21791">
        <ele>187.28836</ele>
        <time>2022-03-02T12:07:40.961Z</time>
      </trkpt>
      <trkpt lat="42.09493" lon="25.2178">
        <ele>187.41483</ele>
        <time>2022-03-02T12:07:43.913Z</time>
      </trkpt>
      <trkpt lat="42.09487" lon="25.21769">
        <ele>187.547678</ele>
        <time>2022-03-02T12:07:46.910Z</time>
      </trkpt>
      <trkpt lat="42.09479" lon="25.21756">
        <ele>187.706683</ele>
        <time>2022-03-02T12:07:49.927Z</time>
      </trkpt>
      <trkpt lat="42.09472" lon="25.21743">
        <ele>187.850821</ele>
        <time>2022-03-02T12:07:52.922Z</time>
      </trkpt>
      <trkpt lat="42.09465" lon="25.21732">
        <ele>187.982913</ele>
        <time>2022-03-02T12:07:55.931Z</time>
      </trkpt>
      <trkpt lat="42.09457" lon="25.21721">
        <ele>187.999624</ele>
        <time>2022-03-02T12:07:58.911Z</time>
      </trkpt>
      <trkpt lat="42.0945" lon="25.21709">
        <ele>188.016318</ele>
        <time>2022-03-02T12:08:01.921Z</time>
      </trkpt>
      <trkpt lat="42.09442" lon="25.21698">
        <ele>188.033675</ele>
        <time>2022-03-02T12:08:04.952Z</time>
      </trkpt>
      <trkpt lat="42.09433" lon="25.21687">
        <ele>188.051043</ele>
        <time>2022-03-02T12:08:07.925Z</time>
      </trkpt>
      <trkpt lat="42.09425" lon="25.21677">
        <ele>188.067065</ele>
        <time>2022-03-02T12:08:10.945Z</time>
      </trkpt>
      <trkpt lat="42.09418" lon="25.21667">
        <ele>188.082933</ele>
        <time>2022-03-02T12:08:13.912Z</time>
      </trkpt>
      <trkpt lat="42.09411" lon="25.21656">
        <ele>188.098394</ele>
        <time>2022-03-02T12:08:16.960Z</time>
      </trkpt>
      <trkpt lat="42.09404" lon="25.21645">
        <ele>188.115028</ele>
        <time>2022-03-02T12:08:19.927Z</time>
      </trkpt>
      <trkpt lat="42.09397" lon="25.21633">
        <ele>188.131671</ele>
        <time>2022-03-02T12:08:22.925Z</time>
      </trkpt>
      <trkpt lat="42.09389" lon="25.21621">
        <ele>188.149667</ele>
        <time>2022-03-02T12:08:25.932Z</time>
      </trkpt>
      <trkpt lat="42.09381" lon="25.2161">
        <ele>188.166548</ele>
        <time>2022-03-02T12:08:28.916Z</time>
      </trkpt>
      <trkpt lat="42.09374" lon="25.21599">
        <ele>188.182601</ele>
        <time>2022-03-02T12:08:31.941Z</time>
      </trkpt>
      <trkpt lat="42.09367" lon="25.21585">
        <ele>188.200302</ele>
        <time>2022-03-02T12:08:34.925Z</time>
      </trkpt>
      <trkpt lat="42.09361" lon="25.21572">
        <ele>188.217612</ele>
        <time>2022-03-02T12:08:37.916Z</time>
      </trkpt>
      <trkpt lat="42.09354" lon="25.2156">
        <ele>188.234148</ele>
        <time>2022-03-02T12:08:40.982Z</time>
      </trkpt>
      <trkpt lat="42.09347" lon="25.21548">
        <ele>188.200481</ele>
        <time>2022-03-02T12:08:43.905Z</time>
      </trkpt>
      <trkpt lat="42.09339" lon="25.21537">
        <ele>187.82293</ele>
        <time>2022-03-02T12:08:46.911Z</time>
      </trkpt>
      <trkpt lat="42.09331" lon="25.21526">
        <ele>187.457841</ele>
        <time>2022-03-02T12:08:49.960Z</time>
      </trkpt>
      <trkpt lat="42.09325" lon="25.21513">
        <ele>187.095092</ele>
        <time>2022-03-02T12:08:52.911Z</time>
      </trkpt>
      <trkpt lat="42.09318" lon="25.21502">
        <ele>186.741967</ele>
        <time>2022-03-02T12:08:55.905Z</time>
      </trkpt>
      <trkpt lat="42.09311" lon="25.2149">
        <ele>186.379185</ele>
        <time>2022-03-02T12:08:58.934Z</time>
      </trkpt>
      <trkpt lat="42.09304" lon="25.21478">
        <ele>186.006527</ele>
        <time>2022-03-02T12:09:01.978Z</time>
      </trkpt>
      <trkpt lat="42.09297" lon="25.21466">
        <ele>185.654688</ele>
        <time>2022-03-02T12:09:04.920Z</time>
      </trkpt>
      <trkpt lat="42.09294" lon="25.21453">
        <ele>185.319731</ele>
        <time>2022-03-02T12:09:07.914Z</time>
      </trkpt>
      <trkpt lat="42.09299" lon="25.21439">
        <ele>184.954898</ele>
        <time>2022-03-02T12:09:10.931Z</time>
      </trkpt>
      <trkpt lat="42.09305" lon="25.21428">
        <ele>184.610652</ele>
        <time>2022-03-02T12:09:13.980Z</time>
      </trkpt>
      <trkpt lat="42.09312" lon="25.21417">
        <ele>184.267123</ele>
        <time>2022-03-02T12:09:16.900Z</time>
      </trkpt>
      <trkpt lat="42.09317" lon="25.21404">
        <ele>183.917437</ele>
        <time>2022-03-02T12:09:19.922Z</time>
      </trkpt>
      <trkpt lat="42.09322" lon="25.21391">
        <ele>183.569238</ele>
        <time>2022-03-02T12:09:22.905Z</time>
      </trkpt>
      <trkpt lat="42.09327" lon="25.21378">
        <ele>183.203404</ele>
        <time>2022-03-02T12:09:25.926Z</time>
      </trkpt>
      <trkpt lat="42.09332" lon="25.21364">
        <ele>182.841226</ele>
        <time>2022-03-02T12:09:28.936Z</time>
      </trkpt>
      <trkpt lat="42.09336" lon="25.2135">
        <ele>182.476285</ele>
        <time>2022-03-02T12:09:31.933Z</time>
      </trkpt>
      <trkpt lat="42.09339" lon="25.21337">
        <ele>182.359405</ele>
        <time>2022-03-02T12:09:34.934Z</time>
      </trkpt>
      <trkpt lat="42.09342" lon="25.21324">
        <ele>182.283792</ele>
        <time>2022-03-02T12:09:37.925Z</time>
      </trkpt>
      <trkpt lat="42.09344" lon="25.2131">
        <ele>182.206161</ele>
        <time>2022-03-02T12:09:40.923Z</time>
      </trkpt>
      <trkpt lat="42.09345" lon="25.21294">
        <ele>182.119703</ele>
        <time>2022-03-02T12:09:43.912Z</time>
      </trkpt>
      <trkpt lat="42.09347" lon="25.21279">
        <ele>182.035624</ele>
        <time>2022-03-02T12:09:46.922Z</time>
      </trkpt>
      <trkpt lat="42.09347" lon="25.21263">
        <ele>181.947077</ele>
        <time>2022-03-02T12:09:49.936Z</time>
      </trkpt>
      <trkpt lat="42.09348" lon="25.21248">
        <ele>181.86473</ele>
        <time>2022-03-02T12:09:52.926Z</time>
      </trkpt>
      <trkpt lat="42.09349" lon="25.21235">
        <ele>181.789878</ele>
        <time>2022-03-02T12:09:55.924Z</time>
      </trkpt>
      <trkpt lat="42.0935" lon="25.21221">
        <ele>181.71036</ele>
        <time>2022-03-02T12:09:58.946Z</time>
      </trkpt>
      <trkpt lat="42.0935" lon="25.21206">
        <ele>181.627341</ele>
        <time>2022-03-02T12:10:01.923Z</time>
      </trkpt>
      <trkpt lat="42.09352" lon="25.2119">
        <ele>181.541063</ele>
        <time>2022-03-02T12:10:04.965Z</time>
      </trkpt>
      <trkpt lat="42.09353" lon="25.21175">
        <ele>181.456173</ele>
        <time>2022-03-02T12:10:07.940Z</time>
      </trkpt>
      <trkpt lat="42.09352" lon="25.2116">
        <ele>181.37373</ele>
        <time>2022-03-02T12:10:10.904Z</time>
      </trkpt>
      <trkpt lat="42.09352" lon="25.21145">
        <ele>181.290181</ele>
        <time>2022-03-02T12:10:13.941Z</time>
      </trkpt>
      <trkpt lat="42.09348" lon="25.2113">
        <ele>181.201765</ele>
        <time>2022-03-02T12:10:16.922Z</time>
      </trkpt>
      <trkpt lat="42.09342" lon="25.21116">
        <ele>181.112678</ele>
        <time>2022-03-02T12:10:19.970Z</time>
      </trkpt>
      <trkpt lat="42.09336" lon="25.21102">
        <ele>181.000908</ele>
        <time>2022-03-02T12:10:22.922Z</time>
      </trkpt>
      <trkpt lat="42.09328" lon="25.21092">
        <ele>180.879505</ele>
        <time>2022-03-02T12:10:25.914Z</time>
      </trkpt>
      <trkpt lat="42.09321" lon="25.21081">
        <ele>180.759771</ele>
        <time>2022-03-02T12:10:28.914Z</time>
      </trkpt>
      <trkpt lat="42.09314" lon="25.21069">
        <ele>180.636232</ele>
        <time>2022-03-02T12:10:31.924Z</time>
      </trkpt>
      <trkpt lat="42.09307" lon="25.21057">
        <ele>180.518462</ele>
        <time>2022-03-02T12:10:34.925Z</time>
      </trkpt>
      <trkpt lat="42.093" lon="25.21045">
        <ele>180.396932</ele>
        <time>2022-03-02T12:10:37.950Z</time>
      </trkpt>
      <trkpt lat="42.09292" lon="25.21033">
        <ele>180.271944</ele>
        <time>2022-03-02T12:10:40.901Z</time>
      </trkpt>
      <trkpt lat="42.09284" lon="25.21021">
        <ele>180.142081</ele>
        <time>2022-03-02T12:10:43.931Z</time>
      </trkpt>
      <trkpt lat="42.09277" lon="25.2101">
        <ele>180.021023</ele>
        <time>2022-03-02T12:10:46.903Z</time>
      </trkpt>
      <trkpt lat="42.0927" lon="25.20999">
        <ele>179.905231</ele>
        <time>2022-03-02T12:10:49.925Z</time>
      </trkpt>
      <trkpt lat="42.09263" lon="25.20988">
        <ele>179.79306</ele>
        <time>2022-03-02T12:10:52.928Z</time>
      </trkpt>
      <trkpt lat="42.09256" lon="25.20978">
        <ele>179.67815</ele>
        <time>2022-03-02T12:10:55.943Z</time>
      </trkpt>
      <trkpt lat="42.09249" lon="25.20967">
        <ele>179.563656</ele>
        <time>2022-03-02T12:10:58.929Z</time>
      </trkpt>
      <trkpt lat="42.09242" lon="25.20955">
        <ele>179.442589</ele>
        <time>2022-03-02T12:11:01.926Z</time>
      </trkpt>
      <trkpt lat="42.09234" lon="25.20944">
        <ele>179.318304</ele>
        <time>2022-03-02T12:11:04.913Z</time>
      </trkpt>
      <trkpt lat="42.09227" lon="25.20933">
        <ele>179.201632</ele>
        <time>2022-03-02T12:11:07.923Z</time>
      </trkpt>
      <trkpt lat="42.0922" lon="25.20922">
        <ele>179.266821</ele>
        <time>2022-03-02T12:11:10.918Z</time>
      </trkpt>
      <trkpt lat="42.09213" lon="25.2091">
        <ele>179.499197</ele>
        <time>2022-03-02T12:11:13.918Z</time>
      </trkpt>
      <trkpt lat="42.09206" lon="25.20897">
        <ele>179.742811</ele>
        <time>2022-03-02T12:11:16.959Z</time>
      </trkpt>
      <trkpt lat="42.09199" lon="25.20886">
        <ele>179.964511</ele>
        <time>2022-03-02T12:11:19.928Z</time>
      </trkpt>
      <trkpt lat="42.09192" lon="25.20876">
        <ele>180.176038</ele>
        <time>2022-03-02T12:11:22.917Z</time>
      </trkpt>
      <trkpt lat="42.09186" lon="25.20865">
        <ele>180.392839</ele>
        <time>2022-03-02T12:11:25.925Z</time>
      </trkpt>
      <trkpt lat="42.09179" lon="25.20854">
        <ele>180.625561</ele>
        <time>2022-03-02T12:11:28.929Z</time>
      </trkpt>
      <trkpt lat="42.09171" lon="25.20842">
        <ele>180.85963</ele>
        <time>2022-03-02T12:11:31.937Z</time>
      </trkpt>
      <trkpt lat="42.09164" lon="25.20831">
        <ele>181.09355</ele>
        <time>2022-03-02T12:11:34.921Z</time>
      </trkpt>
      <trkpt lat="42.09158" lon="25.20819">
        <ele>181.319669</ele>
        <time>2022-03-02T12:11:37.918Z</time>
      </trkpt>
      <trkpt lat="42.09151" lon="25.20808">
        <ele>181.54842</ele>
        <time>2022-03-02T12:11:40.949Z</time>
      </trkpt>
      <trkpt lat="42.09145" lon="25.20796">
        <ele>181.772043</ele>
        <time>2022-03-02T12:11:43.924Z</time>
      </trkpt>
      <trkpt lat="42.09138" lon="25.20785">
        <ele>182.003319</ele>
        <time>2022-03-02T12:11:46.918Z</time>
      </trkpt>
      <trkpt lat="42.09131" lon="25.20774">
        <ele>182.222308</ele>
        <time>2022-03-02T12:11:49.914Z</time>
      </trkpt>
      <trkpt lat="42.09124" lon="25.20763">
        <ele>182.447736</ele>
        <time>2022-03-02T12:11:52.926Z</time>
      </trkpt>
      <trkpt lat="42.09117" lon="25.20751">
        <ele>182.686491</ele>
        <time>2022-03-02T12:11:55.927Z</time>
      </trkpt>
      <trkpt lat="42.09109" lon="25.20741">
        <ele>182.908526</ele>
        <time>2022-03-02T12:11:58.946Z</time>
      </trkpt>
      <trkpt lat="42.09101" lon="25.20731">
        <ele>182.926646</ele>
        <time>2022-03-02T12:12:01.906Z</time>
      </trkpt>
      <trkpt lat="42.09095" lon="25.20718">
        <ele>182.939398</ele>
        <time>2022-03-02T12:12:04.915Z</time>
      </trkpt>
      <trkpt lat="42.09088" lon="25.20706">
        <ele>182.952478</ele>
        <time>2022-03-02T12:12:07.924Z</time>
      </trkpt>
      <trkpt lat="42.09081" lon="25.20693">
        <ele>182.965693</ele>
        <time>2022-03-02T12:12:10.927Z</time>
      </trkpt>
      <trkpt lat="42.09074" lon="25.20682">
        <ele>182.978165</ele>
        <time>2022-03-02T12:12:13.904Z</time>
      </trkpt>
      <trkpt lat="42.09067" lon="25.20671">
        <ele>182.990354</ele>
        <time>2022-03-02T12:12:16.926Z</time>
      </trkpt>
      <trkpt lat="42.0906" lon="25.2066">
        <ele>183.002711</ele>
        <time>2022-03-02T12:12:19.932Z</time>
      </trkpt>
      <trkpt lat="42.09053" lon="25.20649">
        <ele>183.014852</ele>
        <time>2022-03-02T12:12:22.906Z</time>
      </trkpt>
      <trkpt lat="42.09046" lon="25.20639">
        <ele>183.026654</ele>
        <time>2022-03-02T12:12:25.942Z</time>
      </trkpt>
      <trkpt lat="42.09039" lon="25.20629">
        <ele>183.03844</ele>
        <time>2022-03-02T12:12:28.964Z</time>
      </trkpt>
      <trkpt lat="42.09032" lon="25.20618">
        <ele>183.05015</ele>
        <time>2022-03-02T12:12:31.921Z</time>
      </trkpt>
      <trkpt lat="42.09026" lon="25.20608">
        <ele>183.061545</ele>
        <time>2022-03-02T12:12:34.925Z</time>
      </trkpt>
      <trkpt lat="42.0902" lon="25.20597">
        <ele>183.072998</ele>
        <time>2022-03-02T12:12:37.932Z</time>
      </trkpt>
      <trkpt lat="42.09013" lon="25.20587">
        <ele>183.08453</ele>
        <time>2022-03-02T12:12:40.914Z</time>
      </trkpt>
      <trkpt lat="42.09005" lon="25.20576">
        <ele>183.096868</ele>
        <time>2022-03-02T12:12:43.942Z</time>
      </trkpt>
      <trkpt lat="42.08999" lon="25.20566">
        <ele>183.10883</ele>
        <time>2022-03-02T12:12:46.930Z</time>
      </trkpt>
      <trkpt lat="42.08992" lon="25.20554">
        <ele>183.104816</ele>
        <time>2022-03-02T12:12:49.940Z</time>
      </trkpt>
      <trkpt lat="42.08986" lon="25.20543">
        <ele>183.007964</ele>
        <time>2022-03-02T12:12:52.918Z</time>
      </trkpt>
      <trkpt lat="42.08979" lon="25.20533">
        <ele>182.909205</ele>
        <time>2022-03-02T12:12:55.931Z</time>
      </trkpt>
      <trkpt lat="42.08972" lon="25.20523">
        <ele>182.812</ele>
        <time>2022-03-02T12:12:58.930Z</time>
      </trkpt>
      <trkpt lat="42.08965" lon="25.20513">
        <ele>182.713383</ele>
        <time>2022-03-02T12:13:01.952Z</time>
      </trkpt>
      <trkpt lat="42.08958" lon="25.20503">
        <ele>182.61005</ele>
        <time>2022-03-02T12:13:04.919Z</time>
      </trkpt>
      <trkpt lat="42.08951" lon="25.20491">
        <ele>182.503359</ele>
        <time>2022-03-02T12:13:07.933Z</time>
      </trkpt>
      <trkpt lat="42.08944" lon="25.20481">
        <ele>182.403166</ele>
        <time>2022-03-02T12:13:10.919Z</time>
      </trkpt>
      <trkpt lat="42.08937" lon="25.20469">
        <ele>182.298052</ele>
        <time>2022-03-02T12:13:13.944Z</time>
      </trkpt>
      <trkpt lat="42.0893" lon="25.20458">
        <ele>182.192564</ele>
        <time>2022-03-02T12:13:16.913Z</time>
      </trkpt>
      <trkpt lat="42.08923" lon="25.20446">
        <ele>182.085387</ele>
        <time>2022-03-02T12:13:19.907Z</time>
      </trkpt>
      <trkpt lat="42.08915" lon="25.20434">
        <ele>181.973035</ele>
        <time>2022-03-02T12:13:22.922Z</time>
      </trkpt>
      <trkpt lat="42.08908" lon="25.20423">
        <ele>181.863408</ele>
        <time>2022-03-02T12:13:25.934Z</time>
      </trkpt>
      <trkpt lat="42.08901" lon="25.20412">
        <ele>181.761858</ele>
        <time>2022-03-02T12:13:28.927Z</time>
      </trkpt>
      <trkpt lat="42.08895" lon="25.20401">
        <ele>181.662629</ele>
        <time>2022-03-02T12:13:31.919Z</time>
      </trkpt>
      <trkpt lat="42.08888" lon="25.2039">
        <ele>181.559765</ele>
        <time>2022-03-02T12:13:34.935Z</time>
      </trkpt>
      <trkpt lat="42.08881" lon="25.20379">
        <ele>181.455731</ele>
        <time>2022-03-02T12:13:37.921Z</time>
      </trkpt>
      <trkpt lat="42.08875" lon="25.20368">
        <ele>181.35785</ele>
        <time>2022-03-02T12:13:40.897Z</time>
      </trkpt>
      <trkpt lat="42.08868" lon="25.20357">
        <ele>181.253109</ele>
        <time>2022-03-02T12:13:43.930Z</time>
      </trkpt>
      <trkpt lat="42.08861" lon="25.20345">
        <ele>181.144706</ele>
        <time>2022-03-02T12:13:46.905Z</time>
      </trkpt>
      <trkpt lat="42.08854" lon="25.20334">
        <ele>181.038382</ele>
        <time>2022-03-02T12:13:49.915Z</time>
      </trkpt>
      <trkpt lat="42.08847" lon="25.20324">
        <ele>180.936819</ele>
        <time>2022-03-02T12:13:52.920Z</time>
      </trkpt>
      <trkpt lat="42.0884" lon="25.20313">
        <ele>180.831885</ele>
        <time>2022-03-02T12:13:55.919Z</time>
      </trkpt>
      <trkpt lat="42.08833" lon="25.20302">
        <ele>180.725293</ele>
        <time>2022-03-02T12:13:58.907Z</time>
      </trkpt>
      <trkpt lat="42.08825" lon="25.2029">
        <ele>180.616336</ele>
        <time>2022-03-02T12:14:01.940Z</time>
      </trkpt>
      <trkpt lat="42.08818" lon="25.20278">
        <ele>180.503092</ele>
        <time>2022-03-02T12:14:04.923Z</time>
      </trkpt>
      <trkpt lat="42.0881" lon="25.20267">
        <ele>180.395451</ele>
        <time>2022-03-02T12:14:07.922Z</time>
      </trkpt>
      <trkpt lat="42.08802" lon="25.20256">
        <ele>180.2825</ele>
        <time>2022-03-02T12:14:10.931Z</time>
      </trkpt>
      <trkpt lat="42.08795" lon="25.20245">
        <ele>180.172274</ele>
        <time>2022-03-02T12:14:13.922Z</time>
      </trkpt>
      <trkpt lat="42.08788" lon="25.20234">
        <ele>180.070168</ele>
        <time>2022-03-02T12:14:16.928Z</time>
      </trkpt>
      <trkpt lat="42.08781" lon="25.20224">
        <ele>179.970754</ele>
        <time>2022-03-02T12:14:19.920Z</time>
      </trkpt>
      <trkpt lat="42.08774" lon="25.20212">
        <ele>179.864838</ele>
        <time>2022-03-02T12:14:22.925Z</time>
      </trkpt>
      <trkpt lat="42.08768" lon="25.20203">
        <ele>179.772131</ele>
        <time>2022-03-02T12:14:25.903Z</time>
      </trkpt>
      <trkpt lat="42.08761" lon="25.20192">
        <ele>179.668727</ele>
        <time>2022-03-02T12:14:28.941Z</time>
      </trkpt>
      <trkpt lat="42.08755" lon="25.20182">
        <ele>179.782019</ele>
        <time>2022-03-02T12:14:31.929Z</time>
      </trkpt>
      <trkpt lat="42.08748" lon="25.20169">
        <ele>180.03865</ele>
        <time>2022-03-02T12:14:34.909Z</time>
      </trkpt>
      <trkpt lat="42.08741" lon="25.20158">
        <ele>180.29151</ele>
        <time>2022-03-02T12:14:37.922Z</time>
      </trkpt>
      <trkpt lat="42.08734" lon="25.20145">
        <ele>180.5441</ele>
        <time>2022-03-02T12:14:40.906Z</time>
      </trkpt>
      <trkpt lat="42.08728" lon="25.20133">
        <ele>180.799554</ele>
        <time>2022-03-02T12:14:43.919Z</time>
      </trkpt>
      <trkpt lat="42.08721" lon="25.20122">
        <ele>181.041541</ele>
        <time>2022-03-02T12:14:46.916Z</time>
      </trkpt>
      <trkpt lat="42.08714" lon="25.20111">
        <ele>181.28843</ele>
        <time>2022-03-02T12:14:49.910Z</time>
      </trkpt>
      <trkpt lat="42.08707" lon="25.201">
        <ele>181.529595</ele>
        <time>2022-03-02T12:14:52.912Z</time>
      </trkpt>
      <trkpt lat="42.087" lon="25.20089">
        <ele>181.75162</ele>
        <time>2022-03-02T12:14:55.920Z</time>
      </trkpt>
      <trkpt lat="42.08693" lon="25.20079">
        <ele>181.995443</ele>
        <time>2022-03-02T12:14:58.924Z</time>
      </trkpt>
      <trkpt lat="42.08686" lon="25.20068">
        <ele>182.234626</ele>
        <time>2022-03-02T12:15:01.913Z</time>
      </trkpt>
      <trkpt lat="42.08679" lon="25.20058">
        <ele>182.469046</ele>
        <time>2022-03-02T12:15:04.936Z</time>
      </trkpt>
      <trkpt lat="42.08672" lon="25.20047">
        <ele>182.712954</ele>
        <time>2022-03-02T12:15:07.958Z</time>
      </trkpt>
      <trkpt lat="42.08665" lon="25.20036">
        <ele>182.953541</ele>
        <time>2022-03-02T12:15:10.916Z</time>
      </trkpt>
      <trkpt lat="42.08659" lon="25.20025">
        <ele>183.184689</ele>
        <time>2022-03-02T12:15:13.928Z</time>
      </trkpt>
      <trkpt lat="42.08653" lon="25.20014">
        <ele>183.413095</ele>
        <time>2022-03-02T12:15:16.929Z</time>
      </trkpt>
      <trkpt lat="42.08647" lon="25.20003">
        <ele>183.644196</ele>
        <time>2022-03-02T12:15:19.926Z</time>
      </trkpt>
      <trkpt lat="42.0864" lon="25.19992">
        <ele>183.653709</ele>
        <time>2022-03-02T12:15:22.921Z</time>
      </trkpt>
      <trkpt lat="42.08634" lon="25.19981">
        <ele>183.612111</ele>
        <time>2022-03-02T12:15:25.912Z</time>
      </trkpt>
      <trkpt lat="42.08627" lon="25.19971">
        <ele>183.569806</ele>
        <time>2022-03-02T12:15:28.925Z</time>
      </trkpt>
      <trkpt lat="42.0862" lon="25.1996">
        <ele>183.526859</ele>
        <time>2022-03-02T12:15:31.940Z</time>
      </trkpt>
      <trkpt lat="42.08613" lon="25.19949">
        <ele>183.482741</ele>
        <time>2022-03-02T12:15:34.925Z</time>
      </trkpt>
      <trkpt lat="42.08606" lon="25.19939">
        <ele>183.439594</ele>
        <time>2022-03-02T12:15:37.941Z</time>
      </trkpt>
      <trkpt lat="42.08599" lon="25.19927">
        <ele>183.394945</ele>
        <time>2022-03-02T12:15:40.930Z</time>
      </trkpt>
      <trkpt lat="42.08592" lon="25.19917">
        <ele>183.350114</ele>
        <time>2022-03-02T12:15:43.919Z</time>
      </trkpt>
      <trkpt lat="42.08584" lon="25.19907">
        <ele>183.306751</ele>
        <time>2022-03-02T12:15:46.930Z</time>
      </trkpt>
      <trkpt lat="42.08577" lon="25.19897">
        <ele>183.26223</ele>
        <time>2022-03-02T12:15:49.929Z</time>
      </trkpt>
      <trkpt lat="42.08569" lon="25.19885">
        <ele>183.216036</ele>
        <time>2022-03-02T12:15:52.917Z</time>
      </trkpt>
      <trkpt lat="42.08563" lon="25.19874">
        <ele>183.172696</ele>
        <time>2022-03-02T12:15:55.928Z</time>
      </trkpt>
      <trkpt lat="42.08556" lon="25.19864">
        <ele>183.132409</ele>
        <time>2022-03-02T12:15:58.932Z</time>
      </trkpt>
      <trkpt lat="42.08549" lon="25.19855">
        <ele>183.091846</ele>
        <time>2022-03-02T12:16:01.910Z</time>
      </trkpt>
      <trkpt lat="42.08543" lon="25.19845">
        <ele>183.05055</ele>
        <time>2022-03-02T12:16:04.920Z</time>
      </trkpt>
      <trkpt lat="42.08537" lon="25.19835">
        <ele>183.010894</ele>
        <time>2022-03-02T12:16:07.925Z</time>
      </trkpt>
      <trkpt lat="42.08531" lon="25.19826">
        <ele>182.973392</ele>
        <time>2022-03-02T12:16:10.909Z</time>
      </trkpt>
      <trkpt lat="42.08523" lon="25.19815">
        <ele>183.067447</ele>
        <time>2022-03-02T12:16:14.938Z</time>
      </trkpt>
      <trkpt lat="42.08517" lon="25.19804">
        <ele>183.310716</ele>
        <time>2022-03-02T12:16:17.932Z</time>
      </trkpt>
      <trkpt lat="42.08511" lon="25.19794">
        <ele>183.548079</ele>
        <time>2022-03-02T12:16:20.923Z</time>
      </trkpt>
      <trkpt lat="42.08506" lon="25.19785">
        <ele>183.772184</ele>
        <time>2022-03-02T12:16:23.948Z</time>
      </trkpt>
      <trkpt lat="42.08498" lon="25.19773">
        <ele>184.065214</ele>
        <time>2022-03-02T12:16:27.937Z</time>
      </trkpt>
      <trkpt lat="42.08492" lon="25.19763">
        <ele>184.290876</ele>
        <time>2022-03-02T12:16:30.912Z</time>
      </trkpt>
      <trkpt lat="42.08485" lon="25.19751">
        <ele>184.579079</ele>
        <time>2022-03-02T12:16:35.000Z</time>
      </trkpt>
      <trkpt lat="42.08479" lon="25.19741">
        <ele>184.809077</ele>
        <time>2022-03-02T12:16:37.964Z</time>
      </trkpt>
      <trkpt lat="42.08473" lon="25.19731">
        <ele>185.046616</ele>
        <time>2022-03-02T12:16:40.905Z</time>
      </trkpt>
      <trkpt lat="42.08467" lon="25.19721">
        <ele>185.292933</ele>
        <time>2022-03-02T12:16:43.943Z</time>
      </trkpt>
      <trkpt lat="42.08461" lon="25.19711">
        <ele>185.521758</ele>
        <time>2022-03-02T12:16:46.929Z</time>
      </trkpt>
      <trkpt lat="42.08454" lon="25.19702">
        <ele>185.756797</ele>
        <time>2022-03-02T12:16:49.914Z</time>
      </trkpt>
      <trkpt lat="42.08448" lon="25.19692">
        <ele>186.006771</ele>
        <time>2022-03-02T12:16:53.014Z</time>
      </trkpt>
      <trkpt lat="42.08441" lon="25.19681">
        <ele>186.282121</ele>
        <time>2022-03-02T12:16:55.911Z</time>
      </trkpt>
      <trkpt lat="42.08433" lon="25.1967">
        <ele>186.550022</ele>
        <time>2022-03-02T12:16:58.930Z</time>
      </trkpt>
      <trkpt lat="42.08427" lon="25.1966">
        <ele>186.7948</ele>
        <time>2022-03-02T12:17:01.910Z</time>
      </trkpt>
      <trkpt lat="42.08419" lon="25.19653">
        <ele>187.020911</ele>
        <time>2022-03-02T12:17:04.913Z</time>
      </trkpt>
      <trkpt lat="42.08409" lon="25.19647">
        <ele>187.30708</ele>
        <time>2022-03-02T12:17:08.912Z</time>
      </trkpt>
      <trkpt lat="42.084" lon="25.19645">
        <ele>187.468566</ele>
        <time>2022-03-02T12:17:11.924Z</time>
      </trkpt>
      <trkpt lat="42.0839" lon="25.19643">
        <ele>187.562864</ele>
        <time>2022-03-02T12:17:14.928Z</time>
      </trkpt>
      <trkpt lat="42.0838" lon="25.1964">
        <ele>187.660932</ele>
        <time>2022-03-02T12:17:17.930Z</time>
      </trkpt>
      <trkpt lat="42.08371" lon="25.19637">
        <ele>187.756904</ele>
        <time>2022-03-02T12:17:20.906Z</time>
      </trkpt>
      <trkpt lat="42.08362" lon="25.19634">
        <ele>187.851329</ele>
        <time>2022-03-02T12:17:23.912Z</time>
      </trkpt>
      <trkpt lat="42.08352" lon="25.19631">
        <ele>187.946509</ele>
        <time>2022-03-02T12:17:26.902Z</time>
      </trkpt>
      <trkpt lat="42.08342" lon="25.19629">
        <ele>188.04297</ele>
        <time>2022-03-02T12:17:29.933Z</time>
      </trkpt>
      <trkpt lat="42.08331" lon="25.19627">
        <ele>188.150792</ele>
        <time>2022-03-02T12:17:33.910Z</time>
      </trkpt>
      <trkpt lat="42.08328" lon="25.19614">
        <ele>188.250891</ele>
        <time>2022-03-02T12:17:38.912Z</time>
      </trkpt>
      <trkpt lat="42.08329" lon="25.19602">
        <ele>188.340333</ele>
        <time>2022-03-02T12:17:41.921Z</time>
      </trkpt>
      <trkpt lat="42.08329" lon="25.19589">
        <ele>188.434519</ele>
        <time>2022-03-02T12:17:44.922Z</time>
      </trkpt>
      <trkpt lat="42.0833" lon="25.19574">
        <ele>188.545299</ele>
        <time>2022-03-02T12:17:48.992Z</time>
      </trkpt>
      <trkpt lat="42.08331" lon="25.19559">
        <ele>188.657312</ele>
        <time>2022-03-02T12:17:51.921Z</time>
      </trkpt>
      <trkpt lat="42.08332" lon="25.19545">
        <ele>188.760125</ele>
        <time>2022-03-02T12:17:54.932Z</time>
      </trkpt>
      <trkpt lat="42.08333" lon="25.19531">
        <ele>188.862525</ele>
        <time>2022-03-02T12:17:57.934Z</time>
      </trkpt>
      <trkpt lat="42.08334" lon="25.19518">
        <ele>188.958392</ele>
        <time>2022-03-02T12:18:00.921Z</time>
      </trkpt>
      <trkpt lat="42.08335" lon="25.19505">
        <ele>189.050239</ele>
        <time>2022-03-02T12:18:03.980Z</time>
      </trkpt>
      <trkpt lat="42.08337" lon="25.19493">
        <ele>189.142435</ele>
        <time>2022-03-02T12:18:06.924Z</time>
      </trkpt>
      <trkpt lat="42.08338" lon="25.19477">
        <ele>189.116993</ele>
        <time>2022-03-02T12:18:10.933Z</time>
      </trkpt>
      <trkpt lat="42.08337" lon="25.19463">
        <ele>188.998105</ele>
        <time>2022-03-02T12:18:14.970Z</time>
      </trkpt>
      <trkpt lat="42.08329" lon="25.19453">
        <ele>188.88147</ele>
        <time>2022-03-02T12:18:18.925Z</time>
      </trkpt>
      <trkpt lat="42.08319" lon="25.19452">
        <ele>188.774599</ele>
        <time>2022-03-02T12:18:21.906Z</time>
      </trkpt>
      <trkpt lat="42.0831" lon="25.1945">
        <ele>188.670477</ele>
        <time>2022-03-02T12:18:24.954Z</time>
      </trkpt>
      <trkpt lat="42.08298" lon="25.19446">
        <ele>188.544441</ele>
        <time>2022-03-02T12:18:28.931Z</time>
      </trkpt>
      <trkpt lat="42.08289" lon="25.19442">
        <ele>188.435309</ele>
        <time>2022-03-02T12:18:32.909Z</time>
      </trkpt>
      <trkpt lat="42.08278" lon="25.19438">
        <ele>188.313854</ele>
        <time>2022-03-02T12:18:36.980Z</time>
      </trkpt>
      <trkpt lat="42.08267" lon="25.19433">
        <ele>188.195521</ele>
        <time>2022-03-02T12:18:39.925Z</time>
      </trkpt>
      <trkpt lat="42.08257" lon="25.1943">
        <ele>188.083653</ele>
        <time>2022-03-02T12:18:42.907Z</time>
      </trkpt>
      <trkpt lat="42.08246" lon="25.19426">
        <ele>187.958575</ele>
        <time>2022-03-02T12:18:46.921Z</time>
      </trkpt>
      <trkpt lat="42.08236" lon="25.19423">
        <ele>187.851033</ele>
        <time>2022-03-02T12:18:50.952Z</time>
      </trkpt>
      <trkpt lat="42.08225" lon="25.19419">
        <ele>187.727083</ele>
        <time>2022-03-02T12:18:54.922Z</time>
      </trkpt>
      <trkpt lat="42.08214" lon="25.19416">
        <ele>187.605687</ele>
        <time>2022-03-02T12:18:58.938Z</time>
      </trkpt>
      <trkpt lat="42.08203" lon="25.19413">
        <ele>187.483561</ele>
        <time>2022-03-02T12:19:02.928Z</time>
      </trkpt>
      <trkpt lat="42.08192" lon="25.1941">
        <ele>187.362492</ele>
        <time>2022-03-02T12:19:06.940Z</time>
      </trkpt>
      <trkpt lat="42.08183" lon="25.19406">
        <ele>187.262017</ele>
        <time>2022-03-02T12:19:09.960Z</time>
      </trkpt>
      <trkpt lat="42.08174" lon="25.19403">
        <ele>187.362387</ele>
        <time>2022-03-02T12:19:12.925Z</time>
      </trkpt>
      <trkpt lat="42.08162" lon="25.19399">
        <ele>187.524797</ele>
        <time>2022-03-02T12:19:16.918Z</time>
      </trkpt>
      <trkpt lat="42.08153" lon="25.19396">
        <ele>187.647575</ele>
        <time>2022-03-02T12:19:19.922Z</time>
      </trkpt>
      <trkpt lat="42.08142" lon="25.19393">
        <ele>187.790982</ele>
        <time>2022-03-02T12:19:23.922Z</time>
      </trkpt>
      <trkpt lat="42.08133" lon="25.19391">
        <ele>187.914305</ele>
        <time>2022-03-02T12:19:26.917Z</time>
      </trkpt>
      <trkpt lat="42.08124" lon="25.19388">
        <ele>188.032639</ele>
        <time>2022-03-02T12:19:29.900Z</time>
      </trkpt>
      <trkpt lat="42.08113" lon="25.19385">
        <ele>188.182956</ele>
        <time>2022-03-02T12:19:33.906Z</time>
      </trkpt>
      <trkpt lat="42.08102" lon="25.1938">
        <ele>188.328903</ele>
        <time>2022-03-02T12:19:37.929Z</time>
      </trkpt>
      <trkpt lat="42.08092" lon="25.19375">
        <ele>188.477739</ele>
        <time>2022-03-02T12:19:41.925Z</time>
      </trkpt>
      <trkpt lat="42.08081" lon="25.19372">
        <ele>188.620607</ele>
        <time>2022-03-02T12:19:45.904Z</time>
      </trkpt>
      <trkpt lat="42.0807" lon="25.1937">
        <ele>188.766415</ele>
        <time>2022-03-02T12:19:49.978Z</time>
      </trkpt>
      <trkpt lat="42.08059" lon="25.19368">
        <ele>188.910714</ele>
        <time>2022-03-02T12:19:53.931Z</time>
      </trkpt>
      <trkpt lat="42.08048" lon="25.19362">
        <ele>189.065786</ele>
        <time>2022-03-02T12:19:57.979Z</time>
      </trkpt>
      <trkpt lat="42.0804" lon="25.19357">
        <ele>189.187667</ele>
        <time>2022-03-02T12:20:01.927Z</time>
      </trkpt>
      <trkpt lat="42.08039" lon="25.19342">
        <ele>189.33564</ele>
        <time>2022-03-02T12:20:05.896Z</time>
      </trkpt>
      <trkpt lat="42.08041" lon="25.19329">
        <ele>189.462246</ele>
        <time>2022-03-02T12:20:08.918Z</time>
      </trkpt>
      <trkpt lat="42.08043" lon="25.19315">
        <ele>189.606584</ele>
        <time>2022-03-02T12:20:12.938Z</time>
      </trkpt>
      <trkpt lat="42.08045" lon="25.193">
        <ele>189.871665</ele>
        <time>2022-03-02T12:20:16.947Z</time>
      </trkpt>
      <trkpt lat="42.08045" lon="25.19286">
        <ele>190.127783</ele>
        <time>2022-03-02T12:20:20.930Z</time>
      </trkpt>
      <trkpt lat="42.08045" lon="25.19273">
        <ele>190.378105</ele>
        <time>2022-03-02T12:20:24.942Z</time>
      </trkpt>
      <trkpt lat="42.08047" lon="25.1926">
        <ele>190.618635</ele>
        <time>2022-03-02T12:20:28.930Z</time>
      </trkpt>
      <trkpt lat="42.08048" lon="25.19247">
        <ele>190.856687</ele>
        <time>2022-03-02T12:20:31.917Z</time>
      </trkpt>
      <trkpt lat="42.08048" lon="25.19232">
        <ele>191.128862</ele>
        <time>2022-03-02T12:20:35.949Z</time>
      </trkpt>
      <trkpt lat="42.08049" lon="25.19219">
        <ele>191.355666</ele>
        <time>2022-03-02T12:20:38.953Z</time>
      </trkpt>
      <trkpt lat="42.08048" lon="25.19204">
        <ele>191.635274</ele>
        <time>2022-03-02T12:20:41.966Z</time>
      </trkpt>
      <trkpt lat="42.08048" lon="25.19192">
        <ele>191.858146</ele>
        <time>2022-03-02T12:20:44.941Z</time>
      </trkpt>
      <trkpt lat="42.08049" lon="25.19176">
        <ele>192.145404</ele>
        <time>2022-03-02T12:20:48.957Z</time>
      </trkpt>
      <trkpt lat="42.0805" lon="25.19163">
        <ele>192.380007</ele>
        <time>2022-03-02T12:20:51.940Z</time>
      </trkpt>
      <trkpt lat="42.08052" lon="25.1915">
        <ele>192.628717</ele>
        <time>2022-03-02T12:20:54.940Z</time>
      </trkpt>
      <trkpt lat="42.08054" lon="25.19135">
        <ele>192.913347</ele>
        <time>2022-03-02T12:20:58.931Z</time>
      </trkpt>
      <trkpt lat="42.08058" lon="25.19121">
        <ele>193.186697</ele>
        <time>2022-03-02T12:21:02.922Z</time>
      </trkpt>
      <trkpt lat="42.08062" lon="25.19109">
        <ele>193.420943</ele>
        <time>2022-03-02T12:21:05.944Z</time>
      </trkpt>
      <trkpt lat="42.08066" lon="25.19097">
        <ele>193.664533</ele>
        <time>2022-03-02T12:21:08.929Z</time>
      </trkpt>
      <trkpt lat="42.0807" lon="25.19085">
        <ele>193.910622</ele>
        <time>2022-03-02T12:21:11.929Z</time>
      </trkpt>
      <trkpt lat="42.08072" lon="25.19073">
        <ele>194.038329</ele>
        <time>2022-03-02T12:21:14.905Z</time>
      </trkpt>
      <trkpt lat="42.08071" lon="25.1906">
        <ele>194.038329</ele>
        <time>2022-03-02T12:21:17.957Z</time>
      </trkpt>
      <trkpt lat="42.08067" lon="25.19048">
        <ele>194.038329</ele>
        <time>2022-03-02T12:21:20.932Z</time>
      </trkpt>
      <trkpt lat="42.08062" lon="25.19038">
        <ele>194.038329</ele>
        <time>2022-03-02T12:21:23.976Z</time>
      </trkpt>
      <trkpt lat="42.08057" lon="25.19027">
        <ele>194.038329</ele>
        <time>2022-03-02T12:21:26.930Z</time>
      </trkpt>
      <trkpt lat="42.08052" lon="25.19017">
        <ele>194.038329</ele>
        <time>2022-03-02T12:21:29.919Z</time>
      </trkpt>
      <trkpt lat="42.08048" lon="25.19005">
        <ele>194.038329</ele>
        <time>2022-03-02T12:21:32.886Z</time>
      </trkpt>
      <trkpt lat="42.08044" lon="25.18994">
        <ele>194.038329</ele>
        <time>2022-03-02T12:21:35.976Z</time>
      </trkpt>
      <trkpt lat="42.08041" lon="25.1898">
        <ele>194.038329</ele>
        <time>2022-03-02T12:21:39.899Z</time>
      </trkpt>
      <trkpt lat="42.08039" lon="25.18967">
        <ele>194.038329</ele>
        <time>2022-03-02T12:21:43.918Z</time>
      </trkpt>
      <trkpt lat="42.08035" lon="25.18954">
        <ele>194.038329</ele>
        <time>2022-03-02T12:21:48.916Z</time>
      </trkpt>
      <trkpt lat="42.08028" lon="25.18943">
        <ele>194.038329</ele>
        <time>2022-03-02T12:21:53.960Z</time>
      </trkpt>
      <trkpt lat="42.08019" lon="25.18942">
        <ele>194.038329</ele>
        <time>2022-03-02T12:21:57.917Z</time>
      </trkpt>
      <trkpt lat="42.08011" lon="25.1895">
        <ele>194.038329</ele>
        <time>2022-03-02T12:22:02.925Z</time>
      </trkpt>
      <trkpt lat="42.08004" lon="25.18959">
        <ele>194.038329</ele>
        <time>2022-03-02T12:22:07.924Z</time>
      </trkpt>
      <trkpt lat="42.08009" lon="25.18967">
        <ele>194.038329</ele>
        <time>2022-03-02T12:23:26.092Z</time>
      </trkpt>
    </trkseg>
  </trk>
</gpx>